<?xml version="1.0" encoding="UTF-8" standalone="no" ?>
<gpx xmlns="http://www.topografix.com/GPX/1/1" xmlns:xsi="http://www.w3.org/2001/XMLSchema-instance" xsi:schemaLocation="http://www.topografix.com/GPX/1/1 http://www.topografix.com/GPX/1/1/gpx.xsd" version="1.1" creator="VisuGPX - https://www.visugpx.com">
  <metadata>
    <name>rando equestre du 5/11/2016</name>
    <desc><![CDATA[Sortie à partir de la Croix des Sergents sur la D7 en forêt de Saint-Gobain permettant de croiser Suzy et Cessières]]></desc>
  </metadata>
  <trk>
    <name><![CDATA[Le Bois Monsieur]]></name>
    <desc><![CDATA[]]></desc>
    <trkseg>
      <trkpt lat="49.57328" lon="3.45136">
        <ele>273.1</ele>
        <time>2016-11-05T08:26:55.592Z</time>
      </trkpt>
      <trkpt lat="49.57298" lon="3.45137">
        <ele>215.7</ele>
        <time>2016-11-05T08:27:10.000Z</time>
      </trkpt>
      <trkpt lat="49.57294" lon="3.45142">
        <ele>230.7</ele>
        <time>2016-11-05T08:27:46.000Z</time>
      </trkpt>
      <trkpt lat="49.57294" lon="3.45152">
        <ele>237.7</ele>
        <time>2016-11-05T08:27:47.000Z</time>
      </trkpt>
      <trkpt lat="49.57293" lon="3.45153">
        <ele>238.4</ele>
        <time>2016-11-05T08:27:49.000Z</time>
      </trkpt>
      <trkpt lat="49.57292" lon="3.45154">
        <ele>241.3</ele>
        <time>2016-11-05T08:27:50.000Z</time>
      </trkpt>
      <trkpt lat="49.57291" lon="3.45156">
        <ele>242.9</ele>
        <time>2016-11-05T08:27:58.000Z</time>
      </trkpt>
      <trkpt lat="49.57288" lon="3.45163">
        <ele>247.6</ele>
        <time>2016-11-05T08:27:59.000Z</time>
      </trkpt>
      <trkpt lat="49.57288" lon="3.45161">
        <ele>248.1</ele>
        <time>2016-11-05T08:28:00.000Z</time>
      </trkpt>
      <trkpt lat="49.57288" lon="3.45161">
        <ele>248.2</ele>
        <time>2016-11-05T08:28:01.000Z</time>
      </trkpt>
      <trkpt lat="49.57288" lon="3.4516">
        <ele>248.4</ele>
        <time>2016-11-05T08:28:06.000Z</time>
      </trkpt>
      <trkpt lat="49.57288" lon="3.45159">
        <ele>248.2</ele>
        <time>2016-11-05T08:28:07.000Z</time>
      </trkpt>
      <trkpt lat="49.57289" lon="3.45159">
        <ele>248.2</ele>
        <time>2016-11-05T08:28:44.000Z</time>
      </trkpt>
      <trkpt lat="49.57293" lon="3.45146">
        <ele>247.9</ele>
        <time>2016-11-05T08:28:45.000Z</time>
      </trkpt>
      <trkpt lat="49.57293" lon="3.45147">
        <ele>247.8</ele>
        <time>2016-11-05T08:28:47.000Z</time>
      </trkpt>
      <trkpt lat="49.57294" lon="3.45146">
        <ele>247.7</ele>
        <time>2016-11-05T08:28:48.000Z</time>
      </trkpt>
      <trkpt lat="49.57294" lon="3.45146">
        <ele>247.7</ele>
        <time>2016-11-05T08:28:53.000Z</time>
      </trkpt>
      <trkpt lat="49.57296" lon="3.45149">
        <ele>247.1</ele>
        <time>2016-11-05T08:28:54.000Z</time>
      </trkpt>
      <trkpt lat="49.57295" lon="3.45149">
        <ele>246.8</ele>
        <time>2016-11-05T08:28:57.000Z</time>
      </trkpt>
      <trkpt lat="49.57295" lon="3.45148">
        <ele>246.9</ele>
        <time>2016-11-05T08:28:58.000Z</time>
      </trkpt>
      <trkpt lat="49.57295" lon="3.45148">
        <ele>246.9</ele>
        <time>2016-11-05T08:29:09.000Z</time>
      </trkpt>
      <trkpt lat="49.57295" lon="3.45147">
        <ele>247.6</ele>
        <time>2016-11-05T08:29:10.000Z</time>
      </trkpt>
      <trkpt lat="49.57296" lon="3.45146">
        <ele>248</ele>
        <time>2016-11-05T08:29:13.000Z</time>
      </trkpt>
      <trkpt lat="49.57296" lon="3.45147">
        <ele>248.1</ele>
        <time>2016-11-05T08:29:14.000Z</time>
      </trkpt>
      <trkpt lat="49.57295" lon="3.45148">
        <ele>248.1</ele>
        <time>2016-11-05T08:29:21.000Z</time>
      </trkpt>
      <trkpt lat="49.57296" lon="3.4515">
        <ele>246.7</ele>
        <time>2016-11-05T08:29:22.000Z</time>
      </trkpt>
      <trkpt lat="49.57295" lon="3.45152">
        <ele>246.2</ele>
        <time>2016-11-05T08:29:25.000Z</time>
      </trkpt>
      <trkpt lat="49.57294" lon="3.45151">
        <ele>246.5</ele>
        <time>2016-11-05T08:29:26.000Z</time>
      </trkpt>
      <trkpt lat="49.57294" lon="3.4515">
        <ele>246.7</ele>
        <time>2016-11-05T08:29:48.000Z</time>
      </trkpt>
      <trkpt lat="49.57294" lon="3.45147">
        <ele>247.7</ele>
        <time>2016-11-05T08:29:49.000Z</time>
      </trkpt>
      <trkpt lat="49.57294" lon="3.45147">
        <ele>247.7</ele>
        <time>2016-11-05T08:29:52.000Z</time>
      </trkpt>
      <trkpt lat="49.57295" lon="3.45148">
        <ele>247.7</ele>
        <time>2016-11-05T08:29:53.000Z</time>
      </trkpt>
      <trkpt lat="49.57295" lon="3.45147">
        <ele>247.8</ele>
        <time>2016-11-05T08:30:03.000Z</time>
      </trkpt>
      <trkpt lat="49.57295" lon="3.45146">
        <ele>247.5</ele>
        <time>2016-11-05T08:30:04.000Z</time>
      </trkpt>
      <trkpt lat="49.57295" lon="3.45146">
        <ele>247.1</ele>
        <time>2016-11-05T08:30:09.000Z</time>
      </trkpt>
      <trkpt lat="49.57295" lon="3.45146">
        <ele>246.8</ele>
        <time>2016-11-05T08:30:10.000Z</time>
      </trkpt>
      <trkpt lat="49.57295" lon="3.45146">
        <ele>247.1</ele>
        <time>2016-11-05T08:30:11.000Z</time>
      </trkpt>
      <trkpt lat="49.57296" lon="3.45147">
        <ele>247.3</ele>
        <time>2016-11-05T08:30:17.000Z</time>
      </trkpt>
      <trkpt lat="49.57297" lon="3.45147">
        <ele>247.2</ele>
        <time>2016-11-05T08:30:18.000Z</time>
      </trkpt>
      <trkpt lat="49.57297" lon="3.45146">
        <ele>247</ele>
        <time>2016-11-05T08:30:19.000Z</time>
      </trkpt>
      <trkpt lat="49.57296" lon="3.45148">
        <ele>247.3</ele>
        <time>2016-11-05T08:30:38.000Z</time>
      </trkpt>
      <trkpt lat="49.57296" lon="3.45147">
        <ele>247.3</ele>
        <time>2016-11-05T08:30:39.000Z</time>
      </trkpt>
      <trkpt lat="49.57296" lon="3.45147">
        <ele>247.3</ele>
        <time>2016-11-05T08:30:55.000Z</time>
      </trkpt>
      <trkpt lat="49.57297" lon="3.4515">
        <ele>246.9</ele>
        <time>2016-11-05T08:30:56.000Z</time>
      </trkpt>
      <trkpt lat="49.57296" lon="3.4515">
        <ele>246.9</ele>
        <time>2016-11-05T08:30:58.000Z</time>
      </trkpt>
      <trkpt lat="49.57296" lon="3.4515">
        <ele>246.8</ele>
        <time>2016-11-05T08:30:59.000Z</time>
      </trkpt>
      <trkpt lat="49.57295" lon="3.4515">
        <ele>246.4</ele>
        <time>2016-11-05T08:31:17.000Z</time>
      </trkpt>
      <trkpt lat="49.57297" lon="3.45153">
        <ele>242.9</ele>
        <time>2016-11-05T08:31:18.000Z</time>
      </trkpt>
      <trkpt lat="49.57301" lon="3.45153">
        <ele>239.5</ele>
        <time>2016-11-05T08:31:28.000Z</time>
      </trkpt>
      <trkpt lat="49.573" lon="3.45152">
        <ele>238.7</ele>
        <time>2016-11-05T08:31:29.000Z</time>
      </trkpt>
      <trkpt lat="49.573" lon="3.45152">
        <ele>238.7</ele>
        <time>2016-11-05T08:31:30.000Z</time>
      </trkpt>
      <trkpt lat="49.573" lon="3.45152">
        <ele>238.7</ele>
        <time>2016-11-05T08:31:31.000Z</time>
      </trkpt>
      <trkpt lat="49.57302" lon="3.45152">
        <ele>238.3</ele>
        <time>2016-11-05T08:31:40.000Z</time>
      </trkpt>
      <trkpt lat="49.57302" lon="3.45151">
        <ele>238.2</ele>
        <time>2016-11-05T08:31:41.000Z</time>
      </trkpt>
      <trkpt lat="49.57302" lon="3.45151">
        <ele>238.2</ele>
        <time>2016-11-05T08:31:45.000Z</time>
      </trkpt>
      <trkpt lat="49.57302" lon="3.45152">
        <ele>237.9</ele>
        <time>2016-11-05T08:31:46.000Z</time>
      </trkpt>
      <trkpt lat="49.57306" lon="3.45149">
        <ele>232.2</ele>
        <time>2016-11-05T08:32:18.000Z</time>
      </trkpt>
      <trkpt lat="49.57305" lon="3.45149">
        <ele>232.2</ele>
        <time>2016-11-05T08:32:19.000Z</time>
      </trkpt>
      <trkpt lat="49.57306" lon="3.45147">
        <ele>232.2</ele>
        <time>2016-11-05T08:32:20.000Z</time>
      </trkpt>
      <trkpt lat="49.5731" lon="3.45139">
        <ele>232.3</ele>
        <time>2016-11-05T08:32:30.000Z</time>
      </trkpt>
      <trkpt lat="49.57309" lon="3.45139">
        <ele>232.3</ele>
        <time>2016-11-05T08:32:31.000Z</time>
      </trkpt>
      <trkpt lat="49.57309" lon="3.45138">
        <ele>232.2</ele>
        <time>2016-11-05T08:32:32.000Z</time>
      </trkpt>
      <trkpt lat="49.57307" lon="3.4514">
        <ele>232.3</ele>
        <time>2016-11-05T08:32:33.000Z</time>
      </trkpt>
      <trkpt lat="49.57306" lon="3.45141">
        <ele>232.4</ele>
        <time>2016-11-05T08:32:34.000Z</time>
      </trkpt>
      <trkpt lat="49.57305" lon="3.45141">
        <ele>232.6</ele>
        <time>2016-11-05T08:32:40.000Z</time>
      </trkpt>
      <trkpt lat="49.57296" lon="3.45156">
        <ele>232.9</ele>
        <time>2016-11-05T08:32:41.000Z</time>
      </trkpt>
      <trkpt lat="49.57296" lon="3.45157">
        <ele>233.1</ele>
        <time>2016-11-05T08:32:42.000Z</time>
      </trkpt>
      <trkpt lat="49.57296" lon="3.45156">
        <ele>233.2</ele>
        <time>2016-11-05T08:32:43.000Z</time>
      </trkpt>
      <trkpt lat="49.57295" lon="3.45155">
        <ele>233.3</ele>
        <time>2016-11-05T08:32:45.000Z</time>
      </trkpt>
      <trkpt lat="49.57293" lon="3.45159">
        <ele>233.6</ele>
        <time>2016-11-05T08:32:46.000Z</time>
      </trkpt>
      <trkpt lat="49.57291" lon="3.45163">
        <ele>233.9</ele>
        <time>2016-11-05T08:32:55.000Z</time>
      </trkpt>
      <trkpt lat="49.5729" lon="3.45164">
        <ele>234.4</ele>
        <time>2016-11-05T08:32:56.000Z</time>
      </trkpt>
      <trkpt lat="49.5729" lon="3.45166">
        <ele>234.8</ele>
        <time>2016-11-05T08:33:00.000Z</time>
      </trkpt>
      <trkpt lat="49.5729" lon="3.45167">
        <ele>234.8</ele>
        <time>2016-11-05T08:33:01.000Z</time>
      </trkpt>
      <trkpt lat="49.5729" lon="3.45167">
        <ele>234.9</ele>
        <time>2016-11-05T08:33:05.000Z</time>
      </trkpt>
      <trkpt lat="49.57291" lon="3.45165">
        <ele>234.7</ele>
        <time>2016-11-05T08:33:06.000Z</time>
      </trkpt>
      <trkpt lat="49.5729" lon="3.45162">
        <ele>234.7</ele>
        <time>2016-11-05T08:33:07.000Z</time>
      </trkpt>
      <trkpt lat="49.57289" lon="3.45161">
        <ele>235</ele>
        <time>2016-11-05T08:33:08.000Z</time>
      </trkpt>
      <trkpt lat="49.57288" lon="3.4516">
        <ele>235.4</ele>
        <time>2016-11-05T08:33:16.000Z</time>
      </trkpt>
      <trkpt lat="49.57285" lon="3.45156">
        <ele>236.1</ele>
        <time>2016-11-05T08:33:17.000Z</time>
      </trkpt>
      <trkpt lat="49.57288" lon="3.45143">
        <ele>238.7</ele>
        <time>2016-11-05T08:33:29.000Z</time>
      </trkpt>
      <trkpt lat="49.57289" lon="3.45142">
        <ele>238.6</ele>
        <time>2016-11-05T08:33:30.000Z</time>
      </trkpt>
      <trkpt lat="49.57293" lon="3.45138">
        <ele>238.4</ele>
        <time>2016-11-05T08:33:38.000Z</time>
      </trkpt>
      <trkpt lat="49.57293" lon="3.45137">
        <ele>238.2</ele>
        <time>2016-11-05T08:33:39.000Z</time>
      </trkpt>
      <trkpt lat="49.57294" lon="3.45136">
        <ele>238.2</ele>
        <time>2016-11-05T08:33:55.000Z</time>
      </trkpt>
      <trkpt lat="49.57297" lon="3.45133">
        <ele>238.6</ele>
        <time>2016-11-05T08:33:56.000Z</time>
      </trkpt>
      <trkpt lat="49.57301" lon="3.4513">
        <ele>240</ele>
        <time>2016-11-05T08:35:35.000Z</time>
      </trkpt>
      <trkpt lat="49.57301" lon="3.4513">
        <ele>239.9</ele>
        <time>2016-11-05T08:35:36.000Z</time>
      </trkpt>
      <trkpt lat="49.57302" lon="3.4513">
        <ele>239.6</ele>
        <time>2016-11-05T08:35:57.000Z</time>
      </trkpt>
      <trkpt lat="49.57302" lon="3.45128">
        <ele>240.8</ele>
        <time>2016-11-05T08:35:58.000Z</time>
      </trkpt>
      <trkpt lat="49.57298" lon="3.45129">
        <ele>240.7</ele>
        <time>2016-11-05T08:36:10.000Z</time>
      </trkpt>
      <trkpt lat="49.57298" lon="3.4513">
        <ele>240.8</ele>
        <time>2016-11-05T08:36:11.000Z</time>
      </trkpt>
      <trkpt lat="49.57297" lon="3.4513">
        <ele>241</ele>
        <time>2016-11-05T08:36:29.000Z</time>
      </trkpt>
      <trkpt lat="49.57295" lon="3.45137">
        <ele>236.1</ele>
        <time>2016-11-05T08:36:30.000Z</time>
      </trkpt>
      <trkpt lat="49.57293" lon="3.4514">
        <ele>235.7</ele>
        <time>2016-11-05T08:36:34.000Z</time>
      </trkpt>
      <trkpt lat="49.57293" lon="3.4514">
        <ele>235.8</ele>
        <time>2016-11-05T08:36:35.000Z</time>
      </trkpt>
      <trkpt lat="49.57293" lon="3.45141">
        <ele>236.3</ele>
        <time>2016-11-05T08:36:52.000Z</time>
      </trkpt>
      <trkpt lat="49.57293" lon="3.45144">
        <ele>235.5</ele>
        <time>2016-11-05T08:36:53.000Z</time>
      </trkpt>
      <trkpt lat="49.57301" lon="3.45141">
        <ele>236.3</ele>
        <time>2016-11-05T08:37:10.000Z</time>
      </trkpt>
      <trkpt lat="49.57302" lon="3.45142">
        <ele>236.3</ele>
        <time>2016-11-05T08:37:11.000Z</time>
      </trkpt>
      <trkpt lat="49.5731" lon="3.45141">
        <ele>236.5</ele>
        <time>2016-11-05T08:37:17.000Z</time>
      </trkpt>
      <trkpt lat="49.57312" lon="3.45141">
        <ele>236.4</ele>
        <time>2016-11-05T08:37:18.000Z</time>
      </trkpt>
      <trkpt lat="49.5732" lon="3.45138">
        <ele>235.9</ele>
        <time>2016-11-05T08:37:24.000Z</time>
      </trkpt>
      <trkpt lat="49.57321" lon="3.45136">
        <ele>235.9</ele>
        <time>2016-11-05T08:37:25.000Z</time>
      </trkpt>
      <trkpt lat="49.57328" lon="3.45128">
        <ele>238</ele>
        <time>2016-11-05T08:37:32.000Z</time>
      </trkpt>
      <trkpt lat="49.57329" lon="3.45127">
        <ele>238.3</ele>
        <time>2016-11-05T08:37:33.000Z</time>
      </trkpt>
      <trkpt lat="49.57334" lon="3.45119">
        <ele>239.6</ele>
        <time>2016-11-05T08:37:38.000Z</time>
      </trkpt>
      <trkpt lat="49.57335" lon="3.45117">
        <ele>239.9</ele>
        <time>2016-11-05T08:37:39.000Z</time>
      </trkpt>
      <trkpt lat="49.57341" lon="3.45108">
        <ele>241.6</ele>
        <time>2016-11-05T08:37:45.000Z</time>
      </trkpt>
      <trkpt lat="49.57342" lon="3.45107">
        <ele>241.8</ele>
        <time>2016-11-05T08:37:46.000Z</time>
      </trkpt>
      <trkpt lat="49.57349" lon="3.451">
        <ele>242.8</ele>
        <time>2016-11-05T08:37:51.000Z</time>
      </trkpt>
      <trkpt lat="49.57351" lon="3.45099">
        <ele>243.2</ele>
        <time>2016-11-05T08:37:52.000Z</time>
      </trkpt>
      <trkpt lat="49.57359" lon="3.45094">
        <ele>244.9</ele>
        <time>2016-11-05T08:37:57.000Z</time>
      </trkpt>
      <trkpt lat="49.57361" lon="3.45093">
        <ele>245.2</ele>
        <time>2016-11-05T08:37:58.000Z</time>
      </trkpt>
      <trkpt lat="49.57368" lon="3.45087">
        <ele>245.3</ele>
        <time>2016-11-05T08:38:04.000Z</time>
      </trkpt>
      <trkpt lat="49.57369" lon="3.45086">
        <ele>245.5</ele>
        <time>2016-11-05T08:38:05.000Z</time>
      </trkpt>
      <trkpt lat="49.57377" lon="3.45082">
        <ele>245.8</ele>
        <time>2016-11-05T08:38:13.000Z</time>
      </trkpt>
      <trkpt lat="49.57379" lon="3.45081">
        <ele>246.3</ele>
        <time>2016-11-05T08:38:14.000Z</time>
      </trkpt>
      <trkpt lat="49.57387" lon="3.45078">
        <ele>246.7</ele>
        <time>2016-11-05T08:38:18.000Z</time>
      </trkpt>
      <trkpt lat="49.57389" lon="3.45076">
        <ele>246.8</ele>
        <time>2016-11-05T08:38:19.000Z</time>
      </trkpt>
      <trkpt lat="49.57397" lon="3.45074">
        <ele>246.1</ele>
        <time>2016-11-05T08:38:25.000Z</time>
      </trkpt>
      <trkpt lat="49.57398" lon="3.45074">
        <ele>246.1</ele>
        <time>2016-11-05T08:38:26.000Z</time>
      </trkpt>
      <trkpt lat="49.57407" lon="3.45072">
        <ele>245.8</ele>
        <time>2016-11-05T08:38:32.000Z</time>
      </trkpt>
      <trkpt lat="49.57407" lon="3.45072">
        <ele>245.9</ele>
        <time>2016-11-05T08:38:33.000Z</time>
      </trkpt>
      <trkpt lat="49.57414" lon="3.45076">
        <ele>245.3</ele>
        <time>2016-11-05T08:38:39.000Z</time>
      </trkpt>
      <trkpt lat="49.57416" lon="3.45078">
        <ele>245.3</ele>
        <time>2016-11-05T08:38:40.000Z</time>
      </trkpt>
      <trkpt lat="49.57421" lon="3.45087">
        <ele>245.5</ele>
        <time>2016-11-05T08:38:44.000Z</time>
      </trkpt>
      <trkpt lat="49.57422" lon="3.45089">
        <ele>245.5</ele>
        <time>2016-11-05T08:38:45.000Z</time>
      </trkpt>
      <trkpt lat="49.57428" lon="3.45097">
        <ele>245.6</ele>
        <time>2016-11-05T08:38:49.000Z</time>
      </trkpt>
      <trkpt lat="49.57429" lon="3.45099">
        <ele>245.8</ele>
        <time>2016-11-05T08:38:50.000Z</time>
      </trkpt>
      <trkpt lat="49.57433" lon="3.45111">
        <ele>246.6</ele>
        <time>2016-11-05T08:38:56.000Z</time>
      </trkpt>
      <trkpt lat="49.57434" lon="3.45112">
        <ele>246.6</ele>
        <time>2016-11-05T08:38:57.000Z</time>
      </trkpt>
      <trkpt lat="49.57438" lon="3.45124">
        <ele>246</ele>
        <time>2016-11-05T08:39:02.000Z</time>
      </trkpt>
      <trkpt lat="49.57439" lon="3.45126">
        <ele>245.9</ele>
        <time>2016-11-05T08:39:03.000Z</time>
      </trkpt>
      <trkpt lat="49.57444" lon="3.45137">
        <ele>245.9</ele>
        <time>2016-11-05T08:39:08.000Z</time>
      </trkpt>
      <trkpt lat="49.57445" lon="3.45139">
        <ele>246.1</ele>
        <time>2016-11-05T08:39:09.000Z</time>
      </trkpt>
      <trkpt lat="49.57448" lon="3.45151">
        <ele>246.7</ele>
        <time>2016-11-05T08:39:14.000Z</time>
      </trkpt>
      <trkpt lat="49.5745" lon="3.45153">
        <ele>246.8</ele>
        <time>2016-11-05T08:39:15.000Z</time>
      </trkpt>
      <trkpt lat="49.57454" lon="3.45164">
        <ele>247.7</ele>
        <time>2016-11-05T08:39:21.000Z</time>
      </trkpt>
      <trkpt lat="49.57455" lon="3.45166">
        <ele>247.7</ele>
        <time>2016-11-05T08:39:22.000Z</time>
      </trkpt>
      <trkpt lat="49.57459" lon="3.45177">
        <ele>248.3</ele>
        <time>2016-11-05T08:39:27.000Z</time>
      </trkpt>
      <trkpt lat="49.5746" lon="3.45179">
        <ele>248.4</ele>
        <time>2016-11-05T08:39:28.000Z</time>
      </trkpt>
      <trkpt lat="49.57464" lon="3.45191">
        <ele>248.7</ele>
        <time>2016-11-05T08:39:34.000Z</time>
      </trkpt>
      <trkpt lat="49.57464" lon="3.45193">
        <ele>248.6</ele>
        <time>2016-11-05T08:39:35.000Z</time>
      </trkpt>
      <trkpt lat="49.57468" lon="3.45203">
        <ele>248.9</ele>
        <time>2016-11-05T08:39:41.000Z</time>
      </trkpt>
      <trkpt lat="49.57469" lon="3.45205">
        <ele>249</ele>
        <time>2016-11-05T08:39:42.000Z</time>
      </trkpt>
      <trkpt lat="49.57473" lon="3.45215">
        <ele>249.1</ele>
        <time>2016-11-05T08:39:47.000Z</time>
      </trkpt>
      <trkpt lat="49.57474" lon="3.45218">
        <ele>249.2</ele>
        <time>2016-11-05T08:39:48.000Z</time>
      </trkpt>
      <trkpt lat="49.57476" lon="3.45228">
        <ele>249.3</ele>
        <time>2016-11-05T08:39:52.000Z</time>
      </trkpt>
      <trkpt lat="49.57477" lon="3.4523">
        <ele>249.2</ele>
        <time>2016-11-05T08:39:53.000Z</time>
      </trkpt>
      <trkpt lat="49.57479" lon="3.45242">
        <ele>249.2</ele>
        <time>2016-11-05T08:39:56.000Z</time>
      </trkpt>
      <trkpt lat="49.5748" lon="3.45245">
        <ele>249.1</ele>
        <time>2016-11-05T08:39:57.000Z</time>
      </trkpt>
      <trkpt lat="49.57484" lon="3.45257">
        <ele>249.4</ele>
        <time>2016-11-05T08:40:01.000Z</time>
      </trkpt>
      <trkpt lat="49.57485" lon="3.4526">
        <ele>249.4</ele>
        <time>2016-11-05T08:40:02.000Z</time>
      </trkpt>
      <trkpt lat="49.57488" lon="3.45271">
        <ele>249.8</ele>
        <time>2016-11-05T08:40:07.000Z</time>
      </trkpt>
      <trkpt lat="49.57489" lon="3.45272">
        <ele>249.8</ele>
        <time>2016-11-05T08:40:08.000Z</time>
      </trkpt>
      <trkpt lat="49.57493" lon="3.45282">
        <ele>249.6</ele>
        <time>2016-11-05T08:40:13.000Z</time>
      </trkpt>
      <trkpt lat="49.57494" lon="3.45284">
        <ele>249.7</ele>
        <time>2016-11-05T08:40:14.000Z</time>
      </trkpt>
      <trkpt lat="49.57498" lon="3.45295">
        <ele>250.2</ele>
        <time>2016-11-05T08:40:19.000Z</time>
      </trkpt>
      <trkpt lat="49.57498" lon="3.45297">
        <ele>250.4</ele>
        <time>2016-11-05T08:40:20.000Z</time>
      </trkpt>
      <trkpt lat="49.57502" lon="3.45308">
        <ele>251.1</ele>
        <time>2016-11-05T08:40:26.000Z</time>
      </trkpt>
      <trkpt lat="49.57503" lon="3.4531">
        <ele>251.3</ele>
        <time>2016-11-05T08:40:27.000Z</time>
      </trkpt>
      <trkpt lat="49.57507" lon="3.45319">
        <ele>251.7</ele>
        <time>2016-11-05T08:40:32.000Z</time>
      </trkpt>
      <trkpt lat="49.57508" lon="3.45321">
        <ele>251.8</ele>
        <time>2016-11-05T08:40:33.000Z</time>
      </trkpt>
      <trkpt lat="49.57512" lon="3.45332">
        <ele>252.2</ele>
        <time>2016-11-05T08:40:38.000Z</time>
      </trkpt>
      <trkpt lat="49.57513" lon="3.45335">
        <ele>252.3</ele>
        <time>2016-11-05T08:40:39.000Z</time>
      </trkpt>
      <trkpt lat="49.57516" lon="3.45346">
        <ele>252.1</ele>
        <time>2016-11-05T08:40:44.000Z</time>
      </trkpt>
      <trkpt lat="49.57516" lon="3.45348">
        <ele>252.2</ele>
        <time>2016-11-05T08:40:45.000Z</time>
      </trkpt>
      <trkpt lat="49.57518" lon="3.45361">
        <ele>251.9</ele>
        <time>2016-11-05T08:40:53.000Z</time>
      </trkpt>
      <trkpt lat="49.57518" lon="3.45363">
        <ele>251.8</ele>
        <time>2016-11-05T08:40:54.000Z</time>
      </trkpt>
      <trkpt lat="49.57523" lon="3.45373">
        <ele>251.9</ele>
        <time>2016-11-05T08:40:59.000Z</time>
      </trkpt>
      <trkpt lat="49.57524" lon="3.45376">
        <ele>252.1</ele>
        <time>2016-11-05T08:41:00.000Z</time>
      </trkpt>
      <trkpt lat="49.57527" lon="3.45387">
        <ele>252.9</ele>
        <time>2016-11-05T08:41:05.000Z</time>
      </trkpt>
      <trkpt lat="49.57528" lon="3.45389">
        <ele>253</ele>
        <time>2016-11-05T08:41:06.000Z</time>
      </trkpt>
      <trkpt lat="49.57531" lon="3.454">
        <ele>253.3</ele>
        <time>2016-11-05T08:41:11.000Z</time>
      </trkpt>
      <trkpt lat="49.57532" lon="3.45402">
        <ele>253.3</ele>
        <time>2016-11-05T08:41:12.000Z</time>
      </trkpt>
      <trkpt lat="49.57536" lon="3.45414">
        <ele>253.5</ele>
        <time>2016-11-05T08:41:17.000Z</time>
      </trkpt>
      <trkpt lat="49.57536" lon="3.45416">
        <ele>253.5</ele>
        <time>2016-11-05T08:41:18.000Z</time>
      </trkpt>
      <trkpt lat="49.57538" lon="3.45428">
        <ele>253</ele>
        <time>2016-11-05T08:41:23.000Z</time>
      </trkpt>
      <trkpt lat="49.57539" lon="3.4543">
        <ele>252.9</ele>
        <time>2016-11-05T08:41:24.000Z</time>
      </trkpt>
      <trkpt lat="49.57543" lon="3.45442">
        <ele>252.8</ele>
        <time>2016-11-05T08:41:28.000Z</time>
      </trkpt>
      <trkpt lat="49.57544" lon="3.45445">
        <ele>252.7</ele>
        <time>2016-11-05T08:41:29.000Z</time>
      </trkpt>
      <trkpt lat="49.57549" lon="3.45455">
        <ele>252.6</ele>
        <time>2016-11-05T08:41:34.000Z</time>
      </trkpt>
      <trkpt lat="49.5755" lon="3.45457">
        <ele>252.7</ele>
        <time>2016-11-05T08:41:35.000Z</time>
      </trkpt>
      <trkpt lat="49.57553" lon="3.45469">
        <ele>252.9</ele>
        <time>2016-11-05T08:41:41.000Z</time>
      </trkpt>
      <trkpt lat="49.57554" lon="3.45471">
        <ele>253.1</ele>
        <time>2016-11-05T08:41:42.000Z</time>
      </trkpt>
      <trkpt lat="49.57556" lon="3.45482">
        <ele>253.9</ele>
        <time>2016-11-05T08:41:47.000Z</time>
      </trkpt>
      <trkpt lat="49.57557" lon="3.45484">
        <ele>254.1</ele>
        <time>2016-11-05T08:41:48.000Z</time>
      </trkpt>
      <trkpt lat="49.5756" lon="3.45496">
        <ele>254.9</ele>
        <time>2016-11-05T08:41:54.000Z</time>
      </trkpt>
      <trkpt lat="49.57561" lon="3.45498">
        <ele>255</ele>
        <time>2016-11-05T08:41:55.000Z</time>
      </trkpt>
      <trkpt lat="49.57564" lon="3.45508">
        <ele>255.2</ele>
        <time>2016-11-05T08:42:00.000Z</time>
      </trkpt>
      <trkpt lat="49.57565" lon="3.45511">
        <ele>255.3</ele>
        <time>2016-11-05T08:42:01.000Z</time>
      </trkpt>
      <trkpt lat="49.57569" lon="3.45521">
        <ele>256.4</ele>
        <time>2016-11-05T08:42:05.000Z</time>
      </trkpt>
      <trkpt lat="49.57571" lon="3.45524">
        <ele>256.3</ele>
        <time>2016-11-05T08:42:06.000Z</time>
      </trkpt>
      <trkpt lat="49.57572" lon="3.45537">
        <ele>256.2</ele>
        <time>2016-11-05T08:42:11.000Z</time>
      </trkpt>
      <trkpt lat="49.57573" lon="3.45539">
        <ele>256.2</ele>
        <time>2016-11-05T08:42:12.000Z</time>
      </trkpt>
      <trkpt lat="49.57576" lon="3.4555">
        <ele>256.3</ele>
        <time>2016-11-05T08:42:18.000Z</time>
      </trkpt>
      <trkpt lat="49.57577" lon="3.45552">
        <ele>256.3</ele>
        <time>2016-11-05T08:42:19.000Z</time>
      </trkpt>
      <trkpt lat="49.57579" lon="3.45564">
        <ele>256.6</ele>
        <time>2016-11-05T08:42:25.000Z</time>
      </trkpt>
      <trkpt lat="49.57579" lon="3.45566">
        <ele>257</ele>
        <time>2016-11-05T08:42:26.000Z</time>
      </trkpt>
      <trkpt lat="49.57581" lon="3.45579">
        <ele>257.3</ele>
        <time>2016-11-05T08:42:33.000Z</time>
      </trkpt>
      <trkpt lat="49.57582" lon="3.45581">
        <ele>257.6</ele>
        <time>2016-11-05T08:42:34.000Z</time>
      </trkpt>
      <trkpt lat="49.57585" lon="3.45593">
        <ele>258</ele>
        <time>2016-11-05T08:42:41.000Z</time>
      </trkpt>
      <trkpt lat="49.57585" lon="3.45594">
        <ele>258.2</ele>
        <time>2016-11-05T08:42:42.000Z</time>
      </trkpt>
      <trkpt lat="49.57588" lon="3.45607">
        <ele>257.7</ele>
        <time>2016-11-05T08:42:47.000Z</time>
      </trkpt>
      <trkpt lat="49.57588" lon="3.45608">
        <ele>257.5</ele>
        <time>2016-11-05T08:42:48.000Z</time>
      </trkpt>
      <trkpt lat="49.57593" lon="3.45618">
        <ele>257.5</ele>
        <time>2016-11-05T08:42:54.000Z</time>
      </trkpt>
      <trkpt lat="49.57595" lon="3.4562">
        <ele>257.6</ele>
        <time>2016-11-05T08:42:55.000Z</time>
      </trkpt>
      <trkpt lat="49.57599" lon="3.45629">
        <ele>257</ele>
        <time>2016-11-05T08:43:01.000Z</time>
      </trkpt>
      <trkpt lat="49.576" lon="3.45632">
        <ele>256.9</ele>
        <time>2016-11-05T08:43:02.000Z</time>
      </trkpt>
      <trkpt lat="49.57604" lon="3.45643">
        <ele>256.2</ele>
        <time>2016-11-05T08:43:06.000Z</time>
      </trkpt>
      <trkpt lat="49.57605" lon="3.45647">
        <ele>256</ele>
        <time>2016-11-05T08:43:07.000Z</time>
      </trkpt>
      <trkpt lat="49.57609" lon="3.45657">
        <ele>256</ele>
        <time>2016-11-05T08:43:11.000Z</time>
      </trkpt>
      <trkpt lat="49.57609" lon="3.45659">
        <ele>256.1</ele>
        <time>2016-11-05T08:43:12.000Z</time>
      </trkpt>
      <trkpt lat="49.57612" lon="3.45671">
        <ele>256.5</ele>
        <time>2016-11-05T08:43:18.000Z</time>
      </trkpt>
      <trkpt lat="49.57613" lon="3.45673">
        <ele>256.6</ele>
        <time>2016-11-05T08:43:19.000Z</time>
      </trkpt>
      <trkpt lat="49.57618" lon="3.45684">
        <ele>257.4</ele>
        <time>2016-11-05T08:43:24.000Z</time>
      </trkpt>
      <trkpt lat="49.57619" lon="3.45686">
        <ele>257.6</ele>
        <time>2016-11-05T08:43:25.000Z</time>
      </trkpt>
      <trkpt lat="49.57622" lon="3.45699">
        <ele>257.7</ele>
        <time>2016-11-05T08:43:30.000Z</time>
      </trkpt>
      <trkpt lat="49.57623" lon="3.45702">
        <ele>257.4</ele>
        <time>2016-11-05T08:43:31.000Z</time>
      </trkpt>
      <trkpt lat="49.57628" lon="3.45712">
        <ele>256.9</ele>
        <time>2016-11-05T08:43:37.000Z</time>
      </trkpt>
      <trkpt lat="49.57629" lon="3.45714">
        <ele>256.7</ele>
        <time>2016-11-05T08:43:38.000Z</time>
      </trkpt>
      <trkpt lat="49.57633" lon="3.45725">
        <ele>256.1</ele>
        <time>2016-11-05T08:43:45.000Z</time>
      </trkpt>
      <trkpt lat="49.57633" lon="3.45727">
        <ele>256.1</ele>
        <time>2016-11-05T08:43:46.000Z</time>
      </trkpt>
      <trkpt lat="49.57636" lon="3.45737">
        <ele>256.6</ele>
        <time>2016-11-05T08:43:51.000Z</time>
      </trkpt>
      <trkpt lat="49.57637" lon="3.45739">
        <ele>256.6</ele>
        <time>2016-11-05T08:43:52.000Z</time>
      </trkpt>
      <trkpt lat="49.5764" lon="3.45751">
        <ele>257.2</ele>
        <time>2016-11-05T08:43:58.000Z</time>
      </trkpt>
      <trkpt lat="49.57642" lon="3.45753">
        <ele>257.1</ele>
        <time>2016-11-05T08:43:59.000Z</time>
      </trkpt>
      <trkpt lat="49.57649" lon="3.45761">
        <ele>257.1</ele>
        <time>2016-11-05T08:44:03.000Z</time>
      </trkpt>
      <trkpt lat="49.5765" lon="3.45763">
        <ele>257.1</ele>
        <time>2016-11-05T08:44:04.000Z</time>
      </trkpt>
      <trkpt lat="49.57654" lon="3.45775">
        <ele>256.9</ele>
        <time>2016-11-05T08:44:09.000Z</time>
      </trkpt>
      <trkpt lat="49.57654" lon="3.45777">
        <ele>257</ele>
        <time>2016-11-05T08:44:10.000Z</time>
      </trkpt>
      <trkpt lat="49.57656" lon="3.4579">
        <ele>256.8</ele>
        <time>2016-11-05T08:44:15.000Z</time>
      </trkpt>
      <trkpt lat="49.57656" lon="3.45793">
        <ele>256.6</ele>
        <time>2016-11-05T08:44:16.000Z</time>
      </trkpt>
      <trkpt lat="49.57659" lon="3.45803">
        <ele>256</ele>
        <time>2016-11-05T08:44:20.000Z</time>
      </trkpt>
      <trkpt lat="49.5766" lon="3.45806">
        <ele>255.9</ele>
        <time>2016-11-05T08:44:21.000Z</time>
      </trkpt>
      <trkpt lat="49.57663" lon="3.45818">
        <ele>255.8</ele>
        <time>2016-11-05T08:44:25.000Z</time>
      </trkpt>
      <trkpt lat="49.57664" lon="3.4582">
        <ele>255.6</ele>
        <time>2016-11-05T08:44:26.000Z</time>
      </trkpt>
      <trkpt lat="49.57668" lon="3.45831">
        <ele>256</ele>
        <time>2016-11-05T08:44:31.000Z</time>
      </trkpt>
      <trkpt lat="49.57668" lon="3.45834">
        <ele>256.3</ele>
        <time>2016-11-05T08:44:32.000Z</time>
      </trkpt>
      <trkpt lat="49.57673" lon="3.45845">
        <ele>256.5</ele>
        <time>2016-11-05T08:44:38.000Z</time>
      </trkpt>
      <trkpt lat="49.57673" lon="3.45847">
        <ele>256.5</ele>
        <time>2016-11-05T08:44:39.000Z</time>
      </trkpt>
      <trkpt lat="49.57676" lon="3.45859">
        <ele>256.4</ele>
        <time>2016-11-05T08:44:46.000Z</time>
      </trkpt>
      <trkpt lat="49.57676" lon="3.45861">
        <ele>256.4</ele>
        <time>2016-11-05T08:44:47.000Z</time>
      </trkpt>
      <trkpt lat="49.57682" lon="3.45871">
        <ele>256.1</ele>
        <time>2016-11-05T08:44:52.000Z</time>
      </trkpt>
      <trkpt lat="49.57684" lon="3.45874">
        <ele>256.1</ele>
        <time>2016-11-05T08:44:53.000Z</time>
      </trkpt>
      <trkpt lat="49.57691" lon="3.45881">
        <ele>256.2</ele>
        <time>2016-11-05T08:44:57.000Z</time>
      </trkpt>
      <trkpt lat="49.57691" lon="3.45882">
        <ele>256.1</ele>
        <time>2016-11-05T08:44:58.000Z</time>
      </trkpt>
      <trkpt lat="49.57691" lon="3.45893">
        <ele>255</ele>
        <time>2016-11-05T08:45:02.000Z</time>
      </trkpt>
      <trkpt lat="49.5769" lon="3.45896">
        <ele>254.7</ele>
        <time>2016-11-05T08:45:03.000Z</time>
      </trkpt>
      <trkpt lat="49.5769" lon="3.45909">
        <ele>254</ele>
        <time>2016-11-05T08:45:07.000Z</time>
      </trkpt>
      <trkpt lat="49.5769" lon="3.45912">
        <ele>253.8</ele>
        <time>2016-11-05T08:45:08.000Z</time>
      </trkpt>
      <trkpt lat="49.57694" lon="3.45924">
        <ele>253.1</ele>
        <time>2016-11-05T08:45:13.000Z</time>
      </trkpt>
      <trkpt lat="49.57695" lon="3.45926">
        <ele>253.1</ele>
        <time>2016-11-05T08:45:14.000Z</time>
      </trkpt>
      <trkpt lat="49.57698" lon="3.45936">
        <ele>252.1</ele>
        <time>2016-11-05T08:45:19.000Z</time>
      </trkpt>
      <trkpt lat="49.57699" lon="3.45939">
        <ele>252</ele>
        <time>2016-11-05T08:45:20.000Z</time>
      </trkpt>
      <trkpt lat="49.57704" lon="3.45949">
        <ele>251.8</ele>
        <time>2016-11-05T08:45:24.000Z</time>
      </trkpt>
      <trkpt lat="49.57704" lon="3.45952">
        <ele>251.6</ele>
        <time>2016-11-05T08:45:25.000Z</time>
      </trkpt>
      <trkpt lat="49.57708" lon="3.45963">
        <ele>250.8</ele>
        <time>2016-11-05T08:45:29.000Z</time>
      </trkpt>
      <trkpt lat="49.57709" lon="3.45966">
        <ele>250.4</ele>
        <time>2016-11-05T08:45:30.000Z</time>
      </trkpt>
      <trkpt lat="49.57712" lon="3.45977">
        <ele>250.1</ele>
        <time>2016-11-05T08:45:34.000Z</time>
      </trkpt>
      <trkpt lat="49.57712" lon="3.45979">
        <ele>250.1</ele>
        <time>2016-11-05T08:45:35.000Z</time>
      </trkpt>
      <trkpt lat="49.57715" lon="3.45992">
        <ele>249.9</ele>
        <time>2016-11-05T08:45:40.000Z</time>
      </trkpt>
      <trkpt lat="49.57716" lon="3.45994">
        <ele>249.6</ele>
        <time>2016-11-05T08:45:41.000Z</time>
      </trkpt>
      <trkpt lat="49.57719" lon="3.46007">
        <ele>248.7</ele>
        <time>2016-11-05T08:45:47.000Z</time>
      </trkpt>
      <trkpt lat="49.57719" lon="3.46009">
        <ele>249</ele>
        <time>2016-11-05T08:45:48.000Z</time>
      </trkpt>
      <trkpt lat="49.57721" lon="3.46021">
        <ele>249.3</ele>
        <time>2016-11-05T08:45:54.000Z</time>
      </trkpt>
      <trkpt lat="49.5772" lon="3.46023">
        <ele>249.3</ele>
        <time>2016-11-05T08:45:55.000Z</time>
      </trkpt>
      <trkpt lat="49.57721" lon="3.46036">
        <ele>249.2</ele>
        <time>2016-11-05T08:46:03.000Z</time>
      </trkpt>
      <trkpt lat="49.57722" lon="3.46038">
        <ele>249.3</ele>
        <time>2016-11-05T08:46:04.000Z</time>
      </trkpt>
      <trkpt lat="49.57725" lon="3.46051">
        <ele>249</ele>
        <time>2016-11-05T08:46:10.000Z</time>
      </trkpt>
      <trkpt lat="49.57725" lon="3.46053">
        <ele>249</ele>
        <time>2016-11-05T08:46:11.000Z</time>
      </trkpt>
      <trkpt lat="49.57727" lon="3.46065">
        <ele>249.4</ele>
        <time>2016-11-05T08:46:17.000Z</time>
      </trkpt>
      <trkpt lat="49.57727" lon="3.46068">
        <ele>249.5</ele>
        <time>2016-11-05T08:46:18.000Z</time>
      </trkpt>
      <trkpt lat="49.57728" lon="3.46081">
        <ele>249.5</ele>
        <time>2016-11-05T08:46:24.000Z</time>
      </trkpt>
      <trkpt lat="49.57728" lon="3.46083">
        <ele>249.3</ele>
        <time>2016-11-05T08:46:25.000Z</time>
      </trkpt>
      <trkpt lat="49.57733" lon="3.46093">
        <ele>248.2</ele>
        <time>2016-11-05T08:46:31.000Z</time>
      </trkpt>
      <trkpt lat="49.57734" lon="3.46095">
        <ele>247.7</ele>
        <time>2016-11-05T08:46:32.000Z</time>
      </trkpt>
      <trkpt lat="49.57738" lon="3.46106">
        <ele>246.8</ele>
        <time>2016-11-05T08:46:38.000Z</time>
      </trkpt>
      <trkpt lat="49.57738" lon="3.46108">
        <ele>246.6</ele>
        <time>2016-11-05T08:46:39.000Z</time>
      </trkpt>
      <trkpt lat="49.57741" lon="3.46119">
        <ele>247.2</ele>
        <time>2016-11-05T08:46:46.000Z</time>
      </trkpt>
      <trkpt lat="49.57742" lon="3.4612">
        <ele>247.3</ele>
        <time>2016-11-05T08:46:47.000Z</time>
      </trkpt>
      <trkpt lat="49.57748" lon="3.46129">
        <ele>246.3</ele>
        <time>2016-11-05T08:46:52.000Z</time>
      </trkpt>
      <trkpt lat="49.57749" lon="3.46131">
        <ele>246</ele>
        <time>2016-11-05T08:46:53.000Z</time>
      </trkpt>
      <trkpt lat="49.57752" lon="3.46141">
        <ele>245.8</ele>
        <time>2016-11-05T08:46:58.000Z</time>
      </trkpt>
      <trkpt lat="49.57753" lon="3.46143">
        <ele>245.7</ele>
        <time>2016-11-05T08:46:59.000Z</time>
      </trkpt>
      <trkpt lat="49.57756" lon="3.46155">
        <ele>245.1</ele>
        <time>2016-11-05T08:47:03.000Z</time>
      </trkpt>
      <trkpt lat="49.57757" lon="3.46159">
        <ele>245</ele>
        <time>2016-11-05T08:47:04.000Z</time>
      </trkpt>
      <trkpt lat="49.57759" lon="3.46169">
        <ele>244.3</ele>
        <time>2016-11-05T08:47:07.000Z</time>
      </trkpt>
      <trkpt lat="49.57762" lon="3.46172">
        <ele>243.9</ele>
        <time>2016-11-05T08:47:08.000Z</time>
      </trkpt>
      <trkpt lat="49.57768" lon="3.46179">
        <ele>243.4</ele>
        <time>2016-11-05T08:47:11.000Z</time>
      </trkpt>
      <trkpt lat="49.5777" lon="3.46181">
        <ele>243.2</ele>
        <time>2016-11-05T08:47:12.000Z</time>
      </trkpt>
      <trkpt lat="49.57773" lon="3.46191">
        <ele>243.1</ele>
        <time>2016-11-05T08:47:17.000Z</time>
      </trkpt>
      <trkpt lat="49.57775" lon="3.46194">
        <ele>242.8</ele>
        <time>2016-11-05T08:47:18.000Z</time>
      </trkpt>
      <trkpt lat="49.57779" lon="3.46206">
        <ele>242</ele>
        <time>2016-11-05T08:47:22.000Z</time>
      </trkpt>
      <trkpt lat="49.5778" lon="3.46209">
        <ele>241.7</ele>
        <time>2016-11-05T08:47:23.000Z</time>
      </trkpt>
      <trkpt lat="49.57782" lon="3.46219">
        <ele>241.6</ele>
        <time>2016-11-05T08:47:27.000Z</time>
      </trkpt>
      <trkpt lat="49.57783" lon="3.46222">
        <ele>241.7</ele>
        <time>2016-11-05T08:47:28.000Z</time>
      </trkpt>
      <trkpt lat="49.57787" lon="3.46233">
        <ele>241.7</ele>
        <time>2016-11-05T08:47:32.000Z</time>
      </trkpt>
      <trkpt lat="49.57788" lon="3.46235">
        <ele>241.6</ele>
        <time>2016-11-05T08:47:33.000Z</time>
      </trkpt>
      <trkpt lat="49.57789" lon="3.46249">
        <ele>240.8</ele>
        <time>2016-11-05T08:47:39.000Z</time>
      </trkpt>
      <trkpt lat="49.57789" lon="3.46251">
        <ele>240.8</ele>
        <time>2016-11-05T08:47:40.000Z</time>
      </trkpt>
      <trkpt lat="49.57791" lon="3.46262">
        <ele>241</ele>
        <time>2016-11-05T08:47:45.000Z</time>
      </trkpt>
      <trkpt lat="49.57792" lon="3.46265">
        <ele>241.1</ele>
        <time>2016-11-05T08:47:46.000Z</time>
      </trkpt>
      <trkpt lat="49.57795" lon="3.46278">
        <ele>240.4</ele>
        <time>2016-11-05T08:47:52.000Z</time>
      </trkpt>
      <trkpt lat="49.57796" lon="3.4628">
        <ele>240.1</ele>
        <time>2016-11-05T08:47:53.000Z</time>
      </trkpt>
      <trkpt lat="49.578" lon="3.46291">
        <ele>239.3</ele>
        <time>2016-11-05T08:47:59.000Z</time>
      </trkpt>
      <trkpt lat="49.578" lon="3.46294">
        <ele>239.2</ele>
        <time>2016-11-05T08:48:00.000Z</time>
      </trkpt>
      <trkpt lat="49.57804" lon="3.46305">
        <ele>238.6</ele>
        <time>2016-11-05T08:48:05.000Z</time>
      </trkpt>
      <trkpt lat="49.57804" lon="3.46307">
        <ele>238.3</ele>
        <time>2016-11-05T08:48:06.000Z</time>
      </trkpt>
      <trkpt lat="49.57809" lon="3.46318">
        <ele>238.2</ele>
        <time>2016-11-05T08:48:11.000Z</time>
      </trkpt>
      <trkpt lat="49.5781" lon="3.46321">
        <ele>238.1</ele>
        <time>2016-11-05T08:48:12.000Z</time>
      </trkpt>
      <trkpt lat="49.57814" lon="3.46332">
        <ele>238.1</ele>
        <time>2016-11-05T08:48:17.000Z</time>
      </trkpt>
      <trkpt lat="49.57814" lon="3.46334">
        <ele>237.9</ele>
        <time>2016-11-05T08:48:18.000Z</time>
      </trkpt>
      <trkpt lat="49.57818" lon="3.46344">
        <ele>237.2</ele>
        <time>2016-11-05T08:48:22.000Z</time>
      </trkpt>
      <trkpt lat="49.5782" lon="3.46346">
        <ele>237.1</ele>
        <time>2016-11-05T08:48:23.000Z</time>
      </trkpt>
      <trkpt lat="49.57824" lon="3.46356">
        <ele>236.5</ele>
        <time>2016-11-05T08:48:28.000Z</time>
      </trkpt>
      <trkpt lat="49.57825" lon="3.46358">
        <ele>236.1</ele>
        <time>2016-11-05T08:48:29.000Z</time>
      </trkpt>
      <trkpt lat="49.5783" lon="3.46367">
        <ele>234.1</ele>
        <time>2016-11-05T08:48:35.000Z</time>
      </trkpt>
      <trkpt lat="49.5783" lon="3.46369">
        <ele>233.9</ele>
        <time>2016-11-05T08:48:36.000Z</time>
      </trkpt>
      <trkpt lat="49.57834" lon="3.46381">
        <ele>231.8</ele>
        <time>2016-11-05T08:48:43.000Z</time>
      </trkpt>
      <trkpt lat="49.57834" lon="3.46383">
        <ele>231.7</ele>
        <time>2016-11-05T08:48:44.000Z</time>
      </trkpt>
      <trkpt lat="49.57836" lon="3.46396">
        <ele>230.9</ele>
        <time>2016-11-05T08:48:51.000Z</time>
      </trkpt>
      <trkpt lat="49.57837" lon="3.46398">
        <ele>230.5</ele>
        <time>2016-11-05T08:48:52.000Z</time>
      </trkpt>
      <trkpt lat="49.57841" lon="3.4641">
        <ele>229.2</ele>
        <time>2016-11-05T08:48:58.000Z</time>
      </trkpt>
      <trkpt lat="49.57842" lon="3.46412">
        <ele>228.9</ele>
        <time>2016-11-05T08:48:59.000Z</time>
      </trkpt>
      <trkpt lat="49.57847" lon="3.46422">
        <ele>227.4</ele>
        <time>2016-11-05T08:49:04.000Z</time>
      </trkpt>
      <trkpt lat="49.57848" lon="3.46424">
        <ele>227.3</ele>
        <time>2016-11-05T08:49:05.000Z</time>
      </trkpt>
      <trkpt lat="49.5785" lon="3.46437">
        <ele>225.6</ele>
        <time>2016-11-05T08:49:11.000Z</time>
      </trkpt>
      <trkpt lat="49.57851" lon="3.46439">
        <ele>225.3</ele>
        <time>2016-11-05T08:49:12.000Z</time>
      </trkpt>
      <trkpt lat="49.57855" lon="3.46449">
        <ele>223.9</ele>
        <time>2016-11-05T08:49:17.000Z</time>
      </trkpt>
      <trkpt lat="49.57856" lon="3.46451">
        <ele>223.5</ele>
        <time>2016-11-05T08:49:18.000Z</time>
      </trkpt>
      <trkpt lat="49.57859" lon="3.46464">
        <ele>221.9</ele>
        <time>2016-11-05T08:49:24.000Z</time>
      </trkpt>
      <trkpt lat="49.5786" lon="3.46466">
        <ele>221.7</ele>
        <time>2016-11-05T08:49:25.000Z</time>
      </trkpt>
      <trkpt lat="49.57865" lon="3.46476">
        <ele>220.1</ele>
        <time>2016-11-05T08:49:31.000Z</time>
      </trkpt>
      <trkpt lat="49.57866" lon="3.46478">
        <ele>219.4</ele>
        <time>2016-11-05T08:49:32.000Z</time>
      </trkpt>
      <trkpt lat="49.5787" lon="3.46489">
        <ele>218.8</ele>
        <time>2016-11-05T08:49:37.000Z</time>
      </trkpt>
      <trkpt lat="49.57871" lon="3.46491">
        <ele>218.7</ele>
        <time>2016-11-05T08:49:38.000Z</time>
      </trkpt>
      <trkpt lat="49.57875" lon="3.46502">
        <ele>217.1</ele>
        <time>2016-11-05T08:49:43.000Z</time>
      </trkpt>
      <trkpt lat="49.57876" lon="3.46504">
        <ele>217.1</ele>
        <time>2016-11-05T08:49:44.000Z</time>
      </trkpt>
      <trkpt lat="49.57881" lon="3.46512">
        <ele>215.7</ele>
        <time>2016-11-05T08:49:49.000Z</time>
      </trkpt>
      <trkpt lat="49.57882" lon="3.46513">
        <ele>215.3</ele>
        <time>2016-11-05T08:49:50.000Z</time>
      </trkpt>
      <trkpt lat="49.57886" lon="3.46524">
        <ele>214.1</ele>
        <time>2016-11-05T08:49:55.000Z</time>
      </trkpt>
      <trkpt lat="49.57887" lon="3.46525">
        <ele>214</ele>
        <time>2016-11-05T08:49:56.000Z</time>
      </trkpt>
      <trkpt lat="49.57892" lon="3.46536">
        <ele>212.2</ele>
        <time>2016-11-05T08:50:02.000Z</time>
      </trkpt>
      <trkpt lat="49.57892" lon="3.46538">
        <ele>212</ele>
        <time>2016-11-05T08:50:03.000Z</time>
      </trkpt>
      <trkpt lat="49.57898" lon="3.46547">
        <ele>211.4</ele>
        <time>2016-11-05T08:50:10.000Z</time>
      </trkpt>
      <trkpt lat="49.57899" lon="3.46548">
        <ele>211.3</ele>
        <time>2016-11-05T08:50:11.000Z</time>
      </trkpt>
      <trkpt lat="49.57904" lon="3.46558">
        <ele>210.6</ele>
        <time>2016-11-05T08:50:20.000Z</time>
      </trkpt>
      <trkpt lat="49.57904" lon="3.46559">
        <ele>210.6</ele>
        <time>2016-11-05T08:50:21.000Z</time>
      </trkpt>
      <trkpt lat="49.57906" lon="3.46572">
        <ele>209.9</ele>
        <time>2016-11-05T08:50:28.000Z</time>
      </trkpt>
      <trkpt lat="49.57907" lon="3.46574">
        <ele>209.8</ele>
        <time>2016-11-05T08:50:29.000Z</time>
      </trkpt>
      <trkpt lat="49.57909" lon="3.46587">
        <ele>209.5</ele>
        <time>2016-11-05T08:50:36.000Z</time>
      </trkpt>
      <trkpt lat="49.5791" lon="3.46589">
        <ele>209.4</ele>
        <time>2016-11-05T08:50:37.000Z</time>
      </trkpt>
      <trkpt lat="49.57909" lon="3.46601">
        <ele>208.8</ele>
        <time>2016-11-05T08:50:42.000Z</time>
      </trkpt>
      <trkpt lat="49.5791" lon="3.46603">
        <ele>208.4</ele>
        <time>2016-11-05T08:50:43.000Z</time>
      </trkpt>
      <trkpt lat="49.57912" lon="3.46614">
        <ele>207.3</ele>
        <time>2016-11-05T08:50:47.000Z</time>
      </trkpt>
      <trkpt lat="49.57913" lon="3.46616">
        <ele>207.2</ele>
        <time>2016-11-05T08:50:48.000Z</time>
      </trkpt>
      <trkpt lat="49.57915" lon="3.46627">
        <ele>206.4</ele>
        <time>2016-11-05T08:50:52.000Z</time>
      </trkpt>
      <trkpt lat="49.57915" lon="3.4663">
        <ele>206.2</ele>
        <time>2016-11-05T08:50:53.000Z</time>
      </trkpt>
      <trkpt lat="49.57917" lon="3.46642">
        <ele>204.8</ele>
        <time>2016-11-05T08:50:58.000Z</time>
      </trkpt>
      <trkpt lat="49.57917" lon="3.46644">
        <ele>204.5</ele>
        <time>2016-11-05T08:50:59.000Z</time>
      </trkpt>
      <trkpt lat="49.57919" lon="3.46656">
        <ele>202.5</ele>
        <time>2016-11-05T08:51:04.000Z</time>
      </trkpt>
      <trkpt lat="49.57919" lon="3.46659">
        <ele>202.5</ele>
        <time>2016-11-05T08:51:05.000Z</time>
      </trkpt>
      <trkpt lat="49.5792" lon="3.46666">
        <ele>201.6</ele>
        <time>2016-11-05T08:51:08.000Z</time>
      </trkpt>
      <trkpt lat="49.57921" lon="3.46673">
        <ele>200.8</ele>
        <time>2016-11-05T08:51:09.000Z</time>
      </trkpt>
      <trkpt lat="49.57922" lon="3.46686">
        <ele>200</ele>
        <time>2016-11-05T08:51:15.000Z</time>
      </trkpt>
      <trkpt lat="49.57922" lon="3.46689">
        <ele>200</ele>
        <time>2016-11-05T08:51:16.000Z</time>
      </trkpt>
      <trkpt lat="49.57926" lon="3.467">
        <ele>199.1</ele>
        <time>2016-11-05T08:51:21.000Z</time>
      </trkpt>
      <trkpt lat="49.57926" lon="3.46702">
        <ele>199</ele>
        <time>2016-11-05T08:51:22.000Z</time>
      </trkpt>
      <trkpt lat="49.57929" lon="3.46714">
        <ele>198.6</ele>
        <time>2016-11-05T08:51:28.000Z</time>
      </trkpt>
      <trkpt lat="49.57929" lon="3.46716">
        <ele>198.5</ele>
        <time>2016-11-05T08:51:29.000Z</time>
      </trkpt>
      <trkpt lat="49.57931" lon="3.4673">
        <ele>198.1</ele>
        <time>2016-11-05T08:51:35.000Z</time>
      </trkpt>
      <trkpt lat="49.57931" lon="3.46732">
        <ele>197.8</ele>
        <time>2016-11-05T08:51:36.000Z</time>
      </trkpt>
      <trkpt lat="49.57934" lon="3.46743">
        <ele>197.5</ele>
        <time>2016-11-05T08:51:41.000Z</time>
      </trkpt>
      <trkpt lat="49.57935" lon="3.46745">
        <ele>197.3</ele>
        <time>2016-11-05T08:51:42.000Z</time>
      </trkpt>
      <trkpt lat="49.57938" lon="3.46756">
        <ele>196.7</ele>
        <time>2016-11-05T08:51:46.000Z</time>
      </trkpt>
      <trkpt lat="49.57939" lon="3.46758">
        <ele>196.5</ele>
        <time>2016-11-05T08:51:47.000Z</time>
      </trkpt>
      <trkpt lat="49.57943" lon="3.4677">
        <ele>195.7</ele>
        <time>2016-11-05T08:51:52.000Z</time>
      </trkpt>
      <trkpt lat="49.57944" lon="3.46771">
        <ele>195.8</ele>
        <time>2016-11-05T08:51:53.000Z</time>
      </trkpt>
      <trkpt lat="49.57947" lon="3.46783">
        <ele>195.4</ele>
        <time>2016-11-05T08:51:59.000Z</time>
      </trkpt>
      <trkpt lat="49.57948" lon="3.46785">
        <ele>195.2</ele>
        <time>2016-11-05T08:52:00.000Z</time>
      </trkpt>
      <trkpt lat="49.5795" lon="3.46796">
        <ele>194.8</ele>
        <time>2016-11-05T08:52:06.000Z</time>
      </trkpt>
      <trkpt lat="49.57951" lon="3.46799">
        <ele>194.9</ele>
        <time>2016-11-05T08:52:07.000Z</time>
      </trkpt>
      <trkpt lat="49.57952" lon="3.46812">
        <ele>194.9</ele>
        <time>2016-11-05T08:52:14.000Z</time>
      </trkpt>
      <trkpt lat="49.57952" lon="3.46813">
        <ele>194.8</ele>
        <time>2016-11-05T08:52:15.000Z</time>
      </trkpt>
      <trkpt lat="49.57954" lon="3.46825">
        <ele>194.8</ele>
        <time>2016-11-05T08:52:22.000Z</time>
      </trkpt>
      <trkpt lat="49.57955" lon="3.46827">
        <ele>194.7</ele>
        <time>2016-11-05T08:52:23.000Z</time>
      </trkpt>
      <trkpt lat="49.57959" lon="3.46838">
        <ele>194.8</ele>
        <time>2016-11-05T08:52:29.000Z</time>
      </trkpt>
      <trkpt lat="49.57959" lon="3.46841">
        <ele>195</ele>
        <time>2016-11-05T08:52:30.000Z</time>
      </trkpt>
      <trkpt lat="49.57963" lon="3.46853">
        <ele>194.7</ele>
        <time>2016-11-05T08:52:36.000Z</time>
      </trkpt>
      <trkpt lat="49.57964" lon="3.46855">
        <ele>194.7</ele>
        <time>2016-11-05T08:52:37.000Z</time>
      </trkpt>
      <trkpt lat="49.57969" lon="3.46866">
        <ele>194</ele>
        <time>2016-11-05T08:52:42.000Z</time>
      </trkpt>
      <trkpt lat="49.57969" lon="3.46869">
        <ele>193.7</ele>
        <time>2016-11-05T08:52:43.000Z</time>
      </trkpt>
      <trkpt lat="49.57969" lon="3.46882">
        <ele>192.7</ele>
        <time>2016-11-05T08:52:47.000Z</time>
      </trkpt>
      <trkpt lat="49.57969" lon="3.46885">
        <ele>192.6</ele>
        <time>2016-11-05T08:52:48.000Z</time>
      </trkpt>
      <trkpt lat="49.5797" lon="3.46897">
        <ele>192.4</ele>
        <time>2016-11-05T08:52:53.000Z</time>
      </trkpt>
      <trkpt lat="49.5797" lon="3.469">
        <ele>192.6</ele>
        <time>2016-11-05T08:52:54.000Z</time>
      </trkpt>
      <trkpt lat="49.57971" lon="3.46913">
        <ele>191.9</ele>
        <time>2016-11-05T08:52:59.000Z</time>
      </trkpt>
      <trkpt lat="49.57971" lon="3.46915">
        <ele>191.7</ele>
        <time>2016-11-05T08:53:00.000Z</time>
      </trkpt>
      <trkpt lat="49.57973" lon="3.46928">
        <ele>189.9</ele>
        <time>2016-11-05T08:53:05.000Z</time>
      </trkpt>
      <trkpt lat="49.57974" lon="3.46931">
        <ele>189.1</ele>
        <time>2016-11-05T08:53:06.000Z</time>
      </trkpt>
      <trkpt lat="49.57977" lon="3.46944">
        <ele>187.5</ele>
        <time>2016-11-05T08:53:11.000Z</time>
      </trkpt>
      <trkpt lat="49.57977" lon="3.46945">
        <ele>187.2</ele>
        <time>2016-11-05T08:53:12.000Z</time>
      </trkpt>
      <trkpt lat="49.5798" lon="3.46958">
        <ele>185.9</ele>
        <time>2016-11-05T08:53:17.000Z</time>
      </trkpt>
      <trkpt lat="49.57981" lon="3.4696">
        <ele>185.7</ele>
        <time>2016-11-05T08:53:18.000Z</time>
      </trkpt>
      <trkpt lat="49.57985" lon="3.4697">
        <ele>185</ele>
        <time>2016-11-05T08:53:22.000Z</time>
      </trkpt>
      <trkpt lat="49.57986" lon="3.46973">
        <ele>184.8</ele>
        <time>2016-11-05T08:53:23.000Z</time>
      </trkpt>
      <trkpt lat="49.57989" lon="3.46984">
        <ele>183.7</ele>
        <time>2016-11-05T08:53:28.000Z</time>
      </trkpt>
      <trkpt lat="49.57989" lon="3.46987">
        <ele>183.6</ele>
        <time>2016-11-05T08:53:29.000Z</time>
      </trkpt>
      <trkpt lat="49.57991" lon="3.46999">
        <ele>182.5</ele>
        <time>2016-11-05T08:53:34.000Z</time>
      </trkpt>
      <trkpt lat="49.57992" lon="3.47001">
        <ele>182.1</ele>
        <time>2016-11-05T08:53:35.000Z</time>
      </trkpt>
      <trkpt lat="49.57993" lon="3.47013">
        <ele>180.9</ele>
        <time>2016-11-05T08:53:40.000Z</time>
      </trkpt>
      <trkpt lat="49.57994" lon="3.47015">
        <ele>180.8</ele>
        <time>2016-11-05T08:53:41.000Z</time>
      </trkpt>
      <trkpt lat="49.57997" lon="3.47027">
        <ele>179.4</ele>
        <time>2016-11-05T08:53:46.000Z</time>
      </trkpt>
      <trkpt lat="49.57998" lon="3.4703">
        <ele>179.1</ele>
        <time>2016-11-05T08:53:47.000Z</time>
      </trkpt>
      <trkpt lat="49.57999" lon="3.47041">
        <ele>178.8</ele>
        <time>2016-11-05T08:53:52.000Z</time>
      </trkpt>
      <trkpt lat="49.58" lon="3.47043">
        <ele>178.7</ele>
        <time>2016-11-05T08:53:53.000Z</time>
      </trkpt>
      <trkpt lat="49.58005" lon="3.47054">
        <ele>178</ele>
        <time>2016-11-05T08:53:58.000Z</time>
      </trkpt>
      <trkpt lat="49.58005" lon="3.47056">
        <ele>178</ele>
        <time>2016-11-05T08:53:59.000Z</time>
      </trkpt>
      <trkpt lat="49.58008" lon="3.47069">
        <ele>178.3</ele>
        <time>2016-11-05T08:54:05.000Z</time>
      </trkpt>
      <trkpt lat="49.58008" lon="3.47071">
        <ele>178.4</ele>
        <time>2016-11-05T08:54:06.000Z</time>
      </trkpt>
      <trkpt lat="49.5801" lon="3.47085">
        <ele>179.2</ele>
        <time>2016-11-05T08:54:12.000Z</time>
      </trkpt>
      <trkpt lat="49.5801" lon="3.47087">
        <ele>179.3</ele>
        <time>2016-11-05T08:54:13.000Z</time>
      </trkpt>
      <trkpt lat="49.58013" lon="3.47099">
        <ele>179.8</ele>
        <time>2016-11-05T08:54:19.000Z</time>
      </trkpt>
      <trkpt lat="49.58013" lon="3.47101">
        <ele>179.8</ele>
        <time>2016-11-05T08:54:20.000Z</time>
      </trkpt>
      <trkpt lat="49.58018" lon="3.47111">
        <ele>179.8</ele>
        <time>2016-11-05T08:54:25.000Z</time>
      </trkpt>
      <trkpt lat="49.58019" lon="3.47114">
        <ele>179.9</ele>
        <time>2016-11-05T08:54:26.000Z</time>
      </trkpt>
      <trkpt lat="49.58021" lon="3.47127">
        <ele>181</ele>
        <time>2016-11-05T08:54:33.000Z</time>
      </trkpt>
      <trkpt lat="49.58022" lon="3.47129">
        <ele>181.1</ele>
        <time>2016-11-05T08:54:34.000Z</time>
      </trkpt>
      <trkpt lat="49.58022" lon="3.47141">
        <ele>181.5</ele>
        <time>2016-11-05T08:54:40.000Z</time>
      </trkpt>
      <trkpt lat="49.58022" lon="3.47143">
        <ele>181.6</ele>
        <time>2016-11-05T08:54:41.000Z</time>
      </trkpt>
      <trkpt lat="49.58023" lon="3.47155">
        <ele>182.5</ele>
        <time>2016-11-05T08:54:48.000Z</time>
      </trkpt>
      <trkpt lat="49.58023" lon="3.47157">
        <ele>182.6</ele>
        <time>2016-11-05T08:54:49.000Z</time>
      </trkpt>
      <trkpt lat="49.58024" lon="3.47171">
        <ele>183.9</ele>
        <time>2016-11-05T08:54:54.000Z</time>
      </trkpt>
      <trkpt lat="49.58024" lon="3.47173">
        <ele>184.1</ele>
        <time>2016-11-05T08:54:55.000Z</time>
      </trkpt>
      <trkpt lat="49.58027" lon="3.47184">
        <ele>184.3</ele>
        <time>2016-11-05T08:54:59.000Z</time>
      </trkpt>
      <trkpt lat="49.58027" lon="3.47187">
        <ele>184</ele>
        <time>2016-11-05T08:55:00.000Z</time>
      </trkpt>
      <trkpt lat="49.5803" lon="3.47198">
        <ele>184.9</ele>
        <time>2016-11-05T08:55:05.000Z</time>
      </trkpt>
      <trkpt lat="49.5803" lon="3.472">
        <ele>184.9</ele>
        <time>2016-11-05T08:55:06.000Z</time>
      </trkpt>
      <trkpt lat="49.58031" lon="3.47211">
        <ele>186.2</ele>
        <time>2016-11-05T08:55:12.000Z</time>
      </trkpt>
      <trkpt lat="49.58032" lon="3.47214">
        <ele>186.5</ele>
        <time>2016-11-05T08:55:13.000Z</time>
      </trkpt>
      <trkpt lat="49.58035" lon="3.47225">
        <ele>187.5</ele>
        <time>2016-11-05T08:55:18.000Z</time>
      </trkpt>
      <trkpt lat="49.58036" lon="3.47228">
        <ele>187.9</ele>
        <time>2016-11-05T08:55:19.000Z</time>
      </trkpt>
      <trkpt lat="49.5804" lon="3.47239">
        <ele>189.3</ele>
        <time>2016-11-05T08:55:24.000Z</time>
      </trkpt>
      <trkpt lat="49.5804" lon="3.4724">
        <ele>189.4</ele>
        <time>2016-11-05T08:55:25.000Z</time>
      </trkpt>
      <trkpt lat="49.58042" lon="3.47252">
        <ele>190.4</ele>
        <time>2016-11-05T08:55:31.000Z</time>
      </trkpt>
      <trkpt lat="49.58043" lon="3.47254">
        <ele>190.5</ele>
        <time>2016-11-05T08:55:32.000Z</time>
      </trkpt>
      <trkpt lat="49.58047" lon="3.47266">
        <ele>191.2</ele>
        <time>2016-11-05T08:55:38.000Z</time>
      </trkpt>
      <trkpt lat="49.58048" lon="3.47268">
        <ele>191.3</ele>
        <time>2016-11-05T08:55:39.000Z</time>
      </trkpt>
      <trkpt lat="49.5805" lon="3.4728">
        <ele>191.4</ele>
        <time>2016-11-05T08:55:44.000Z</time>
      </trkpt>
      <trkpt lat="49.58051" lon="3.47283">
        <ele>191.4</ele>
        <time>2016-11-05T08:55:45.000Z</time>
      </trkpt>
      <trkpt lat="49.58053" lon="3.47295">
        <ele>190.9</ele>
        <time>2016-11-05T08:55:50.000Z</time>
      </trkpt>
      <trkpt lat="49.58053" lon="3.47297">
        <ele>190.7</ele>
        <time>2016-11-05T08:55:51.000Z</time>
      </trkpt>
      <trkpt lat="49.58051" lon="3.47308">
        <ele>191.1</ele>
        <time>2016-11-05T08:55:56.000Z</time>
      </trkpt>
      <trkpt lat="49.5805" lon="3.4731">
        <ele>191</ele>
        <time>2016-11-05T08:55:57.000Z</time>
      </trkpt>
      <trkpt lat="49.58051" lon="3.47323">
        <ele>191.6</ele>
        <time>2016-11-05T08:56:02.000Z</time>
      </trkpt>
      <trkpt lat="49.58051" lon="3.47325">
        <ele>191.8</ele>
        <time>2016-11-05T08:56:03.000Z</time>
      </trkpt>
      <trkpt lat="49.58055" lon="3.47335">
        <ele>192</ele>
        <time>2016-11-05T08:56:08.000Z</time>
      </trkpt>
      <trkpt lat="49.58056" lon="3.47338">
        <ele>191.9</ele>
        <time>2016-11-05T08:56:09.000Z</time>
      </trkpt>
      <trkpt lat="49.58061" lon="3.47348">
        <ele>192</ele>
        <time>2016-11-05T08:56:14.000Z</time>
      </trkpt>
      <trkpt lat="49.58062" lon="3.4735">
        <ele>192.1</ele>
        <time>2016-11-05T08:56:15.000Z</time>
      </trkpt>
      <trkpt lat="49.58067" lon="3.47361">
        <ele>192.2</ele>
        <time>2016-11-05T08:56:19.000Z</time>
      </trkpt>
      <trkpt lat="49.58068" lon="3.47364">
        <ele>192.1</ele>
        <time>2016-11-05T08:56:20.000Z</time>
      </trkpt>
      <trkpt lat="49.5807" lon="3.47376">
        <ele>191.5</ele>
        <time>2016-11-05T08:56:24.000Z</time>
      </trkpt>
      <trkpt lat="49.5807" lon="3.47379">
        <ele>191.4</ele>
        <time>2016-11-05T08:56:25.000Z</time>
      </trkpt>
      <trkpt lat="49.58071" lon="3.47391">
        <ele>191.5</ele>
        <time>2016-11-05T08:56:29.000Z</time>
      </trkpt>
      <trkpt lat="49.58071" lon="3.47394">
        <ele>191.4</ele>
        <time>2016-11-05T08:56:30.000Z</time>
      </trkpt>
      <trkpt lat="49.58074" lon="3.47406">
        <ele>191</ele>
        <time>2016-11-05T08:56:34.000Z</time>
      </trkpt>
      <trkpt lat="49.58075" lon="3.47409">
        <ele>191</ele>
        <time>2016-11-05T08:56:35.000Z</time>
      </trkpt>
      <trkpt lat="49.58079" lon="3.47422">
        <ele>191.2</ele>
        <time>2016-11-05T08:56:40.000Z</time>
      </trkpt>
      <trkpt lat="49.5808" lon="3.47424">
        <ele>191.1</ele>
        <time>2016-11-05T08:56:41.000Z</time>
      </trkpt>
      <trkpt lat="49.58081" lon="3.47436">
        <ele>192.1</ele>
        <time>2016-11-05T08:56:46.000Z</time>
      </trkpt>
      <trkpt lat="49.58082" lon="3.47438">
        <ele>192.4</ele>
        <time>2016-11-05T08:56:47.000Z</time>
      </trkpt>
      <trkpt lat="49.58084" lon="3.47451">
        <ele>193.2</ele>
        <time>2016-11-05T08:56:52.000Z</time>
      </trkpt>
      <trkpt lat="49.58085" lon="3.47453">
        <ele>193</ele>
        <time>2016-11-05T08:56:53.000Z</time>
      </trkpt>
      <trkpt lat="49.58086" lon="3.47466">
        <ele>192.9</ele>
        <time>2016-11-05T08:57:01.000Z</time>
      </trkpt>
      <trkpt lat="49.58086" lon="3.47468">
        <ele>193.3</ele>
        <time>2016-11-05T08:57:02.000Z</time>
      </trkpt>
      <trkpt lat="49.58089" lon="3.47481">
        <ele>193.8</ele>
        <time>2016-11-05T08:57:07.000Z</time>
      </trkpt>
      <trkpt lat="49.5809" lon="3.47482">
        <ele>193.8</ele>
        <time>2016-11-05T08:57:08.000Z</time>
      </trkpt>
      <trkpt lat="49.58092" lon="3.47493">
        <ele>194.5</ele>
        <time>2016-11-05T08:57:12.000Z</time>
      </trkpt>
      <trkpt lat="49.58093" lon="3.47496">
        <ele>194.5</ele>
        <time>2016-11-05T08:57:13.000Z</time>
      </trkpt>
      <trkpt lat="49.58097" lon="3.47506">
        <ele>194.7</ele>
        <time>2016-11-05T08:57:17.000Z</time>
      </trkpt>
      <trkpt lat="49.58097" lon="3.47509">
        <ele>194.9</ele>
        <time>2016-11-05T08:57:18.000Z</time>
      </trkpt>
      <trkpt lat="49.58099" lon="3.4752">
        <ele>195.3</ele>
        <time>2016-11-05T08:57:22.000Z</time>
      </trkpt>
      <trkpt lat="49.581" lon="3.47522">
        <ele>195.2</ele>
        <time>2016-11-05T08:57:23.000Z</time>
      </trkpt>
      <trkpt lat="49.581" lon="3.47535">
        <ele>196.2</ele>
        <time>2016-11-05T08:57:32.000Z</time>
      </trkpt>
      <trkpt lat="49.581" lon="3.47537">
        <ele>196.3</ele>
        <time>2016-11-05T08:57:33.000Z</time>
      </trkpt>
      <trkpt lat="49.58101" lon="3.47548">
        <ele>196.3</ele>
        <time>2016-11-05T08:57:37.000Z</time>
      </trkpt>
      <trkpt lat="49.58102" lon="3.47551">
        <ele>196.3</ele>
        <time>2016-11-05T08:57:38.000Z</time>
      </trkpt>
      <trkpt lat="49.58104" lon="3.47563">
        <ele>196.7</ele>
        <time>2016-11-05T08:57:42.000Z</time>
      </trkpt>
      <trkpt lat="49.58105" lon="3.47566">
        <ele>196.8</ele>
        <time>2016-11-05T08:57:43.000Z</time>
      </trkpt>
      <trkpt lat="49.58107" lon="3.47578">
        <ele>196.3</ele>
        <time>2016-11-05T08:57:48.000Z</time>
      </trkpt>
      <trkpt lat="49.58107" lon="3.4758">
        <ele>196.7</ele>
        <time>2016-11-05T08:57:49.000Z</time>
      </trkpt>
      <trkpt lat="49.58109" lon="3.47592">
        <ele>197.1</ele>
        <time>2016-11-05T08:57:56.000Z</time>
      </trkpt>
      <trkpt lat="49.5811" lon="3.47594">
        <ele>197.3</ele>
        <time>2016-11-05T08:57:57.000Z</time>
      </trkpt>
      <trkpt lat="49.58113" lon="3.47605">
        <ele>198</ele>
        <time>2016-11-05T08:58:03.000Z</time>
      </trkpt>
      <trkpt lat="49.58114" lon="3.47607">
        <ele>197.8</ele>
        <time>2016-11-05T08:58:04.000Z</time>
      </trkpt>
      <trkpt lat="49.58118" lon="3.47617">
        <ele>197.8</ele>
        <time>2016-11-05T08:58:08.000Z</time>
      </trkpt>
      <trkpt lat="49.58119" lon="3.4762">
        <ele>197.6</ele>
        <time>2016-11-05T08:58:09.000Z</time>
      </trkpt>
      <trkpt lat="49.58124" lon="3.47629">
        <ele>197</ele>
        <time>2016-11-05T08:58:12.000Z</time>
      </trkpt>
      <trkpt lat="49.58125" lon="3.47632">
        <ele>196.9</ele>
        <time>2016-11-05T08:58:13.000Z</time>
      </trkpt>
      <trkpt lat="49.58129" lon="3.47644">
        <ele>196.4</ele>
        <time>2016-11-05T08:58:17.000Z</time>
      </trkpt>
      <trkpt lat="49.5813" lon="3.47647">
        <ele>196.2</ele>
        <time>2016-11-05T08:58:18.000Z</time>
      </trkpt>
      <trkpt lat="49.58132" lon="3.47659">
        <ele>195.7</ele>
        <time>2016-11-05T08:58:22.000Z</time>
      </trkpt>
      <trkpt lat="49.58133" lon="3.47662">
        <ele>195.7</ele>
        <time>2016-11-05T08:58:23.000Z</time>
      </trkpt>
      <trkpt lat="49.58135" lon="3.47673">
        <ele>195.9</ele>
        <time>2016-11-05T08:58:26.000Z</time>
      </trkpt>
      <trkpt lat="49.58136" lon="3.47676">
        <ele>195.9</ele>
        <time>2016-11-05T08:58:27.000Z</time>
      </trkpt>
      <trkpt lat="49.58139" lon="3.47687">
        <ele>195.7</ele>
        <time>2016-11-05T08:58:31.000Z</time>
      </trkpt>
      <trkpt lat="49.5814" lon="3.47689">
        <ele>195.8</ele>
        <time>2016-11-05T08:58:32.000Z</time>
      </trkpt>
      <trkpt lat="49.58141" lon="3.47701">
        <ele>196.4</ele>
        <time>2016-11-05T08:58:39.000Z</time>
      </trkpt>
      <trkpt lat="49.5814" lon="3.47704">
        <ele>196.3</ele>
        <time>2016-11-05T08:58:40.000Z</time>
      </trkpt>
      <trkpt lat="49.58141" lon="3.47715">
        <ele>195.7</ele>
        <time>2016-11-05T08:58:44.000Z</time>
      </trkpt>
      <trkpt lat="49.58141" lon="3.47718">
        <ele>196</ele>
        <time>2016-11-05T08:58:45.000Z</time>
      </trkpt>
      <trkpt lat="49.58142" lon="3.47731">
        <ele>196.8</ele>
        <time>2016-11-05T08:58:51.000Z</time>
      </trkpt>
      <trkpt lat="49.58142" lon="3.47734">
        <ele>196.7</ele>
        <time>2016-11-05T08:58:52.000Z</time>
      </trkpt>
      <trkpt lat="49.58145" lon="3.47746">
        <ele>196.7</ele>
        <time>2016-11-05T08:58:57.000Z</time>
      </trkpt>
      <trkpt lat="49.58146" lon="3.47748">
        <ele>196.4</ele>
        <time>2016-11-05T08:58:58.000Z</time>
      </trkpt>
      <trkpt lat="49.58151" lon="3.47758">
        <ele>195.8</ele>
        <time>2016-11-05T08:59:03.000Z</time>
      </trkpt>
      <trkpt lat="49.58152" lon="3.4776">
        <ele>195.9</ele>
        <time>2016-11-05T08:59:04.000Z</time>
      </trkpt>
      <trkpt lat="49.58154" lon="3.47772">
        <ele>197.5</ele>
        <time>2016-11-05T08:59:10.000Z</time>
      </trkpt>
      <trkpt lat="49.58155" lon="3.47773">
        <ele>197.4</ele>
        <time>2016-11-05T08:59:11.000Z</time>
      </trkpt>
      <trkpt lat="49.58157" lon="3.47786">
        <ele>197.4</ele>
        <time>2016-11-05T08:59:17.000Z</time>
      </trkpt>
      <trkpt lat="49.58158" lon="3.47789">
        <ele>197.5</ele>
        <time>2016-11-05T08:59:18.000Z</time>
      </trkpt>
      <trkpt lat="49.58164" lon="3.47798">
        <ele>197.8</ele>
        <time>2016-11-05T08:59:22.000Z</time>
      </trkpt>
      <trkpt lat="49.58166" lon="3.478">
        <ele>197.6</ele>
        <time>2016-11-05T08:59:23.000Z</time>
      </trkpt>
      <trkpt lat="49.58171" lon="3.47811">
        <ele>197.3</ele>
        <time>2016-11-05T08:59:28.000Z</time>
      </trkpt>
      <trkpt lat="49.58171" lon="3.47813">
        <ele>197.5</ele>
        <time>2016-11-05T08:59:29.000Z</time>
      </trkpt>
      <trkpt lat="49.58174" lon="3.47825">
        <ele>197.7</ele>
        <time>2016-11-05T08:59:35.000Z</time>
      </trkpt>
      <trkpt lat="49.58174" lon="3.47827">
        <ele>197.9</ele>
        <time>2016-11-05T08:59:36.000Z</time>
      </trkpt>
      <trkpt lat="49.58173" lon="3.47838">
        <ele>198.6</ele>
        <time>2016-11-05T08:59:42.000Z</time>
      </trkpt>
      <trkpt lat="49.58174" lon="3.47841">
        <ele>198.5</ele>
        <time>2016-11-05T08:59:43.000Z</time>
      </trkpt>
      <trkpt lat="49.58178" lon="3.47849">
        <ele>199</ele>
        <time>2016-11-05T08:59:46.000Z</time>
      </trkpt>
      <trkpt lat="49.58181" lon="3.47851">
        <ele>199</ele>
        <time>2016-11-05T08:59:47.000Z</time>
      </trkpt>
      <trkpt lat="49.58185" lon="3.47862">
        <ele>199.1</ele>
        <time>2016-11-05T08:59:51.000Z</time>
      </trkpt>
      <trkpt lat="49.58186" lon="3.47865">
        <ele>199.1</ele>
        <time>2016-11-05T08:59:52.000Z</time>
      </trkpt>
      <trkpt lat="49.58191" lon="3.47876">
        <ele>199.4</ele>
        <time>2016-11-05T08:59:57.000Z</time>
      </trkpt>
      <trkpt lat="49.58192" lon="3.47878">
        <ele>199.4</ele>
        <time>2016-11-05T08:59:58.000Z</time>
      </trkpt>
      <trkpt lat="49.58195" lon="3.47891">
        <ele>199.3</ele>
        <time>2016-11-05T09:00:06.000Z</time>
      </trkpt>
      <trkpt lat="49.58196" lon="3.47892">
        <ele>199.6</ele>
        <time>2016-11-05T09:00:07.000Z</time>
      </trkpt>
      <trkpt lat="49.58202" lon="3.47902">
        <ele>200.1</ele>
        <time>2016-11-05T09:00:15.000Z</time>
      </trkpt>
      <trkpt lat="49.58202" lon="3.47903">
        <ele>200.2</ele>
        <time>2016-11-05T09:00:16.000Z</time>
      </trkpt>
      <trkpt lat="49.58208" lon="3.47909">
        <ele>201.2</ele>
        <time>2016-11-05T09:00:23.000Z</time>
      </trkpt>
      <trkpt lat="49.5821" lon="3.47911">
        <ele>201.2</ele>
        <time>2016-11-05T09:00:24.000Z</time>
      </trkpt>
      <trkpt lat="49.58218" lon="3.47916">
        <ele>201.5</ele>
        <time>2016-11-05T09:00:30.000Z</time>
      </trkpt>
      <trkpt lat="49.58219" lon="3.47917">
        <ele>202.1</ele>
        <time>2016-11-05T09:00:31.000Z</time>
      </trkpt>
      <trkpt lat="49.58227" lon="3.4792">
        <ele>202.4</ele>
        <time>2016-11-05T09:00:37.000Z</time>
      </trkpt>
      <trkpt lat="49.58228" lon="3.47921">
        <ele>202.2</ele>
        <time>2016-11-05T09:00:38.000Z</time>
      </trkpt>
      <trkpt lat="49.58233" lon="3.47926">
        <ele>202.1</ele>
        <time>2016-11-05T09:00:42.000Z</time>
      </trkpt>
      <trkpt lat="49.58234" lon="3.47926">
        <ele>202.1</ele>
        <time>2016-11-05T09:00:43.000Z</time>
      </trkpt>
      <trkpt lat="49.58235" lon="3.47927">
        <ele>201.9</ele>
        <time>2016-11-05T09:00:44.000Z</time>
      </trkpt>
      <trkpt lat="49.58236" lon="3.47927">
        <ele>202</ele>
        <time>2016-11-05T09:00:45.000Z</time>
      </trkpt>
      <trkpt lat="49.58236" lon="3.47927">
        <ele>202</ele>
        <time>2016-11-05T09:00:46.000Z</time>
      </trkpt>
      <trkpt lat="49.58237" lon="3.47928">
        <ele>202</ele>
        <time>2016-11-05T09:00:47.000Z</time>
      </trkpt>
      <trkpt lat="49.58243" lon="3.47936">
        <ele>201.1</ele>
        <time>2016-11-05T09:00:54.000Z</time>
      </trkpt>
      <trkpt lat="49.58244" lon="3.47937">
        <ele>200.9</ele>
        <time>2016-11-05T09:00:55.000Z</time>
      </trkpt>
      <trkpt lat="49.5825" lon="3.47943">
        <ele>200.2</ele>
        <time>2016-11-05T09:01:00.000Z</time>
      </trkpt>
      <trkpt lat="49.58252" lon="3.47944">
        <ele>200.1</ele>
        <time>2016-11-05T09:01:01.000Z</time>
      </trkpt>
      <trkpt lat="49.58259" lon="3.4795">
        <ele>199.6</ele>
        <time>2016-11-05T09:01:05.000Z</time>
      </trkpt>
      <trkpt lat="49.58261" lon="3.47952">
        <ele>199.5</ele>
        <time>2016-11-05T09:01:06.000Z</time>
      </trkpt>
      <trkpt lat="49.58268" lon="3.47961">
        <ele>198.8</ele>
        <time>2016-11-05T09:01:10.000Z</time>
      </trkpt>
      <trkpt lat="49.5827" lon="3.47963">
        <ele>198.7</ele>
        <time>2016-11-05T09:01:11.000Z</time>
      </trkpt>
      <trkpt lat="49.58275" lon="3.47971">
        <ele>197.5</ele>
        <time>2016-11-05T09:01:15.000Z</time>
      </trkpt>
      <trkpt lat="49.58277" lon="3.47973">
        <ele>197.3</ele>
        <time>2016-11-05T09:01:16.000Z</time>
      </trkpt>
      <trkpt lat="49.58284" lon="3.47982">
        <ele>197.1</ele>
        <time>2016-11-05T09:01:22.000Z</time>
      </trkpt>
      <trkpt lat="49.58285" lon="3.47983">
        <ele>196.9</ele>
        <time>2016-11-05T09:01:23.000Z</time>
      </trkpt>
      <trkpt lat="49.5829" lon="3.47995">
        <ele>196.1</ele>
        <time>2016-11-05T09:01:29.000Z</time>
      </trkpt>
      <trkpt lat="49.58291" lon="3.47996">
        <ele>195.9</ele>
        <time>2016-11-05T09:01:30.000Z</time>
      </trkpt>
      <trkpt lat="49.58296" lon="3.48001">
        <ele>195.7</ele>
        <time>2016-11-05T09:01:33.000Z</time>
      </trkpt>
      <trkpt lat="49.58299" lon="3.48003">
        <ele>195.2</ele>
        <time>2016-11-05T09:01:34.000Z</time>
      </trkpt>
      <trkpt lat="49.58306" lon="3.48009">
        <ele>193.3</ele>
        <time>2016-11-05T09:01:37.000Z</time>
      </trkpt>
      <trkpt lat="49.58309" lon="3.48011">
        <ele>192.4</ele>
        <time>2016-11-05T09:01:38.000Z</time>
      </trkpt>
      <trkpt lat="49.58314" lon="3.48021">
        <ele>191.4</ele>
        <time>2016-11-05T09:01:41.000Z</time>
      </trkpt>
      <trkpt lat="49.58315" lon="3.48023">
        <ele>191.5</ele>
        <time>2016-11-05T09:01:42.000Z</time>
      </trkpt>
      <trkpt lat="49.58315" lon="3.48036">
        <ele>190.6</ele>
        <time>2016-11-05T09:01:47.000Z</time>
      </trkpt>
      <trkpt lat="49.58315" lon="3.48038">
        <ele>190.4</ele>
        <time>2016-11-05T09:01:48.000Z</time>
      </trkpt>
      <trkpt lat="49.58314" lon="3.48051">
        <ele>189</ele>
        <time>2016-11-05T09:01:56.000Z</time>
      </trkpt>
      <trkpt lat="49.58314" lon="3.48053">
        <ele>188.9</ele>
        <time>2016-11-05T09:01:57.000Z</time>
      </trkpt>
      <trkpt lat="49.58313" lon="3.48066">
        <ele>188.5</ele>
        <time>2016-11-05T09:02:02.000Z</time>
      </trkpt>
      <trkpt lat="49.58312" lon="3.48068">
        <ele>188.5</ele>
        <time>2016-11-05T09:02:03.000Z</time>
      </trkpt>
      <trkpt lat="49.58314" lon="3.48081">
        <ele>188.3</ele>
        <time>2016-11-05T09:02:08.000Z</time>
      </trkpt>
      <trkpt lat="49.58314" lon="3.48084">
        <ele>188.2</ele>
        <time>2016-11-05T09:02:09.000Z</time>
      </trkpt>
      <trkpt lat="49.58312" lon="3.48097">
        <ele>187.4</ele>
        <time>2016-11-05T09:02:13.000Z</time>
      </trkpt>
      <trkpt lat="49.58312" lon="3.48099">
        <ele>187.4</ele>
        <time>2016-11-05T09:02:14.000Z</time>
      </trkpt>
      <trkpt lat="49.58312" lon="3.48111">
        <ele>187.5</ele>
        <time>2016-11-05T09:02:20.000Z</time>
      </trkpt>
      <trkpt lat="49.58311" lon="3.48113">
        <ele>187.4</ele>
        <time>2016-11-05T09:02:21.000Z</time>
      </trkpt>
      <trkpt lat="49.5831" lon="3.48126">
        <ele>187</ele>
        <time>2016-11-05T09:02:27.000Z</time>
      </trkpt>
      <trkpt lat="49.58309" lon="3.48128">
        <ele>186.9</ele>
        <time>2016-11-05T09:02:28.000Z</time>
      </trkpt>
      <trkpt lat="49.58308" lon="3.4814">
        <ele>187.1</ele>
        <time>2016-11-05T09:02:32.000Z</time>
      </trkpt>
      <trkpt lat="49.58308" lon="3.48142">
        <ele>187.2</ele>
        <time>2016-11-05T09:02:33.000Z</time>
      </trkpt>
      <trkpt lat="49.58305" lon="3.48154">
        <ele>187.1</ele>
        <time>2016-11-05T09:02:38.000Z</time>
      </trkpt>
      <trkpt lat="49.58305" lon="3.48156">
        <ele>186.9</ele>
        <time>2016-11-05T09:02:39.000Z</time>
      </trkpt>
      <trkpt lat="49.58305" lon="3.48169">
        <ele>187.6</ele>
        <time>2016-11-05T09:02:47.000Z</time>
      </trkpt>
      <trkpt lat="49.58304" lon="3.48171">
        <ele>187.9</ele>
        <time>2016-11-05T09:02:48.000Z</time>
      </trkpt>
      <trkpt lat="49.58306" lon="3.48185">
        <ele>188.4</ele>
        <time>2016-11-05T09:02:53.000Z</time>
      </trkpt>
      <trkpt lat="49.58306" lon="3.48187">
        <ele>188.1</ele>
        <time>2016-11-05T09:02:54.000Z</time>
      </trkpt>
      <trkpt lat="49.58304" lon="3.48199">
        <ele>187.9</ele>
        <time>2016-11-05T09:02:59.000Z</time>
      </trkpt>
      <trkpt lat="49.58303" lon="3.48201">
        <ele>187.9</ele>
        <time>2016-11-05T09:03:00.000Z</time>
      </trkpt>
      <trkpt lat="49.58297" lon="3.48211">
        <ele>187.7</ele>
        <time>2016-11-05T09:03:06.000Z</time>
      </trkpt>
      <trkpt lat="49.58297" lon="3.48213">
        <ele>187.7</ele>
        <time>2016-11-05T09:03:07.000Z</time>
      </trkpt>
      <trkpt lat="49.58295" lon="3.48225">
        <ele>188</ele>
        <time>2016-11-05T09:03:11.000Z</time>
      </trkpt>
      <trkpt lat="49.58296" lon="3.48227">
        <ele>188</ele>
        <time>2016-11-05T09:03:12.000Z</time>
      </trkpt>
      <trkpt lat="49.58296" lon="3.4824">
        <ele>188.2</ele>
        <time>2016-11-05T09:03:17.000Z</time>
      </trkpt>
      <trkpt lat="49.58295" lon="3.48243">
        <ele>188.3</ele>
        <time>2016-11-05T09:03:18.000Z</time>
      </trkpt>
      <trkpt lat="49.58293" lon="3.48256">
        <ele>188.5</ele>
        <time>2016-11-05T09:03:23.000Z</time>
      </trkpt>
      <trkpt lat="49.58292" lon="3.48258">
        <ele>188.6</ele>
        <time>2016-11-05T09:03:24.000Z</time>
      </trkpt>
      <trkpt lat="49.58294" lon="3.48271">
        <ele>188.9</ele>
        <time>2016-11-05T09:03:30.000Z</time>
      </trkpt>
      <trkpt lat="49.58294" lon="3.48272">
        <ele>189</ele>
        <time>2016-11-05T09:03:31.000Z</time>
      </trkpt>
      <trkpt lat="49.58297" lon="3.48282">
        <ele>189.2</ele>
        <time>2016-11-05T09:03:35.000Z</time>
      </trkpt>
      <trkpt lat="49.58297" lon="3.48286">
        <ele>189.4</ele>
        <time>2016-11-05T09:03:36.000Z</time>
      </trkpt>
      <trkpt lat="49.58296" lon="3.483">
        <ele>189.4</ele>
        <time>2016-11-05T09:03:41.000Z</time>
      </trkpt>
      <trkpt lat="49.58296" lon="3.48302">
        <ele>189.2</ele>
        <time>2016-11-05T09:03:42.000Z</time>
      </trkpt>
      <trkpt lat="49.58295" lon="3.48316">
        <ele>189</ele>
        <time>2016-11-05T09:03:47.000Z</time>
      </trkpt>
      <trkpt lat="49.58295" lon="3.48319">
        <ele>189</ele>
        <time>2016-11-05T09:03:48.000Z</time>
      </trkpt>
      <trkpt lat="49.58293" lon="3.4833">
        <ele>188.9</ele>
        <time>2016-11-05T09:03:53.000Z</time>
      </trkpt>
      <trkpt lat="49.58292" lon="3.48333">
        <ele>188.9</ele>
        <time>2016-11-05T09:03:54.000Z</time>
      </trkpt>
      <trkpt lat="49.58289" lon="3.48344">
        <ele>189</ele>
        <time>2016-11-05T09:03:58.000Z</time>
      </trkpt>
      <trkpt lat="49.58289" lon="3.48347">
        <ele>189</ele>
        <time>2016-11-05T09:03:59.000Z</time>
      </trkpt>
      <trkpt lat="49.58286" lon="3.48359">
        <ele>189</ele>
        <time>2016-11-05T09:04:05.000Z</time>
      </trkpt>
      <trkpt lat="49.58286" lon="3.48362">
        <ele>189.1</ele>
        <time>2016-11-05T09:04:06.000Z</time>
      </trkpt>
      <trkpt lat="49.58285" lon="3.48375">
        <ele>188.9</ele>
        <time>2016-11-05T09:04:11.000Z</time>
      </trkpt>
      <trkpt lat="49.58285" lon="3.48377">
        <ele>188.8</ele>
        <time>2016-11-05T09:04:12.000Z</time>
      </trkpt>
      <trkpt lat="49.58285" lon="3.48389">
        <ele>188.8</ele>
        <time>2016-11-05T09:04:17.000Z</time>
      </trkpt>
      <trkpt lat="49.58284" lon="3.48392">
        <ele>188.8</ele>
        <time>2016-11-05T09:04:18.000Z</time>
      </trkpt>
      <trkpt lat="49.58282" lon="3.48405">
        <ele>189.1</ele>
        <time>2016-11-05T09:04:23.000Z</time>
      </trkpt>
      <trkpt lat="49.58282" lon="3.48407">
        <ele>189.2</ele>
        <time>2016-11-05T09:04:24.000Z</time>
      </trkpt>
      <trkpt lat="49.58282" lon="3.48419">
        <ele>188.9</ele>
        <time>2016-11-05T09:04:29.000Z</time>
      </trkpt>
      <trkpt lat="49.58281" lon="3.48422">
        <ele>188.8</ele>
        <time>2016-11-05T09:04:30.000Z</time>
      </trkpt>
      <trkpt lat="49.58278" lon="3.48435">
        <ele>189</ele>
        <time>2016-11-05T09:04:35.000Z</time>
      </trkpt>
      <trkpt lat="49.58278" lon="3.48437">
        <ele>189.1</ele>
        <time>2016-11-05T09:04:36.000Z</time>
      </trkpt>
      <trkpt lat="49.58277" lon="3.48449">
        <ele>188.5</ele>
        <time>2016-11-05T09:04:41.000Z</time>
      </trkpt>
      <trkpt lat="49.58277" lon="3.48452">
        <ele>188.4</ele>
        <time>2016-11-05T09:04:42.000Z</time>
      </trkpt>
      <trkpt lat="49.58274" lon="3.48463">
        <ele>188.6</ele>
        <time>2016-11-05T09:04:46.000Z</time>
      </trkpt>
      <trkpt lat="49.58274" lon="3.48467">
        <ele>188.7</ele>
        <time>2016-11-05T09:04:47.000Z</time>
      </trkpt>
      <trkpt lat="49.58273" lon="3.4848">
        <ele>188.6</ele>
        <time>2016-11-05T09:04:51.000Z</time>
      </trkpt>
      <trkpt lat="49.58274" lon="3.48483">
        <ele>188.6</ele>
        <time>2016-11-05T09:04:52.000Z</time>
      </trkpt>
      <trkpt lat="49.58272" lon="3.48496">
        <ele>188.3</ele>
        <time>2016-11-05T09:04:57.000Z</time>
      </trkpt>
      <trkpt lat="49.58272" lon="3.48499">
        <ele>188.3</ele>
        <time>2016-11-05T09:04:58.000Z</time>
      </trkpt>
      <trkpt lat="49.58269" lon="3.48511">
        <ele>187.9</ele>
        <time>2016-11-05T09:05:03.000Z</time>
      </trkpt>
      <trkpt lat="49.58269" lon="3.48513">
        <ele>187.8</ele>
        <time>2016-11-05T09:05:04.000Z</time>
      </trkpt>
      <trkpt lat="49.58271" lon="3.48525">
        <ele>187.2</ele>
        <time>2016-11-05T09:05:08.000Z</time>
      </trkpt>
      <trkpt lat="49.58272" lon="3.48528">
        <ele>186.9</ele>
        <time>2016-11-05T09:05:09.000Z</time>
      </trkpt>
      <trkpt lat="49.58275" lon="3.4854">
        <ele>185.7</ele>
        <time>2016-11-05T09:05:13.000Z</time>
      </trkpt>
      <trkpt lat="49.58276" lon="3.48543">
        <ele>185.8</ele>
        <time>2016-11-05T09:05:14.000Z</time>
      </trkpt>
      <trkpt lat="49.58278" lon="3.48556">
        <ele>185.1</ele>
        <time>2016-11-05T09:05:19.000Z</time>
      </trkpt>
      <trkpt lat="49.58278" lon="3.48558">
        <ele>185</ele>
        <time>2016-11-05T09:05:20.000Z</time>
      </trkpt>
      <trkpt lat="49.58273" lon="3.48569">
        <ele>184.7</ele>
        <time>2016-11-05T09:05:25.000Z</time>
      </trkpt>
      <trkpt lat="49.58272" lon="3.48571">
        <ele>184.4</ele>
        <time>2016-11-05T09:05:26.000Z</time>
      </trkpt>
      <trkpt lat="49.58264" lon="3.48574">
        <ele>183.7</ele>
        <time>2016-11-05T09:05:30.000Z</time>
      </trkpt>
      <trkpt lat="49.58261" lon="3.48574">
        <ele>182.9</ele>
        <time>2016-11-05T09:05:31.000Z</time>
      </trkpt>
      <trkpt lat="49.58253" lon="3.48574">
        <ele>182.4</ele>
        <time>2016-11-05T09:05:36.000Z</time>
      </trkpt>
      <trkpt lat="49.58251" lon="3.48573">
        <ele>182</ele>
        <time>2016-11-05T09:05:37.000Z</time>
      </trkpt>
      <trkpt lat="49.58243" lon="3.48572">
        <ele>181.6</ele>
        <time>2016-11-05T09:05:42.000Z</time>
      </trkpt>
      <trkpt lat="49.58242" lon="3.48572">
        <ele>181.6</ele>
        <time>2016-11-05T09:05:43.000Z</time>
      </trkpt>
      <trkpt lat="49.58234" lon="3.48571">
        <ele>181.7</ele>
        <time>2016-11-05T09:05:48.000Z</time>
      </trkpt>
      <trkpt lat="49.58232" lon="3.4857">
        <ele>181.8</ele>
        <time>2016-11-05T09:05:49.000Z</time>
      </trkpt>
      <trkpt lat="49.58224" lon="3.48569">
        <ele>182.3</ele>
        <time>2016-11-05T09:05:54.000Z</time>
      </trkpt>
      <trkpt lat="49.58222" lon="3.48568">
        <ele>182.4</ele>
        <time>2016-11-05T09:05:55.000Z</time>
      </trkpt>
      <trkpt lat="49.58215" lon="3.48568">
        <ele>182.2</ele>
        <time>2016-11-05T09:05:59.000Z</time>
      </trkpt>
      <trkpt lat="49.58212" lon="3.48568">
        <ele>182.3</ele>
        <time>2016-11-05T09:06:00.000Z</time>
      </trkpt>
      <trkpt lat="49.58204" lon="3.4857">
        <ele>182.3</ele>
        <time>2016-11-05T09:06:05.000Z</time>
      </trkpt>
      <trkpt lat="49.58202" lon="3.48571">
        <ele>182.4</ele>
        <time>2016-11-05T09:06:06.000Z</time>
      </trkpt>
      <trkpt lat="49.58194" lon="3.48577">
        <ele>182.9</ele>
        <time>2016-11-05T09:06:11.000Z</time>
      </trkpt>
      <trkpt lat="49.58193" lon="3.48578">
        <ele>182.8</ele>
        <time>2016-11-05T09:06:12.000Z</time>
      </trkpt>
      <trkpt lat="49.58184" lon="3.48583">
        <ele>183.1</ele>
        <time>2016-11-05T09:06:18.000Z</time>
      </trkpt>
      <trkpt lat="49.58183" lon="3.48584">
        <ele>183.1</ele>
        <time>2016-11-05T09:06:19.000Z</time>
      </trkpt>
      <trkpt lat="49.58176" lon="3.48588">
        <ele>183.2</ele>
        <time>2016-11-05T09:06:24.000Z</time>
      </trkpt>
      <trkpt lat="49.58175" lon="3.48589">
        <ele>183.2</ele>
        <time>2016-11-05T09:06:25.000Z</time>
      </trkpt>
      <trkpt lat="49.58167" lon="3.48593">
        <ele>182.7</ele>
        <time>2016-11-05T09:06:30.000Z</time>
      </trkpt>
      <trkpt lat="49.58166" lon="3.48593">
        <ele>182.8</ele>
        <time>2016-11-05T09:06:31.000Z</time>
      </trkpt>
      <trkpt lat="49.58159" lon="3.48599">
        <ele>182.7</ele>
        <time>2016-11-05T09:06:36.000Z</time>
      </trkpt>
      <trkpt lat="49.58157" lon="3.486">
        <ele>182.6</ele>
        <time>2016-11-05T09:06:37.000Z</time>
      </trkpt>
      <trkpt lat="49.58149" lon="3.48605">
        <ele>182.3</ele>
        <time>2016-11-05T09:06:42.000Z</time>
      </trkpt>
      <trkpt lat="49.58148" lon="3.48605">
        <ele>182.2</ele>
        <time>2016-11-05T09:06:43.000Z</time>
      </trkpt>
      <trkpt lat="49.5814" lon="3.48607">
        <ele>182</ele>
        <time>2016-11-05T09:06:48.000Z</time>
      </trkpt>
      <trkpt lat="49.58138" lon="3.48606">
        <ele>181.9</ele>
        <time>2016-11-05T09:06:49.000Z</time>
      </trkpt>
      <trkpt lat="49.5813" lon="3.48601">
        <ele>180.1</ele>
        <time>2016-11-05T09:06:54.000Z</time>
      </trkpt>
      <trkpt lat="49.58128" lon="3.48599">
        <ele>179.7</ele>
        <time>2016-11-05T09:06:55.000Z</time>
      </trkpt>
      <trkpt lat="49.58123" lon="3.48594">
        <ele>178.5</ele>
        <time>2016-11-05T09:06:58.000Z</time>
      </trkpt>
      <trkpt lat="49.5812" lon="3.48592">
        <ele>178</ele>
        <time>2016-11-05T09:06:59.000Z</time>
      </trkpt>
      <trkpt lat="49.58114" lon="3.48583">
        <ele>177.6</ele>
        <time>2016-11-05T09:07:04.000Z</time>
      </trkpt>
      <trkpt lat="49.58113" lon="3.48581">
        <ele>177.4</ele>
        <time>2016-11-05T09:07:05.000Z</time>
      </trkpt>
      <trkpt lat="49.58108" lon="3.48572">
        <ele>176.9</ele>
        <time>2016-11-05T09:07:10.000Z</time>
      </trkpt>
      <trkpt lat="49.58107" lon="3.48571">
        <ele>176.9</ele>
        <time>2016-11-05T09:07:11.000Z</time>
      </trkpt>
      <trkpt lat="49.58103" lon="3.48561">
        <ele>175.7</ele>
        <time>2016-11-05T09:07:16.000Z</time>
      </trkpt>
      <trkpt lat="49.58102" lon="3.48559">
        <ele>175.5</ele>
        <time>2016-11-05T09:07:17.000Z</time>
      </trkpt>
      <trkpt lat="49.58096" lon="3.4855">
        <ele>175</ele>
        <time>2016-11-05T09:07:22.000Z</time>
      </trkpt>
      <trkpt lat="49.58095" lon="3.48548">
        <ele>174.9</ele>
        <time>2016-11-05T09:07:23.000Z</time>
      </trkpt>
      <trkpt lat="49.5809" lon="3.48538">
        <ele>174</ele>
        <time>2016-11-05T09:07:28.000Z</time>
      </trkpt>
      <trkpt lat="49.5809" lon="3.48536">
        <ele>173.9</ele>
        <time>2016-11-05T09:07:29.000Z</time>
      </trkpt>
      <trkpt lat="49.58084" lon="3.48527">
        <ele>173.6</ele>
        <time>2016-11-05T09:07:34.000Z</time>
      </trkpt>
      <trkpt lat="49.58083" lon="3.48525">
        <ele>173.5</ele>
        <time>2016-11-05T09:07:35.000Z</time>
      </trkpt>
      <trkpt lat="49.58077" lon="3.48517">
        <ele>173.6</ele>
        <time>2016-11-05T09:07:40.000Z</time>
      </trkpt>
      <trkpt lat="49.58076" lon="3.48514">
        <ele>173.5</ele>
        <time>2016-11-05T09:07:41.000Z</time>
      </trkpt>
      <trkpt lat="49.58071" lon="3.48503">
        <ele>172.7</ele>
        <time>2016-11-05T09:07:46.000Z</time>
      </trkpt>
      <trkpt lat="49.5807" lon="3.48501">
        <ele>172.6</ele>
        <time>2016-11-05T09:07:47.000Z</time>
      </trkpt>
      <trkpt lat="49.58065" lon="3.48492">
        <ele>171.3</ele>
        <time>2016-11-05T09:07:53.000Z</time>
      </trkpt>
      <trkpt lat="49.58064" lon="3.48491">
        <ele>171.3</ele>
        <time>2016-11-05T09:07:54.000Z</time>
      </trkpt>
      <trkpt lat="49.58059" lon="3.48482">
        <ele>170.7</ele>
        <time>2016-11-05T09:07:59.000Z</time>
      </trkpt>
      <trkpt lat="49.58058" lon="3.4848">
        <ele>170.6</ele>
        <time>2016-11-05T09:08:00.000Z</time>
      </trkpt>
      <trkpt lat="49.58052" lon="3.4847">
        <ele>170.6</ele>
        <time>2016-11-05T09:08:06.000Z</time>
      </trkpt>
      <trkpt lat="49.58051" lon="3.48468">
        <ele>170.6</ele>
        <time>2016-11-05T09:08:07.000Z</time>
      </trkpt>
      <trkpt lat="49.58045" lon="3.48459">
        <ele>170.3</ele>
        <time>2016-11-05T09:08:13.000Z</time>
      </trkpt>
      <trkpt lat="49.58043" lon="3.48457">
        <ele>169.7</ele>
        <time>2016-11-05T09:08:14.000Z</time>
      </trkpt>
      <trkpt lat="49.58038" lon="3.48448">
        <ele>168</ele>
        <time>2016-11-05T09:08:18.000Z</time>
      </trkpt>
      <trkpt lat="49.58037" lon="3.48446">
        <ele>167.9</ele>
        <time>2016-11-05T09:08:19.000Z</time>
      </trkpt>
      <trkpt lat="49.58032" lon="3.48435">
        <ele>167</ele>
        <time>2016-11-05T09:08:24.000Z</time>
      </trkpt>
      <trkpt lat="49.5803" lon="3.48433">
        <ele>167</ele>
        <time>2016-11-05T09:08:25.000Z</time>
      </trkpt>
      <trkpt lat="49.58025" lon="3.48423">
        <ele>166.4</ele>
        <time>2016-11-05T09:08:30.000Z</time>
      </trkpt>
      <trkpt lat="49.58024" lon="3.48422">
        <ele>166.3</ele>
        <time>2016-11-05T09:08:31.000Z</time>
      </trkpt>
      <trkpt lat="49.58017" lon="3.48414">
        <ele>166.9</ele>
        <time>2016-11-05T09:08:37.000Z</time>
      </trkpt>
      <trkpt lat="49.58016" lon="3.48414">
        <ele>167.2</ele>
        <time>2016-11-05T09:08:38.000Z</time>
      </trkpt>
      <trkpt lat="49.58015" lon="3.48427">
        <ele>167.4</ele>
        <time>2016-11-05T09:08:43.000Z</time>
      </trkpt>
      <trkpt lat="49.58016" lon="3.4843">
        <ele>167.5</ele>
        <time>2016-11-05T09:08:44.000Z</time>
      </trkpt>
      <trkpt lat="49.58021" lon="3.48442">
        <ele>167.7</ele>
        <time>2016-11-05T09:08:50.000Z</time>
      </trkpt>
      <trkpt lat="49.58021" lon="3.48444">
        <ele>167.7</ele>
        <time>2016-11-05T09:08:51.000Z</time>
      </trkpt>
      <trkpt lat="49.58025" lon="3.48455">
        <ele>168.1</ele>
        <time>2016-11-05T09:08:56.000Z</time>
      </trkpt>
      <trkpt lat="49.58026" lon="3.48457">
        <ele>168.1</ele>
        <time>2016-11-05T09:08:57.000Z</time>
      </trkpt>
      <trkpt lat="49.58029" lon="3.48468">
        <ele>168.4</ele>
        <time>2016-11-05T09:09:02.000Z</time>
      </trkpt>
      <trkpt lat="49.5803" lon="3.4847">
        <ele>168.4</ele>
        <time>2016-11-05T09:09:03.000Z</time>
      </trkpt>
      <trkpt lat="49.58034" lon="3.48481">
        <ele>168.3</ele>
        <time>2016-11-05T09:09:08.000Z</time>
      </trkpt>
      <trkpt lat="49.58035" lon="3.48483">
        <ele>168.4</ele>
        <time>2016-11-05T09:09:09.000Z</time>
      </trkpt>
      <trkpt lat="49.5804" lon="3.48494">
        <ele>168.3</ele>
        <time>2016-11-05T09:09:15.000Z</time>
      </trkpt>
      <trkpt lat="49.5804" lon="3.48496">
        <ele>168.3</ele>
        <time>2016-11-05T09:09:16.000Z</time>
      </trkpt>
      <trkpt lat="49.58043" lon="3.48508">
        <ele>169.2</ele>
        <time>2016-11-05T09:09:22.000Z</time>
      </trkpt>
      <trkpt lat="49.58044" lon="3.48511">
        <ele>169.2</ele>
        <time>2016-11-05T09:09:23.000Z</time>
      </trkpt>
      <trkpt lat="49.58047" lon="3.48522">
        <ele>169.2</ele>
        <time>2016-11-05T09:09:28.000Z</time>
      </trkpt>
      <trkpt lat="49.58048" lon="3.48524">
        <ele>169.3</ele>
        <time>2016-11-05T09:09:29.000Z</time>
      </trkpt>
      <trkpt lat="49.58051" lon="3.48536">
        <ele>169.3</ele>
        <time>2016-11-05T09:09:34.000Z</time>
      </trkpt>
      <trkpt lat="49.58051" lon="3.48539">
        <ele>169.2</ele>
        <time>2016-11-05T09:09:35.000Z</time>
      </trkpt>
      <trkpt lat="49.58053" lon="3.48552">
        <ele>168.9</ele>
        <time>2016-11-05T09:09:40.000Z</time>
      </trkpt>
      <trkpt lat="49.58053" lon="3.48554">
        <ele>168.8</ele>
        <time>2016-11-05T09:09:41.000Z</time>
      </trkpt>
      <trkpt lat="49.58056" lon="3.48567">
        <ele>168.2</ele>
        <time>2016-11-05T09:09:46.000Z</time>
      </trkpt>
      <trkpt lat="49.58057" lon="3.4857">
        <ele>168.1</ele>
        <time>2016-11-05T09:09:47.000Z</time>
      </trkpt>
      <trkpt lat="49.58058" lon="3.48582">
        <ele>167.6</ele>
        <time>2016-11-05T09:09:52.000Z</time>
      </trkpt>
      <trkpt lat="49.58058" lon="3.48585">
        <ele>167.6</ele>
        <time>2016-11-05T09:09:53.000Z</time>
      </trkpt>
      <trkpt lat="49.5806" lon="3.48597">
        <ele>167.5</ele>
        <time>2016-11-05T09:09:58.000Z</time>
      </trkpt>
      <trkpt lat="49.58061" lon="3.48599">
        <ele>167.5</ele>
        <time>2016-11-05T09:09:59.000Z</time>
      </trkpt>
      <trkpt lat="49.58064" lon="3.48611">
        <ele>167.5</ele>
        <time>2016-11-05T09:10:04.000Z</time>
      </trkpt>
      <trkpt lat="49.58064" lon="3.48614">
        <ele>167.4</ele>
        <time>2016-11-05T09:10:05.000Z</time>
      </trkpt>
      <trkpt lat="49.58065" lon="3.48626">
        <ele>167.1</ele>
        <time>2016-11-05T09:10:10.000Z</time>
      </trkpt>
      <trkpt lat="49.58066" lon="3.48629">
        <ele>167.1</ele>
        <time>2016-11-05T09:10:11.000Z</time>
      </trkpt>
      <trkpt lat="49.58068" lon="3.4864">
        <ele>167</ele>
        <time>2016-11-05T09:10:16.000Z</time>
      </trkpt>
      <trkpt lat="49.58068" lon="3.48642">
        <ele>167.1</ele>
        <time>2016-11-05T09:10:17.000Z</time>
      </trkpt>
      <trkpt lat="49.58071" lon="3.48653">
        <ele>167.1</ele>
        <time>2016-11-05T09:10:22.000Z</time>
      </trkpt>
      <trkpt lat="49.58072" lon="3.48656">
        <ele>167.1</ele>
        <time>2016-11-05T09:10:23.000Z</time>
      </trkpt>
      <trkpt lat="49.58074" lon="3.48668">
        <ele>167.1</ele>
        <time>2016-11-05T09:10:28.000Z</time>
      </trkpt>
      <trkpt lat="49.58075" lon="3.4867">
        <ele>167.1</ele>
        <time>2016-11-05T09:10:29.000Z</time>
      </trkpt>
      <trkpt lat="49.58077" lon="3.48681">
        <ele>167.3</ele>
        <time>2016-11-05T09:10:34.000Z</time>
      </trkpt>
      <trkpt lat="49.58078" lon="3.48683">
        <ele>167.2</ele>
        <time>2016-11-05T09:10:35.000Z</time>
      </trkpt>
      <trkpt lat="49.58081" lon="3.48694">
        <ele>166.7</ele>
        <time>2016-11-05T09:10:40.000Z</time>
      </trkpt>
      <trkpt lat="49.58082" lon="3.48696">
        <ele>166.6</ele>
        <time>2016-11-05T09:10:41.000Z</time>
      </trkpt>
      <trkpt lat="49.58081" lon="3.48708">
        <ele>165.8</ele>
        <time>2016-11-05T09:10:46.000Z</time>
      </trkpt>
      <trkpt lat="49.5808" lon="3.48711">
        <ele>165.8</ele>
        <time>2016-11-05T09:10:47.000Z</time>
      </trkpt>
      <trkpt lat="49.58072" lon="3.48715">
        <ele>165.3</ele>
        <time>2016-11-05T09:10:51.000Z</time>
      </trkpt>
      <trkpt lat="49.5807" lon="3.48716">
        <ele>165.5</ele>
        <time>2016-11-05T09:10:52.000Z</time>
      </trkpt>
      <trkpt lat="49.58062" lon="3.48718">
        <ele>165.8</ele>
        <time>2016-11-05T09:10:57.000Z</time>
      </trkpt>
      <trkpt lat="49.5806" lon="3.48718">
        <ele>165.5</ele>
        <time>2016-11-05T09:10:58.000Z</time>
      </trkpt>
      <trkpt lat="49.58051" lon="3.48717">
        <ele>165.4</ele>
        <time>2016-11-05T09:11:04.000Z</time>
      </trkpt>
      <trkpt lat="49.5805" lon="3.48717">
        <ele>165.4</ele>
        <time>2016-11-05T09:11:05.000Z</time>
      </trkpt>
      <trkpt lat="49.58042" lon="3.48718">
        <ele>165.7</ele>
        <time>2016-11-05T09:11:11.000Z</time>
      </trkpt>
      <trkpt lat="49.5804" lon="3.48718">
        <ele>165.7</ele>
        <time>2016-11-05T09:11:12.000Z</time>
      </trkpt>
      <trkpt lat="49.58032" lon="3.4872">
        <ele>166.1</ele>
        <time>2016-11-05T09:11:18.000Z</time>
      </trkpt>
      <trkpt lat="49.58031" lon="3.48721">
        <ele>166.2</ele>
        <time>2016-11-05T09:11:19.000Z</time>
      </trkpt>
      <trkpt lat="49.58023" lon="3.48724">
        <ele>166.2</ele>
        <time>2016-11-05T09:11:25.000Z</time>
      </trkpt>
      <trkpt lat="49.58022" lon="3.48725">
        <ele>166.3</ele>
        <time>2016-11-05T09:11:26.000Z</time>
      </trkpt>
      <trkpt lat="49.58013" lon="3.48728">
        <ele>166.1</ele>
        <time>2016-11-05T09:11:36.000Z</time>
      </trkpt>
      <trkpt lat="49.58012" lon="3.48729">
        <ele>166.2</ele>
        <time>2016-11-05T09:11:37.000Z</time>
      </trkpt>
      <trkpt lat="49.58004" lon="3.48732">
        <ele>166.3</ele>
        <time>2016-11-05T09:11:41.000Z</time>
      </trkpt>
      <trkpt lat="49.58002" lon="3.48732">
        <ele>166.3</ele>
        <time>2016-11-05T09:11:42.000Z</time>
      </trkpt>
      <trkpt lat="49.57994" lon="3.48733">
        <ele>166.6</ele>
        <time>2016-11-05T09:11:46.000Z</time>
      </trkpt>
      <trkpt lat="49.57992" lon="3.48734">
        <ele>166.6</ele>
        <time>2016-11-05T09:11:47.000Z</time>
      </trkpt>
      <trkpt lat="49.57983" lon="3.48734">
        <ele>166.9</ele>
        <time>2016-11-05T09:11:52.000Z</time>
      </trkpt>
      <trkpt lat="49.57981" lon="3.48735">
        <ele>167.1</ele>
        <time>2016-11-05T09:11:53.000Z</time>
      </trkpt>
      <trkpt lat="49.57973" lon="3.48733">
        <ele>167</ele>
        <time>2016-11-05T09:11:58.000Z</time>
      </trkpt>
      <trkpt lat="49.57971" lon="3.48732">
        <ele>166.9</ele>
        <time>2016-11-05T09:11:59.000Z</time>
      </trkpt>
      <trkpt lat="49.57964" lon="3.48728">
        <ele>167.4</ele>
        <time>2016-11-05T09:12:04.000Z</time>
      </trkpt>
      <trkpt lat="49.57962" lon="3.48728">
        <ele>167.5</ele>
        <time>2016-11-05T09:12:05.000Z</time>
      </trkpt>
      <trkpt lat="49.57955" lon="3.48721">
        <ele>167.3</ele>
        <time>2016-11-05T09:12:10.000Z</time>
      </trkpt>
      <trkpt lat="49.57953" lon="3.48719">
        <ele>167.4</ele>
        <time>2016-11-05T09:12:11.000Z</time>
      </trkpt>
      <trkpt lat="49.57947" lon="3.48711">
        <ele>167.1</ele>
        <time>2016-11-05T09:12:17.000Z</time>
      </trkpt>
      <trkpt lat="49.57946" lon="3.4871">
        <ele>167</ele>
        <time>2016-11-05T09:12:18.000Z</time>
      </trkpt>
      <trkpt lat="49.57938" lon="3.48702">
        <ele>166.6</ele>
        <time>2016-11-05T09:12:23.000Z</time>
      </trkpt>
      <trkpt lat="49.57936" lon="3.48701">
        <ele>166.6</ele>
        <time>2016-11-05T09:12:24.000Z</time>
      </trkpt>
      <trkpt lat="49.57928" lon="3.48696">
        <ele>166.7</ele>
        <time>2016-11-05T09:12:30.000Z</time>
      </trkpt>
      <trkpt lat="49.57927" lon="3.48695">
        <ele>166.7</ele>
        <time>2016-11-05T09:12:31.000Z</time>
      </trkpt>
      <trkpt lat="49.57918" lon="3.4869">
        <ele>167.2</ele>
        <time>2016-11-05T09:12:37.000Z</time>
      </trkpt>
      <trkpt lat="49.57917" lon="3.48689">
        <ele>167.4</ele>
        <time>2016-11-05T09:12:38.000Z</time>
      </trkpt>
      <trkpt lat="49.57909" lon="3.48684">
        <ele>168.3</ele>
        <time>2016-11-05T09:12:46.000Z</time>
      </trkpt>
      <trkpt lat="49.57908" lon="3.48683">
        <ele>168.4</ele>
        <time>2016-11-05T09:12:47.000Z</time>
      </trkpt>
      <trkpt lat="49.579" lon="3.48678">
        <ele>168.6</ele>
        <time>2016-11-05T09:12:53.000Z</time>
      </trkpt>
      <trkpt lat="49.57898" lon="3.48678">
        <ele>168.7</ele>
        <time>2016-11-05T09:12:54.000Z</time>
      </trkpt>
      <trkpt lat="49.5789" lon="3.48672">
        <ele>168.7</ele>
        <time>2016-11-05T09:13:01.000Z</time>
      </trkpt>
      <trkpt lat="49.57889" lon="3.48671">
        <ele>168.7</ele>
        <time>2016-11-05T09:13:02.000Z</time>
      </trkpt>
      <trkpt lat="49.57882" lon="3.48666">
        <ele>168.4</ele>
        <time>2016-11-05T09:13:07.000Z</time>
      </trkpt>
      <trkpt lat="49.5788" lon="3.48665">
        <ele>168.3</ele>
        <time>2016-11-05T09:13:08.000Z</time>
      </trkpt>
      <trkpt lat="49.57874" lon="3.4866">
        <ele>168.2</ele>
        <time>2016-11-05T09:13:13.000Z</time>
      </trkpt>
      <trkpt lat="49.57871" lon="3.48658">
        <ele>168.5</ele>
        <time>2016-11-05T09:13:14.000Z</time>
      </trkpt>
      <trkpt lat="49.57864" lon="3.48654">
        <ele>169</ele>
        <time>2016-11-05T09:13:17.000Z</time>
      </trkpt>
      <trkpt lat="49.57862" lon="3.48652">
        <ele>169.2</ele>
        <time>2016-11-05T09:13:18.000Z</time>
      </trkpt>
      <trkpt lat="49.57855" lon="3.48645">
        <ele>170.1</ele>
        <time>2016-11-05T09:13:24.000Z</time>
      </trkpt>
      <trkpt lat="49.57853" lon="3.48643">
        <ele>170.3</ele>
        <time>2016-11-05T09:13:25.000Z</time>
      </trkpt>
      <trkpt lat="49.57847" lon="3.48638">
        <ele>170.9</ele>
        <time>2016-11-05T09:13:29.000Z</time>
      </trkpt>
      <trkpt lat="49.57845" lon="3.48636">
        <ele>171.1</ele>
        <time>2016-11-05T09:13:30.000Z</time>
      </trkpt>
      <trkpt lat="49.57838" lon="3.48631">
        <ele>171.6</ele>
        <time>2016-11-05T09:13:35.000Z</time>
      </trkpt>
      <trkpt lat="49.57836" lon="3.48631">
        <ele>171.8</ele>
        <time>2016-11-05T09:13:36.000Z</time>
      </trkpt>
      <trkpt lat="49.57829" lon="3.48626">
        <ele>172.4</ele>
        <time>2016-11-05T09:13:41.000Z</time>
      </trkpt>
      <trkpt lat="49.57827" lon="3.48626">
        <ele>172.3</ele>
        <time>2016-11-05T09:13:42.000Z</time>
      </trkpt>
      <trkpt lat="49.5782" lon="3.48624">
        <ele>172.4</ele>
        <time>2016-11-05T09:13:47.000Z</time>
      </trkpt>
      <trkpt lat="49.57818" lon="3.48624">
        <ele>172.6</ele>
        <time>2016-11-05T09:13:48.000Z</time>
      </trkpt>
      <trkpt lat="49.57811" lon="3.48626">
        <ele>172.9</ele>
        <time>2016-11-05T09:13:54.000Z</time>
      </trkpt>
      <trkpt lat="49.57809" lon="3.48626">
        <ele>173</ele>
        <time>2016-11-05T09:13:55.000Z</time>
      </trkpt>
      <trkpt lat="49.578" lon="3.48627">
        <ele>173</ele>
        <time>2016-11-05T09:14:00.000Z</time>
      </trkpt>
      <trkpt lat="49.57798" lon="3.48627">
        <ele>173</ele>
        <time>2016-11-05T09:14:01.000Z</time>
      </trkpt>
      <trkpt lat="49.57791" lon="3.48628">
        <ele>173.3</ele>
        <time>2016-11-05T09:14:05.000Z</time>
      </trkpt>
      <trkpt lat="49.57789" lon="3.48628">
        <ele>173.4</ele>
        <time>2016-11-05T09:14:06.000Z</time>
      </trkpt>
      <trkpt lat="49.5778" lon="3.4863">
        <ele>173.4</ele>
        <time>2016-11-05T09:14:12.000Z</time>
      </trkpt>
      <trkpt lat="49.57779" lon="3.48629">
        <ele>173.6</ele>
        <time>2016-11-05T09:14:13.000Z</time>
      </trkpt>
      <trkpt lat="49.57771" lon="3.48631">
        <ele>174.6</ele>
        <time>2016-11-05T09:14:20.000Z</time>
      </trkpt>
      <trkpt lat="49.5777" lon="3.48632">
        <ele>174.7</ele>
        <time>2016-11-05T09:14:21.000Z</time>
      </trkpt>
      <trkpt lat="49.57761" lon="3.48634">
        <ele>175.2</ele>
        <time>2016-11-05T09:14:27.000Z</time>
      </trkpt>
      <trkpt lat="49.57759" lon="3.48635">
        <ele>175.2</ele>
        <time>2016-11-05T09:14:28.000Z</time>
      </trkpt>
      <trkpt lat="49.57751" lon="3.48636">
        <ele>175.4</ele>
        <time>2016-11-05T09:14:32.000Z</time>
      </trkpt>
      <trkpt lat="49.57749" lon="3.48637">
        <ele>175.2</ele>
        <time>2016-11-05T09:14:33.000Z</time>
      </trkpt>
      <trkpt lat="49.57742" lon="3.48642">
        <ele>176.2</ele>
        <time>2016-11-05T09:14:38.000Z</time>
      </trkpt>
      <trkpt lat="49.57741" lon="3.48643">
        <ele>176</ele>
        <time>2016-11-05T09:14:39.000Z</time>
      </trkpt>
      <trkpt lat="49.57734" lon="3.4865">
        <ele>176.1</ele>
        <time>2016-11-05T09:14:47.000Z</time>
      </trkpt>
      <trkpt lat="49.57733" lon="3.48651">
        <ele>176.3</ele>
        <time>2016-11-05T09:14:48.000Z</time>
      </trkpt>
      <trkpt lat="49.57725" lon="3.48657">
        <ele>177.4</ele>
        <time>2016-11-05T09:14:57.000Z</time>
      </trkpt>
      <trkpt lat="49.57724" lon="3.48657">
        <ele>177.7</ele>
        <time>2016-11-05T09:14:58.000Z</time>
      </trkpt>
      <trkpt lat="49.57717" lon="3.48662">
        <ele>177.7</ele>
        <time>2016-11-05T09:15:03.000Z</time>
      </trkpt>
      <trkpt lat="49.57716" lon="3.48663">
        <ele>177.7</ele>
        <time>2016-11-05T09:15:04.000Z</time>
      </trkpt>
      <trkpt lat="49.57709" lon="3.48667">
        <ele>178.2</ele>
        <time>2016-11-05T09:15:08.000Z</time>
      </trkpt>
      <trkpt lat="49.57707" lon="3.48668">
        <ele>178.4</ele>
        <time>2016-11-05T09:15:09.000Z</time>
      </trkpt>
      <trkpt lat="49.57699" lon="3.48672">
        <ele>178.2</ele>
        <time>2016-11-05T09:15:13.000Z</time>
      </trkpt>
      <trkpt lat="49.57697" lon="3.48673">
        <ele>178.3</ele>
        <time>2016-11-05T09:15:14.000Z</time>
      </trkpt>
      <trkpt lat="49.57688" lon="3.48675">
        <ele>179</ele>
        <time>2016-11-05T09:15:22.000Z</time>
      </trkpt>
      <trkpt lat="49.57687" lon="3.48675">
        <ele>179.1</ele>
        <time>2016-11-05T09:15:23.000Z</time>
      </trkpt>
      <trkpt lat="49.57679" lon="3.48677">
        <ele>178.6</ele>
        <time>2016-11-05T09:15:26.000Z</time>
      </trkpt>
      <trkpt lat="49.57676" lon="3.48677">
        <ele>178.5</ele>
        <time>2016-11-05T09:15:27.000Z</time>
      </trkpt>
      <trkpt lat="49.57669" lon="3.48678">
        <ele>178.9</ele>
        <time>2016-11-05T09:15:31.000Z</time>
      </trkpt>
      <trkpt lat="49.57667" lon="3.48678">
        <ele>179</ele>
        <time>2016-11-05T09:15:32.000Z</time>
      </trkpt>
      <trkpt lat="49.57659" lon="3.48679">
        <ele>179.2</ele>
        <time>2016-11-05T09:15:37.000Z</time>
      </trkpt>
      <trkpt lat="49.57657" lon="3.48679">
        <ele>179.3</ele>
        <time>2016-11-05T09:15:38.000Z</time>
      </trkpt>
      <trkpt lat="49.5765" lon="3.4868">
        <ele>179.9</ele>
        <time>2016-11-05T09:15:42.000Z</time>
      </trkpt>
      <trkpt lat="49.57648" lon="3.4868">
        <ele>179.9</ele>
        <time>2016-11-05T09:15:43.000Z</time>
      </trkpt>
      <trkpt lat="49.5764" lon="3.48681">
        <ele>179.9</ele>
        <time>2016-11-05T09:15:48.000Z</time>
      </trkpt>
      <trkpt lat="49.57638" lon="3.4868">
        <ele>179.9</ele>
        <time>2016-11-05T09:15:49.000Z</time>
      </trkpt>
      <trkpt lat="49.57631" lon="3.4868">
        <ele>180.1</ele>
        <time>2016-11-05T09:15:53.000Z</time>
      </trkpt>
      <trkpt lat="49.57629" lon="3.4868">
        <ele>180.3</ele>
        <time>2016-11-05T09:15:54.000Z</time>
      </trkpt>
      <trkpt lat="49.57622" lon="3.48681">
        <ele>179.6</ele>
        <time>2016-11-05T09:15:57.000Z</time>
      </trkpt>
      <trkpt lat="49.57619" lon="3.48681">
        <ele>179.5</ele>
        <time>2016-11-05T09:15:58.000Z</time>
      </trkpt>
      <trkpt lat="49.57611" lon="3.48686">
        <ele>180.4</ele>
        <time>2016-11-05T09:16:03.000Z</time>
      </trkpt>
      <trkpt lat="49.57609" lon="3.48687">
        <ele>180.6</ele>
        <time>2016-11-05T09:16:04.000Z</time>
      </trkpt>
      <trkpt lat="49.57601" lon="3.48689">
        <ele>181.2</ele>
        <time>2016-11-05T09:16:08.000Z</time>
      </trkpt>
      <trkpt lat="49.576" lon="3.4869">
        <ele>181.4</ele>
        <time>2016-11-05T09:16:09.000Z</time>
      </trkpt>
      <trkpt lat="49.57591" lon="3.48694">
        <ele>181.6</ele>
        <time>2016-11-05T09:16:14.000Z</time>
      </trkpt>
      <trkpt lat="49.5759" lon="3.48694">
        <ele>181.6</ele>
        <time>2016-11-05T09:16:15.000Z</time>
      </trkpt>
      <trkpt lat="49.57582" lon="3.48698">
        <ele>181.9</ele>
        <time>2016-11-05T09:16:19.000Z</time>
      </trkpt>
      <trkpt lat="49.57581" lon="3.48699">
        <ele>182.2</ele>
        <time>2016-11-05T09:16:20.000Z</time>
      </trkpt>
      <trkpt lat="49.57573" lon="3.48703">
        <ele>182.9</ele>
        <time>2016-11-05T09:16:25.000Z</time>
      </trkpt>
      <trkpt lat="49.57571" lon="3.48705">
        <ele>183</ele>
        <time>2016-11-05T09:16:26.000Z</time>
      </trkpt>
      <trkpt lat="49.57565" lon="3.48709">
        <ele>182.9</ele>
        <time>2016-11-05T09:16:30.000Z</time>
      </trkpt>
      <trkpt lat="49.57563" lon="3.4871">
        <ele>183</ele>
        <time>2016-11-05T09:16:31.000Z</time>
      </trkpt>
      <trkpt lat="49.57554" lon="3.48711">
        <ele>184.2</ele>
        <time>2016-11-05T09:16:38.000Z</time>
      </trkpt>
      <trkpt lat="49.57552" lon="3.48711">
        <ele>184.5</ele>
        <time>2016-11-05T09:16:39.000Z</time>
      </trkpt>
      <trkpt lat="49.57544" lon="3.48712">
        <ele>184.9</ele>
        <time>2016-11-05T09:16:44.000Z</time>
      </trkpt>
      <trkpt lat="49.57542" lon="3.48713">
        <ele>184.6</ele>
        <time>2016-11-05T09:16:45.000Z</time>
      </trkpt>
      <trkpt lat="49.57535" lon="3.48713">
        <ele>185.5</ele>
        <time>2016-11-05T09:16:50.000Z</time>
      </trkpt>
      <trkpt lat="49.57533" lon="3.48713">
        <ele>185.5</ele>
        <time>2016-11-05T09:16:51.000Z</time>
      </trkpt>
      <trkpt lat="49.57526" lon="3.4871">
        <ele>185.2</ele>
        <time>2016-11-05T09:16:56.000Z</time>
      </trkpt>
      <trkpt lat="49.57524" lon="3.4871">
        <ele>185.3</ele>
        <time>2016-11-05T09:16:57.000Z</time>
      </trkpt>
      <trkpt lat="49.57516" lon="3.48713">
        <ele>185.5</ele>
        <time>2016-11-05T09:17:02.000Z</time>
      </trkpt>
      <trkpt lat="49.57514" lon="3.48714">
        <ele>185.7</ele>
        <time>2016-11-05T09:17:03.000Z</time>
      </trkpt>
      <trkpt lat="49.57505" lon="3.48716">
        <ele>186.8</ele>
        <time>2016-11-05T09:17:09.000Z</time>
      </trkpt>
      <trkpt lat="49.57504" lon="3.48716">
        <ele>186.8</ele>
        <time>2016-11-05T09:17:10.000Z</time>
      </trkpt>
      <trkpt lat="49.57496" lon="3.48719">
        <ele>187.4</ele>
        <time>2016-11-05T09:17:16.000Z</time>
      </trkpt>
      <trkpt lat="49.57495" lon="3.4872">
        <ele>187.3</ele>
        <time>2016-11-05T09:17:17.000Z</time>
      </trkpt>
      <trkpt lat="49.57486" lon="3.48722">
        <ele>188.2</ele>
        <time>2016-11-05T09:17:22.000Z</time>
      </trkpt>
      <trkpt lat="49.57485" lon="3.48722">
        <ele>188.6</ele>
        <time>2016-11-05T09:17:23.000Z</time>
      </trkpt>
      <trkpt lat="49.57476" lon="3.48726">
        <ele>188.8</ele>
        <time>2016-11-05T09:17:28.000Z</time>
      </trkpt>
      <trkpt lat="49.57475" lon="3.48726">
        <ele>188.8</ele>
        <time>2016-11-05T09:17:29.000Z</time>
      </trkpt>
      <trkpt lat="49.57466" lon="3.48727">
        <ele>189.6</ele>
        <time>2016-11-05T09:17:35.000Z</time>
      </trkpt>
      <trkpt lat="49.57464" lon="3.48727">
        <ele>189.7</ele>
        <time>2016-11-05T09:17:36.000Z</time>
      </trkpt>
      <trkpt lat="49.57456" lon="3.4873">
        <ele>190.5</ele>
        <time>2016-11-05T09:17:41.000Z</time>
      </trkpt>
      <trkpt lat="49.57455" lon="3.4873">
        <ele>190.5</ele>
        <time>2016-11-05T09:17:42.000Z</time>
      </trkpt>
      <trkpt lat="49.57446" lon="3.48732">
        <ele>190.4</ele>
        <time>2016-11-05T09:17:48.000Z</time>
      </trkpt>
      <trkpt lat="49.57445" lon="3.48731">
        <ele>190.6</ele>
        <time>2016-11-05T09:17:49.000Z</time>
      </trkpt>
      <trkpt lat="49.57436" lon="3.48733">
        <ele>191.1</ele>
        <time>2016-11-05T09:17:56.000Z</time>
      </trkpt>
      <trkpt lat="49.57435" lon="3.48734">
        <ele>191.4</ele>
        <time>2016-11-05T09:17:57.000Z</time>
      </trkpt>
      <trkpt lat="49.57427" lon="3.48737">
        <ele>192.1</ele>
        <time>2016-11-05T09:18:02.000Z</time>
      </trkpt>
      <trkpt lat="49.57425" lon="3.48737">
        <ele>192.1</ele>
        <time>2016-11-05T09:18:03.000Z</time>
      </trkpt>
      <trkpt lat="49.57417" lon="3.48741">
        <ele>192.7</ele>
        <time>2016-11-05T09:18:08.000Z</time>
      </trkpt>
      <trkpt lat="49.57415" lon="3.48742">
        <ele>192.7</ele>
        <time>2016-11-05T09:18:09.000Z</time>
      </trkpt>
      <trkpt lat="49.57407" lon="3.48743">
        <ele>193.2</ele>
        <time>2016-11-05T09:18:15.000Z</time>
      </trkpt>
      <trkpt lat="49.57405" lon="3.48743">
        <ele>193.1</ele>
        <time>2016-11-05T09:18:16.000Z</time>
      </trkpt>
      <trkpt lat="49.57397" lon="3.48742">
        <ele>193.4</ele>
        <time>2016-11-05T09:18:22.000Z</time>
      </trkpt>
      <trkpt lat="49.57395" lon="3.48743">
        <ele>193.5</ele>
        <time>2016-11-05T09:18:23.000Z</time>
      </trkpt>
      <trkpt lat="49.57387" lon="3.48742">
        <ele>193.3</ele>
        <time>2016-11-05T09:18:29.000Z</time>
      </trkpt>
      <trkpt lat="49.57385" lon="3.48743">
        <ele>193.2</ele>
        <time>2016-11-05T09:18:30.000Z</time>
      </trkpt>
      <trkpt lat="49.57377" lon="3.48744">
        <ele>191.9</ele>
        <time>2016-11-05T09:18:36.000Z</time>
      </trkpt>
      <trkpt lat="49.57376" lon="3.48745">
        <ele>191.7</ele>
        <time>2016-11-05T09:18:37.000Z</time>
      </trkpt>
      <trkpt lat="49.57367" lon="3.48744">
        <ele>191.6</ele>
        <time>2016-11-05T09:18:46.000Z</time>
      </trkpt>
      <trkpt lat="49.57366" lon="3.48744">
        <ele>191.7</ele>
        <time>2016-11-05T09:18:47.000Z</time>
      </trkpt>
      <trkpt lat="49.57357" lon="3.48745">
        <ele>190.5</ele>
        <time>2016-11-05T09:18:55.000Z</time>
      </trkpt>
      <trkpt lat="49.57356" lon="3.48745">
        <ele>190.5</ele>
        <time>2016-11-05T09:18:56.000Z</time>
      </trkpt>
      <trkpt lat="49.57349" lon="3.48747">
        <ele>190.5</ele>
        <time>2016-11-05T09:19:00.000Z</time>
      </trkpt>
      <trkpt lat="49.57347" lon="3.48748">
        <ele>190.3</ele>
        <time>2016-11-05T09:19:01.000Z</time>
      </trkpt>
      <trkpt lat="49.57339" lon="3.48751">
        <ele>190.4</ele>
        <time>2016-11-05T09:19:05.000Z</time>
      </trkpt>
      <trkpt lat="49.57337" lon="3.48751">
        <ele>190.5</ele>
        <time>2016-11-05T09:19:06.000Z</time>
      </trkpt>
      <trkpt lat="49.57329" lon="3.48754">
        <ele>190.4</ele>
        <time>2016-11-05T09:19:10.000Z</time>
      </trkpt>
      <trkpt lat="49.57327" lon="3.48755">
        <ele>190.5</ele>
        <time>2016-11-05T09:19:11.000Z</time>
      </trkpt>
      <trkpt lat="49.57319" lon="3.48759">
        <ele>190.2</ele>
        <time>2016-11-05T09:19:17.000Z</time>
      </trkpt>
      <trkpt lat="49.57317" lon="3.48759">
        <ele>190.3</ele>
        <time>2016-11-05T09:19:18.000Z</time>
      </trkpt>
      <trkpt lat="49.57309" lon="3.48759">
        <ele>190.4</ele>
        <time>2016-11-05T09:19:25.000Z</time>
      </trkpt>
      <trkpt lat="49.57308" lon="3.48759">
        <ele>190.3</ele>
        <time>2016-11-05T09:19:26.000Z</time>
      </trkpt>
      <trkpt lat="49.573" lon="3.48762">
        <ele>189.4</ele>
        <time>2016-11-05T09:19:35.000Z</time>
      </trkpt>
      <trkpt lat="49.57298" lon="3.48763">
        <ele>189</ele>
        <time>2016-11-05T09:19:36.000Z</time>
      </trkpt>
      <trkpt lat="49.57289" lon="3.48767">
        <ele>187.9</ele>
        <time>2016-11-05T09:19:42.000Z</time>
      </trkpt>
      <trkpt lat="49.57289" lon="3.48768">
        <ele>187.8</ele>
        <time>2016-11-05T09:19:43.000Z</time>
      </trkpt>
      <trkpt lat="49.57283" lon="3.48776">
        <ele>188.4</ele>
        <time>2016-11-05T09:19:48.000Z</time>
      </trkpt>
      <trkpt lat="49.57281" lon="3.48776">
        <ele>188.2</ele>
        <time>2016-11-05T09:19:49.000Z</time>
      </trkpt>
      <trkpt lat="49.57274" lon="3.48783">
        <ele>188.3</ele>
        <time>2016-11-05T09:19:55.000Z</time>
      </trkpt>
      <trkpt lat="49.57273" lon="3.48784">
        <ele>188.2</ele>
        <time>2016-11-05T09:19:56.000Z</time>
      </trkpt>
      <trkpt lat="49.57266" lon="3.48793">
        <ele>188.7</ele>
        <time>2016-11-05T09:20:02.000Z</time>
      </trkpt>
      <trkpt lat="49.57265" lon="3.48794">
        <ele>188.8</ele>
        <time>2016-11-05T09:20:03.000Z</time>
      </trkpt>
      <trkpt lat="49.57258" lon="3.48801">
        <ele>189.3</ele>
        <time>2016-11-05T09:20:09.000Z</time>
      </trkpt>
      <trkpt lat="49.57256" lon="3.48802">
        <ele>189.3</ele>
        <time>2016-11-05T09:20:10.000Z</time>
      </trkpt>
      <trkpt lat="49.57249" lon="3.48807">
        <ele>189.4</ele>
        <time>2016-11-05T09:20:14.000Z</time>
      </trkpt>
      <trkpt lat="49.57246" lon="3.48809">
        <ele>189.2</ele>
        <time>2016-11-05T09:20:15.000Z</time>
      </trkpt>
      <trkpt lat="49.5724" lon="3.48815">
        <ele>189.2</ele>
        <time>2016-11-05T09:20:18.000Z</time>
      </trkpt>
      <trkpt lat="49.57238" lon="3.48817">
        <ele>189.3</ele>
        <time>2016-11-05T09:20:19.000Z</time>
      </trkpt>
      <trkpt lat="49.57232" lon="3.48823">
        <ele>189.9</ele>
        <time>2016-11-05T09:20:25.000Z</time>
      </trkpt>
      <trkpt lat="49.57231" lon="3.48825">
        <ele>189.8</ele>
        <time>2016-11-05T09:20:26.000Z</time>
      </trkpt>
      <trkpt lat="49.57224" lon="3.48833">
        <ele>189.6</ele>
        <time>2016-11-05T09:20:31.000Z</time>
      </trkpt>
      <trkpt lat="49.57221" lon="3.48835">
        <ele>189.7</ele>
        <time>2016-11-05T09:20:32.000Z</time>
      </trkpt>
      <trkpt lat="49.57213" lon="3.48842">
        <ele>190.5</ele>
        <time>2016-11-05T09:20:40.000Z</time>
      </trkpt>
      <trkpt lat="49.57212" lon="3.48843">
        <ele>190.7</ele>
        <time>2016-11-05T09:20:41.000Z</time>
      </trkpt>
      <trkpt lat="49.57206" lon="3.48849">
        <ele>191.3</ele>
        <time>2016-11-05T09:20:49.000Z</time>
      </trkpt>
      <trkpt lat="49.57204" lon="3.48851">
        <ele>191.4</ele>
        <time>2016-11-05T09:20:50.000Z</time>
      </trkpt>
      <trkpt lat="49.57199" lon="3.48858">
        <ele>191.5</ele>
        <time>2016-11-05T09:20:56.000Z</time>
      </trkpt>
      <trkpt lat="49.57196" lon="3.4886">
        <ele>191.1</ele>
        <time>2016-11-05T09:20:57.000Z</time>
      </trkpt>
      <trkpt lat="49.57189" lon="3.48867">
        <ele>191.7</ele>
        <time>2016-11-05T09:21:02.000Z</time>
      </trkpt>
      <trkpt lat="49.57189" lon="3.48868">
        <ele>191.8</ele>
        <time>2016-11-05T09:21:03.000Z</time>
      </trkpt>
      <trkpt lat="49.57181" lon="3.48875">
        <ele>192.4</ele>
        <time>2016-11-05T09:21:07.000Z</time>
      </trkpt>
      <trkpt lat="49.5718" lon="3.48876">
        <ele>192.5</ele>
        <time>2016-11-05T09:21:08.000Z</time>
      </trkpt>
      <trkpt lat="49.57172" lon="3.48882">
        <ele>192.7</ele>
        <time>2016-11-05T09:21:12.000Z</time>
      </trkpt>
      <trkpt lat="49.57171" lon="3.48883">
        <ele>192.6</ele>
        <time>2016-11-05T09:21:13.000Z</time>
      </trkpt>
      <trkpt lat="49.57164" lon="3.48893">
        <ele>194</ele>
        <time>2016-11-05T09:21:21.000Z</time>
      </trkpt>
      <trkpt lat="49.57165" lon="3.48895">
        <ele>194.1</ele>
        <time>2016-11-05T09:21:22.000Z</time>
      </trkpt>
      <trkpt lat="49.57168" lon="3.48907">
        <ele>193.8</ele>
        <time>2016-11-05T09:21:28.000Z</time>
      </trkpt>
      <trkpt lat="49.57169" lon="3.48909">
        <ele>193.9</ele>
        <time>2016-11-05T09:21:29.000Z</time>
      </trkpt>
      <trkpt lat="49.57174" lon="3.4892">
        <ele>193</ele>
        <time>2016-11-05T09:21:35.000Z</time>
      </trkpt>
      <trkpt lat="49.57175" lon="3.48921">
        <ele>193</ele>
        <time>2016-11-05T09:21:36.000Z</time>
      </trkpt>
      <trkpt lat="49.57176" lon="3.48933">
        <ele>193.3</ele>
        <time>2016-11-05T09:21:43.000Z</time>
      </trkpt>
      <trkpt lat="49.57176" lon="3.48935">
        <ele>193.5</ele>
        <time>2016-11-05T09:21:44.000Z</time>
      </trkpt>
      <trkpt lat="49.57175" lon="3.48948">
        <ele>193.7</ele>
        <time>2016-11-05T09:21:49.000Z</time>
      </trkpt>
      <trkpt lat="49.57176" lon="3.4895">
        <ele>193.8</ele>
        <time>2016-11-05T09:21:50.000Z</time>
      </trkpt>
      <trkpt lat="49.57177" lon="3.48962">
        <ele>194.9</ele>
        <time>2016-11-05T09:21:56.000Z</time>
      </trkpt>
      <trkpt lat="49.57178" lon="3.48965">
        <ele>195.1</ele>
        <time>2016-11-05T09:21:57.000Z</time>
      </trkpt>
      <trkpt lat="49.57179" lon="3.48976">
        <ele>196</ele>
        <time>2016-11-05T09:22:02.000Z</time>
      </trkpt>
      <trkpt lat="49.57178" lon="3.48979">
        <ele>196.2</ele>
        <time>2016-11-05T09:22:03.000Z</time>
      </trkpt>
      <trkpt lat="49.57177" lon="3.4899">
        <ele>197</ele>
        <time>2016-11-05T09:22:08.000Z</time>
      </trkpt>
      <trkpt lat="49.57177" lon="3.48993">
        <ele>197</ele>
        <time>2016-11-05T09:22:09.000Z</time>
      </trkpt>
      <trkpt lat="49.57174" lon="3.49004">
        <ele>197.9</ele>
        <time>2016-11-05T09:22:13.000Z</time>
      </trkpt>
      <trkpt lat="49.57173" lon="3.49007">
        <ele>197.8</ele>
        <time>2016-11-05T09:22:14.000Z</time>
      </trkpt>
      <trkpt lat="49.57173" lon="3.4902">
        <ele>197.9</ele>
        <time>2016-11-05T09:22:19.000Z</time>
      </trkpt>
      <trkpt lat="49.57174" lon="3.49023">
        <ele>197.9</ele>
        <time>2016-11-05T09:22:20.000Z</time>
      </trkpt>
      <trkpt lat="49.57172" lon="3.49035">
        <ele>197.8</ele>
        <time>2016-11-05T09:22:25.000Z</time>
      </trkpt>
      <trkpt lat="49.57172" lon="3.49038">
        <ele>197.5</ele>
        <time>2016-11-05T09:22:26.000Z</time>
      </trkpt>
      <trkpt lat="49.57167" lon="3.49049">
        <ele>196.9</ele>
        <time>2016-11-05T09:22:30.000Z</time>
      </trkpt>
      <trkpt lat="49.57164" lon="3.49051">
        <ele>196.9</ele>
        <time>2016-11-05T09:22:31.000Z</time>
      </trkpt>
      <trkpt lat="49.57158" lon="3.49061">
        <ele>197.6</ele>
        <time>2016-11-05T09:22:35.000Z</time>
      </trkpt>
      <trkpt lat="49.57157" lon="3.49062">
        <ele>197.6</ele>
        <time>2016-11-05T09:22:36.000Z</time>
      </trkpt>
      <trkpt lat="49.57152" lon="3.49067">
        <ele>197.7</ele>
        <time>2016-11-05T09:22:39.000Z</time>
      </trkpt>
      <trkpt lat="49.57149" lon="3.49069">
        <ele>197.8</ele>
        <time>2016-11-05T09:22:40.000Z</time>
      </trkpt>
      <trkpt lat="49.57142" lon="3.49076">
        <ele>198.3</ele>
        <time>2016-11-05T09:22:43.000Z</time>
      </trkpt>
      <trkpt lat="49.57139" lon="3.49078">
        <ele>198.5</ele>
        <time>2016-11-05T09:22:44.000Z</time>
      </trkpt>
      <trkpt lat="49.57133" lon="3.49084">
        <ele>198.6</ele>
        <time>2016-11-05T09:22:48.000Z</time>
      </trkpt>
      <trkpt lat="49.5713" lon="3.49085">
        <ele>198.6</ele>
        <time>2016-11-05T09:22:49.000Z</time>
      </trkpt>
      <trkpt lat="49.57123" lon="3.49089">
        <ele>198.6</ele>
        <time>2016-11-05T09:22:52.000Z</time>
      </trkpt>
      <trkpt lat="49.5712" lon="3.49091">
        <ele>198.5</ele>
        <time>2016-11-05T09:22:53.000Z</time>
      </trkpt>
      <trkpt lat="49.57114" lon="3.49095">
        <ele>198.4</ele>
        <time>2016-11-05T09:22:56.000Z</time>
      </trkpt>
      <trkpt lat="49.57112" lon="3.49097">
        <ele>198.3</ele>
        <time>2016-11-05T09:22:57.000Z</time>
      </trkpt>
      <trkpt lat="49.57105" lon="3.49103">
        <ele>198.1</ele>
        <time>2016-11-05T09:23:02.000Z</time>
      </trkpt>
      <trkpt lat="49.57104" lon="3.49105">
        <ele>198</ele>
        <time>2016-11-05T09:23:03.000Z</time>
      </trkpt>
      <trkpt lat="49.57098" lon="3.49112">
        <ele>197.7</ele>
        <time>2016-11-05T09:23:08.000Z</time>
      </trkpt>
      <trkpt lat="49.57096" lon="3.49113">
        <ele>197.6</ele>
        <time>2016-11-05T09:23:09.000Z</time>
      </trkpt>
      <trkpt lat="49.57088" lon="3.49119">
        <ele>197.3</ele>
        <time>2016-11-05T09:23:14.000Z</time>
      </trkpt>
      <trkpt lat="49.57087" lon="3.4912">
        <ele>197.4</ele>
        <time>2016-11-05T09:23:15.000Z</time>
      </trkpt>
      <trkpt lat="49.57081" lon="3.49128">
        <ele>197.4</ele>
        <time>2016-11-05T09:23:20.000Z</time>
      </trkpt>
      <trkpt lat="49.57079" lon="3.49129">
        <ele>197.5</ele>
        <time>2016-11-05T09:23:21.000Z</time>
      </trkpt>
      <trkpt lat="49.57074" lon="3.49137">
        <ele>197.3</ele>
        <time>2016-11-05T09:23:26.000Z</time>
      </trkpt>
      <trkpt lat="49.57073" lon="3.49139">
        <ele>197.2</ele>
        <time>2016-11-05T09:23:27.000Z</time>
      </trkpt>
      <trkpt lat="49.57066" lon="3.49146">
        <ele>197.4</ele>
        <time>2016-11-05T09:23:33.000Z</time>
      </trkpt>
      <trkpt lat="49.57065" lon="3.49147">
        <ele>197.3</ele>
        <time>2016-11-05T09:23:34.000Z</time>
      </trkpt>
      <trkpt lat="49.57059" lon="3.49154">
        <ele>196.6</ele>
        <time>2016-11-05T09:23:38.000Z</time>
      </trkpt>
      <trkpt lat="49.57058" lon="3.49157">
        <ele>196.7</ele>
        <time>2016-11-05T09:23:39.000Z</time>
      </trkpt>
      <trkpt lat="49.57052" lon="3.49164">
        <ele>196.7</ele>
        <time>2016-11-05T09:23:44.000Z</time>
      </trkpt>
      <trkpt lat="49.57051" lon="3.49165">
        <ele>196.5</ele>
        <time>2016-11-05T09:23:45.000Z</time>
      </trkpt>
      <trkpt lat="49.57046" lon="3.49175">
        <ele>196.1</ele>
        <time>2016-11-05T09:23:53.000Z</time>
      </trkpt>
      <trkpt lat="49.57045" lon="3.49177">
        <ele>196.1</ele>
        <time>2016-11-05T09:23:54.000Z</time>
      </trkpt>
      <trkpt lat="49.57039" lon="3.49183">
        <ele>195.9</ele>
        <time>2016-11-05T09:23:59.000Z</time>
      </trkpt>
      <trkpt lat="49.57038" lon="3.49185">
        <ele>195.9</ele>
        <time>2016-11-05T09:24:00.000Z</time>
      </trkpt>
      <trkpt lat="49.57032" lon="3.49194">
        <ele>196.3</ele>
        <time>2016-11-05T09:24:08.000Z</time>
      </trkpt>
      <trkpt lat="49.57032" lon="3.49195">
        <ele>196.5</ele>
        <time>2016-11-05T09:24:09.000Z</time>
      </trkpt>
      <trkpt lat="49.57027" lon="3.49205">
        <ele>196.5</ele>
        <time>2016-11-05T09:24:16.000Z</time>
      </trkpt>
      <trkpt lat="49.57025" lon="3.49206">
        <ele>196.3</ele>
        <time>2016-11-05T09:24:17.000Z</time>
      </trkpt>
      <trkpt lat="49.57018" lon="3.4921">
        <ele>196.2</ele>
        <time>2016-11-05T09:24:20.000Z</time>
      </trkpt>
      <trkpt lat="49.57015" lon="3.49212">
        <ele>196.1</ele>
        <time>2016-11-05T09:24:21.000Z</time>
      </trkpt>
      <trkpt lat="49.57008" lon="3.49218">
        <ele>196.1</ele>
        <time>2016-11-05T09:24:25.000Z</time>
      </trkpt>
      <trkpt lat="49.57006" lon="3.4922">
        <ele>196</ele>
        <time>2016-11-05T09:24:26.000Z</time>
      </trkpt>
      <trkpt lat="49.56999" lon="3.49226">
        <ele>195.9</ele>
        <time>2016-11-05T09:24:30.000Z</time>
      </trkpt>
      <trkpt lat="49.56997" lon="3.49228">
        <ele>195.9</ele>
        <time>2016-11-05T09:24:31.000Z</time>
      </trkpt>
      <trkpt lat="49.56991" lon="3.49234">
        <ele>195.6</ele>
        <time>2016-11-05T09:24:36.000Z</time>
      </trkpt>
      <trkpt lat="49.5699" lon="3.49235">
        <ele>195.7</ele>
        <time>2016-11-05T09:24:37.000Z</time>
      </trkpt>
      <trkpt lat="49.56984" lon="3.49246">
        <ele>195.4</ele>
        <time>2016-11-05T09:24:45.000Z</time>
      </trkpt>
      <trkpt lat="49.56982" lon="3.49248">
        <ele>195.5</ele>
        <time>2016-11-05T09:24:46.000Z</time>
      </trkpt>
      <trkpt lat="49.56974" lon="3.49253">
        <ele>195.5</ele>
        <time>2016-11-05T09:24:50.000Z</time>
      </trkpt>
      <trkpt lat="49.56972" lon="3.49254">
        <ele>195.4</ele>
        <time>2016-11-05T09:24:51.000Z</time>
      </trkpt>
      <trkpt lat="49.56966" lon="3.49258">
        <ele>195.3</ele>
        <time>2016-11-05T09:24:54.000Z</time>
      </trkpt>
      <trkpt lat="49.56964" lon="3.4926">
        <ele>194.9</ele>
        <time>2016-11-05T09:24:55.000Z</time>
      </trkpt>
      <trkpt lat="49.56958" lon="3.49269">
        <ele>194.3</ele>
        <time>2016-11-05T09:25:02.000Z</time>
      </trkpt>
      <trkpt lat="49.56958" lon="3.4927">
        <ele>194.4</ele>
        <time>2016-11-05T09:25:03.000Z</time>
      </trkpt>
      <trkpt lat="49.56952" lon="3.49279">
        <ele>194</ele>
        <time>2016-11-05T09:25:09.000Z</time>
      </trkpt>
      <trkpt lat="49.5695" lon="3.49281">
        <ele>194.1</ele>
        <time>2016-11-05T09:25:10.000Z</time>
      </trkpt>
      <trkpt lat="49.56944" lon="3.49291">
        <ele>193.8</ele>
        <time>2016-11-05T09:25:14.000Z</time>
      </trkpt>
      <trkpt lat="49.56943" lon="3.49294">
        <ele>193.7</ele>
        <time>2016-11-05T09:25:15.000Z</time>
      </trkpt>
      <trkpt lat="49.56937" lon="3.49301">
        <ele>193.7</ele>
        <time>2016-11-05T09:25:19.000Z</time>
      </trkpt>
      <trkpt lat="49.56935" lon="3.49303">
        <ele>193.7</ele>
        <time>2016-11-05T09:25:20.000Z</time>
      </trkpt>
      <trkpt lat="49.56929" lon="3.4931">
        <ele>193.9</ele>
        <time>2016-11-05T09:25:25.000Z</time>
      </trkpt>
      <trkpt lat="49.56928" lon="3.49311">
        <ele>193.9</ele>
        <time>2016-11-05T09:25:26.000Z</time>
      </trkpt>
      <trkpt lat="49.56925" lon="3.49323">
        <ele>193.5</ele>
        <time>2016-11-05T09:25:32.000Z</time>
      </trkpt>
      <trkpt lat="49.56923" lon="3.49324">
        <ele>193.4</ele>
        <time>2016-11-05T09:25:33.000Z</time>
      </trkpt>
      <trkpt lat="49.56917" lon="3.49333">
        <ele>193.3</ele>
        <time>2016-11-05T09:25:39.000Z</time>
      </trkpt>
      <trkpt lat="49.56916" lon="3.49334">
        <ele>193.3</ele>
        <time>2016-11-05T09:25:40.000Z</time>
      </trkpt>
      <trkpt lat="49.56909" lon="3.4934">
        <ele>193.2</ele>
        <time>2016-11-05T09:25:44.000Z</time>
      </trkpt>
      <trkpt lat="49.56907" lon="3.49341">
        <ele>193.4</ele>
        <time>2016-11-05T09:25:45.000Z</time>
      </trkpt>
      <trkpt lat="49.56899" lon="3.49345">
        <ele>193.2</ele>
        <time>2016-11-05T09:25:50.000Z</time>
      </trkpt>
      <trkpt lat="49.56898" lon="3.49346">
        <ele>192.8</ele>
        <time>2016-11-05T09:25:51.000Z</time>
      </trkpt>
      <trkpt lat="49.56892" lon="3.49354">
        <ele>192.6</ele>
        <time>2016-11-05T09:25:57.000Z</time>
      </trkpt>
      <trkpt lat="49.56891" lon="3.49355">
        <ele>192.5</ele>
        <time>2016-11-05T09:25:58.000Z</time>
      </trkpt>
      <trkpt lat="49.56885" lon="3.49364">
        <ele>191.3</ele>
        <time>2016-11-05T09:26:04.000Z</time>
      </trkpt>
      <trkpt lat="49.56884" lon="3.49366">
        <ele>191.1</ele>
        <time>2016-11-05T09:26:05.000Z</time>
      </trkpt>
      <trkpt lat="49.56878" lon="3.49373">
        <ele>191</ele>
        <time>2016-11-05T09:26:10.000Z</time>
      </trkpt>
      <trkpt lat="49.56876" lon="3.49374">
        <ele>190.9</ele>
        <time>2016-11-05T09:26:11.000Z</time>
      </trkpt>
      <trkpt lat="49.5687" lon="3.49381">
        <ele>190.7</ele>
        <time>2016-11-05T09:26:15.000Z</time>
      </trkpt>
      <trkpt lat="49.56868" lon="3.49383">
        <ele>190.5</ele>
        <time>2016-11-05T09:26:16.000Z</time>
      </trkpt>
      <trkpt lat="49.56862" lon="3.4939">
        <ele>190</ele>
        <time>2016-11-05T09:26:20.000Z</time>
      </trkpt>
      <trkpt lat="49.56861" lon="3.49392">
        <ele>189.6</ele>
        <time>2016-11-05T09:26:21.000Z</time>
      </trkpt>
      <trkpt lat="49.56856" lon="3.49399">
        <ele>188.7</ele>
        <time>2016-11-05T09:26:25.000Z</time>
      </trkpt>
      <trkpt lat="49.56854" lon="3.49402">
        <ele>188.8</ele>
        <time>2016-11-05T09:26:26.000Z</time>
      </trkpt>
      <trkpt lat="49.56848" lon="3.4941">
        <ele>188.9</ele>
        <time>2016-11-05T09:26:32.000Z</time>
      </trkpt>
      <trkpt lat="49.56847" lon="3.49412">
        <ele>188.9</ele>
        <time>2016-11-05T09:26:33.000Z</time>
      </trkpt>
      <trkpt lat="49.56842" lon="3.49423">
        <ele>188.6</ele>
        <time>2016-11-05T09:26:39.000Z</time>
      </trkpt>
      <trkpt lat="49.56841" lon="3.49425">
        <ele>188.4</ele>
        <time>2016-11-05T09:26:40.000Z</time>
      </trkpt>
      <trkpt lat="49.56837" lon="3.49434">
        <ele>187.9</ele>
        <time>2016-11-05T09:26:45.000Z</time>
      </trkpt>
      <trkpt lat="49.56836" lon="3.49436">
        <ele>188</ele>
        <time>2016-11-05T09:26:46.000Z</time>
      </trkpt>
      <trkpt lat="49.56829" lon="3.49443">
        <ele>188.3</ele>
        <time>2016-11-05T09:26:51.000Z</time>
      </trkpt>
      <trkpt lat="49.56828" lon="3.49444">
        <ele>188.4</ele>
        <time>2016-11-05T09:26:52.000Z</time>
      </trkpt>
      <trkpt lat="49.56825" lon="3.49455">
        <ele>188.7</ele>
        <time>2016-11-05T09:26:58.000Z</time>
      </trkpt>
      <trkpt lat="49.56825" lon="3.49458">
        <ele>188.5</ele>
        <time>2016-11-05T09:26:59.000Z</time>
      </trkpt>
      <trkpt lat="49.56822" lon="3.4947">
        <ele>188</ele>
        <time>2016-11-05T09:27:04.000Z</time>
      </trkpt>
      <trkpt lat="49.56822" lon="3.49472">
        <ele>187.9</ele>
        <time>2016-11-05T09:27:05.000Z</time>
      </trkpt>
      <trkpt lat="49.56817" lon="3.49484">
        <ele>186.4</ele>
        <time>2016-11-05T09:27:24.000Z</time>
      </trkpt>
      <trkpt lat="49.56816" lon="3.49485">
        <ele>186.4</ele>
        <time>2016-11-05T09:27:25.000Z</time>
      </trkpt>
      <trkpt lat="49.5681" lon="3.49495">
        <ele>186.1</ele>
        <time>2016-11-05T09:27:31.000Z</time>
      </trkpt>
      <trkpt lat="49.5681" lon="3.49497">
        <ele>186.1</ele>
        <time>2016-11-05T09:27:32.000Z</time>
      </trkpt>
      <trkpt lat="49.5681" lon="3.4951">
        <ele>185</ele>
        <time>2016-11-05T09:27:38.000Z</time>
      </trkpt>
      <trkpt lat="49.56809" lon="3.49512">
        <ele>184.9</ele>
        <time>2016-11-05T09:27:39.000Z</time>
      </trkpt>
      <trkpt lat="49.5681" lon="3.49525">
        <ele>184.4</ele>
        <time>2016-11-05T09:27:48.000Z</time>
      </trkpt>
      <trkpt lat="49.5681" lon="3.49527">
        <ele>184.2</ele>
        <time>2016-11-05T09:27:49.000Z</time>
      </trkpt>
      <trkpt lat="49.5681" lon="3.49539">
        <ele>183.9</ele>
        <time>2016-11-05T09:27:57.000Z</time>
      </trkpt>
      <trkpt lat="49.56811" lon="3.49541">
        <ele>184.2</ele>
        <time>2016-11-05T09:27:58.000Z</time>
      </trkpt>
      <trkpt lat="49.56806" lon="3.49552">
        <ele>184.5</ele>
        <time>2016-11-05T09:28:05.000Z</time>
      </trkpt>
      <trkpt lat="49.56804" lon="3.49554">
        <ele>183.9</ele>
        <time>2016-11-05T09:28:06.000Z</time>
      </trkpt>
      <trkpt lat="49.56796" lon="3.49555">
        <ele>182.7</ele>
        <time>2016-11-05T09:28:09.000Z</time>
      </trkpt>
      <trkpt lat="49.56794" lon="3.49555">
        <ele>181.9</ele>
        <time>2016-11-05T09:28:10.000Z</time>
      </trkpt>
      <trkpt lat="49.56788" lon="3.49555">
        <ele>180.7</ele>
        <time>2016-11-05T09:28:12.000Z</time>
      </trkpt>
      <trkpt lat="49.56785" lon="3.49555">
        <ele>180.5</ele>
        <time>2016-11-05T09:28:13.000Z</time>
      </trkpt>
      <trkpt lat="49.56778" lon="3.49557">
        <ele>180</ele>
        <time>2016-11-05T09:28:16.000Z</time>
      </trkpt>
      <trkpt lat="49.56776" lon="3.49557">
        <ele>179.9</ele>
        <time>2016-11-05T09:28:17.000Z</time>
      </trkpt>
      <trkpt lat="49.56768" lon="3.49559">
        <ele>179.1</ele>
        <time>2016-11-05T09:28:22.000Z</time>
      </trkpt>
      <trkpt lat="49.56766" lon="3.49559">
        <ele>178.9</ele>
        <time>2016-11-05T09:28:23.000Z</time>
      </trkpt>
      <trkpt lat="49.56758" lon="3.4956">
        <ele>179.4</ele>
        <time>2016-11-05T09:28:28.000Z</time>
      </trkpt>
      <trkpt lat="49.56757" lon="3.4956">
        <ele>179.5</ele>
        <time>2016-11-05T09:28:29.000Z</time>
      </trkpt>
      <trkpt lat="49.56749" lon="3.49559">
        <ele>179.3</ele>
        <time>2016-11-05T09:28:34.000Z</time>
      </trkpt>
      <trkpt lat="49.56747" lon="3.49559">
        <ele>179.2</ele>
        <time>2016-11-05T09:28:35.000Z</time>
      </trkpt>
      <trkpt lat="49.56739" lon="3.4956">
        <ele>179.1</ele>
        <time>2016-11-05T09:28:40.000Z</time>
      </trkpt>
      <trkpt lat="49.56737" lon="3.4956">
        <ele>179.1</ele>
        <time>2016-11-05T09:28:41.000Z</time>
      </trkpt>
      <trkpt lat="49.56729" lon="3.49561">
        <ele>179.1</ele>
        <time>2016-11-05T09:28:46.000Z</time>
      </trkpt>
      <trkpt lat="49.56728" lon="3.49561">
        <ele>179.1</ele>
        <time>2016-11-05T09:28:47.000Z</time>
      </trkpt>
      <trkpt lat="49.5672" lon="3.4956">
        <ele>179</ele>
        <time>2016-11-05T09:28:52.000Z</time>
      </trkpt>
      <trkpt lat="49.56718" lon="3.4956">
        <ele>179</ele>
        <time>2016-11-05T09:28:53.000Z</time>
      </trkpt>
      <trkpt lat="49.5671" lon="3.49559">
        <ele>178.9</ele>
        <time>2016-11-05T09:28:58.000Z</time>
      </trkpt>
      <trkpt lat="49.56708" lon="3.49559">
        <ele>178.9</ele>
        <time>2016-11-05T09:28:59.000Z</time>
      </trkpt>
      <trkpt lat="49.567" lon="3.49558">
        <ele>179.1</ele>
        <time>2016-11-05T09:29:04.000Z</time>
      </trkpt>
      <trkpt lat="49.56698" lon="3.49557">
        <ele>179</ele>
        <time>2016-11-05T09:29:05.000Z</time>
      </trkpt>
      <trkpt lat="49.5669" lon="3.49557">
        <ele>179</ele>
        <time>2016-11-05T09:29:10.000Z</time>
      </trkpt>
      <trkpt lat="49.56688" lon="3.49557">
        <ele>178.9</ele>
        <time>2016-11-05T09:29:11.000Z</time>
      </trkpt>
      <trkpt lat="49.5668" lon="3.49555">
        <ele>178.7</ele>
        <time>2016-11-05T09:29:16.000Z</time>
      </trkpt>
      <trkpt lat="49.56678" lon="3.49555">
        <ele>178.7</ele>
        <time>2016-11-05T09:29:17.000Z</time>
      </trkpt>
      <trkpt lat="49.56671" lon="3.49554">
        <ele>179.2</ele>
        <time>2016-11-05T09:29:22.000Z</time>
      </trkpt>
      <trkpt lat="49.56669" lon="3.49554">
        <ele>179.4</ele>
        <time>2016-11-05T09:29:23.000Z</time>
      </trkpt>
      <trkpt lat="49.5666" lon="3.49553">
        <ele>179.2</ele>
        <time>2016-11-05T09:29:29.000Z</time>
      </trkpt>
      <trkpt lat="49.56659" lon="3.49553">
        <ele>179.2</ele>
        <time>2016-11-05T09:29:30.000Z</time>
      </trkpt>
      <trkpt lat="49.56651" lon="3.49553">
        <ele>179</ele>
        <time>2016-11-05T09:29:35.000Z</time>
      </trkpt>
      <trkpt lat="49.56649" lon="3.49553">
        <ele>179</ele>
        <time>2016-11-05T09:29:36.000Z</time>
      </trkpt>
      <trkpt lat="49.56641" lon="3.49552">
        <ele>178.6</ele>
        <time>2016-11-05T09:29:41.000Z</time>
      </trkpt>
      <trkpt lat="49.5664" lon="3.49551">
        <ele>178.7</ele>
        <time>2016-11-05T09:29:42.000Z</time>
      </trkpt>
      <trkpt lat="49.56632" lon="3.49551">
        <ele>178.9</ele>
        <time>2016-11-05T09:29:47.000Z</time>
      </trkpt>
      <trkpt lat="49.56631" lon="3.49551">
        <ele>178.7</ele>
        <time>2016-11-05T09:29:48.000Z</time>
      </trkpt>
      <trkpt lat="49.56623" lon="3.4955">
        <ele>178.6</ele>
        <time>2016-11-05T09:29:53.000Z</time>
      </trkpt>
      <trkpt lat="49.56622" lon="3.4955">
        <ele>178.7</ele>
        <time>2016-11-05T09:29:54.000Z</time>
      </trkpt>
      <trkpt lat="49.56614" lon="3.49547">
        <ele>179</ele>
        <time>2016-11-05T09:29:59.000Z</time>
      </trkpt>
      <trkpt lat="49.56612" lon="3.49546">
        <ele>178.9</ele>
        <time>2016-11-05T09:30:00.000Z</time>
      </trkpt>
      <trkpt lat="49.56605" lon="3.49541">
        <ele>179</ele>
        <time>2016-11-05T09:30:05.000Z</time>
      </trkpt>
      <trkpt lat="49.56604" lon="3.49539">
        <ele>179</ele>
        <time>2016-11-05T09:30:06.000Z</time>
      </trkpt>
      <trkpt lat="49.56597" lon="3.49531">
        <ele>178.4</ele>
        <time>2016-11-05T09:30:11.000Z</time>
      </trkpt>
      <trkpt lat="49.56596" lon="3.4953">
        <ele>178.1</ele>
        <time>2016-11-05T09:30:12.000Z</time>
      </trkpt>
      <trkpt lat="49.56589" lon="3.49521">
        <ele>177.5</ele>
        <time>2016-11-05T09:30:17.000Z</time>
      </trkpt>
      <trkpt lat="49.56588" lon="3.4952">
        <ele>177.4</ele>
        <time>2016-11-05T09:30:18.000Z</time>
      </trkpt>
      <trkpt lat="49.56581" lon="3.49513">
        <ele>177.7</ele>
        <time>2016-11-05T09:30:23.000Z</time>
      </trkpt>
      <trkpt lat="49.5658" lon="3.49511">
        <ele>177.6</ele>
        <time>2016-11-05T09:30:24.000Z</time>
      </trkpt>
      <trkpt lat="49.56574" lon="3.49504">
        <ele>177.6</ele>
        <time>2016-11-05T09:30:29.000Z</time>
      </trkpt>
      <trkpt lat="49.56573" lon="3.49503">
        <ele>177.6</ele>
        <time>2016-11-05T09:30:30.000Z</time>
      </trkpt>
      <trkpt lat="49.56566" lon="3.49495">
        <ele>177.3</ele>
        <time>2016-11-05T09:30:35.000Z</time>
      </trkpt>
      <trkpt lat="49.56565" lon="3.49493">
        <ele>177.2</ele>
        <time>2016-11-05T09:30:36.000Z</time>
      </trkpt>
      <trkpt lat="49.56557" lon="3.49486">
        <ele>178</ele>
        <time>2016-11-05T09:30:42.000Z</time>
      </trkpt>
      <trkpt lat="49.56556" lon="3.49485">
        <ele>177.9</ele>
        <time>2016-11-05T09:30:43.000Z</time>
      </trkpt>
      <trkpt lat="49.56549" lon="3.49479">
        <ele>178.4</ele>
        <time>2016-11-05T09:30:49.000Z</time>
      </trkpt>
      <trkpt lat="49.56548" lon="3.49478">
        <ele>178.4</ele>
        <time>2016-11-05T09:30:50.000Z</time>
      </trkpt>
      <trkpt lat="49.56539" lon="3.49474">
        <ele>179.3</ele>
        <time>2016-11-05T09:30:57.000Z</time>
      </trkpt>
      <trkpt lat="49.56539" lon="3.49474">
        <ele>179.4</ele>
        <time>2016-11-05T09:30:58.000Z</time>
      </trkpt>
      <trkpt lat="49.56531" lon="3.4947">
        <ele>179.8</ele>
        <time>2016-11-05T09:31:05.000Z</time>
      </trkpt>
      <trkpt lat="49.5653" lon="3.49469">
        <ele>179.7</ele>
        <time>2016-11-05T09:31:06.000Z</time>
      </trkpt>
      <trkpt lat="49.56522" lon="3.49467">
        <ele>180</ele>
        <time>2016-11-05T09:31:12.000Z</time>
      </trkpt>
      <trkpt lat="49.56521" lon="3.49466">
        <ele>180</ele>
        <time>2016-11-05T09:31:13.000Z</time>
      </trkpt>
      <trkpt lat="49.56513" lon="3.49463">
        <ele>180.3</ele>
        <time>2016-11-05T09:31:19.000Z</time>
      </trkpt>
      <trkpt lat="49.56511" lon="3.49463">
        <ele>180.4</ele>
        <time>2016-11-05T09:31:20.000Z</time>
      </trkpt>
      <trkpt lat="49.56503" lon="3.49458">
        <ele>180.6</ele>
        <time>2016-11-05T09:31:27.000Z</time>
      </trkpt>
      <trkpt lat="49.56502" lon="3.49458">
        <ele>180.8</ele>
        <time>2016-11-05T09:31:28.000Z</time>
      </trkpt>
      <trkpt lat="49.56495" lon="3.49453">
        <ele>181.6</ele>
        <time>2016-11-05T09:31:37.000Z</time>
      </trkpt>
      <trkpt lat="49.56493" lon="3.49453">
        <ele>181.6</ele>
        <time>2016-11-05T09:31:38.000Z</time>
      </trkpt>
      <trkpt lat="49.56486" lon="3.49448">
        <ele>181.6</ele>
        <time>2016-11-05T09:31:43.000Z</time>
      </trkpt>
      <trkpt lat="49.56485" lon="3.49447">
        <ele>181.6</ele>
        <time>2016-11-05T09:31:44.000Z</time>
      </trkpt>
      <trkpt lat="49.56478" lon="3.49443">
        <ele>182.2</ele>
        <time>2016-11-05T09:31:50.000Z</time>
      </trkpt>
      <trkpt lat="49.56476" lon="3.49441">
        <ele>182.1</ele>
        <time>2016-11-05T09:31:51.000Z</time>
      </trkpt>
      <trkpt lat="49.56468" lon="3.49438">
        <ele>182.6</ele>
        <time>2016-11-05T09:31:55.000Z</time>
      </trkpt>
      <trkpt lat="49.56466" lon="3.49437">
        <ele>182.6</ele>
        <time>2016-11-05T09:31:56.000Z</time>
      </trkpt>
      <trkpt lat="49.56458" lon="3.49435">
        <ele>182.8</ele>
        <time>2016-11-05T09:32:01.000Z</time>
      </trkpt>
      <trkpt lat="49.56457" lon="3.49434">
        <ele>182.9</ele>
        <time>2016-11-05T09:32:02.000Z</time>
      </trkpt>
      <trkpt lat="49.56452" lon="3.49425">
        <ele>183.1</ele>
        <time>2016-11-05T09:32:09.000Z</time>
      </trkpt>
      <trkpt lat="49.5645" lon="3.49423">
        <ele>183.2</ele>
        <time>2016-11-05T09:32:10.000Z</time>
      </trkpt>
      <trkpt lat="49.56444" lon="3.49414">
        <ele>183.8</ele>
        <time>2016-11-05T09:32:17.000Z</time>
      </trkpt>
      <trkpt lat="49.56443" lon="3.49412">
        <ele>183.9</ele>
        <time>2016-11-05T09:32:18.000Z</time>
      </trkpt>
      <trkpt lat="49.56436" lon="3.49406">
        <ele>184</ele>
        <time>2016-11-05T09:32:22.000Z</time>
      </trkpt>
      <trkpt lat="49.56435" lon="3.49405">
        <ele>184.2</ele>
        <time>2016-11-05T09:32:23.000Z</time>
      </trkpt>
      <trkpt lat="49.56429" lon="3.49396">
        <ele>184.6</ele>
        <time>2016-11-05T09:32:28.000Z</time>
      </trkpt>
      <trkpt lat="49.56428" lon="3.49395">
        <ele>184.7</ele>
        <time>2016-11-05T09:32:29.000Z</time>
      </trkpt>
      <trkpt lat="49.56423" lon="3.49386">
        <ele>185.8</ele>
        <time>2016-11-05T09:32:35.000Z</time>
      </trkpt>
      <trkpt lat="49.56421" lon="3.49385">
        <ele>186.1</ele>
        <time>2016-11-05T09:32:36.000Z</time>
      </trkpt>
      <trkpt lat="49.56415" lon="3.49377">
        <ele>187.1</ele>
        <time>2016-11-05T09:32:41.000Z</time>
      </trkpt>
      <trkpt lat="49.56414" lon="3.49376">
        <ele>187.3</ele>
        <time>2016-11-05T09:32:42.000Z</time>
      </trkpt>
      <trkpt lat="49.56407" lon="3.49367">
        <ele>187.1</ele>
        <time>2016-11-05T09:32:47.000Z</time>
      </trkpt>
      <trkpt lat="49.56406" lon="3.49366">
        <ele>187.1</ele>
        <time>2016-11-05T09:32:48.000Z</time>
      </trkpt>
      <trkpt lat="49.56399" lon="3.49358">
        <ele>187.6</ele>
        <time>2016-11-05T09:32:54.000Z</time>
      </trkpt>
      <trkpt lat="49.56398" lon="3.49356">
        <ele>187.7</ele>
        <time>2016-11-05T09:32:55.000Z</time>
      </trkpt>
      <trkpt lat="49.56391" lon="3.49348">
        <ele>187.8</ele>
        <time>2016-11-05T09:33:00.000Z</time>
      </trkpt>
      <trkpt lat="49.56389" lon="3.49347">
        <ele>188.1</ele>
        <time>2016-11-05T09:33:01.000Z</time>
      </trkpt>
      <trkpt lat="49.56381" lon="3.49341">
        <ele>188.9</ele>
        <time>2016-11-05T09:33:09.000Z</time>
      </trkpt>
      <trkpt lat="49.5638" lon="3.4934">
        <ele>188.9</ele>
        <time>2016-11-05T09:33:10.000Z</time>
      </trkpt>
      <trkpt lat="49.56374" lon="3.49332">
        <ele>189.1</ele>
        <time>2016-11-05T09:33:16.000Z</time>
      </trkpt>
      <trkpt lat="49.56372" lon="3.49331">
        <ele>189</ele>
        <time>2016-11-05T09:33:17.000Z</time>
      </trkpt>
      <trkpt lat="49.56365" lon="3.49323">
        <ele>189.6</ele>
        <time>2016-11-05T09:33:22.000Z</time>
      </trkpt>
      <trkpt lat="49.56365" lon="3.49322">
        <ele>189.6</ele>
        <time>2016-11-05T09:33:23.000Z</time>
      </trkpt>
      <trkpt lat="49.56358" lon="3.49315">
        <ele>190.2</ele>
        <time>2016-11-05T09:33:29.000Z</time>
      </trkpt>
      <trkpt lat="49.56357" lon="3.49313">
        <ele>190.5</ele>
        <time>2016-11-05T09:33:30.000Z</time>
      </trkpt>
      <trkpt lat="49.56349" lon="3.49307">
        <ele>191.3</ele>
        <time>2016-11-05T09:33:37.000Z</time>
      </trkpt>
      <trkpt lat="49.56348" lon="3.49306">
        <ele>191.5</ele>
        <time>2016-11-05T09:33:38.000Z</time>
      </trkpt>
      <trkpt lat="49.56346" lon="3.49303">
        <ele>192.6</ele>
        <time>2016-11-05T09:33:43.000Z</time>
      </trkpt>
      <trkpt lat="49.56345" lon="3.49302">
        <ele>193.1</ele>
        <time>2016-11-05T09:33:44.000Z</time>
      </trkpt>
      <trkpt lat="49.56344" lon="3.49301">
        <ele>193.4</ele>
        <time>2016-11-05T09:33:45.000Z</time>
      </trkpt>
      <trkpt lat="49.56337" lon="3.49296">
        <ele>193.8</ele>
        <time>2016-11-05T09:33:48.000Z</time>
      </trkpt>
      <trkpt lat="49.56334" lon="3.49295">
        <ele>193.8</ele>
        <time>2016-11-05T09:33:49.000Z</time>
      </trkpt>
      <trkpt lat="49.56328" lon="3.49292">
        <ele>193.3</ele>
        <time>2016-11-05T09:33:51.000Z</time>
      </trkpt>
      <trkpt lat="49.56325" lon="3.4929">
        <ele>193.5</ele>
        <time>2016-11-05T09:33:52.000Z</time>
      </trkpt>
      <trkpt lat="49.56318" lon="3.49287">
        <ele>193.6</ele>
        <time>2016-11-05T09:33:55.000Z</time>
      </trkpt>
      <trkpt lat="49.56316" lon="3.49286">
        <ele>193.7</ele>
        <time>2016-11-05T09:33:56.000Z</time>
      </trkpt>
      <trkpt lat="49.56309" lon="3.49284">
        <ele>194</ele>
        <time>2016-11-05T09:34:01.000Z</time>
      </trkpt>
      <trkpt lat="49.56307" lon="3.49284">
        <ele>194</ele>
        <time>2016-11-05T09:34:02.000Z</time>
      </trkpt>
      <trkpt lat="49.56299" lon="3.49283">
        <ele>195.6</ele>
        <time>2016-11-05T09:34:09.000Z</time>
      </trkpt>
      <trkpt lat="49.56298" lon="3.49284">
        <ele>195.7</ele>
        <time>2016-11-05T09:34:10.000Z</time>
      </trkpt>
      <trkpt lat="49.5629" lon="3.49289">
        <ele>196.9</ele>
        <time>2016-11-05T09:34:15.000Z</time>
      </trkpt>
      <trkpt lat="49.56289" lon="3.49291">
        <ele>197.2</ele>
        <time>2016-11-05T09:34:16.000Z</time>
      </trkpt>
      <trkpt lat="49.5628" lon="3.49294">
        <ele>199.2</ele>
        <time>2016-11-05T09:34:21.000Z</time>
      </trkpt>
      <trkpt lat="49.56278" lon="3.49294">
        <ele>199.6</ele>
        <time>2016-11-05T09:34:22.000Z</time>
      </trkpt>
      <trkpt lat="49.56271" lon="3.49292">
        <ele>200.7</ele>
        <time>2016-11-05T09:34:26.000Z</time>
      </trkpt>
      <trkpt lat="49.56269" lon="3.4929">
        <ele>200.7</ele>
        <time>2016-11-05T09:34:27.000Z</time>
      </trkpt>
      <trkpt lat="49.56261" lon="3.49287">
        <ele>201.5</ele>
        <time>2016-11-05T09:34:32.000Z</time>
      </trkpt>
      <trkpt lat="49.5626" lon="3.49287">
        <ele>201.5</ele>
        <time>2016-11-05T09:34:33.000Z</time>
      </trkpt>
      <trkpt lat="49.56252" lon="3.49288">
        <ele>200.8</ele>
        <time>2016-11-05T09:34:38.000Z</time>
      </trkpt>
      <trkpt lat="49.5625" lon="3.49288">
        <ele>200.6</ele>
        <time>2016-11-05T09:34:39.000Z</time>
      </trkpt>
      <trkpt lat="49.56243" lon="3.49291">
        <ele>200.3</ele>
        <time>2016-11-05T09:34:44.000Z</time>
      </trkpt>
      <trkpt lat="49.56241" lon="3.49292">
        <ele>200.2</ele>
        <time>2016-11-05T09:34:45.000Z</time>
      </trkpt>
      <trkpt lat="49.56233" lon="3.49295">
        <ele>196.1</ele>
        <time>2016-11-05T09:34:52.000Z</time>
      </trkpt>
      <trkpt lat="49.56232" lon="3.49295">
        <ele>195.2</ele>
        <time>2016-11-05T09:34:53.000Z</time>
      </trkpt>
      <trkpt lat="49.56225" lon="3.49302">
        <ele>193.9</ele>
        <time>2016-11-05T09:35:02.000Z</time>
      </trkpt>
      <trkpt lat="49.56223" lon="3.49303">
        <ele>193.9</ele>
        <time>2016-11-05T09:35:03.000Z</time>
      </trkpt>
      <trkpt lat="49.56217" lon="3.4931">
        <ele>193.7</ele>
        <time>2016-11-05T09:35:08.000Z</time>
      </trkpt>
      <trkpt lat="49.56216" lon="3.49311">
        <ele>193.6</ele>
        <time>2016-11-05T09:35:09.000Z</time>
      </trkpt>
      <trkpt lat="49.56209" lon="3.49319">
        <ele>193.8</ele>
        <time>2016-11-05T09:35:14.000Z</time>
      </trkpt>
      <trkpt lat="49.56208" lon="3.49321">
        <ele>193.7</ele>
        <time>2016-11-05T09:35:15.000Z</time>
      </trkpt>
      <trkpt lat="49.56201" lon="3.49329">
        <ele>193.1</ele>
        <time>2016-11-05T09:35:20.000Z</time>
      </trkpt>
      <trkpt lat="49.562" lon="3.4933">
        <ele>192.8</ele>
        <time>2016-11-05T09:35:21.000Z</time>
      </trkpt>
      <trkpt lat="49.56193" lon="3.49338">
        <ele>191.7</ele>
        <time>2016-11-05T09:35:27.000Z</time>
      </trkpt>
      <trkpt lat="49.56192" lon="3.49339">
        <ele>191.6</ele>
        <time>2016-11-05T09:35:28.000Z</time>
      </trkpt>
      <trkpt lat="49.56186" lon="3.49346">
        <ele>191.3</ele>
        <time>2016-11-05T09:35:33.000Z</time>
      </trkpt>
      <trkpt lat="49.56184" lon="3.49347">
        <ele>191.1</ele>
        <time>2016-11-05T09:35:34.000Z</time>
      </trkpt>
      <trkpt lat="49.56178" lon="3.49353">
        <ele>190.8</ele>
        <time>2016-11-05T09:35:39.000Z</time>
      </trkpt>
      <trkpt lat="49.56176" lon="3.49355">
        <ele>190.5</ele>
        <time>2016-11-05T09:35:40.000Z</time>
      </trkpt>
      <trkpt lat="49.56169" lon="3.49362">
        <ele>189.5</ele>
        <time>2016-11-05T09:35:46.000Z</time>
      </trkpt>
      <trkpt lat="49.56168" lon="3.49363">
        <ele>189.3</ele>
        <time>2016-11-05T09:35:47.000Z</time>
      </trkpt>
      <trkpt lat="49.56161" lon="3.49369">
        <ele>189.3</ele>
        <time>2016-11-05T09:35:53.000Z</time>
      </trkpt>
      <trkpt lat="49.5616" lon="3.4937">
        <ele>189.4</ele>
        <time>2016-11-05T09:35:54.000Z</time>
      </trkpt>
      <trkpt lat="49.56152" lon="3.49375">
        <ele>189.3</ele>
        <time>2016-11-05T09:35:59.000Z</time>
      </trkpt>
      <trkpt lat="49.56151" lon="3.49376">
        <ele>189.2</ele>
        <time>2016-11-05T09:36:00.000Z</time>
      </trkpt>
      <trkpt lat="49.56143" lon="3.49381">
        <ele>188.7</ele>
        <time>2016-11-05T09:36:06.000Z</time>
      </trkpt>
      <trkpt lat="49.56141" lon="3.49382">
        <ele>188.5</ele>
        <time>2016-11-05T09:36:07.000Z</time>
      </trkpt>
      <trkpt lat="49.56133" lon="3.49387">
        <ele>187.6</ele>
        <time>2016-11-05T09:36:12.000Z</time>
      </trkpt>
      <trkpt lat="49.56131" lon="3.49388">
        <ele>187.5</ele>
        <time>2016-11-05T09:36:13.000Z</time>
      </trkpt>
      <trkpt lat="49.56124" lon="3.49392">
        <ele>187.3</ele>
        <time>2016-11-05T09:36:18.000Z</time>
      </trkpt>
      <trkpt lat="49.56122" lon="3.49393">
        <ele>187.4</ele>
        <time>2016-11-05T09:36:19.000Z</time>
      </trkpt>
      <trkpt lat="49.56115" lon="3.49399">
        <ele>187.2</ele>
        <time>2016-11-05T09:36:25.000Z</time>
      </trkpt>
      <trkpt lat="49.56113" lon="3.494">
        <ele>187.1</ele>
        <time>2016-11-05T09:36:26.000Z</time>
      </trkpt>
      <trkpt lat="49.56107" lon="3.49408">
        <ele>186.5</ele>
        <time>2016-11-05T09:36:31.000Z</time>
      </trkpt>
      <trkpt lat="49.56105" lon="3.49409">
        <ele>186.3</ele>
        <time>2016-11-05T09:36:32.000Z</time>
      </trkpt>
      <trkpt lat="49.56098" lon="3.49415">
        <ele>185.4</ele>
        <time>2016-11-05T09:36:38.000Z</time>
      </trkpt>
      <trkpt lat="49.56097" lon="3.49417">
        <ele>185.4</ele>
        <time>2016-11-05T09:36:39.000Z</time>
      </trkpt>
      <trkpt lat="49.5609" lon="3.49423">
        <ele>184.1</ele>
        <time>2016-11-05T09:36:44.000Z</time>
      </trkpt>
      <trkpt lat="49.56089" lon="3.49425">
        <ele>183.9</ele>
        <time>2016-11-05T09:36:45.000Z</time>
      </trkpt>
      <trkpt lat="49.56082" lon="3.49432">
        <ele>182.7</ele>
        <time>2016-11-05T09:36:50.000Z</time>
      </trkpt>
      <trkpt lat="49.56081" lon="3.49433">
        <ele>182.5</ele>
        <time>2016-11-05T09:36:51.000Z</time>
      </trkpt>
      <trkpt lat="49.56073" lon="3.4944">
        <ele>181.4</ele>
        <time>2016-11-05T09:36:57.000Z</time>
      </trkpt>
      <trkpt lat="49.56072" lon="3.49441">
        <ele>181</ele>
        <time>2016-11-05T09:36:58.000Z</time>
      </trkpt>
      <trkpt lat="49.56066" lon="3.49449">
        <ele>180.1</ele>
        <time>2016-11-05T09:37:04.000Z</time>
      </trkpt>
      <trkpt lat="49.56065" lon="3.4945">
        <ele>180.1</ele>
        <time>2016-11-05T09:37:05.000Z</time>
      </trkpt>
      <trkpt lat="49.56058" lon="3.49458">
        <ele>179.8</ele>
        <time>2016-11-05T09:37:11.000Z</time>
      </trkpt>
      <trkpt lat="49.56057" lon="3.49459">
        <ele>179.8</ele>
        <time>2016-11-05T09:37:12.000Z</time>
      </trkpt>
      <trkpt lat="49.56049" lon="3.49467">
        <ele>179.1</ele>
        <time>2016-11-05T09:37:19.000Z</time>
      </trkpt>
      <trkpt lat="49.56049" lon="3.49467">
        <ele>178.8</ele>
        <time>2016-11-05T09:37:20.000Z</time>
      </trkpt>
      <trkpt lat="49.56042" lon="3.49476">
        <ele>178.6</ele>
        <time>2016-11-05T09:37:26.000Z</time>
      </trkpt>
      <trkpt lat="49.5604" lon="3.49477">
        <ele>178.5</ele>
        <time>2016-11-05T09:37:27.000Z</time>
      </trkpt>
      <trkpt lat="49.56034" lon="3.49486">
        <ele>178.2</ele>
        <time>2016-11-05T09:37:33.000Z</time>
      </trkpt>
      <trkpt lat="49.56033" lon="3.49487">
        <ele>178.1</ele>
        <time>2016-11-05T09:37:34.000Z</time>
      </trkpt>
      <trkpt lat="49.56026" lon="3.49497">
        <ele>177.6</ele>
        <time>2016-11-05T09:37:41.000Z</time>
      </trkpt>
      <trkpt lat="49.56025" lon="3.49498">
        <ele>177.5</ele>
        <time>2016-11-05T09:37:42.000Z</time>
      </trkpt>
      <trkpt lat="49.56019" lon="3.49506">
        <ele>176.5</ele>
        <time>2016-11-05T09:37:48.000Z</time>
      </trkpt>
      <trkpt lat="49.56018" lon="3.49508">
        <ele>176.3</ele>
        <time>2016-11-05T09:37:49.000Z</time>
      </trkpt>
      <trkpt lat="49.56011" lon="3.49516">
        <ele>176.4</ele>
        <time>2016-11-05T09:37:55.000Z</time>
      </trkpt>
      <trkpt lat="49.5601" lon="3.49518">
        <ele>176.5</ele>
        <time>2016-11-05T09:37:56.000Z</time>
      </trkpt>
      <trkpt lat="49.56004" lon="3.49526">
        <ele>175.9</ele>
        <time>2016-11-05T09:38:02.000Z</time>
      </trkpt>
      <trkpt lat="49.56003" lon="3.49527">
        <ele>176.1</ele>
        <time>2016-11-05T09:38:03.000Z</time>
      </trkpt>
      <trkpt lat="49.55997" lon="3.49536">
        <ele>175.4</ele>
        <time>2016-11-05T09:38:09.000Z</time>
      </trkpt>
      <trkpt lat="49.55996" lon="3.49537">
        <ele>175.4</ele>
        <time>2016-11-05T09:38:10.000Z</time>
      </trkpt>
      <trkpt lat="49.5599" lon="3.49546">
        <ele>175</ele>
        <time>2016-11-05T09:38:16.000Z</time>
      </trkpt>
      <trkpt lat="49.55989" lon="3.49547">
        <ele>175</ele>
        <time>2016-11-05T09:38:17.000Z</time>
      </trkpt>
      <trkpt lat="49.55982" lon="3.49555">
        <ele>174.4</ele>
        <time>2016-11-05T09:38:26.000Z</time>
      </trkpt>
      <trkpt lat="49.55981" lon="3.49556">
        <ele>174.5</ele>
        <time>2016-11-05T09:38:27.000Z</time>
      </trkpt>
      <trkpt lat="49.55974" lon="3.49561">
        <ele>174.2</ele>
        <time>2016-11-05T09:38:33.000Z</time>
      </trkpt>
      <trkpt lat="49.55973" lon="3.49562">
        <ele>174.1</ele>
        <time>2016-11-05T09:38:34.000Z</time>
      </trkpt>
      <trkpt lat="49.55966" lon="3.49567">
        <ele>173.4</ele>
        <time>2016-11-05T09:38:39.000Z</time>
      </trkpt>
      <trkpt lat="49.55965" lon="3.49568">
        <ele>173.2</ele>
        <time>2016-11-05T09:38:40.000Z</time>
      </trkpt>
      <trkpt lat="49.55957" lon="3.49573">
        <ele>171.4</ele>
        <time>2016-11-05T09:38:46.000Z</time>
      </trkpt>
      <trkpt lat="49.55955" lon="3.49574">
        <ele>171.4</ele>
        <time>2016-11-05T09:38:47.000Z</time>
      </trkpt>
      <trkpt lat="49.55948" lon="3.4958">
        <ele>170.7</ele>
        <time>2016-11-05T09:38:53.000Z</time>
      </trkpt>
      <trkpt lat="49.55947" lon="3.49581">
        <ele>170.7</ele>
        <time>2016-11-05T09:38:54.000Z</time>
      </trkpt>
      <trkpt lat="49.55941" lon="3.49591">
        <ele>170.9</ele>
        <time>2016-11-05T09:39:01.000Z</time>
      </trkpt>
      <trkpt lat="49.5594" lon="3.49593">
        <ele>170.8</ele>
        <time>2016-11-05T09:39:02.000Z</time>
      </trkpt>
      <trkpt lat="49.55936" lon="3.49604">
        <ele>170.6</ele>
        <time>2016-11-05T09:39:09.000Z</time>
      </trkpt>
      <trkpt lat="49.55935" lon="3.49606">
        <ele>170.6</ele>
        <time>2016-11-05T09:39:10.000Z</time>
      </trkpt>
      <trkpt lat="49.55932" lon="3.49619">
        <ele>170.9</ele>
        <time>2016-11-05T09:39:17.000Z</time>
      </trkpt>
      <trkpt lat="49.55932" lon="3.49621">
        <ele>170.9</ele>
        <time>2016-11-05T09:39:18.000Z</time>
      </trkpt>
      <trkpt lat="49.55927" lon="3.49632">
        <ele>170.5</ele>
        <time>2016-11-05T09:39:25.000Z</time>
      </trkpt>
      <trkpt lat="49.55926" lon="3.49633">
        <ele>170.5</ele>
        <time>2016-11-05T09:39:26.000Z</time>
      </trkpt>
      <trkpt lat="49.55918" lon="3.4963">
        <ele>170.3</ele>
        <time>2016-11-05T09:39:32.000Z</time>
      </trkpt>
      <trkpt lat="49.55917" lon="3.49629">
        <ele>170.3</ele>
        <time>2016-11-05T09:39:33.000Z</time>
      </trkpt>
      <trkpt lat="49.55909" lon="3.49621">
        <ele>169.3</ele>
        <time>2016-11-05T09:39:39.000Z</time>
      </trkpt>
      <trkpt lat="49.55908" lon="3.49619">
        <ele>169.3</ele>
        <time>2016-11-05T09:39:40.000Z</time>
      </trkpt>
      <trkpt lat="49.55903" lon="3.4961">
        <ele>168.7</ele>
        <time>2016-11-05T09:39:46.000Z</time>
      </trkpt>
      <trkpt lat="49.55902" lon="3.49608">
        <ele>168.6</ele>
        <time>2016-11-05T09:39:47.000Z</time>
      </trkpt>
      <trkpt lat="49.55896" lon="3.49598">
        <ele>167.5</ele>
        <time>2016-11-05T09:39:53.000Z</time>
      </trkpt>
      <trkpt lat="49.55895" lon="3.49597">
        <ele>167.4</ele>
        <time>2016-11-05T09:39:54.000Z</time>
      </trkpt>
      <trkpt lat="49.55889" lon="3.49586">
        <ele>167.8</ele>
        <time>2016-11-05T09:40:01.000Z</time>
      </trkpt>
      <trkpt lat="49.55888" lon="3.49584">
        <ele>167.6</ele>
        <time>2016-11-05T09:40:02.000Z</time>
      </trkpt>
      <trkpt lat="49.55883" lon="3.49576">
        <ele>167.3</ele>
        <time>2016-11-05T09:40:08.000Z</time>
      </trkpt>
      <trkpt lat="49.55882" lon="3.49574">
        <ele>167.5</ele>
        <time>2016-11-05T09:40:09.000Z</time>
      </trkpt>
      <trkpt lat="49.55879" lon="3.49563">
        <ele>169.1</ele>
        <time>2016-11-05T09:40:15.000Z</time>
      </trkpt>
      <trkpt lat="49.55879" lon="3.49561">
        <ele>169.2</ele>
        <time>2016-11-05T09:40:16.000Z</time>
      </trkpt>
      <trkpt lat="49.55877" lon="3.49549">
        <ele>170.3</ele>
        <time>2016-11-05T09:40:22.000Z</time>
      </trkpt>
      <trkpt lat="49.55876" lon="3.49547">
        <ele>170.3</ele>
        <time>2016-11-05T09:40:23.000Z</time>
      </trkpt>
      <trkpt lat="49.5587" lon="3.49538">
        <ele>170.9</ele>
        <time>2016-11-05T09:40:29.000Z</time>
      </trkpt>
      <trkpt lat="49.55869" lon="3.49537">
        <ele>170.8</ele>
        <time>2016-11-05T09:40:30.000Z</time>
      </trkpt>
      <trkpt lat="49.55862" lon="3.4953">
        <ele>170.5</ele>
        <time>2016-11-05T09:40:35.000Z</time>
      </trkpt>
      <trkpt lat="49.55861" lon="3.49529">
        <ele>170.3</ele>
        <time>2016-11-05T09:40:36.000Z</time>
      </trkpt>
      <trkpt lat="49.55855" lon="3.49522">
        <ele>169.5</ele>
        <time>2016-11-05T09:40:41.000Z</time>
      </trkpt>
      <trkpt lat="49.55853" lon="3.49521">
        <ele>169.3</ele>
        <time>2016-11-05T09:40:42.000Z</time>
      </trkpt>
      <trkpt lat="49.55846" lon="3.49513">
        <ele>169.1</ele>
        <time>2016-11-05T09:40:48.000Z</time>
      </trkpt>
      <trkpt lat="49.55845" lon="3.49512">
        <ele>169</ele>
        <time>2016-11-05T09:40:49.000Z</time>
      </trkpt>
      <trkpt lat="49.55839" lon="3.49504">
        <ele>168</ele>
        <time>2016-11-05T09:40:54.000Z</time>
      </trkpt>
      <trkpt lat="49.55838" lon="3.49503">
        <ele>167.9</ele>
        <time>2016-11-05T09:40:55.000Z</time>
      </trkpt>
      <trkpt lat="49.55831" lon="3.49496">
        <ele>167.3</ele>
        <time>2016-11-05T09:41:01.000Z</time>
      </trkpt>
      <trkpt lat="49.5583" lon="3.49495">
        <ele>167.3</ele>
        <time>2016-11-05T09:41:02.000Z</time>
      </trkpt>
      <trkpt lat="49.55823" lon="3.49488">
        <ele>166.7</ele>
        <time>2016-11-05T09:41:07.000Z</time>
      </trkpt>
      <trkpt lat="49.55822" lon="3.49487">
        <ele>166.6</ele>
        <time>2016-11-05T09:41:08.000Z</time>
      </trkpt>
      <trkpt lat="49.55815" lon="3.49479">
        <ele>166.2</ele>
        <time>2016-11-05T09:41:14.000Z</time>
      </trkpt>
      <trkpt lat="49.55814" lon="3.49477">
        <ele>166.1</ele>
        <time>2016-11-05T09:41:15.000Z</time>
      </trkpt>
      <trkpt lat="49.55807" lon="3.49469">
        <ele>165.3</ele>
        <time>2016-11-05T09:41:22.000Z</time>
      </trkpt>
      <trkpt lat="49.55806" lon="3.49468">
        <ele>165.2</ele>
        <time>2016-11-05T09:41:23.000Z</time>
      </trkpt>
      <trkpt lat="49.55799" lon="3.49458">
        <ele>165</ele>
        <time>2016-11-05T09:41:28.000Z</time>
      </trkpt>
      <trkpt lat="49.55798" lon="3.49456">
        <ele>165</ele>
        <time>2016-11-05T09:41:29.000Z</time>
      </trkpt>
      <trkpt lat="49.55792" lon="3.49447">
        <ele>164.8</ele>
        <time>2016-11-05T09:41:34.000Z</time>
      </trkpt>
      <trkpt lat="49.5579" lon="3.49445">
        <ele>164.9</ele>
        <time>2016-11-05T09:41:35.000Z</time>
      </trkpt>
      <trkpt lat="49.55785" lon="3.49437">
        <ele>164.8</ele>
        <time>2016-11-05T09:41:40.000Z</time>
      </trkpt>
      <trkpt lat="49.55784" lon="3.49435">
        <ele>164.9</ele>
        <time>2016-11-05T09:41:41.000Z</time>
      </trkpt>
      <trkpt lat="49.55778" lon="3.49427">
        <ele>164.7</ele>
        <time>2016-11-05T09:41:46.000Z</time>
      </trkpt>
      <trkpt lat="49.55777" lon="3.49426">
        <ele>164.6</ele>
        <time>2016-11-05T09:41:47.000Z</time>
      </trkpt>
      <trkpt lat="49.5577" lon="3.49417">
        <ele>164.9</ele>
        <time>2016-11-05T09:41:53.000Z</time>
      </trkpt>
      <trkpt lat="49.55769" lon="3.49415">
        <ele>164.9</ele>
        <time>2016-11-05T09:41:54.000Z</time>
      </trkpt>
      <trkpt lat="49.55764" lon="3.49406">
        <ele>165.5</ele>
        <time>2016-11-05T09:42:00.000Z</time>
      </trkpt>
      <trkpt lat="49.55762" lon="3.49404">
        <ele>165.5</ele>
        <time>2016-11-05T09:42:01.000Z</time>
      </trkpt>
      <trkpt lat="49.55756" lon="3.49397">
        <ele>166.6</ele>
        <time>2016-11-05T09:42:09.000Z</time>
      </trkpt>
      <trkpt lat="49.55755" lon="3.49394">
        <ele>167</ele>
        <time>2016-11-05T09:42:10.000Z</time>
      </trkpt>
      <trkpt lat="49.55757" lon="3.49383">
        <ele>167.6</ele>
        <time>2016-11-05T09:42:15.000Z</time>
      </trkpt>
      <trkpt lat="49.55757" lon="3.49381">
        <ele>167.4</ele>
        <time>2016-11-05T09:42:16.000Z</time>
      </trkpt>
      <trkpt lat="49.55761" lon="3.4937">
        <ele>166.4</ele>
        <time>2016-11-05T09:42:21.000Z</time>
      </trkpt>
      <trkpt lat="49.55762" lon="3.49368">
        <ele>166.2</ele>
        <time>2016-11-05T09:42:22.000Z</time>
      </trkpt>
      <trkpt lat="49.55766" lon="3.49356">
        <ele>164.8</ele>
        <time>2016-11-05T09:42:28.000Z</time>
      </trkpt>
      <trkpt lat="49.55766" lon="3.49354">
        <ele>164.1</ele>
        <time>2016-11-05T09:42:29.000Z</time>
      </trkpt>
      <trkpt lat="49.55772" lon="3.49347">
        <ele>164.8</ele>
        <time>2016-11-05T09:42:34.000Z</time>
      </trkpt>
      <trkpt lat="49.55773" lon="3.49345">
        <ele>164.8</ele>
        <time>2016-11-05T09:42:35.000Z</time>
      </trkpt>
      <trkpt lat="49.55779" lon="3.49336">
        <ele>165</ele>
        <time>2016-11-05T09:42:40.000Z</time>
      </trkpt>
      <trkpt lat="49.5578" lon="3.49334">
        <ele>165.1</ele>
        <time>2016-11-05T09:42:41.000Z</time>
      </trkpt>
      <trkpt lat="49.55787" lon="3.49327">
        <ele>166</ele>
        <time>2016-11-05T09:42:46.000Z</time>
      </trkpt>
      <trkpt lat="49.55788" lon="3.49325">
        <ele>166</ele>
        <time>2016-11-05T09:42:47.000Z</time>
      </trkpt>
      <trkpt lat="49.55795" lon="3.49319">
        <ele>167.4</ele>
        <time>2016-11-05T09:42:52.000Z</time>
      </trkpt>
      <trkpt lat="49.55796" lon="3.49317">
        <ele>167.8</ele>
        <time>2016-11-05T09:42:53.000Z</time>
      </trkpt>
      <trkpt lat="49.55801" lon="3.49308">
        <ele>168.2</ele>
        <time>2016-11-05T09:42:59.000Z</time>
      </trkpt>
      <trkpt lat="49.55802" lon="3.49307">
        <ele>168.3</ele>
        <time>2016-11-05T09:43:00.000Z</time>
      </trkpt>
      <trkpt lat="49.5581" lon="3.49301">
        <ele>168.5</ele>
        <time>2016-11-05T09:43:05.000Z</time>
      </trkpt>
      <trkpt lat="49.55811" lon="3.49301">
        <ele>168.9</ele>
        <time>2016-11-05T09:43:06.000Z</time>
      </trkpt>
      <trkpt lat="49.55819" lon="3.49293">
        <ele>168.5</ele>
        <time>2016-11-05T09:43:12.000Z</time>
      </trkpt>
      <trkpt lat="49.5582" lon="3.49292">
        <ele>168.2</ele>
        <time>2016-11-05T09:43:13.000Z</time>
      </trkpt>
      <trkpt lat="49.55828" lon="3.49287">
        <ele>168.2</ele>
        <time>2016-11-05T09:43:18.000Z</time>
      </trkpt>
      <trkpt lat="49.55829" lon="3.49285">
        <ele>167.7</ele>
        <time>2016-11-05T09:43:19.000Z</time>
      </trkpt>
      <trkpt lat="49.55834" lon="3.49278">
        <ele>166.9</ele>
        <time>2016-11-05T09:43:22.000Z</time>
      </trkpt>
      <trkpt lat="49.55836" lon="3.49275">
        <ele>167</ele>
        <time>2016-11-05T09:43:23.000Z</time>
      </trkpt>
      <trkpt lat="49.55842" lon="3.49269">
        <ele>166.5</ele>
        <time>2016-11-05T09:43:27.000Z</time>
      </trkpt>
      <trkpt lat="49.55844" lon="3.49268">
        <ele>166.1</ele>
        <time>2016-11-05T09:43:28.000Z</time>
      </trkpt>
      <trkpt lat="49.5585" lon="3.49258">
        <ele>164.6</ele>
        <time>2016-11-05T09:43:34.000Z</time>
      </trkpt>
      <trkpt lat="49.5585" lon="3.49256">
        <ele>164.4</ele>
        <time>2016-11-05T09:43:35.000Z</time>
      </trkpt>
      <trkpt lat="49.55856" lon="3.49246">
        <ele>163.8</ele>
        <time>2016-11-05T09:43:41.000Z</time>
      </trkpt>
      <trkpt lat="49.55857" lon="3.49245">
        <ele>163.8</ele>
        <time>2016-11-05T09:43:42.000Z</time>
      </trkpt>
      <trkpt lat="49.55863" lon="3.49235">
        <ele>163.4</ele>
        <time>2016-11-05T09:43:48.000Z</time>
      </trkpt>
      <trkpt lat="49.55864" lon="3.49234">
        <ele>163.4</ele>
        <time>2016-11-05T09:43:49.000Z</time>
      </trkpt>
      <trkpt lat="49.5587" lon="3.49227">
        <ele>163.4</ele>
        <time>2016-11-05T09:43:54.000Z</time>
      </trkpt>
      <trkpt lat="49.55871" lon="3.49225">
        <ele>163.4</ele>
        <time>2016-11-05T09:43:55.000Z</time>
      </trkpt>
      <trkpt lat="49.55877" lon="3.49216">
        <ele>163.5</ele>
        <time>2016-11-05T09:44:01.000Z</time>
      </trkpt>
      <trkpt lat="49.55878" lon="3.49214">
        <ele>163.6</ele>
        <time>2016-11-05T09:44:02.000Z</time>
      </trkpt>
      <trkpt lat="49.55884" lon="3.49203">
        <ele>163.9</ele>
        <time>2016-11-05T09:44:08.000Z</time>
      </trkpt>
      <trkpt lat="49.55885" lon="3.49202">
        <ele>164</ele>
        <time>2016-11-05T09:44:09.000Z</time>
      </trkpt>
      <trkpt lat="49.55891" lon="3.49192">
        <ele>164</ele>
        <time>2016-11-05T09:44:15.000Z</time>
      </trkpt>
      <trkpt lat="49.55892" lon="3.4919">
        <ele>164</ele>
        <time>2016-11-05T09:44:16.000Z</time>
      </trkpt>
      <trkpt lat="49.55898" lon="3.49181">
        <ele>163.7</ele>
        <time>2016-11-05T09:44:21.000Z</time>
      </trkpt>
      <trkpt lat="49.55898" lon="3.4918">
        <ele>163.7</ele>
        <time>2016-11-05T09:44:22.000Z</time>
      </trkpt>
      <trkpt lat="49.55904" lon="3.49171">
        <ele>163.6</ele>
        <time>2016-11-05T09:44:27.000Z</time>
      </trkpt>
      <trkpt lat="49.55905" lon="3.49169">
        <ele>163.6</ele>
        <time>2016-11-05T09:44:28.000Z</time>
      </trkpt>
      <trkpt lat="49.5591" lon="3.4916">
        <ele>163.8</ele>
        <time>2016-11-05T09:44:33.000Z</time>
      </trkpt>
      <trkpt lat="49.55911" lon="3.49158">
        <ele>163.9</ele>
        <time>2016-11-05T09:44:34.000Z</time>
      </trkpt>
      <trkpt lat="49.55917" lon="3.49148">
        <ele>164.1</ele>
        <time>2016-11-05T09:44:40.000Z</time>
      </trkpt>
      <trkpt lat="49.55919" lon="3.49146">
        <ele>164</ele>
        <time>2016-11-05T09:44:41.000Z</time>
      </trkpt>
      <trkpt lat="49.55924" lon="3.49136">
        <ele>164.2</ele>
        <time>2016-11-05T09:44:47.000Z</time>
      </trkpt>
      <trkpt lat="49.55925" lon="3.49134">
        <ele>164.1</ele>
        <time>2016-11-05T09:44:48.000Z</time>
      </trkpt>
      <trkpt lat="49.55931" lon="3.49124">
        <ele>163.6</ele>
        <time>2016-11-05T09:44:54.000Z</time>
      </trkpt>
      <trkpt lat="49.55932" lon="3.49122">
        <ele>163.7</ele>
        <time>2016-11-05T09:44:55.000Z</time>
      </trkpt>
      <trkpt lat="49.55937" lon="3.49112">
        <ele>163.7</ele>
        <time>2016-11-05T09:45:01.000Z</time>
      </trkpt>
      <trkpt lat="49.55939" lon="3.4911">
        <ele>163.8</ele>
        <time>2016-11-05T09:45:02.000Z</time>
      </trkpt>
      <trkpt lat="49.55943" lon="3.491">
        <ele>163.9</ele>
        <time>2016-11-05T09:45:07.000Z</time>
      </trkpt>
      <trkpt lat="49.55944" lon="3.49098">
        <ele>164</ele>
        <time>2016-11-05T09:45:08.000Z</time>
      </trkpt>
      <trkpt lat="49.55949" lon="3.4909">
        <ele>164.4</ele>
        <time>2016-11-05T09:45:13.000Z</time>
      </trkpt>
      <trkpt lat="49.55951" lon="3.49089">
        <ele>164.4</ele>
        <time>2016-11-05T09:45:14.000Z</time>
      </trkpt>
      <trkpt lat="49.55957" lon="3.49081">
        <ele>164.7</ele>
        <time>2016-11-05T09:45:19.000Z</time>
      </trkpt>
      <trkpt lat="49.55958" lon="3.4908">
        <ele>164.8</ele>
        <time>2016-11-05T09:45:20.000Z</time>
      </trkpt>
      <trkpt lat="49.55965" lon="3.49072">
        <ele>165.4</ele>
        <time>2016-11-05T09:45:25.000Z</time>
      </trkpt>
      <trkpt lat="49.55966" lon="3.49071">
        <ele>165.5</ele>
        <time>2016-11-05T09:45:26.000Z</time>
      </trkpt>
      <trkpt lat="49.55968" lon="3.49059">
        <ele>165.6</ele>
        <time>2016-11-05T09:45:31.000Z</time>
      </trkpt>
      <trkpt lat="49.55968" lon="3.49057">
        <ele>165.5</ele>
        <time>2016-11-05T09:45:32.000Z</time>
      </trkpt>
      <trkpt lat="49.55965" lon="3.49045">
        <ele>164</ele>
        <time>2016-11-05T09:45:39.000Z</time>
      </trkpt>
      <trkpt lat="49.55964" lon="3.49044">
        <ele>163.8</ele>
        <time>2016-11-05T09:45:40.000Z</time>
      </trkpt>
      <trkpt lat="49.5596" lon="3.49034">
        <ele>163.4</ele>
        <time>2016-11-05T09:45:45.000Z</time>
      </trkpt>
      <trkpt lat="49.5596" lon="3.49032">
        <ele>163.6</ele>
        <time>2016-11-05T09:45:46.000Z</time>
      </trkpt>
      <trkpt lat="49.55956" lon="3.49021">
        <ele>163.8</ele>
        <time>2016-11-05T09:45:50.000Z</time>
      </trkpt>
      <trkpt lat="49.55955" lon="3.49018">
        <ele>163.9</ele>
        <time>2016-11-05T09:45:51.000Z</time>
      </trkpt>
      <trkpt lat="49.55952" lon="3.49007">
        <ele>164.8</ele>
        <time>2016-11-05T09:45:56.000Z</time>
      </trkpt>
      <trkpt lat="49.55951" lon="3.49005">
        <ele>165</ele>
        <time>2016-11-05T09:45:57.000Z</time>
      </trkpt>
      <trkpt lat="49.55947" lon="3.48994">
        <ele>166.2</ele>
        <time>2016-11-05T09:46:02.000Z</time>
      </trkpt>
      <trkpt lat="49.55946" lon="3.48992">
        <ele>166.4</ele>
        <time>2016-11-05T09:46:03.000Z</time>
      </trkpt>
      <trkpt lat="49.55942" lon="3.4898">
        <ele>168.1</ele>
        <time>2016-11-05T09:46:08.000Z</time>
      </trkpt>
      <trkpt lat="49.55941" lon="3.48978">
        <ele>168.5</ele>
        <time>2016-11-05T09:46:09.000Z</time>
      </trkpt>
      <trkpt lat="49.55938" lon="3.48965">
        <ele>170.3</ele>
        <time>2016-11-05T09:46:15.000Z</time>
      </trkpt>
      <trkpt lat="49.55938" lon="3.48963">
        <ele>170.6</ele>
        <time>2016-11-05T09:46:16.000Z</time>
      </trkpt>
      <trkpt lat="49.55934" lon="3.48952">
        <ele>172</ele>
        <time>2016-11-05T09:46:21.000Z</time>
      </trkpt>
      <trkpt lat="49.55933" lon="3.4895">
        <ele>172.2</ele>
        <time>2016-11-05T09:46:22.000Z</time>
      </trkpt>
      <trkpt lat="49.55929" lon="3.48941">
        <ele>173.6</ele>
        <time>2016-11-05T09:46:27.000Z</time>
      </trkpt>
      <trkpt lat="49.55928" lon="3.48939">
        <ele>173.9</ele>
        <time>2016-11-05T09:46:28.000Z</time>
      </trkpt>
      <trkpt lat="49.5592" lon="3.48931">
        <ele>174.9</ele>
        <time>2016-11-05T09:46:33.000Z</time>
      </trkpt>
      <trkpt lat="49.55919" lon="3.48929">
        <ele>175.1</ele>
        <time>2016-11-05T09:46:34.000Z</time>
      </trkpt>
      <trkpt lat="49.55912" lon="3.48922">
        <ele>175.8</ele>
        <time>2016-11-05T09:46:39.000Z</time>
      </trkpt>
      <trkpt lat="49.55911" lon="3.48922">
        <ele>175.9</ele>
        <time>2016-11-05T09:46:40.000Z</time>
      </trkpt>
      <trkpt lat="49.55902" lon="3.48918">
        <ele>177</ele>
        <time>2016-11-05T09:46:47.000Z</time>
      </trkpt>
      <trkpt lat="49.55902" lon="3.48917">
        <ele>177.2</ele>
        <time>2016-11-05T09:46:48.000Z</time>
      </trkpt>
      <trkpt lat="49.55894" lon="3.4891">
        <ele>178.7</ele>
        <time>2016-11-05T09:46:56.000Z</time>
      </trkpt>
      <trkpt lat="49.55894" lon="3.4891">
        <ele>178.9</ele>
        <time>2016-11-05T09:46:57.000Z</time>
      </trkpt>
      <trkpt lat="49.55889" lon="3.4891">
        <ele>182.5</ele>
        <time>2016-11-05T09:47:18.000Z</time>
      </trkpt>
      <trkpt lat="49.55889" lon="3.4891">
        <ele>182.6</ele>
        <time>2016-11-05T09:47:19.000Z</time>
      </trkpt>
      <trkpt lat="49.55888" lon="3.4891">
        <ele>182.8</ele>
        <time>2016-11-05T09:47:37.000Z</time>
      </trkpt>
      <trkpt lat="49.55883" lon="3.48908">
        <ele>183.6</ele>
        <time>2016-11-05T09:47:38.000Z</time>
      </trkpt>
      <trkpt lat="49.55885" lon="3.48907">
        <ele>183.2</ele>
        <time>2016-11-05T09:47:42.000Z</time>
      </trkpt>
      <trkpt lat="49.55885" lon="3.48908">
        <ele>183.2</ele>
        <time>2016-11-05T09:47:43.000Z</time>
      </trkpt>
      <trkpt lat="49.55886" lon="3.48908">
        <ele>182.8</ele>
        <time>2016-11-05T09:48:11.000Z</time>
      </trkpt>
      <trkpt lat="49.55885" lon="3.4891">
        <ele>183.7</ele>
        <time>2016-11-05T09:48:12.000Z</time>
      </trkpt>
      <trkpt lat="49.55884" lon="3.4891">
        <ele>184.3</ele>
        <time>2016-11-05T09:48:15.000Z</time>
      </trkpt>
      <trkpt lat="49.55884" lon="3.4891">
        <ele>184.4</ele>
        <time>2016-11-05T09:48:16.000Z</time>
      </trkpt>
      <trkpt lat="49.55884" lon="3.4891">
        <ele>184.6</ele>
        <time>2016-11-05T09:48:21.000Z</time>
      </trkpt>
      <trkpt lat="49.55884" lon="3.48905">
        <ele>183.8</ele>
        <time>2016-11-05T09:48:22.000Z</time>
      </trkpt>
      <trkpt lat="49.55892" lon="3.48905">
        <ele>182.8</ele>
        <time>2016-11-05T09:48:33.000Z</time>
      </trkpt>
      <trkpt lat="49.55893" lon="3.48905">
        <ele>182.4</ele>
        <time>2016-11-05T09:48:34.000Z</time>
      </trkpt>
      <trkpt lat="49.55892" lon="3.48904">
        <ele>182.3</ele>
        <time>2016-11-05T09:49:16.000Z</time>
      </trkpt>
      <trkpt lat="49.55891" lon="3.48906">
        <ele>182.6</ele>
        <time>2016-11-05T09:49:17.000Z</time>
      </trkpt>
      <trkpt lat="49.55883" lon="3.48901">
        <ele>184.9</ele>
        <time>2016-11-05T09:49:26.000Z</time>
      </trkpt>
      <trkpt lat="49.55882" lon="3.48901">
        <ele>184.9</ele>
        <time>2016-11-05T09:49:27.000Z</time>
      </trkpt>
      <trkpt lat="49.55873" lon="3.48898">
        <ele>186.7</ele>
        <time>2016-11-05T09:49:35.000Z</time>
      </trkpt>
      <trkpt lat="49.55872" lon="3.48897">
        <ele>187</ele>
        <time>2016-11-05T09:49:36.000Z</time>
      </trkpt>
      <trkpt lat="49.55863" lon="3.48894">
        <ele>189.9</ele>
        <time>2016-11-05T09:49:44.000Z</time>
      </trkpt>
      <trkpt lat="49.55861" lon="3.48894">
        <ele>190.6</ele>
        <time>2016-11-05T09:49:45.000Z</time>
      </trkpt>
      <trkpt lat="49.55854" lon="3.48895">
        <ele>193.6</ele>
        <time>2016-11-05T09:49:52.000Z</time>
      </trkpt>
      <trkpt lat="49.55852" lon="3.48895">
        <ele>194</ele>
        <time>2016-11-05T09:49:53.000Z</time>
      </trkpt>
      <trkpt lat="49.55844" lon="3.48898">
        <ele>196.3</ele>
        <time>2016-11-05T09:50:02.000Z</time>
      </trkpt>
      <trkpt lat="49.55843" lon="3.48898">
        <ele>196.5</ele>
        <time>2016-11-05T09:50:03.000Z</time>
      </trkpt>
      <trkpt lat="49.55835" lon="3.489">
        <ele>199.6</ele>
        <time>2016-11-05T09:50:15.000Z</time>
      </trkpt>
      <trkpt lat="49.55834" lon="3.489">
        <ele>200.1</ele>
        <time>2016-11-05T09:50:16.000Z</time>
      </trkpt>
      <trkpt lat="49.55826" lon="3.48906">
        <ele>201.8</ele>
        <time>2016-11-05T09:50:23.000Z</time>
      </trkpt>
      <trkpt lat="49.55824" lon="3.48907">
        <ele>202.3</ele>
        <time>2016-11-05T09:50:24.000Z</time>
      </trkpt>
      <trkpt lat="49.55816" lon="3.48908">
        <ele>204.1</ele>
        <time>2016-11-05T09:50:30.000Z</time>
      </trkpt>
      <trkpt lat="49.55815" lon="3.48908">
        <ele>204.4</ele>
        <time>2016-11-05T09:50:31.000Z</time>
      </trkpt>
      <trkpt lat="49.55807" lon="3.48912">
        <ele>205.5</ele>
        <time>2016-11-05T09:50:38.000Z</time>
      </trkpt>
      <trkpt lat="49.55806" lon="3.48913">
        <ele>205.9</ele>
        <time>2016-11-05T09:50:39.000Z</time>
      </trkpt>
      <trkpt lat="49.55798" lon="3.48918">
        <ele>208.3</ele>
        <time>2016-11-05T09:50:46.000Z</time>
      </trkpt>
      <trkpt lat="49.55797" lon="3.48919">
        <ele>208.4</ele>
        <time>2016-11-05T09:50:47.000Z</time>
      </trkpt>
      <trkpt lat="49.5579" lon="3.48925">
        <ele>209.2</ele>
        <time>2016-11-05T09:50:54.000Z</time>
      </trkpt>
      <trkpt lat="49.55789" lon="3.48926">
        <ele>209.5</ele>
        <time>2016-11-05T09:50:55.000Z</time>
      </trkpt>
      <trkpt lat="49.55782" lon="3.48929">
        <ele>209.8</ele>
        <time>2016-11-05T09:50:59.000Z</time>
      </trkpt>
      <trkpt lat="49.5578" lon="3.48931">
        <ele>210.7</ele>
        <time>2016-11-05T09:51:00.000Z</time>
      </trkpt>
      <trkpt lat="49.55772" lon="3.48937">
        <ele>211.4</ele>
        <time>2016-11-05T09:51:05.000Z</time>
      </trkpt>
      <trkpt lat="49.55771" lon="3.48938">
        <ele>211.9</ele>
        <time>2016-11-05T09:51:06.000Z</time>
      </trkpt>
      <trkpt lat="49.55763" lon="3.4894">
        <ele>211</ele>
        <time>2016-11-05T09:51:11.000Z</time>
      </trkpt>
      <trkpt lat="49.5576" lon="3.48941">
        <ele>210.7</ele>
        <time>2016-11-05T09:51:12.000Z</time>
      </trkpt>
      <trkpt lat="49.55752" lon="3.48936">
        <ele>210.1</ele>
        <time>2016-11-05T09:51:18.000Z</time>
      </trkpt>
      <trkpt lat="49.55752" lon="3.48934">
        <ele>210.7</ele>
        <time>2016-11-05T09:51:19.000Z</time>
      </trkpt>
      <trkpt lat="49.55749" lon="3.48921">
        <ele>212.1</ele>
        <time>2016-11-05T09:51:25.000Z</time>
      </trkpt>
      <trkpt lat="49.55749" lon="3.48919">
        <ele>212.1</ele>
        <time>2016-11-05T09:51:26.000Z</time>
      </trkpt>
      <trkpt lat="49.55749" lon="3.48908">
        <ele>212.3</ele>
        <time>2016-11-05T09:51:31.000Z</time>
      </trkpt>
      <trkpt lat="49.55749" lon="3.48905">
        <ele>212.6</ele>
        <time>2016-11-05T09:51:32.000Z</time>
      </trkpt>
      <trkpt lat="49.55753" lon="3.48894">
        <ele>214.5</ele>
        <time>2016-11-05T09:51:38.000Z</time>
      </trkpt>
      <trkpt lat="49.55754" lon="3.48891">
        <ele>214.9</ele>
        <time>2016-11-05T09:51:39.000Z</time>
      </trkpt>
      <trkpt lat="49.5576" lon="3.48882">
        <ele>218.2</ele>
        <time>2016-11-05T09:51:47.000Z</time>
      </trkpt>
      <trkpt lat="49.55761" lon="3.48881">
        <ele>218.7</ele>
        <time>2016-11-05T09:51:48.000Z</time>
      </trkpt>
      <trkpt lat="49.55767" lon="3.48873">
        <ele>220</ele>
        <time>2016-11-05T09:51:54.000Z</time>
      </trkpt>
      <trkpt lat="49.55769" lon="3.48872">
        <ele>219.9</ele>
        <time>2016-11-05T09:51:55.000Z</time>
      </trkpt>
      <trkpt lat="49.55775" lon="3.48865">
        <ele>220.1</ele>
        <time>2016-11-05T09:52:00.000Z</time>
      </trkpt>
      <trkpt lat="49.55776" lon="3.48863">
        <ele>220.3</ele>
        <time>2016-11-05T09:52:01.000Z</time>
      </trkpt>
      <trkpt lat="49.55782" lon="3.48854">
        <ele>222.2</ele>
        <time>2016-11-05T09:52:07.000Z</time>
      </trkpt>
      <trkpt lat="49.55783" lon="3.48852">
        <ele>222.4</ele>
        <time>2016-11-05T09:52:08.000Z</time>
      </trkpt>
      <trkpt lat="49.55789" lon="3.48844">
        <ele>223.3</ele>
        <time>2016-11-05T09:52:14.000Z</time>
      </trkpt>
      <trkpt lat="49.5579" lon="3.48843">
        <ele>223.2</ele>
        <time>2016-11-05T09:52:15.000Z</time>
      </trkpt>
      <trkpt lat="49.55796" lon="3.48836">
        <ele>223.6</ele>
        <time>2016-11-05T09:52:20.000Z</time>
      </trkpt>
      <trkpt lat="49.55797" lon="3.48834">
        <ele>223.7</ele>
        <time>2016-11-05T09:52:21.000Z</time>
      </trkpt>
      <trkpt lat="49.55805" lon="3.48828">
        <ele>223.6</ele>
        <time>2016-11-05T09:52:26.000Z</time>
      </trkpt>
      <trkpt lat="49.55806" lon="3.48827">
        <ele>223.6</ele>
        <time>2016-11-05T09:52:27.000Z</time>
      </trkpt>
      <trkpt lat="49.55814" lon="3.4882">
        <ele>223.1</ele>
        <time>2016-11-05T09:52:33.000Z</time>
      </trkpt>
      <trkpt lat="49.55815" lon="3.48819">
        <ele>223.1</ele>
        <time>2016-11-05T09:52:34.000Z</time>
      </trkpt>
      <trkpt lat="49.55821" lon="3.4881">
        <ele>222.7</ele>
        <time>2016-11-05T09:52:39.000Z</time>
      </trkpt>
      <trkpt lat="49.55822" lon="3.48809">
        <ele>222.4</ele>
        <time>2016-11-05T09:52:40.000Z</time>
      </trkpt>
      <trkpt lat="49.55829" lon="3.48801">
        <ele>222.4</ele>
        <time>2016-11-05T09:52:46.000Z</time>
      </trkpt>
      <trkpt lat="49.5583" lon="3.488">
        <ele>222.4</ele>
        <time>2016-11-05T09:52:47.000Z</time>
      </trkpt>
      <trkpt lat="49.55837" lon="3.48795">
        <ele>222.8</ele>
        <time>2016-11-05T09:52:51.000Z</time>
      </trkpt>
      <trkpt lat="49.55838" lon="3.48793">
        <ele>223.2</ele>
        <time>2016-11-05T09:52:52.000Z</time>
      </trkpt>
      <trkpt lat="49.55845" lon="3.48788">
        <ele>223.9</ele>
        <time>2016-11-05T09:52:57.000Z</time>
      </trkpt>
      <trkpt lat="49.55847" lon="3.48787">
        <ele>223.7</ele>
        <time>2016-11-05T09:52:58.000Z</time>
      </trkpt>
      <trkpt lat="49.55855" lon="3.48783">
        <ele>223.4</ele>
        <time>2016-11-05T09:53:04.000Z</time>
      </trkpt>
      <trkpt lat="49.55857" lon="3.48783">
        <ele>223.2</ele>
        <time>2016-11-05T09:53:05.000Z</time>
      </trkpt>
      <trkpt lat="49.55864" lon="3.48784">
        <ele>223.2</ele>
        <time>2016-11-05T09:53:09.000Z</time>
      </trkpt>
      <trkpt lat="49.55866" lon="3.48783">
        <ele>223</ele>
        <time>2016-11-05T09:53:10.000Z</time>
      </trkpt>
      <trkpt lat="49.55872" lon="3.48776">
        <ele>222.6</ele>
        <time>2016-11-05T09:53:16.000Z</time>
      </trkpt>
      <trkpt lat="49.55874" lon="3.48774">
        <ele>222.6</ele>
        <time>2016-11-05T09:53:17.000Z</time>
      </trkpt>
      <trkpt lat="49.55881" lon="3.48772">
        <ele>222.9</ele>
        <time>2016-11-05T09:53:21.000Z</time>
      </trkpt>
      <trkpt lat="49.55883" lon="3.48772">
        <ele>223.2</ele>
        <time>2016-11-05T09:53:22.000Z</time>
      </trkpt>
      <trkpt lat="49.55891" lon="3.4877">
        <ele>223.3</ele>
        <time>2016-11-05T09:53:28.000Z</time>
      </trkpt>
      <trkpt lat="49.55893" lon="3.4877">
        <ele>223.3</ele>
        <time>2016-11-05T09:53:29.000Z</time>
      </trkpt>
      <trkpt lat="49.55901" lon="3.48764">
        <ele>222.7</ele>
        <time>2016-11-05T09:53:35.000Z</time>
      </trkpt>
      <trkpt lat="49.55902" lon="3.48764">
        <ele>222.6</ele>
        <time>2016-11-05T09:53:36.000Z</time>
      </trkpt>
      <trkpt lat="49.5591" lon="3.48763">
        <ele>222.9</ele>
        <time>2016-11-05T09:53:40.000Z</time>
      </trkpt>
      <trkpt lat="49.55912" lon="3.48763">
        <ele>222.8</ele>
        <time>2016-11-05T09:53:41.000Z</time>
      </trkpt>
      <trkpt lat="49.55919" lon="3.4876">
        <ele>222.4</ele>
        <time>2016-11-05T09:53:46.000Z</time>
      </trkpt>
      <trkpt lat="49.55921" lon="3.48759">
        <ele>222.2</ele>
        <time>2016-11-05T09:53:47.000Z</time>
      </trkpt>
      <trkpt lat="49.55928" lon="3.48754">
        <ele>221.8</ele>
        <time>2016-11-05T09:53:52.000Z</time>
      </trkpt>
      <trkpt lat="49.55929" lon="3.48753">
        <ele>221.7</ele>
        <time>2016-11-05T09:53:53.000Z</time>
      </trkpt>
      <trkpt lat="49.55937" lon="3.48749">
        <ele>220.9</ele>
        <time>2016-11-05T09:53:58.000Z</time>
      </trkpt>
      <trkpt lat="49.55938" lon="3.48748">
        <ele>220.6</ele>
        <time>2016-11-05T09:53:59.000Z</time>
      </trkpt>
      <trkpt lat="49.55945" lon="3.48743">
        <ele>219.9</ele>
        <time>2016-11-05T09:54:05.000Z</time>
      </trkpt>
      <trkpt lat="49.55946" lon="3.48742">
        <ele>219.8</ele>
        <time>2016-11-05T09:54:06.000Z</time>
      </trkpt>
      <trkpt lat="49.55954" lon="3.48736">
        <ele>219.9</ele>
        <time>2016-11-05T09:54:11.000Z</time>
      </trkpt>
      <trkpt lat="49.55956" lon="3.48734">
        <ele>219.4</ele>
        <time>2016-11-05T09:54:12.000Z</time>
      </trkpt>
      <trkpt lat="49.55963" lon="3.48726">
        <ele>219.1</ele>
        <time>2016-11-05T09:54:17.000Z</time>
      </trkpt>
      <trkpt lat="49.55963" lon="3.48724">
        <ele>219</ele>
        <time>2016-11-05T09:54:18.000Z</time>
      </trkpt>
      <trkpt lat="49.5597" lon="3.48718">
        <ele>219.4</ele>
        <time>2016-11-05T09:54:25.000Z</time>
      </trkpt>
      <trkpt lat="49.55971" lon="3.48716">
        <ele>219.3</ele>
        <time>2016-11-05T09:54:26.000Z</time>
      </trkpt>
      <trkpt lat="49.55979" lon="3.4871">
        <ele>218.8</ele>
        <time>2016-11-05T09:54:31.000Z</time>
      </trkpt>
      <trkpt lat="49.5598" lon="3.48708">
        <ele>218.5</ele>
        <time>2016-11-05T09:54:32.000Z</time>
      </trkpt>
      <trkpt lat="49.55988" lon="3.48701">
        <ele>217.5</ele>
        <time>2016-11-05T09:54:37.000Z</time>
      </trkpt>
      <trkpt lat="49.55989" lon="3.487">
        <ele>217.7</ele>
        <time>2016-11-05T09:54:38.000Z</time>
      </trkpt>
      <trkpt lat="49.55991" lon="3.48687">
        <ele>217.5</ele>
        <time>2016-11-05T09:54:45.000Z</time>
      </trkpt>
      <trkpt lat="49.55991" lon="3.48685">
        <ele>217.5</ele>
        <time>2016-11-05T09:54:46.000Z</time>
      </trkpt>
      <trkpt lat="49.55989" lon="3.48672">
        <ele>217.1</ele>
        <time>2016-11-05T09:54:53.000Z</time>
      </trkpt>
      <trkpt lat="49.55989" lon="3.4867">
        <ele>217.1</ele>
        <time>2016-11-05T09:54:54.000Z</time>
      </trkpt>
      <trkpt lat="49.55989" lon="3.48657">
        <ele>217.6</ele>
        <time>2016-11-05T09:55:01.000Z</time>
      </trkpt>
      <trkpt lat="49.55989" lon="3.48654">
        <ele>217.7</ele>
        <time>2016-11-05T09:55:02.000Z</time>
      </trkpt>
      <trkpt lat="49.55988" lon="3.48641">
        <ele>217.6</ele>
        <time>2016-11-05T09:55:08.000Z</time>
      </trkpt>
      <trkpt lat="49.55988" lon="3.48639">
        <ele>217.5</ele>
        <time>2016-11-05T09:55:09.000Z</time>
      </trkpt>
      <trkpt lat="49.55988" lon="3.48625">
        <ele>215.9</ele>
        <time>2016-11-05T09:55:13.000Z</time>
      </trkpt>
      <trkpt lat="49.55988" lon="3.48623">
        <ele>215.9</ele>
        <time>2016-11-05T09:55:14.000Z</time>
      </trkpt>
      <trkpt lat="49.55987" lon="3.4861">
        <ele>215.8</ele>
        <time>2016-11-05T09:55:20.000Z</time>
      </trkpt>
      <trkpt lat="49.55987" lon="3.48608">
        <ele>215.7</ele>
        <time>2016-11-05T09:55:21.000Z</time>
      </trkpt>
      <trkpt lat="49.55983" lon="3.48596">
        <ele>215.4</ele>
        <time>2016-11-05T09:55:28.000Z</time>
      </trkpt>
      <trkpt lat="49.55983" lon="3.48595">
        <ele>215.5</ele>
        <time>2016-11-05T09:55:29.000Z</time>
      </trkpt>
      <trkpt lat="49.55977" lon="3.48584">
        <ele>216.2</ele>
        <time>2016-11-05T09:55:35.000Z</time>
      </trkpt>
      <trkpt lat="49.55977" lon="3.48582">
        <ele>216.3</ele>
        <time>2016-11-05T09:55:36.000Z</time>
      </trkpt>
      <trkpt lat="49.55973" lon="3.48571">
        <ele>216.7</ele>
        <time>2016-11-05T09:55:41.000Z</time>
      </trkpt>
      <trkpt lat="49.55973" lon="3.48568">
        <ele>216.7</ele>
        <time>2016-11-05T09:55:42.000Z</time>
      </trkpt>
      <trkpt lat="49.55971" lon="3.48556">
        <ele>217</ele>
        <time>2016-11-05T09:55:46.000Z</time>
      </trkpt>
      <trkpt lat="49.55971" lon="3.48554">
        <ele>217.1</ele>
        <time>2016-11-05T09:55:47.000Z</time>
      </trkpt>
      <trkpt lat="49.5597" lon="3.48541">
        <ele>217.9</ele>
        <time>2016-11-05T09:55:52.000Z</time>
      </trkpt>
      <trkpt lat="49.55971" lon="3.48539">
        <ele>218.1</ele>
        <time>2016-11-05T09:55:53.000Z</time>
      </trkpt>
      <trkpt lat="49.55972" lon="3.48527">
        <ele>217.5</ele>
        <time>2016-11-05T09:55:58.000Z</time>
      </trkpt>
      <trkpt lat="49.55973" lon="3.48524">
        <ele>217.4</ele>
        <time>2016-11-05T09:55:59.000Z</time>
      </trkpt>
      <trkpt lat="49.55975" lon="3.48513">
        <ele>217.9</ele>
        <time>2016-11-05T09:56:03.000Z</time>
      </trkpt>
      <trkpt lat="49.55975" lon="3.4851">
        <ele>217.8</ele>
        <time>2016-11-05T09:56:04.000Z</time>
      </trkpt>
      <trkpt lat="49.55975" lon="3.48498">
        <ele>217.9</ele>
        <time>2016-11-05T09:56:09.000Z</time>
      </trkpt>
      <trkpt lat="49.55975" lon="3.48496">
        <ele>218.1</ele>
        <time>2016-11-05T09:56:10.000Z</time>
      </trkpt>
      <trkpt lat="49.55976" lon="3.48484">
        <ele>218.1</ele>
        <time>2016-11-05T09:56:15.000Z</time>
      </trkpt>
      <trkpt lat="49.55976" lon="3.48481">
        <ele>217.9</ele>
        <time>2016-11-05T09:56:16.000Z</time>
      </trkpt>
      <trkpt lat="49.55975" lon="3.48468">
        <ele>218.7</ele>
        <time>2016-11-05T09:56:21.000Z</time>
      </trkpt>
      <trkpt lat="49.55975" lon="3.48465">
        <ele>218.7</ele>
        <time>2016-11-05T09:56:22.000Z</time>
      </trkpt>
      <trkpt lat="49.55976" lon="3.48452">
        <ele>217.9</ele>
        <time>2016-11-05T09:56:27.000Z</time>
      </trkpt>
      <trkpt lat="49.55976" lon="3.4845">
        <ele>217.9</ele>
        <time>2016-11-05T09:56:28.000Z</time>
      </trkpt>
      <trkpt lat="49.55979" lon="3.48437">
        <ele>217</ele>
        <time>2016-11-05T09:56:33.000Z</time>
      </trkpt>
      <trkpt lat="49.55979" lon="3.48434">
        <ele>216.9</ele>
        <time>2016-11-05T09:56:34.000Z</time>
      </trkpt>
      <trkpt lat="49.55978" lon="3.48422">
        <ele>216.6</ele>
        <time>2016-11-05T09:56:39.000Z</time>
      </trkpt>
      <trkpt lat="49.55978" lon="3.48419">
        <ele>216.8</ele>
        <time>2016-11-05T09:56:40.000Z</time>
      </trkpt>
      <trkpt lat="49.55976" lon="3.48408">
        <ele>217.5</ele>
        <time>2016-11-05T09:56:46.000Z</time>
      </trkpt>
      <trkpt lat="49.55976" lon="3.48406">
        <ele>217.5</ele>
        <time>2016-11-05T09:56:47.000Z</time>
      </trkpt>
      <trkpt lat="49.55974" lon="3.48394">
        <ele>216.7</ele>
        <time>2016-11-05T09:56:51.000Z</time>
      </trkpt>
      <trkpt lat="49.55973" lon="3.48391">
        <ele>216.5</ele>
        <time>2016-11-05T09:56:52.000Z</time>
      </trkpt>
      <trkpt lat="49.55972" lon="3.48379">
        <ele>217.1</ele>
        <time>2016-11-05T09:56:56.000Z</time>
      </trkpt>
      <trkpt lat="49.55971" lon="3.48377">
        <ele>217.5</ele>
        <time>2016-11-05T09:56:57.000Z</time>
      </trkpt>
      <trkpt lat="49.55969" lon="3.48364">
        <ele>216.9</ele>
        <time>2016-11-05T09:57:02.000Z</time>
      </trkpt>
      <trkpt lat="49.55969" lon="3.48361">
        <ele>216.9</ele>
        <time>2016-11-05T09:57:03.000Z</time>
      </trkpt>
      <trkpt lat="49.55968" lon="3.4835">
        <ele>217.2</ele>
        <time>2016-11-05T09:57:06.000Z</time>
      </trkpt>
      <trkpt lat="49.55968" lon="3.48346">
        <ele>217.3</ele>
        <time>2016-11-05T09:57:07.000Z</time>
      </trkpt>
      <trkpt lat="49.55967" lon="3.48333">
        <ele>217.4</ele>
        <time>2016-11-05T09:57:12.000Z</time>
      </trkpt>
      <trkpt lat="49.55966" lon="3.48331">
        <ele>217.6</ele>
        <time>2016-11-05T09:57:13.000Z</time>
      </trkpt>
      <trkpt lat="49.55968" lon="3.4832">
        <ele>218.1</ele>
        <time>2016-11-05T09:57:18.000Z</time>
      </trkpt>
      <trkpt lat="49.55969" lon="3.48318">
        <ele>218.1</ele>
        <time>2016-11-05T09:57:19.000Z</time>
      </trkpt>
      <trkpt lat="49.55973" lon="3.48307">
        <ele>218.4</ele>
        <time>2016-11-05T09:57:25.000Z</time>
      </trkpt>
      <trkpt lat="49.55974" lon="3.48305">
        <ele>218.3</ele>
        <time>2016-11-05T09:57:26.000Z</time>
      </trkpt>
      <trkpt lat="49.55979" lon="3.48296">
        <ele>219.1</ele>
        <time>2016-11-05T09:57:31.000Z</time>
      </trkpt>
      <trkpt lat="49.55981" lon="3.48295">
        <ele>219.3</ele>
        <time>2016-11-05T09:57:32.000Z</time>
      </trkpt>
      <trkpt lat="49.55987" lon="3.48286">
        <ele>218.6</ele>
        <time>2016-11-05T09:57:38.000Z</time>
      </trkpt>
      <trkpt lat="49.55989" lon="3.48284">
        <ele>218.6</ele>
        <time>2016-11-05T09:57:39.000Z</time>
      </trkpt>
      <trkpt lat="49.55996" lon="3.48277">
        <ele>219.1</ele>
        <time>2016-11-05T09:57:46.000Z</time>
      </trkpt>
      <trkpt lat="49.55997" lon="3.48276">
        <ele>219.2</ele>
        <time>2016-11-05T09:57:47.000Z</time>
      </trkpt>
      <trkpt lat="49.56004" lon="3.4827">
        <ele>220</ele>
        <time>2016-11-05T09:57:53.000Z</time>
      </trkpt>
      <trkpt lat="49.56005" lon="3.48268">
        <ele>220</ele>
        <time>2016-11-05T09:57:54.000Z</time>
      </trkpt>
      <trkpt lat="49.5601" lon="3.48259">
        <ele>220.7</ele>
        <time>2016-11-05T09:58:00.000Z</time>
      </trkpt>
      <trkpt lat="49.56011" lon="3.48257">
        <ele>220.9</ele>
        <time>2016-11-05T09:58:01.000Z</time>
      </trkpt>
      <trkpt lat="49.56018" lon="3.48248">
        <ele>221.4</ele>
        <time>2016-11-05T09:58:06.000Z</time>
      </trkpt>
      <trkpt lat="49.56019" lon="3.48246">
        <ele>221.4</ele>
        <time>2016-11-05T09:58:07.000Z</time>
      </trkpt>
      <trkpt lat="49.56023" lon="3.48236">
        <ele>222.5</ele>
        <time>2016-11-05T09:58:12.000Z</time>
      </trkpt>
      <trkpt lat="49.56024" lon="3.48234">
        <ele>223</ele>
        <time>2016-11-05T09:58:13.000Z</time>
      </trkpt>
      <trkpt lat="49.56027" lon="3.48222">
        <ele>224.2</ele>
        <time>2016-11-05T09:58:19.000Z</time>
      </trkpt>
      <trkpt lat="49.56028" lon="3.48219">
        <ele>224.3</ele>
        <time>2016-11-05T09:58:20.000Z</time>
      </trkpt>
      <trkpt lat="49.5603" lon="3.48207">
        <ele>223.7</ele>
        <time>2016-11-05T09:58:25.000Z</time>
      </trkpt>
      <trkpt lat="49.56031" lon="3.48203">
        <ele>223.7</ele>
        <time>2016-11-05T09:58:26.000Z</time>
      </trkpt>
      <trkpt lat="49.56032" lon="3.4819">
        <ele>223.6</ele>
        <time>2016-11-05T09:58:31.000Z</time>
      </trkpt>
      <trkpt lat="49.56033" lon="3.48188">
        <ele>223.6</ele>
        <time>2016-11-05T09:58:32.000Z</time>
      </trkpt>
      <trkpt lat="49.56035" lon="3.48175">
        <ele>223.6</ele>
        <time>2016-11-05T09:58:38.000Z</time>
      </trkpt>
      <trkpt lat="49.56035" lon="3.48173">
        <ele>223.9</ele>
        <time>2016-11-05T09:58:39.000Z</time>
      </trkpt>
      <trkpt lat="49.56036" lon="3.48162">
        <ele>224.1</ele>
        <time>2016-11-05T09:58:45.000Z</time>
      </trkpt>
      <trkpt lat="49.56037" lon="3.48159">
        <ele>224</ele>
        <time>2016-11-05T09:58:46.000Z</time>
      </trkpt>
      <trkpt lat="49.56037" lon="3.48146">
        <ele>224.5</ele>
        <time>2016-11-05T09:58:51.000Z</time>
      </trkpt>
      <trkpt lat="49.56037" lon="3.48143">
        <ele>224.7</ele>
        <time>2016-11-05T09:58:52.000Z</time>
      </trkpt>
      <trkpt lat="49.56037" lon="3.4813">
        <ele>225.5</ele>
        <time>2016-11-05T09:58:57.000Z</time>
      </trkpt>
      <trkpt lat="49.56037" lon="3.48128">
        <ele>225.4</ele>
        <time>2016-11-05T09:58:58.000Z</time>
      </trkpt>
      <trkpt lat="49.56037" lon="3.48114">
        <ele>225.7</ele>
        <time>2016-11-05T09:59:04.000Z</time>
      </trkpt>
      <trkpt lat="49.56037" lon="3.48112">
        <ele>226.1</ele>
        <time>2016-11-05T09:59:05.000Z</time>
      </trkpt>
      <trkpt lat="49.56035" lon="3.48099">
        <ele>227.2</ele>
        <time>2016-11-05T09:59:11.000Z</time>
      </trkpt>
      <trkpt lat="49.56035" lon="3.48097">
        <ele>227.3</ele>
        <time>2016-11-05T09:59:12.000Z</time>
      </trkpt>
      <trkpt lat="49.56036" lon="3.48085">
        <ele>227.3</ele>
        <time>2016-11-05T09:59:17.000Z</time>
      </trkpt>
      <trkpt lat="49.56036" lon="3.48082">
        <ele>226.7</ele>
        <time>2016-11-05T09:59:18.000Z</time>
      </trkpt>
      <trkpt lat="49.56037" lon="3.4807">
        <ele>226.9</ele>
        <time>2016-11-05T09:59:23.000Z</time>
      </trkpt>
      <trkpt lat="49.56038" lon="3.48068">
        <ele>226.9</ele>
        <time>2016-11-05T09:59:24.000Z</time>
      </trkpt>
      <trkpt lat="49.5604" lon="3.48056">
        <ele>227.1</ele>
        <time>2016-11-05T09:59:29.000Z</time>
      </trkpt>
      <trkpt lat="49.5604" lon="3.48054">
        <ele>227</ele>
        <time>2016-11-05T09:59:30.000Z</time>
      </trkpt>
      <trkpt lat="49.56041" lon="3.4804">
        <ele>227.9</ele>
        <time>2016-11-05T09:59:36.000Z</time>
      </trkpt>
      <trkpt lat="49.56041" lon="3.48038">
        <ele>228</ele>
        <time>2016-11-05T09:59:37.000Z</time>
      </trkpt>
      <trkpt lat="49.5604" lon="3.48026">
        <ele>229</ele>
        <time>2016-11-05T09:59:43.000Z</time>
      </trkpt>
      <trkpt lat="49.5604" lon="3.48024">
        <ele>229</ele>
        <time>2016-11-05T09:59:44.000Z</time>
      </trkpt>
      <trkpt lat="49.56043" lon="3.48011">
        <ele>230.2</ele>
        <time>2016-11-05T09:59:50.000Z</time>
      </trkpt>
      <trkpt lat="49.56043" lon="3.48007">
        <ele>230.1</ele>
        <time>2016-11-05T09:59:51.000Z</time>
      </trkpt>
      <trkpt lat="49.56047" lon="3.47995">
        <ele>230</ele>
        <time>2016-11-05T09:59:55.000Z</time>
      </trkpt>
      <trkpt lat="49.56048" lon="3.47992">
        <ele>230</ele>
        <time>2016-11-05T09:59:56.000Z</time>
      </trkpt>
      <trkpt lat="49.56048" lon="3.4798">
        <ele>231</ele>
        <time>2016-11-05T10:00:00.000Z</time>
      </trkpt>
      <trkpt lat="49.56048" lon="3.47977">
        <ele>231.3</ele>
        <time>2016-11-05T10:00:01.000Z</time>
      </trkpt>
      <trkpt lat="49.56048" lon="3.47965">
        <ele>231.7</ele>
        <time>2016-11-05T10:00:05.000Z</time>
      </trkpt>
      <trkpt lat="49.56048" lon="3.4796">
        <ele>230.9</ele>
        <time>2016-11-05T10:00:06.000Z</time>
      </trkpt>
      <trkpt lat="49.56049" lon="3.47948">
        <ele>229.4</ele>
        <time>2016-11-05T10:00:09.000Z</time>
      </trkpt>
      <trkpt lat="49.56049" lon="3.47944">
        <ele>229.1</ele>
        <time>2016-11-05T10:00:10.000Z</time>
      </trkpt>
      <trkpt lat="49.56049" lon="3.47931">
        <ele>231.3</ele>
        <time>2016-11-05T10:00:15.000Z</time>
      </trkpt>
      <trkpt lat="49.56049" lon="3.47928">
        <ele>231.6</ele>
        <time>2016-11-05T10:00:16.000Z</time>
      </trkpt>
      <trkpt lat="49.56047" lon="3.47916">
        <ele>232.8</ele>
        <time>2016-11-05T10:00:22.000Z</time>
      </trkpt>
      <trkpt lat="49.56046" lon="3.47914">
        <ele>232.9</ele>
        <time>2016-11-05T10:00:23.000Z</time>
      </trkpt>
      <trkpt lat="49.56045" lon="3.47902">
        <ele>233.7</ele>
        <time>2016-11-05T10:00:29.000Z</time>
      </trkpt>
      <trkpt lat="49.56044" lon="3.479">
        <ele>234</ele>
        <time>2016-11-05T10:00:30.000Z</time>
      </trkpt>
      <trkpt lat="49.5604" lon="3.47889">
        <ele>235.1</ele>
        <time>2016-11-05T10:00:36.000Z</time>
      </trkpt>
      <trkpt lat="49.56039" lon="3.47887">
        <ele>235.1</ele>
        <time>2016-11-05T10:00:37.000Z</time>
      </trkpt>
      <trkpt lat="49.56034" lon="3.47876">
        <ele>235.7</ele>
        <time>2016-11-05T10:00:44.000Z</time>
      </trkpt>
      <trkpt lat="49.56034" lon="3.47874">
        <ele>236</ele>
        <time>2016-11-05T10:00:45.000Z</time>
      </trkpt>
      <trkpt lat="49.56031" lon="3.47861">
        <ele>236.9</ele>
        <time>2016-11-05T10:00:53.000Z</time>
      </trkpt>
      <trkpt lat="49.5603" lon="3.47859">
        <ele>237.1</ele>
        <time>2016-11-05T10:00:54.000Z</time>
      </trkpt>
      <trkpt lat="49.56027" lon="3.47848">
        <ele>237.3</ele>
        <time>2016-11-05T10:01:00.000Z</time>
      </trkpt>
      <trkpt lat="49.56026" lon="3.47846">
        <ele>237.4</ele>
        <time>2016-11-05T10:01:01.000Z</time>
      </trkpt>
      <trkpt lat="49.56022" lon="3.47837">
        <ele>237.7</ele>
        <time>2016-11-05T10:01:06.000Z</time>
      </trkpt>
      <trkpt lat="49.56021" lon="3.47833">
        <ele>237.3</ele>
        <time>2016-11-05T10:01:07.000Z</time>
      </trkpt>
      <trkpt lat="49.56016" lon="3.47822">
        <ele>239.7</ele>
        <time>2016-11-05T10:01:13.000Z</time>
      </trkpt>
      <trkpt lat="49.56015" lon="3.47821">
        <ele>239.7</ele>
        <time>2016-11-05T10:01:14.000Z</time>
      </trkpt>
      <trkpt lat="49.5601" lon="3.47811">
        <ele>239.8</ele>
        <time>2016-11-05T10:01:19.000Z</time>
      </trkpt>
      <trkpt lat="49.56009" lon="3.47809">
        <ele>239.9</ele>
        <time>2016-11-05T10:01:20.000Z</time>
      </trkpt>
      <trkpt lat="49.56006" lon="3.47798">
        <ele>240.1</ele>
        <time>2016-11-05T10:01:25.000Z</time>
      </trkpt>
      <trkpt lat="49.56006" lon="3.47795">
        <ele>240</ele>
        <time>2016-11-05T10:01:26.000Z</time>
      </trkpt>
      <trkpt lat="49.56003" lon="3.47785">
        <ele>239.6</ele>
        <time>2016-11-05T10:01:32.000Z</time>
      </trkpt>
      <trkpt lat="49.56002" lon="3.47783">
        <ele>239.3</ele>
        <time>2016-11-05T10:01:33.000Z</time>
      </trkpt>
      <trkpt lat="49.55999" lon="3.4777">
        <ele>238.4</ele>
        <time>2016-11-05T10:01:39.000Z</time>
      </trkpt>
      <trkpt lat="49.55998" lon="3.47768">
        <ele>238.3</ele>
        <time>2016-11-05T10:01:40.000Z</time>
      </trkpt>
      <trkpt lat="49.55994" lon="3.47757">
        <ele>238.3</ele>
        <time>2016-11-05T10:01:45.000Z</time>
      </trkpt>
      <trkpt lat="49.55993" lon="3.47754">
        <ele>238.1</ele>
        <time>2016-11-05T10:01:46.000Z</time>
      </trkpt>
      <trkpt lat="49.5599" lon="3.47742">
        <ele>238.2</ele>
        <time>2016-11-05T10:01:53.000Z</time>
      </trkpt>
      <trkpt lat="49.55989" lon="3.4774">
        <ele>238.5</ele>
        <time>2016-11-05T10:01:54.000Z</time>
      </trkpt>
      <trkpt lat="49.55985" lon="3.47728">
        <ele>240.2</ele>
        <time>2016-11-05T10:01:59.000Z</time>
      </trkpt>
      <trkpt lat="49.55984" lon="3.47726">
        <ele>239.9</ele>
        <time>2016-11-05T10:02:00.000Z</time>
      </trkpt>
      <trkpt lat="49.5598" lon="3.47715">
        <ele>240</ele>
        <time>2016-11-05T10:02:05.000Z</time>
      </trkpt>
      <trkpt lat="49.5598" lon="3.47714">
        <ele>240</ele>
        <time>2016-11-05T10:02:06.000Z</time>
      </trkpt>
      <trkpt lat="49.55976" lon="3.47703">
        <ele>240</ele>
        <time>2016-11-05T10:02:10.000Z</time>
      </trkpt>
      <trkpt lat="49.55974" lon="3.477">
        <ele>240</ele>
        <time>2016-11-05T10:02:11.000Z</time>
      </trkpt>
      <trkpt lat="49.55969" lon="3.47688">
        <ele>240.1</ele>
        <time>2016-11-05T10:02:16.000Z</time>
      </trkpt>
      <trkpt lat="49.55969" lon="3.47686">
        <ele>240.3</ele>
        <time>2016-11-05T10:02:17.000Z</time>
      </trkpt>
      <trkpt lat="49.55965" lon="3.47674">
        <ele>240.1</ele>
        <time>2016-11-05T10:02:22.000Z</time>
      </trkpt>
      <trkpt lat="49.55965" lon="3.4767">
        <ele>239.7</ele>
        <time>2016-11-05T10:02:23.000Z</time>
      </trkpt>
      <trkpt lat="49.55961" lon="3.4766">
        <ele>239.5</ele>
        <time>2016-11-05T10:02:26.000Z</time>
      </trkpt>
      <trkpt lat="49.5596" lon="3.47658">
        <ele>239.5</ele>
        <time>2016-11-05T10:02:27.000Z</time>
      </trkpt>
      <trkpt lat="49.55956" lon="3.47646">
        <ele>238.7</ele>
        <time>2016-11-05T10:02:33.000Z</time>
      </trkpt>
      <trkpt lat="49.55956" lon="3.47643">
        <ele>238.4</ele>
        <time>2016-11-05T10:02:34.000Z</time>
      </trkpt>
      <trkpt lat="49.55953" lon="3.47631">
        <ele>237.6</ele>
        <time>2016-11-05T10:02:40.000Z</time>
      </trkpt>
      <trkpt lat="49.55952" lon="3.47629">
        <ele>237.6</ele>
        <time>2016-11-05T10:02:41.000Z</time>
      </trkpt>
      <trkpt lat="49.55947" lon="3.47618">
        <ele>237.3</ele>
        <time>2016-11-05T10:02:46.000Z</time>
      </trkpt>
      <trkpt lat="49.55946" lon="3.47616">
        <ele>237.2</ele>
        <time>2016-11-05T10:02:47.000Z</time>
      </trkpt>
      <trkpt lat="49.55941" lon="3.47605">
        <ele>238</ele>
        <time>2016-11-05T10:02:52.000Z</time>
      </trkpt>
      <trkpt lat="49.55941" lon="3.47601">
        <ele>238.2</ele>
        <time>2016-11-05T10:02:53.000Z</time>
      </trkpt>
      <trkpt lat="49.55942" lon="3.47589">
        <ele>237.4</ele>
        <time>2016-11-05T10:02:56.000Z</time>
      </trkpt>
      <trkpt lat="49.55943" lon="3.47586">
        <ele>237.5</ele>
        <time>2016-11-05T10:02:57.000Z</time>
      </trkpt>
      <trkpt lat="49.55947" lon="3.47575">
        <ele>236.7</ele>
        <time>2016-11-05T10:03:03.000Z</time>
      </trkpt>
      <trkpt lat="49.55948" lon="3.47574">
        <ele>236.8</ele>
        <time>2016-11-05T10:03:04.000Z</time>
      </trkpt>
      <trkpt lat="49.55947" lon="3.47562">
        <ele>235.4</ele>
        <time>2016-11-05T10:03:09.000Z</time>
      </trkpt>
      <trkpt lat="49.55947" lon="3.47559">
        <ele>235.2</ele>
        <time>2016-11-05T10:03:10.000Z</time>
      </trkpt>
      <trkpt lat="49.55952" lon="3.47548">
        <ele>234.6</ele>
        <time>2016-11-05T10:03:15.000Z</time>
      </trkpt>
      <trkpt lat="49.55953" lon="3.47546">
        <ele>234.8</ele>
        <time>2016-11-05T10:03:16.000Z</time>
      </trkpt>
      <trkpt lat="49.55959" lon="3.47538">
        <ele>236.4</ele>
        <time>2016-11-05T10:03:21.000Z</time>
      </trkpt>
      <trkpt lat="49.5596" lon="3.47537">
        <ele>236.8</ele>
        <time>2016-11-05T10:03:22.000Z</time>
      </trkpt>
      <trkpt lat="49.55964" lon="3.47525">
        <ele>237.6</ele>
        <time>2016-11-05T10:03:28.000Z</time>
      </trkpt>
      <trkpt lat="49.55964" lon="3.47523">
        <ele>237.7</ele>
        <time>2016-11-05T10:03:29.000Z</time>
      </trkpt>
      <trkpt lat="49.55957" lon="3.47517">
        <ele>237.7</ele>
        <time>2016-11-05T10:03:40.000Z</time>
      </trkpt>
      <trkpt lat="49.55956" lon="3.47517">
        <ele>237.9</ele>
        <time>2016-11-05T10:03:41.000Z</time>
      </trkpt>
      <trkpt lat="49.55948" lon="3.4752">
        <ele>238</ele>
        <time>2016-11-05T10:03:46.000Z</time>
      </trkpt>
      <trkpt lat="49.55947" lon="3.4752">
        <ele>237.8</ele>
        <time>2016-11-05T10:03:47.000Z</time>
      </trkpt>
      <trkpt lat="49.55938" lon="3.47522">
        <ele>237</ele>
        <time>2016-11-05T10:03:54.000Z</time>
      </trkpt>
      <trkpt lat="49.55937" lon="3.47522">
        <ele>237</ele>
        <time>2016-11-05T10:03:55.000Z</time>
      </trkpt>
      <trkpt lat="49.55928" lon="3.47523">
        <ele>236.1</ele>
        <time>2016-11-05T10:04:03.000Z</time>
      </trkpt>
      <trkpt lat="49.55927" lon="3.47524">
        <ele>235.8</ele>
        <time>2016-11-05T10:04:04.000Z</time>
      </trkpt>
      <trkpt lat="49.55922" lon="3.47534">
        <ele>235.2</ele>
        <time>2016-11-05T10:04:10.000Z</time>
      </trkpt>
      <trkpt lat="49.55921" lon="3.47536">
        <ele>235.1</ele>
        <time>2016-11-05T10:04:11.000Z</time>
      </trkpt>
      <trkpt lat="49.55916" lon="3.47546">
        <ele>234.7</ele>
        <time>2016-11-05T10:04:16.000Z</time>
      </trkpt>
      <trkpt lat="49.55915" lon="3.47547">
        <ele>234.7</ele>
        <time>2016-11-05T10:04:17.000Z</time>
      </trkpt>
      <trkpt lat="49.55911" lon="3.47559">
        <ele>234.5</ele>
        <time>2016-11-05T10:04:23.000Z</time>
      </trkpt>
      <trkpt lat="49.5591" lon="3.47561">
        <ele>234.6</ele>
        <time>2016-11-05T10:04:24.000Z</time>
      </trkpt>
      <trkpt lat="49.55904" lon="3.4757">
        <ele>234.1</ele>
        <time>2016-11-05T10:04:29.000Z</time>
      </trkpt>
      <trkpt lat="49.55902" lon="3.47573">
        <ele>233.7</ele>
        <time>2016-11-05T10:04:30.000Z</time>
      </trkpt>
      <trkpt lat="49.55896" lon="3.47581">
        <ele>233.4</ele>
        <time>2016-11-05T10:04:34.000Z</time>
      </trkpt>
      <trkpt lat="49.55895" lon="3.47583">
        <ele>233.7</ele>
        <time>2016-11-05T10:04:35.000Z</time>
      </trkpt>
      <trkpt lat="49.55888" lon="3.47589">
        <ele>232</ele>
        <time>2016-11-05T10:04:40.000Z</time>
      </trkpt>
      <trkpt lat="49.55887" lon="3.4759">
        <ele>232</ele>
        <time>2016-11-05T10:04:41.000Z</time>
      </trkpt>
      <trkpt lat="49.5588" lon="3.47599">
        <ele>232.3</ele>
        <time>2016-11-05T10:04:49.000Z</time>
      </trkpt>
      <trkpt lat="49.5588" lon="3.476">
        <ele>232.1</ele>
        <time>2016-11-05T10:04:50.000Z</time>
      </trkpt>
      <trkpt lat="49.55874" lon="3.47609">
        <ele>231.5</ele>
        <time>2016-11-05T10:04:57.000Z</time>
      </trkpt>
      <trkpt lat="49.55872" lon="3.4761">
        <ele>231.6</ele>
        <time>2016-11-05T10:04:58.000Z</time>
      </trkpt>
      <trkpt lat="49.55867" lon="3.47621">
        <ele>231.4</ele>
        <time>2016-11-05T10:05:04.000Z</time>
      </trkpt>
      <trkpt lat="49.55866" lon="3.47623">
        <ele>231.5</ele>
        <time>2016-11-05T10:05:05.000Z</time>
      </trkpt>
      <trkpt lat="49.55861" lon="3.47634">
        <ele>230.9</ele>
        <time>2016-11-05T10:05:11.000Z</time>
      </trkpt>
      <trkpt lat="49.55859" lon="3.47635">
        <ele>230.9</ele>
        <time>2016-11-05T10:05:12.000Z</time>
      </trkpt>
      <trkpt lat="49.55852" lon="3.47643">
        <ele>229.6</ele>
        <time>2016-11-05T10:05:18.000Z</time>
      </trkpt>
      <trkpt lat="49.5585" lon="3.47644">
        <ele>229.6</ele>
        <time>2016-11-05T10:05:19.000Z</time>
      </trkpt>
      <trkpt lat="49.55843" lon="3.47653">
        <ele>229.7</ele>
        <time>2016-11-05T10:05:25.000Z</time>
      </trkpt>
      <trkpt lat="49.55842" lon="3.47655">
        <ele>229.4</ele>
        <time>2016-11-05T10:05:26.000Z</time>
      </trkpt>
      <trkpt lat="49.55836" lon="3.47664">
        <ele>228.5</ele>
        <time>2016-11-05T10:05:31.000Z</time>
      </trkpt>
      <trkpt lat="49.55835" lon="3.47666">
        <ele>228.2</ele>
        <time>2016-11-05T10:05:32.000Z</time>
      </trkpt>
      <trkpt lat="49.5583" lon="3.47674">
        <ele>227.4</ele>
        <time>2016-11-05T10:05:37.000Z</time>
      </trkpt>
      <trkpt lat="49.55828" lon="3.47676">
        <ele>227.5</ele>
        <time>2016-11-05T10:05:38.000Z</time>
      </trkpt>
      <trkpt lat="49.55822" lon="3.47683">
        <ele>228.1</ele>
        <time>2016-11-05T10:05:41.000Z</time>
      </trkpt>
      <trkpt lat="49.55821" lon="3.47685">
        <ele>228.1</ele>
        <time>2016-11-05T10:05:42.000Z</time>
      </trkpt>
      <trkpt lat="49.55815" lon="3.47696">
        <ele>226.9</ele>
        <time>2016-11-05T10:05:48.000Z</time>
      </trkpt>
      <trkpt lat="49.55815" lon="3.47698">
        <ele>226.9</ele>
        <time>2016-11-05T10:05:49.000Z</time>
      </trkpt>
      <trkpt lat="49.55809" lon="3.47708">
        <ele>228.2</ele>
        <time>2016-11-05T10:05:56.000Z</time>
      </trkpt>
      <trkpt lat="49.55808" lon="3.47709">
        <ele>228.2</ele>
        <time>2016-11-05T10:05:57.000Z</time>
      </trkpt>
      <trkpt lat="49.55801" lon="3.47719">
        <ele>228.3</ele>
        <time>2016-11-05T10:06:03.000Z</time>
      </trkpt>
      <trkpt lat="49.558" lon="3.47721">
        <ele>228</ele>
        <time>2016-11-05T10:06:04.000Z</time>
      </trkpt>
      <trkpt lat="49.55794" lon="3.47732">
        <ele>228.6</ele>
        <time>2016-11-05T10:06:09.000Z</time>
      </trkpt>
      <trkpt lat="49.55793" lon="3.47733">
        <ele>228.2</ele>
        <time>2016-11-05T10:06:10.000Z</time>
      </trkpt>
      <trkpt lat="49.55787" lon="3.47743">
        <ele>227.3</ele>
        <time>2016-11-05T10:06:16.000Z</time>
      </trkpt>
      <trkpt lat="49.55786" lon="3.47744">
        <ele>227.1</ele>
        <time>2016-11-05T10:06:17.000Z</time>
      </trkpt>
      <trkpt lat="49.5578" lon="3.47752">
        <ele>226.8</ele>
        <time>2016-11-05T10:06:22.000Z</time>
      </trkpt>
      <trkpt lat="49.55778" lon="3.47754">
        <ele>226.7</ele>
        <time>2016-11-05T10:06:23.000Z</time>
      </trkpt>
      <trkpt lat="49.55772" lon="3.47761">
        <ele>227.7</ele>
        <time>2016-11-05T10:06:29.000Z</time>
      </trkpt>
      <trkpt lat="49.5577" lon="3.47763">
        <ele>227.7</ele>
        <time>2016-11-05T10:06:30.000Z</time>
      </trkpt>
      <trkpt lat="49.55763" lon="3.47767">
        <ele>228.4</ele>
        <time>2016-11-05T10:06:36.000Z</time>
      </trkpt>
      <trkpt lat="49.55762" lon="3.47768">
        <ele>228.3</ele>
        <time>2016-11-05T10:06:37.000Z</time>
      </trkpt>
      <trkpt lat="49.55756" lon="3.47775">
        <ele>227.6</ele>
        <time>2016-11-05T10:06:41.000Z</time>
      </trkpt>
      <trkpt lat="49.55754" lon="3.47777">
        <ele>227.5</ele>
        <time>2016-11-05T10:06:42.000Z</time>
      </trkpt>
      <trkpt lat="49.55746" lon="3.47782">
        <ele>227.6</ele>
        <time>2016-11-05T10:06:47.000Z</time>
      </trkpt>
      <trkpt lat="49.55745" lon="3.47783">
        <ele>227.8</ele>
        <time>2016-11-05T10:06:48.000Z</time>
      </trkpt>
      <trkpt lat="49.55737" lon="3.47788">
        <ele>228.9</ele>
        <time>2016-11-05T10:06:53.000Z</time>
      </trkpt>
      <trkpt lat="49.55736" lon="3.4779">
        <ele>229</ele>
        <time>2016-11-05T10:06:54.000Z</time>
      </trkpt>
      <trkpt lat="49.55728" lon="3.47796">
        <ele>228</ele>
        <time>2016-11-05T10:07:01.000Z</time>
      </trkpt>
      <trkpt lat="49.55727" lon="3.47797">
        <ele>227.6</ele>
        <time>2016-11-05T10:07:02.000Z</time>
      </trkpt>
      <trkpt lat="49.55719" lon="3.47802">
        <ele>227.3</ele>
        <time>2016-11-05T10:07:09.000Z</time>
      </trkpt>
      <trkpt lat="49.55718" lon="3.47802">
        <ele>226.8</ele>
        <time>2016-11-05T10:07:10.000Z</time>
      </trkpt>
      <trkpt lat="49.55718" lon="3.47802">
        <ele>226.1</ele>
        <time>2016-11-05T10:07:11.000Z</time>
      </trkpt>
      <trkpt lat="49.55717" lon="3.47802">
        <ele>225.6</ele>
        <time>2016-11-05T10:07:13.000Z</time>
      </trkpt>
      <trkpt lat="49.55716" lon="3.47803">
        <ele>225.1</ele>
        <time>2016-11-05T10:07:14.000Z</time>
      </trkpt>
      <trkpt lat="49.55708" lon="3.47809">
        <ele>225.3</ele>
        <time>2016-11-05T10:07:19.000Z</time>
      </trkpt>
      <trkpt lat="49.55705" lon="3.4781">
        <ele>225.4</ele>
        <time>2016-11-05T10:07:20.000Z</time>
      </trkpt>
      <trkpt lat="49.55698" lon="3.47813">
        <ele>225.2</ele>
        <time>2016-11-05T10:07:24.000Z</time>
      </trkpt>
      <trkpt lat="49.55696" lon="3.47813">
        <ele>225</ele>
        <time>2016-11-05T10:07:25.000Z</time>
      </trkpt>
      <trkpt lat="49.55689" lon="3.47815">
        <ele>225</ele>
        <time>2016-11-05T10:07:31.000Z</time>
      </trkpt>
      <trkpt lat="49.55687" lon="3.47815">
        <ele>224.8</ele>
        <time>2016-11-05T10:07:32.000Z</time>
      </trkpt>
      <trkpt lat="49.55679" lon="3.47818">
        <ele>224.5</ele>
        <time>2016-11-05T10:07:37.000Z</time>
      </trkpt>
      <trkpt lat="49.55678" lon="3.47819">
        <ele>224.5</ele>
        <time>2016-11-05T10:07:38.000Z</time>
      </trkpt>
      <trkpt lat="49.5567" lon="3.47824">
        <ele>224.8</ele>
        <time>2016-11-05T10:07:43.000Z</time>
      </trkpt>
      <trkpt lat="49.55668" lon="3.47825">
        <ele>224.9</ele>
        <time>2016-11-05T10:07:44.000Z</time>
      </trkpt>
      <trkpt lat="49.5566" lon="3.47831">
        <ele>224.5</ele>
        <time>2016-11-05T10:07:51.000Z</time>
      </trkpt>
      <trkpt lat="49.55658" lon="3.47831">
        <ele>224.5</ele>
        <time>2016-11-05T10:07:52.000Z</time>
      </trkpt>
      <trkpt lat="49.55651" lon="3.47835">
        <ele>224.3</ele>
        <time>2016-11-05T10:07:57.000Z</time>
      </trkpt>
      <trkpt lat="49.55649" lon="3.47837">
        <ele>224.3</ele>
        <time>2016-11-05T10:07:58.000Z</time>
      </trkpt>
      <trkpt lat="49.55644" lon="3.47848">
        <ele>224.6</ele>
        <time>2016-11-05T10:08:04.000Z</time>
      </trkpt>
      <trkpt lat="49.55643" lon="3.47849">
        <ele>224.7</ele>
        <time>2016-11-05T10:08:05.000Z</time>
      </trkpt>
      <trkpt lat="49.55637" lon="3.47856">
        <ele>225.3</ele>
        <time>2016-11-05T10:08:10.000Z</time>
      </trkpt>
      <trkpt lat="49.55634" lon="3.47856">
        <ele>226</ele>
        <time>2016-11-05T10:08:11.000Z</time>
      </trkpt>
      <trkpt lat="49.55625" lon="3.47856">
        <ele>227.2</ele>
        <time>2016-11-05T10:08:17.000Z</time>
      </trkpt>
      <trkpt lat="49.55623" lon="3.47857">
        <ele>227.2</ele>
        <time>2016-11-05T10:08:18.000Z</time>
      </trkpt>
      <trkpt lat="49.55615" lon="3.47859">
        <ele>228.1</ele>
        <time>2016-11-05T10:08:23.000Z</time>
      </trkpt>
      <trkpt lat="49.55614" lon="3.4786">
        <ele>228.4</ele>
        <time>2016-11-05T10:08:24.000Z</time>
      </trkpt>
      <trkpt lat="49.55608" lon="3.47869">
        <ele>228</ele>
        <time>2016-11-05T10:08:33.000Z</time>
      </trkpt>
      <trkpt lat="49.55608" lon="3.47871">
        <ele>228.2</ele>
        <time>2016-11-05T10:08:34.000Z</time>
      </trkpt>
      <trkpt lat="49.55605" lon="3.47883">
        <ele>228.2</ele>
        <time>2016-11-05T10:08:42.000Z</time>
      </trkpt>
      <trkpt lat="49.55604" lon="3.47887">
        <ele>228.2</ele>
        <time>2016-11-05T10:08:43.000Z</time>
      </trkpt>
      <trkpt lat="49.55601" lon="3.47899">
        <ele>228.8</ele>
        <time>2016-11-05T10:08:49.000Z</time>
      </trkpt>
      <trkpt lat="49.556" lon="3.47901">
        <ele>229</ele>
        <time>2016-11-05T10:08:50.000Z</time>
      </trkpt>
      <trkpt lat="49.55594" lon="3.47911">
        <ele>228.5</ele>
        <time>2016-11-05T10:08:55.000Z</time>
      </trkpt>
      <trkpt lat="49.55593" lon="3.47913">
        <ele>228.7</ele>
        <time>2016-11-05T10:08:56.000Z</time>
      </trkpt>
      <trkpt lat="49.55589" lon="3.47923">
        <ele>230.1</ele>
        <time>2016-11-05T10:09:03.000Z</time>
      </trkpt>
      <trkpt lat="49.55588" lon="3.47924">
        <ele>230.1</ele>
        <time>2016-11-05T10:09:04.000Z</time>
      </trkpt>
      <trkpt lat="49.55581" lon="3.47933">
        <ele>230.1</ele>
        <time>2016-11-05T10:09:10.000Z</time>
      </trkpt>
      <trkpt lat="49.5558" lon="3.47934">
        <ele>230.2</ele>
        <time>2016-11-05T10:09:11.000Z</time>
      </trkpt>
      <trkpt lat="49.55573" lon="3.47942">
        <ele>230.1</ele>
        <time>2016-11-05T10:09:16.000Z</time>
      </trkpt>
      <trkpt lat="49.55572" lon="3.47943">
        <ele>230.1</ele>
        <time>2016-11-05T10:09:17.000Z</time>
      </trkpt>
      <trkpt lat="49.55568" lon="3.47956">
        <ele>228.9</ele>
        <time>2016-11-05T10:09:23.000Z</time>
      </trkpt>
      <trkpt lat="49.55568" lon="3.47958">
        <ele>228.6</ele>
        <time>2016-11-05T10:09:24.000Z</time>
      </trkpt>
      <trkpt lat="49.55564" lon="3.4797">
        <ele>227.9</ele>
        <time>2016-11-05T10:09:30.000Z</time>
      </trkpt>
      <trkpt lat="49.55563" lon="3.47971">
        <ele>227.5</ele>
        <time>2016-11-05T10:09:31.000Z</time>
      </trkpt>
      <trkpt lat="49.55555" lon="3.47978">
        <ele>227.6</ele>
        <time>2016-11-05T10:09:37.000Z</time>
      </trkpt>
      <trkpt lat="49.55555" lon="3.47979">
        <ele>227.5</ele>
        <time>2016-11-05T10:09:38.000Z</time>
      </trkpt>
      <trkpt lat="49.55549" lon="3.47988">
        <ele>227.5</ele>
        <time>2016-11-05T10:09:42.000Z</time>
      </trkpt>
      <trkpt lat="49.55548" lon="3.4799">
        <ele>227.8</ele>
        <time>2016-11-05T10:09:43.000Z</time>
      </trkpt>
      <trkpt lat="49.55543" lon="3.48">
        <ele>229.1</ele>
        <time>2016-11-05T10:09:48.000Z</time>
      </trkpt>
      <trkpt lat="49.55542" lon="3.48001">
        <ele>229.3</ele>
        <time>2016-11-05T10:09:49.000Z</time>
      </trkpt>
      <trkpt lat="49.55536" lon="3.48009">
        <ele>229.2</ele>
        <time>2016-11-05T10:09:56.000Z</time>
      </trkpt>
      <trkpt lat="49.55535" lon="3.48011">
        <ele>229.3</ele>
        <time>2016-11-05T10:09:57.000Z</time>
      </trkpt>
      <trkpt lat="49.5553" lon="3.4802">
        <ele>229.4</ele>
        <time>2016-11-05T10:10:04.000Z</time>
      </trkpt>
      <trkpt lat="49.55528" lon="3.48022">
        <ele>229.2</ele>
        <time>2016-11-05T10:10:05.000Z</time>
      </trkpt>
      <trkpt lat="49.55523" lon="3.48033">
        <ele>229.3</ele>
        <time>2016-11-05T10:10:10.000Z</time>
      </trkpt>
      <trkpt lat="49.55522" lon="3.48035">
        <ele>229.2</ele>
        <time>2016-11-05T10:10:11.000Z</time>
      </trkpt>
      <trkpt lat="49.55516" lon="3.48041">
        <ele>229.3</ele>
        <time>2016-11-05T10:10:14.000Z</time>
      </trkpt>
      <trkpt lat="49.55514" lon="3.48043">
        <ele>229</ele>
        <time>2016-11-05T10:10:15.000Z</time>
      </trkpt>
      <trkpt lat="49.55506" lon="3.48045">
        <ele>229.3</ele>
        <time>2016-11-05T10:10:19.000Z</time>
      </trkpt>
      <trkpt lat="49.55505" lon="3.48045">
        <ele>228.9</ele>
        <time>2016-11-05T10:10:20.000Z</time>
      </trkpt>
      <trkpt lat="49.55497" lon="3.48049">
        <ele>228.5</ele>
        <time>2016-11-05T10:10:26.000Z</time>
      </trkpt>
      <trkpt lat="49.55496" lon="3.4805">
        <ele>228.9</ele>
        <time>2016-11-05T10:10:27.000Z</time>
      </trkpt>
      <trkpt lat="49.55488" lon="3.48055">
        <ele>230.1</ele>
        <time>2016-11-05T10:10:34.000Z</time>
      </trkpt>
      <trkpt lat="49.55487" lon="3.48056">
        <ele>230.2</ele>
        <time>2016-11-05T10:10:35.000Z</time>
      </trkpt>
      <trkpt lat="49.55479" lon="3.48062">
        <ele>229.7</ele>
        <time>2016-11-05T10:10:40.000Z</time>
      </trkpt>
      <trkpt lat="49.55477" lon="3.48063">
        <ele>229.8</ele>
        <time>2016-11-05T10:10:41.000Z</time>
      </trkpt>
      <trkpt lat="49.5547" lon="3.48067">
        <ele>228.7</ele>
        <time>2016-11-05T10:10:45.000Z</time>
      </trkpt>
      <trkpt lat="49.55468" lon="3.48067">
        <ele>228.7</ele>
        <time>2016-11-05T10:10:46.000Z</time>
      </trkpt>
      <trkpt lat="49.55463" lon="3.48075">
        <ele>228.1</ele>
        <time>2016-11-05T10:10:52.000Z</time>
      </trkpt>
      <trkpt lat="49.55461" lon="3.48076">
        <ele>228.1</ele>
        <time>2016-11-05T10:10:53.000Z</time>
      </trkpt>
      <trkpt lat="49.55454" lon="3.48081">
        <ele>228.2</ele>
        <time>2016-11-05T10:10:58.000Z</time>
      </trkpt>
      <trkpt lat="49.55453" lon="3.48081">
        <ele>228.1</ele>
        <time>2016-11-05T10:10:59.000Z</time>
      </trkpt>
      <trkpt lat="49.55444" lon="3.48081">
        <ele>226.4</ele>
        <time>2016-11-05T10:11:07.000Z</time>
      </trkpt>
      <trkpt lat="49.55442" lon="3.48081">
        <ele>225.9</ele>
        <time>2016-11-05T10:11:08.000Z</time>
      </trkpt>
      <trkpt lat="49.55434" lon="3.48084">
        <ele>224.5</ele>
        <time>2016-11-05T10:11:14.000Z</time>
      </trkpt>
      <trkpt lat="49.55432" lon="3.48084">
        <ele>224.1</ele>
        <time>2016-11-05T10:11:15.000Z</time>
      </trkpt>
      <trkpt lat="49.55424" lon="3.48085">
        <ele>222.9</ele>
        <time>2016-11-05T10:11:22.000Z</time>
      </trkpt>
      <trkpt lat="49.55423" lon="3.48085">
        <ele>223.1</ele>
        <time>2016-11-05T10:11:23.000Z</time>
      </trkpt>
      <trkpt lat="49.55414" lon="3.48085">
        <ele>219.9</ele>
        <time>2016-11-05T10:11:33.000Z</time>
      </trkpt>
      <trkpt lat="49.55413" lon="3.48086">
        <ele>220</ele>
        <time>2016-11-05T10:11:34.000Z</time>
      </trkpt>
      <trkpt lat="49.55406" lon="3.48091">
        <ele>219.7</ele>
        <time>2016-11-05T10:11:42.000Z</time>
      </trkpt>
      <trkpt lat="49.55405" lon="3.48091">
        <ele>219.6</ele>
        <time>2016-11-05T10:11:43.000Z</time>
      </trkpt>
      <trkpt lat="49.55397" lon="3.48095">
        <ele>219.6</ele>
        <time>2016-11-05T10:11:50.000Z</time>
      </trkpt>
      <trkpt lat="49.55396" lon="3.48096">
        <ele>219.6</ele>
        <time>2016-11-05T10:11:51.000Z</time>
      </trkpt>
      <trkpt lat="49.55388" lon="3.48099">
        <ele>219</ele>
        <time>2016-11-05T10:11:57.000Z</time>
      </trkpt>
      <trkpt lat="49.55386" lon="3.48098">
        <ele>218.1</ele>
        <time>2016-11-05T10:11:58.000Z</time>
      </trkpt>
      <trkpt lat="49.55379" lon="3.48103">
        <ele>218.1</ele>
        <time>2016-11-05T10:12:08.000Z</time>
      </trkpt>
      <trkpt lat="49.55377" lon="3.48103">
        <ele>218</ele>
        <time>2016-11-05T10:12:09.000Z</time>
      </trkpt>
      <trkpt lat="49.55369" lon="3.48104">
        <ele>217.6</ele>
        <time>2016-11-05T10:12:16.000Z</time>
      </trkpt>
      <trkpt lat="49.55368" lon="3.48105">
        <ele>217.8</ele>
        <time>2016-11-05T10:12:17.000Z</time>
      </trkpt>
      <trkpt lat="49.55359" lon="3.48107">
        <ele>216.4</ele>
        <time>2016-11-05T10:12:25.000Z</time>
      </trkpt>
      <trkpt lat="49.55357" lon="3.48107">
        <ele>216.4</ele>
        <time>2016-11-05T10:12:26.000Z</time>
      </trkpt>
      <trkpt lat="49.55354" lon="3.48095">
        <ele>211.8</ele>
        <time>2016-11-05T10:12:33.000Z</time>
      </trkpt>
      <trkpt lat="49.55356" lon="3.48093">
        <ele>211.7</ele>
        <time>2016-11-05T10:12:34.000Z</time>
      </trkpt>
      <trkpt lat="49.55363" lon="3.48085">
        <ele>213.2</ele>
        <time>2016-11-05T10:12:39.000Z</time>
      </trkpt>
      <trkpt lat="49.55364" lon="3.48084">
        <ele>213.5</ele>
        <time>2016-11-05T10:12:40.000Z</time>
      </trkpt>
      <trkpt lat="49.5537" lon="3.48077">
        <ele>214.9</ele>
        <time>2016-11-05T10:12:46.000Z</time>
      </trkpt>
      <trkpt lat="49.55371" lon="3.48076">
        <ele>214.8</ele>
        <time>2016-11-05T10:12:47.000Z</time>
      </trkpt>
      <trkpt lat="49.55379" lon="3.4807">
        <ele>215.3</ele>
        <time>2016-11-05T10:12:55.000Z</time>
      </trkpt>
      <trkpt lat="49.55379" lon="3.48069">
        <ele>215.3</ele>
        <time>2016-11-05T10:12:56.000Z</time>
      </trkpt>
      <trkpt lat="49.55377" lon="3.48062">
        <ele>216.1</ele>
        <time>2016-11-05T10:14:53.000Z</time>
      </trkpt>
      <trkpt lat="49.55377" lon="3.48061">
        <ele>215.4</ele>
        <time>2016-11-05T10:14:54.000Z</time>
      </trkpt>
      <trkpt lat="49.55377" lon="3.48061">
        <ele>215.4</ele>
        <time>2016-11-05T10:15:01.000Z</time>
      </trkpt>
      <trkpt lat="49.55376" lon="3.48061">
        <ele>215.3</ele>
        <time>2016-11-05T10:15:02.000Z</time>
      </trkpt>
      <trkpt lat="49.55379" lon="3.48049">
        <ele>212.8</ele>
        <time>2016-11-05T10:15:26.000Z</time>
      </trkpt>
      <trkpt lat="49.55381" lon="3.48049">
        <ele>212.4</ele>
        <time>2016-11-05T10:15:27.000Z</time>
      </trkpt>
      <trkpt lat="49.55386" lon="3.48039">
        <ele>210.7</ele>
        <time>2016-11-05T10:15:33.000Z</time>
      </trkpt>
      <trkpt lat="49.55387" lon="3.48037">
        <ele>210.6</ele>
        <time>2016-11-05T10:15:34.000Z</time>
      </trkpt>
      <trkpt lat="49.55394" lon="3.48029">
        <ele>209</ele>
        <time>2016-11-05T10:15:39.000Z</time>
      </trkpt>
      <trkpt lat="49.55395" lon="3.48028">
        <ele>208.9</ele>
        <time>2016-11-05T10:15:40.000Z</time>
      </trkpt>
      <trkpt lat="49.55402" lon="3.48022">
        <ele>207.4</ele>
        <time>2016-11-05T10:15:45.000Z</time>
      </trkpt>
      <trkpt lat="49.55404" lon="3.48021">
        <ele>207.2</ele>
        <time>2016-11-05T10:15:46.000Z</time>
      </trkpt>
      <trkpt lat="49.55411" lon="3.48016">
        <ele>205.6</ele>
        <time>2016-11-05T10:15:51.000Z</time>
      </trkpt>
      <trkpt lat="49.55413" lon="3.48015">
        <ele>205.2</ele>
        <time>2016-11-05T10:15:52.000Z</time>
      </trkpt>
      <trkpt lat="49.5542" lon="3.48008">
        <ele>203.4</ele>
        <time>2016-11-05T10:15:57.000Z</time>
      </trkpt>
      <trkpt lat="49.55422" lon="3.48006">
        <ele>203.2</ele>
        <time>2016-11-05T10:15:58.000Z</time>
      </trkpt>
      <trkpt lat="49.55429" lon="3.47999">
        <ele>202.2</ele>
        <time>2016-11-05T10:16:03.000Z</time>
      </trkpt>
      <trkpt lat="49.5543" lon="3.47996">
        <ele>202</ele>
        <time>2016-11-05T10:16:04.000Z</time>
      </trkpt>
      <trkpt lat="49.55436" lon="3.47988">
        <ele>201.3</ele>
        <time>2016-11-05T10:16:09.000Z</time>
      </trkpt>
      <trkpt lat="49.55438" lon="3.47987">
        <ele>200.9</ele>
        <time>2016-11-05T10:16:10.000Z</time>
      </trkpt>
      <trkpt lat="49.55444" lon="3.47982">
        <ele>200.5</ele>
        <time>2016-11-05T10:16:15.000Z</time>
      </trkpt>
      <trkpt lat="49.55446" lon="3.4798">
        <ele>200.4</ele>
        <time>2016-11-05T10:16:16.000Z</time>
      </trkpt>
      <trkpt lat="49.55452" lon="3.47971">
        <ele>200.3</ele>
        <time>2016-11-05T10:16:22.000Z</time>
      </trkpt>
      <trkpt lat="49.55454" lon="3.4797">
        <ele>200.2</ele>
        <time>2016-11-05T10:16:23.000Z</time>
      </trkpt>
      <trkpt lat="49.55461" lon="3.47963">
        <ele>200.1</ele>
        <time>2016-11-05T10:16:29.000Z</time>
      </trkpt>
      <trkpt lat="49.55462" lon="3.47962">
        <ele>200</ele>
        <time>2016-11-05T10:16:30.000Z</time>
      </trkpt>
      <trkpt lat="49.55469" lon="3.47954">
        <ele>199.4</ele>
        <time>2016-11-05T10:16:35.000Z</time>
      </trkpt>
      <trkpt lat="49.55471" lon="3.47952">
        <ele>199.3</ele>
        <time>2016-11-05T10:16:36.000Z</time>
      </trkpt>
      <trkpt lat="49.55477" lon="3.47942">
        <ele>199</ele>
        <time>2016-11-05T10:16:41.000Z</time>
      </trkpt>
      <trkpt lat="49.55478" lon="3.4794">
        <ele>198.9</ele>
        <time>2016-11-05T10:16:42.000Z</time>
      </trkpt>
      <trkpt lat="49.55484" lon="3.47929">
        <ele>199.1</ele>
        <time>2016-11-05T10:16:47.000Z</time>
      </trkpt>
      <trkpt lat="49.55484" lon="3.47928">
        <ele>199.1</ele>
        <time>2016-11-05T10:16:48.000Z</time>
      </trkpt>
      <trkpt lat="49.5549" lon="3.47917">
        <ele>199.3</ele>
        <time>2016-11-05T10:16:55.000Z</time>
      </trkpt>
      <trkpt lat="49.55491" lon="3.47915">
        <ele>199.4</ele>
        <time>2016-11-05T10:16:56.000Z</time>
      </trkpt>
      <trkpt lat="49.55496" lon="3.47906">
        <ele>200.4</ele>
        <time>2016-11-05T10:17:00.000Z</time>
      </trkpt>
      <trkpt lat="49.55498" lon="3.47905">
        <ele>200.6</ele>
        <time>2016-11-05T10:17:01.000Z</time>
      </trkpt>
      <trkpt lat="49.55504" lon="3.47895">
        <ele>200.7</ele>
        <time>2016-11-05T10:17:07.000Z</time>
      </trkpt>
      <trkpt lat="49.55504" lon="3.47893">
        <ele>200.8</ele>
        <time>2016-11-05T10:17:08.000Z</time>
      </trkpt>
      <trkpt lat="49.55509" lon="3.47883">
        <ele>200.4</ele>
        <time>2016-11-05T10:17:13.000Z</time>
      </trkpt>
      <trkpt lat="49.5551" lon="3.47881">
        <ele>200.1</ele>
        <time>2016-11-05T10:17:14.000Z</time>
      </trkpt>
      <trkpt lat="49.55514" lon="3.47874">
        <ele>200.2</ele>
        <time>2016-11-05T10:17:16.000Z</time>
      </trkpt>
      <trkpt lat="49.55516" lon="3.47869">
        <ele>200.1</ele>
        <time>2016-11-05T10:17:17.000Z</time>
      </trkpt>
      <trkpt lat="49.55522" lon="3.47861">
        <ele>200</ele>
        <time>2016-11-05T10:17:20.000Z</time>
      </trkpt>
      <trkpt lat="49.55523" lon="3.47859">
        <ele>200</ele>
        <time>2016-11-05T10:17:21.000Z</time>
      </trkpt>
      <trkpt lat="49.55529" lon="3.4785">
        <ele>200.3</ele>
        <time>2016-11-05T10:17:24.000Z</time>
      </trkpt>
      <trkpt lat="49.55531" lon="3.47848">
        <ele>200.3</ele>
        <time>2016-11-05T10:17:25.000Z</time>
      </trkpt>
      <trkpt lat="49.55537" lon="3.47841">
        <ele>200</ele>
        <time>2016-11-05T10:17:28.000Z</time>
      </trkpt>
      <trkpt lat="49.55539" lon="3.47838">
        <ele>199.6</ele>
        <time>2016-11-05T10:17:29.000Z</time>
      </trkpt>
      <trkpt lat="49.55544" lon="3.47829">
        <ele>199.5</ele>
        <time>2016-11-05T10:17:33.000Z</time>
      </trkpt>
      <trkpt lat="49.55545" lon="3.47827">
        <ele>199.4</ele>
        <time>2016-11-05T10:17:34.000Z</time>
      </trkpt>
      <trkpt lat="49.55551" lon="3.47818">
        <ele>199.1</ele>
        <time>2016-11-05T10:17:39.000Z</time>
      </trkpt>
      <trkpt lat="49.55552" lon="3.47816">
        <ele>199</ele>
        <time>2016-11-05T10:17:40.000Z</time>
      </trkpt>
      <trkpt lat="49.55557" lon="3.47807">
        <ele>199.3</ele>
        <time>2016-11-05T10:17:45.000Z</time>
      </trkpt>
      <trkpt lat="49.55558" lon="3.47806">
        <ele>199.5</ele>
        <time>2016-11-05T10:17:46.000Z</time>
      </trkpt>
      <trkpt lat="49.55564" lon="3.47797">
        <ele>200</ele>
        <time>2016-11-05T10:17:51.000Z</time>
      </trkpt>
      <trkpt lat="49.55565" lon="3.47796">
        <ele>200.2</ele>
        <time>2016-11-05T10:17:52.000Z</time>
      </trkpt>
      <trkpt lat="49.55571" lon="3.47788">
        <ele>200.4</ele>
        <time>2016-11-05T10:17:58.000Z</time>
      </trkpt>
      <trkpt lat="49.55573" lon="3.47786">
        <ele>200.3</ele>
        <time>2016-11-05T10:17:59.000Z</time>
      </trkpt>
      <trkpt lat="49.5558" lon="3.4778">
        <ele>199.9</ele>
        <time>2016-11-05T10:18:04.000Z</time>
      </trkpt>
      <trkpt lat="49.55582" lon="3.47779">
        <ele>200</ele>
        <time>2016-11-05T10:18:05.000Z</time>
      </trkpt>
      <trkpt lat="49.55588" lon="3.47771">
        <ele>199.8</ele>
        <time>2016-11-05T10:18:10.000Z</time>
      </trkpt>
      <trkpt lat="49.5559" lon="3.4777">
        <ele>199.7</ele>
        <time>2016-11-05T10:18:11.000Z</time>
      </trkpt>
      <trkpt lat="49.55595" lon="3.47759">
        <ele>199.5</ele>
        <time>2016-11-05T10:18:18.000Z</time>
      </trkpt>
      <trkpt lat="49.55596" lon="3.47758">
        <ele>199.3</ele>
        <time>2016-11-05T10:18:19.000Z</time>
      </trkpt>
      <trkpt lat="49.55603" lon="3.47749">
        <ele>199.1</ele>
        <time>2016-11-05T10:18:25.000Z</time>
      </trkpt>
      <trkpt lat="49.55604" lon="3.47748">
        <ele>199</ele>
        <time>2016-11-05T10:18:26.000Z</time>
      </trkpt>
      <trkpt lat="49.55611" lon="3.47741">
        <ele>198.3</ele>
        <time>2016-11-05T10:18:30.000Z</time>
      </trkpt>
      <trkpt lat="49.55612" lon="3.4774">
        <ele>198.4</ele>
        <time>2016-11-05T10:18:31.000Z</time>
      </trkpt>
      <trkpt lat="49.55619" lon="3.47733">
        <ele>198.3</ele>
        <time>2016-11-05T10:18:37.000Z</time>
      </trkpt>
      <trkpt lat="49.5562" lon="3.47732">
        <ele>198.2</ele>
        <time>2016-11-05T10:18:38.000Z</time>
      </trkpt>
      <trkpt lat="49.55627" lon="3.47726">
        <ele>198</ele>
        <time>2016-11-05T10:18:44.000Z</time>
      </trkpt>
      <trkpt lat="49.55628" lon="3.47725">
        <ele>197.8</ele>
        <time>2016-11-05T10:18:45.000Z</time>
      </trkpt>
      <trkpt lat="49.55635" lon="3.47718">
        <ele>197.4</ele>
        <time>2016-11-05T10:18:51.000Z</time>
      </trkpt>
      <trkpt lat="49.55636" lon="3.47717">
        <ele>197.5</ele>
        <time>2016-11-05T10:18:52.000Z</time>
      </trkpt>
      <trkpt lat="49.5564" lon="3.47713">
        <ele>197.6</ele>
        <time>2016-11-05T10:18:55.000Z</time>
      </trkpt>
      <trkpt lat="49.55644" lon="3.47709">
        <ele>197.6</ele>
        <time>2016-11-05T10:18:56.000Z</time>
      </trkpt>
      <trkpt lat="49.55651" lon="3.47702">
        <ele>197.1</ele>
        <time>2016-11-05T10:19:00.000Z</time>
      </trkpt>
      <trkpt lat="49.55653" lon="3.47701">
        <ele>197.1</ele>
        <time>2016-11-05T10:19:01.000Z</time>
      </trkpt>
      <trkpt lat="49.55661" lon="3.47695">
        <ele>197.9</ele>
        <time>2016-11-05T10:19:06.000Z</time>
      </trkpt>
      <trkpt lat="49.55662" lon="3.47694">
        <ele>198</ele>
        <time>2016-11-05T10:19:07.000Z</time>
      </trkpt>
      <trkpt lat="49.5567" lon="3.47689">
        <ele>198.5</ele>
        <time>2016-11-05T10:19:14.000Z</time>
      </trkpt>
      <trkpt lat="49.55672" lon="3.47688">
        <ele>198.3</ele>
        <time>2016-11-05T10:19:15.000Z</time>
      </trkpt>
      <trkpt lat="49.5568" lon="3.47684">
        <ele>198.2</ele>
        <time>2016-11-05T10:19:22.000Z</time>
      </trkpt>
      <trkpt lat="49.55681" lon="3.47683">
        <ele>198.1</ele>
        <time>2016-11-05T10:19:23.000Z</time>
      </trkpt>
      <trkpt lat="49.55688" lon="3.47677">
        <ele>198.4</ele>
        <time>2016-11-05T10:19:29.000Z</time>
      </trkpt>
      <trkpt lat="49.5569" lon="3.47675">
        <ele>197.6</ele>
        <time>2016-11-05T10:19:30.000Z</time>
      </trkpt>
      <trkpt lat="49.55696" lon="3.47666">
        <ele>197.1</ele>
        <time>2016-11-05T10:19:35.000Z</time>
      </trkpt>
      <trkpt lat="49.55697" lon="3.47665">
        <ele>196.9</ele>
        <time>2016-11-05T10:19:36.000Z</time>
      </trkpt>
      <trkpt lat="49.55702" lon="3.47655">
        <ele>196</ele>
        <time>2016-11-05T10:19:41.000Z</time>
      </trkpt>
      <trkpt lat="49.55704" lon="3.47654">
        <ele>195.9</ele>
        <time>2016-11-05T10:19:42.000Z</time>
      </trkpt>
      <trkpt lat="49.5571" lon="3.47647">
        <ele>195.6</ele>
        <time>2016-11-05T10:19:47.000Z</time>
      </trkpt>
      <trkpt lat="49.55712" lon="3.47646">
        <ele>195.4</ele>
        <time>2016-11-05T10:19:48.000Z</time>
      </trkpt>
      <trkpt lat="49.55716" lon="3.47637">
        <ele>195.5</ele>
        <time>2016-11-05T10:19:54.000Z</time>
      </trkpt>
      <trkpt lat="49.55717" lon="3.47635">
        <ele>195.4</ele>
        <time>2016-11-05T10:19:55.000Z</time>
      </trkpt>
      <trkpt lat="49.55724" lon="3.47628">
        <ele>194.4</ele>
        <time>2016-11-05T10:20:00.000Z</time>
      </trkpt>
      <trkpt lat="49.55725" lon="3.47627">
        <ele>194.2</ele>
        <time>2016-11-05T10:20:01.000Z</time>
      </trkpt>
      <trkpt lat="49.55733" lon="3.47624">
        <ele>194.4</ele>
        <time>2016-11-05T10:20:05.000Z</time>
      </trkpt>
      <trkpt lat="49.55736" lon="3.47624">
        <ele>193.7</ele>
        <time>2016-11-05T10:20:06.000Z</time>
      </trkpt>
      <trkpt lat="49.5574" lon="3.47615">
        <ele>191.1</ele>
        <time>2016-11-05T10:20:11.000Z</time>
      </trkpt>
      <trkpt lat="49.55741" lon="3.47612">
        <ele>190.9</ele>
        <time>2016-11-05T10:20:12.000Z</time>
      </trkpt>
      <trkpt lat="49.55746" lon="3.47602">
        <ele>191.6</ele>
        <time>2016-11-05T10:20:18.000Z</time>
      </trkpt>
      <trkpt lat="49.55747" lon="3.476">
        <ele>191.6</ele>
        <time>2016-11-05T10:20:19.000Z</time>
      </trkpt>
      <trkpt lat="49.55754" lon="3.47592">
        <ele>192.2</ele>
        <time>2016-11-05T10:20:32.000Z</time>
      </trkpt>
      <trkpt lat="49.55754" lon="3.4759">
        <ele>192.2</ele>
        <time>2016-11-05T10:20:33.000Z</time>
      </trkpt>
      <trkpt lat="49.55755" lon="3.4759">
        <ele>192</ele>
        <time>2016-11-05T10:20:34.000Z</time>
      </trkpt>
      <trkpt lat="49.55755" lon="3.4759">
        <ele>191.9</ele>
        <time>2016-11-05T10:21:06.000Z</time>
      </trkpt>
      <trkpt lat="49.5576" lon="3.4759">
        <ele>194.5</ele>
        <time>2016-11-05T10:21:07.000Z</time>
      </trkpt>
      <trkpt lat="49.55767" lon="3.47584">
        <ele>193</ele>
        <time>2016-11-05T10:21:14.000Z</time>
      </trkpt>
      <trkpt lat="49.55769" lon="3.47582">
        <ele>192.9</ele>
        <time>2016-11-05T10:21:15.000Z</time>
      </trkpt>
      <trkpt lat="49.55775" lon="3.47575">
        <ele>193.6</ele>
        <time>2016-11-05T10:21:19.000Z</time>
      </trkpt>
      <trkpt lat="49.55777" lon="3.47573">
        <ele>193.7</ele>
        <time>2016-11-05T10:21:20.000Z</time>
      </trkpt>
      <trkpt lat="49.55781" lon="3.47563">
        <ele>195</ele>
        <time>2016-11-05T10:21:26.000Z</time>
      </trkpt>
      <trkpt lat="49.55782" lon="3.4756">
        <ele>194.9</ele>
        <time>2016-11-05T10:21:27.000Z</time>
      </trkpt>
      <trkpt lat="49.55788" lon="3.47551">
        <ele>194.6</ele>
        <time>2016-11-05T10:21:32.000Z</time>
      </trkpt>
      <trkpt lat="49.55789" lon="3.47549">
        <ele>194.6</ele>
        <time>2016-11-05T10:21:33.000Z</time>
      </trkpt>
      <trkpt lat="49.55793" lon="3.47542">
        <ele>195</ele>
        <time>2016-11-05T10:21:36.000Z</time>
      </trkpt>
      <trkpt lat="49.55796" lon="3.47538">
        <ele>195.1</ele>
        <time>2016-11-05T10:21:37.000Z</time>
      </trkpt>
      <trkpt lat="49.55802" lon="3.47531">
        <ele>195.1</ele>
        <time>2016-11-05T10:21:39.000Z</time>
      </trkpt>
      <trkpt lat="49.55804" lon="3.47527">
        <ele>195.6</ele>
        <time>2016-11-05T10:21:40.000Z</time>
      </trkpt>
      <trkpt lat="49.5581" lon="3.47521">
        <ele>195.8</ele>
        <time>2016-11-05T10:21:42.000Z</time>
      </trkpt>
      <trkpt lat="49.55814" lon="3.47518">
        <ele>195.5</ele>
        <time>2016-11-05T10:21:43.000Z</time>
      </trkpt>
      <trkpt lat="49.55819" lon="3.47512">
        <ele>195.3</ele>
        <time>2016-11-05T10:21:45.000Z</time>
      </trkpt>
      <trkpt lat="49.55821" lon="3.47508">
        <ele>195.3</ele>
        <time>2016-11-05T10:21:46.000Z</time>
      </trkpt>
      <trkpt lat="49.55826" lon="3.47501">
        <ele>195.3</ele>
        <time>2016-11-05T10:21:48.000Z</time>
      </trkpt>
      <trkpt lat="49.55829" lon="3.47496">
        <ele>195.6</ele>
        <time>2016-11-05T10:21:49.000Z</time>
      </trkpt>
      <trkpt lat="49.55832" lon="3.47491">
        <ele>195.9</ele>
        <time>2016-11-05T10:21:50.000Z</time>
      </trkpt>
      <trkpt lat="49.55835" lon="3.47486">
        <ele>196.3</ele>
        <time>2016-11-05T10:21:51.000Z</time>
      </trkpt>
      <trkpt lat="49.55839" lon="3.47477">
        <ele>197.2</ele>
        <time>2016-11-05T10:21:53.000Z</time>
      </trkpt>
      <trkpt lat="49.55842" lon="3.47472">
        <ele>197.6</ele>
        <time>2016-11-05T10:21:54.000Z</time>
      </trkpt>
      <trkpt lat="49.55844" lon="3.47467">
        <ele>198</ele>
        <time>2016-11-05T10:21:55.000Z</time>
      </trkpt>
      <trkpt lat="49.55847" lon="3.4746">
        <ele>198.5</ele>
        <time>2016-11-05T10:21:56.000Z</time>
      </trkpt>
      <trkpt lat="49.55849" lon="3.47453">
        <ele>198.9</ele>
        <time>2016-11-05T10:21:57.000Z</time>
      </trkpt>
      <trkpt lat="49.55851" lon="3.47446">
        <ele>199</ele>
        <time>2016-11-05T10:21:58.000Z</time>
      </trkpt>
      <trkpt lat="49.55854" lon="3.47439">
        <ele>199</ele>
        <time>2016-11-05T10:21:59.000Z</time>
      </trkpt>
      <trkpt lat="49.55857" lon="3.47432">
        <ele>198.7</ele>
        <time>2016-11-05T10:22:00.000Z</time>
      </trkpt>
      <trkpt lat="49.55859" lon="3.47425">
        <ele>199.2</ele>
        <time>2016-11-05T10:22:01.000Z</time>
      </trkpt>
      <trkpt lat="49.5586" lon="3.47419">
        <ele>199.4</ele>
        <time>2016-11-05T10:22:02.000Z</time>
      </trkpt>
      <trkpt lat="49.55862" lon="3.47407">
        <ele>199.9</ele>
        <time>2016-11-05T10:22:04.000Z</time>
      </trkpt>
      <trkpt lat="49.55862" lon="3.47403">
        <ele>200.2</ele>
        <time>2016-11-05T10:22:05.000Z</time>
      </trkpt>
      <trkpt lat="49.55863" lon="3.4739">
        <ele>200.6</ele>
        <time>2016-11-05T10:22:09.000Z</time>
      </trkpt>
      <trkpt lat="49.55863" lon="3.47388">
        <ele>200.8</ele>
        <time>2016-11-05T10:22:10.000Z</time>
      </trkpt>
      <trkpt lat="49.55863" lon="3.47383">
        <ele>201.3</ele>
        <time>2016-11-05T10:22:13.000Z</time>
      </trkpt>
      <trkpt lat="49.55863" lon="3.47383">
        <ele>201.9</ele>
        <time>2016-11-05T10:22:14.000Z</time>
      </trkpt>
      <trkpt lat="49.55863" lon="3.47383">
        <ele>201.8</ele>
        <time>2016-11-05T10:22:23.000Z</time>
      </trkpt>
      <trkpt lat="49.55861" lon="3.47377">
        <ele>205.5</ele>
        <time>2016-11-05T10:22:24.000Z</time>
      </trkpt>
      <trkpt lat="49.55865" lon="3.47366">
        <ele>205.2</ele>
        <time>2016-11-05T10:22:30.000Z</time>
      </trkpt>
      <trkpt lat="49.55865" lon="3.47364">
        <ele>205</ele>
        <time>2016-11-05T10:22:31.000Z</time>
      </trkpt>
      <trkpt lat="49.55866" lon="3.47351">
        <ele>204.9</ele>
        <time>2016-11-05T10:22:38.000Z</time>
      </trkpt>
      <trkpt lat="49.55866" lon="3.4735">
        <ele>204.7</ele>
        <time>2016-11-05T10:22:39.000Z</time>
      </trkpt>
      <trkpt lat="49.55867" lon="3.47337">
        <ele>203.8</ele>
        <time>2016-11-05T10:22:46.000Z</time>
      </trkpt>
      <trkpt lat="49.55867" lon="3.47335">
        <ele>203.8</ele>
        <time>2016-11-05T10:22:47.000Z</time>
      </trkpt>
      <trkpt lat="49.5587" lon="3.47324">
        <ele>203.2</ele>
        <time>2016-11-05T10:22:52.000Z</time>
      </trkpt>
      <trkpt lat="49.5587" lon="3.47322">
        <ele>203.3</ele>
        <time>2016-11-05T10:22:53.000Z</time>
      </trkpt>
      <trkpt lat="49.55875" lon="3.4731">
        <ele>203.6</ele>
        <time>2016-11-05T10:22:59.000Z</time>
      </trkpt>
      <trkpt lat="49.55876" lon="3.47308">
        <ele>203.5</ele>
        <time>2016-11-05T10:23:00.000Z</time>
      </trkpt>
      <trkpt lat="49.5588" lon="3.47297">
        <ele>202.4</ele>
        <time>2016-11-05T10:23:05.000Z</time>
      </trkpt>
      <trkpt lat="49.5588" lon="3.47296">
        <ele>202.3</ele>
        <time>2016-11-05T10:23:06.000Z</time>
      </trkpt>
      <trkpt lat="49.55886" lon="3.47286">
        <ele>200.6</ele>
        <time>2016-11-05T10:23:12.000Z</time>
      </trkpt>
      <trkpt lat="49.55887" lon="3.47284">
        <ele>200.4</ele>
        <time>2016-11-05T10:23:13.000Z</time>
      </trkpt>
      <trkpt lat="49.55893" lon="3.47276">
        <ele>199.4</ele>
        <time>2016-11-05T10:23:17.000Z</time>
      </trkpt>
      <trkpt lat="49.55894" lon="3.47275">
        <ele>199</ele>
        <time>2016-11-05T10:23:18.000Z</time>
      </trkpt>
      <trkpt lat="49.559" lon="3.47267">
        <ele>198.3</ele>
        <time>2016-11-05T10:23:23.000Z</time>
      </trkpt>
      <trkpt lat="49.55902" lon="3.47265">
        <ele>198.1</ele>
        <time>2016-11-05T10:23:24.000Z</time>
      </trkpt>
      <trkpt lat="49.55907" lon="3.47257">
        <ele>196.9</ele>
        <time>2016-11-05T10:23:29.000Z</time>
      </trkpt>
      <trkpt lat="49.55909" lon="3.47255">
        <ele>196.9</ele>
        <time>2016-11-05T10:23:30.000Z</time>
      </trkpt>
      <trkpt lat="49.55915" lon="3.47248">
        <ele>195.6</ele>
        <time>2016-11-05T10:23:36.000Z</time>
      </trkpt>
      <trkpt lat="49.55916" lon="3.47247">
        <ele>195.4</ele>
        <time>2016-11-05T10:23:37.000Z</time>
      </trkpt>
      <trkpt lat="49.55921" lon="3.47237">
        <ele>192.7</ele>
        <time>2016-11-05T10:23:48.000Z</time>
      </trkpt>
      <trkpt lat="49.55922" lon="3.47236">
        <ele>192.7</ele>
        <time>2016-11-05T10:23:49.000Z</time>
      </trkpt>
      <trkpt lat="49.5593" lon="3.47231">
        <ele>192.5</ele>
        <time>2016-11-05T10:23:54.000Z</time>
      </trkpt>
      <trkpt lat="49.55932" lon="3.47231">
        <ele>192.2</ele>
        <time>2016-11-05T10:23:55.000Z</time>
      </trkpt>
      <trkpt lat="49.55939" lon="3.47229">
        <ele>191.9</ele>
        <time>2016-11-05T10:23:59.000Z</time>
      </trkpt>
      <trkpt lat="49.55941" lon="3.47228">
        <ele>191.7</ele>
        <time>2016-11-05T10:24:00.000Z</time>
      </trkpt>
      <trkpt lat="49.55948" lon="3.47225">
        <ele>191.5</ele>
        <time>2016-11-05T10:24:05.000Z</time>
      </trkpt>
      <trkpt lat="49.5595" lon="3.47225">
        <ele>191.4</ele>
        <time>2016-11-05T10:24:06.000Z</time>
      </trkpt>
      <trkpt lat="49.55959" lon="3.47222">
        <ele>190.5</ele>
        <time>2016-11-05T10:24:11.000Z</time>
      </trkpt>
      <trkpt lat="49.5596" lon="3.47221">
        <ele>190.5</ele>
        <time>2016-11-05T10:24:12.000Z</time>
      </trkpt>
      <trkpt lat="49.55968" lon="3.47217">
        <ele>190.3</ele>
        <time>2016-11-05T10:24:17.000Z</time>
      </trkpt>
      <trkpt lat="49.5597" lon="3.47217">
        <ele>190.2</ele>
        <time>2016-11-05T10:24:18.000Z</time>
      </trkpt>
      <trkpt lat="49.55978" lon="3.47213">
        <ele>189.7</ele>
        <time>2016-11-05T10:24:23.000Z</time>
      </trkpt>
      <trkpt lat="49.5598" lon="3.47212">
        <ele>189.5</ele>
        <time>2016-11-05T10:24:24.000Z</time>
      </trkpt>
      <trkpt lat="49.55987" lon="3.47206">
        <ele>188.6</ele>
        <time>2016-11-05T10:24:29.000Z</time>
      </trkpt>
      <trkpt lat="49.55989" lon="3.47205">
        <ele>188.6</ele>
        <time>2016-11-05T10:24:30.000Z</time>
      </trkpt>
      <trkpt lat="49.55997" lon="3.47202">
        <ele>188</ele>
        <time>2016-11-05T10:24:36.000Z</time>
      </trkpt>
      <trkpt lat="49.55998" lon="3.47201">
        <ele>187.8</ele>
        <time>2016-11-05T10:24:37.000Z</time>
      </trkpt>
      <trkpt lat="49.55993" lon="3.47212">
        <ele>185.7</ele>
        <time>2016-11-05T10:26:15.000Z</time>
      </trkpt>
      <trkpt lat="49.55992" lon="3.47213">
        <ele>185.7</ele>
        <time>2016-11-05T10:26:16.000Z</time>
      </trkpt>
      <trkpt lat="49.55986" lon="3.47218">
        <ele>186.2</ele>
        <time>2016-11-05T10:26:20.000Z</time>
      </trkpt>
      <trkpt lat="49.55983" lon="3.47219">
        <ele>186.2</ele>
        <time>2016-11-05T10:26:21.000Z</time>
      </trkpt>
      <trkpt lat="49.55977" lon="3.47221">
        <ele>186.5</ele>
        <time>2016-11-05T10:26:23.000Z</time>
      </trkpt>
      <trkpt lat="49.55973" lon="3.47222">
        <ele>186.8</ele>
        <time>2016-11-05T10:26:24.000Z</time>
      </trkpt>
      <trkpt lat="49.55967" lon="3.47225">
        <ele>187.1</ele>
        <time>2016-11-05T10:26:26.000Z</time>
      </trkpt>
      <trkpt lat="49.55964" lon="3.47225">
        <ele>187.3</ele>
        <time>2016-11-05T10:26:27.000Z</time>
      </trkpt>
      <trkpt lat="49.55956" lon="3.47226">
        <ele>187.1</ele>
        <time>2016-11-05T10:26:32.000Z</time>
      </trkpt>
      <trkpt lat="49.55954" lon="3.47227">
        <ele>186.9</ele>
        <time>2016-11-05T10:26:33.000Z</time>
      </trkpt>
      <trkpt lat="49.55949" lon="3.47229">
        <ele>187</ele>
        <time>2016-11-05T10:26:37.000Z</time>
      </trkpt>
      <trkpt lat="49.55948" lon="3.47229">
        <ele>187.2</ele>
        <time>2016-11-05T10:26:38.000Z</time>
      </trkpt>
      <trkpt lat="49.55948" lon="3.47229">
        <ele>187.3</ele>
        <time>2016-11-05T10:26:39.000Z</time>
      </trkpt>
      <trkpt lat="49.55939" lon="3.47234">
        <ele>187</ele>
        <time>2016-11-05T10:26:48.000Z</time>
      </trkpt>
      <trkpt lat="49.55938" lon="3.47234">
        <ele>187.1</ele>
        <time>2016-11-05T10:26:49.000Z</time>
      </trkpt>
      <trkpt lat="49.5593" lon="3.47235">
        <ele>187.2</ele>
        <time>2016-11-05T10:26:55.000Z</time>
      </trkpt>
      <trkpt lat="49.55928" lon="3.47235">
        <ele>187.1</ele>
        <time>2016-11-05T10:26:56.000Z</time>
      </trkpt>
      <trkpt lat="49.55921" lon="3.47238">
        <ele>188.1</ele>
        <time>2016-11-05T10:27:01.000Z</time>
      </trkpt>
      <trkpt lat="49.55919" lon="3.47238">
        <ele>188.4</ele>
        <time>2016-11-05T10:27:02.000Z</time>
      </trkpt>
      <trkpt lat="49.55912" lon="3.47239">
        <ele>189.4</ele>
        <time>2016-11-05T10:27:06.000Z</time>
      </trkpt>
      <trkpt lat="49.5591" lon="3.47239">
        <ele>190</ele>
        <time>2016-11-05T10:27:07.000Z</time>
      </trkpt>
      <trkpt lat="49.55902" lon="3.4724">
        <ele>191.2</ele>
        <time>2016-11-05T10:27:11.000Z</time>
      </trkpt>
      <trkpt lat="49.559" lon="3.47241">
        <ele>191.3</ele>
        <time>2016-11-05T10:27:12.000Z</time>
      </trkpt>
      <trkpt lat="49.55892" lon="3.4724">
        <ele>191.7</ele>
        <time>2016-11-05T10:27:17.000Z</time>
      </trkpt>
      <trkpt lat="49.5589" lon="3.47239">
        <ele>191.6</ele>
        <time>2016-11-05T10:27:18.000Z</time>
      </trkpt>
      <trkpt lat="49.55883" lon="3.47237">
        <ele>190.5</ele>
        <time>2016-11-05T10:27:21.000Z</time>
      </trkpt>
      <trkpt lat="49.55881" lon="3.47235">
        <ele>189.7</ele>
        <time>2016-11-05T10:27:22.000Z</time>
      </trkpt>
      <trkpt lat="49.55874" lon="3.4723">
        <ele>188.6</ele>
        <time>2016-11-05T10:27:26.000Z</time>
      </trkpt>
      <trkpt lat="49.55873" lon="3.47228">
        <ele>188.6</ele>
        <time>2016-11-05T10:27:27.000Z</time>
      </trkpt>
      <trkpt lat="49.55867" lon="3.4722">
        <ele>188.3</ele>
        <time>2016-11-05T10:27:35.000Z</time>
      </trkpt>
      <trkpt lat="49.55866" lon="3.47218">
        <ele>188.3</ele>
        <time>2016-11-05T10:27:36.000Z</time>
      </trkpt>
      <trkpt lat="49.55861" lon="3.4721">
        <ele>187.2</ele>
        <time>2016-11-05T10:27:41.000Z</time>
      </trkpt>
      <trkpt lat="49.5586" lon="3.47208">
        <ele>186.8</ele>
        <time>2016-11-05T10:27:42.000Z</time>
      </trkpt>
      <trkpt lat="49.55855" lon="3.47196">
        <ele>184.7</ele>
        <time>2016-11-05T10:27:48.000Z</time>
      </trkpt>
      <trkpt lat="49.55854" lon="3.47194">
        <ele>184.4</ele>
        <time>2016-11-05T10:27:49.000Z</time>
      </trkpt>
      <trkpt lat="49.55849" lon="3.47184">
        <ele>182.9</ele>
        <time>2016-11-05T10:27:56.000Z</time>
      </trkpt>
      <trkpt lat="49.55848" lon="3.47182">
        <ele>182.8</ele>
        <time>2016-11-05T10:27:57.000Z</time>
      </trkpt>
      <trkpt lat="49.55843" lon="3.47172">
        <ele>181.7</ele>
        <time>2016-11-05T10:28:03.000Z</time>
      </trkpt>
      <trkpt lat="49.55842" lon="3.4717">
        <ele>181.6</ele>
        <time>2016-11-05T10:28:04.000Z</time>
      </trkpt>
      <trkpt lat="49.55837" lon="3.4716">
        <ele>180.2</ele>
        <time>2016-11-05T10:28:10.000Z</time>
      </trkpt>
      <trkpt lat="49.55836" lon="3.47158">
        <ele>180</ele>
        <time>2016-11-05T10:28:11.000Z</time>
      </trkpt>
      <trkpt lat="49.55831" lon="3.47148">
        <ele>179.1</ele>
        <time>2016-11-05T10:28:17.000Z</time>
      </trkpt>
      <trkpt lat="49.5583" lon="3.47146">
        <ele>179.1</ele>
        <time>2016-11-05T10:28:18.000Z</time>
      </trkpt>
      <trkpt lat="49.55825" lon="3.47136">
        <ele>178.5</ele>
        <time>2016-11-05T10:28:23.000Z</time>
      </trkpt>
      <trkpt lat="49.55824" lon="3.47134">
        <ele>178.3</ele>
        <time>2016-11-05T10:28:24.000Z</time>
      </trkpt>
      <trkpt lat="49.55819" lon="3.47125">
        <ele>177.9</ele>
        <time>2016-11-05T10:28:29.000Z</time>
      </trkpt>
      <trkpt lat="49.55818" lon="3.47123">
        <ele>177.7</ele>
        <time>2016-11-05T10:28:30.000Z</time>
      </trkpt>
      <trkpt lat="49.55813" lon="3.47114">
        <ele>176.5</ele>
        <time>2016-11-05T10:28:35.000Z</time>
      </trkpt>
      <trkpt lat="49.55812" lon="3.47112">
        <ele>176.2</ele>
        <time>2016-11-05T10:28:36.000Z</time>
      </trkpt>
      <trkpt lat="49.55807" lon="3.47102">
        <ele>174.5</ele>
        <time>2016-11-05T10:28:42.000Z</time>
      </trkpt>
      <trkpt lat="49.55806" lon="3.471">
        <ele>174.2</ele>
        <time>2016-11-05T10:28:43.000Z</time>
      </trkpt>
      <trkpt lat="49.55801" lon="3.47091">
        <ele>173.3</ele>
        <time>2016-11-05T10:28:48.000Z</time>
      </trkpt>
      <trkpt lat="49.558" lon="3.47089">
        <ele>172.9</ele>
        <time>2016-11-05T10:28:49.000Z</time>
      </trkpt>
      <trkpt lat="49.55795" lon="3.47079">
        <ele>172.2</ele>
        <time>2016-11-05T10:28:54.000Z</time>
      </trkpt>
      <trkpt lat="49.55794" lon="3.47077">
        <ele>172.1</ele>
        <time>2016-11-05T10:28:55.000Z</time>
      </trkpt>
      <trkpt lat="49.5579" lon="3.47067">
        <ele>171</ele>
        <time>2016-11-05T10:29:00.000Z</time>
      </trkpt>
      <trkpt lat="49.55789" lon="3.47065">
        <ele>170.8</ele>
        <time>2016-11-05T10:29:01.000Z</time>
      </trkpt>
      <trkpt lat="49.55785" lon="3.47053">
        <ele>169.8</ele>
        <time>2016-11-05T10:29:07.000Z</time>
      </trkpt>
      <trkpt lat="49.55785" lon="3.47051">
        <ele>169.6</ele>
        <time>2016-11-05T10:29:08.000Z</time>
      </trkpt>
      <trkpt lat="49.55781" lon="3.47038">
        <ele>169.2</ele>
        <time>2016-11-05T10:29:14.000Z</time>
      </trkpt>
      <trkpt lat="49.5578" lon="3.47036">
        <ele>169.1</ele>
        <time>2016-11-05T10:29:15.000Z</time>
      </trkpt>
      <trkpt lat="49.55777" lon="3.47025">
        <ele>168.5</ele>
        <time>2016-11-05T10:29:20.000Z</time>
      </trkpt>
      <trkpt lat="49.55776" lon="3.47023">
        <ele>168.3</ele>
        <time>2016-11-05T10:29:21.000Z</time>
      </trkpt>
      <trkpt lat="49.55773" lon="3.4701">
        <ele>166.6</ele>
        <time>2016-11-05T10:29:27.000Z</time>
      </trkpt>
      <trkpt lat="49.55772" lon="3.47008">
        <ele>166.4</ele>
        <time>2016-11-05T10:29:28.000Z</time>
      </trkpt>
      <trkpt lat="49.55769" lon="3.46997">
        <ele>165.3</ele>
        <time>2016-11-05T10:29:34.000Z</time>
      </trkpt>
      <trkpt lat="49.55769" lon="3.46995">
        <ele>165.1</ele>
        <time>2016-11-05T10:29:35.000Z</time>
      </trkpt>
      <trkpt lat="49.55765" lon="3.46984">
        <ele>164.5</ele>
        <time>2016-11-05T10:29:40.000Z</time>
      </trkpt>
      <trkpt lat="49.55764" lon="3.46982">
        <ele>164.2</ele>
        <time>2016-11-05T10:29:41.000Z</time>
      </trkpt>
      <trkpt lat="49.55761" lon="3.46973">
        <ele>163.6</ele>
        <time>2016-11-05T10:29:45.000Z</time>
      </trkpt>
      <trkpt lat="49.5576" lon="3.4697">
        <ele>163.4</ele>
        <time>2016-11-05T10:29:46.000Z</time>
      </trkpt>
      <trkpt lat="49.55756" lon="3.46958">
        <ele>162.5</ele>
        <time>2016-11-05T10:29:51.000Z</time>
      </trkpt>
      <trkpt lat="49.55755" lon="3.46956">
        <ele>162.4</ele>
        <time>2016-11-05T10:29:52.000Z</time>
      </trkpt>
      <trkpt lat="49.55751" lon="3.46945">
        <ele>162.1</ele>
        <time>2016-11-05T10:29:57.000Z</time>
      </trkpt>
      <trkpt lat="49.55751" lon="3.46943">
        <ele>161.9</ele>
        <time>2016-11-05T10:29:58.000Z</time>
      </trkpt>
      <trkpt lat="49.55747" lon="3.46933">
        <ele>161.8</ele>
        <time>2016-11-05T10:30:03.000Z</time>
      </trkpt>
      <trkpt lat="49.55746" lon="3.46931">
        <ele>161.8</ele>
        <time>2016-11-05T10:30:04.000Z</time>
      </trkpt>
      <trkpt lat="49.55742" lon="3.46918">
        <ele>161.4</ele>
        <time>2016-11-05T10:30:09.000Z</time>
      </trkpt>
      <trkpt lat="49.55741" lon="3.46915">
        <ele>161.2</ele>
        <time>2016-11-05T10:30:10.000Z</time>
      </trkpt>
      <trkpt lat="49.55738" lon="3.46904">
        <ele>160.5</ele>
        <time>2016-11-05T10:30:15.000Z</time>
      </trkpt>
      <trkpt lat="49.55737" lon="3.46902">
        <ele>160.5</ele>
        <time>2016-11-05T10:30:16.000Z</time>
      </trkpt>
      <trkpt lat="49.55734" lon="3.4689">
        <ele>159.8</ele>
        <time>2016-11-05T10:30:22.000Z</time>
      </trkpt>
      <trkpt lat="49.55733" lon="3.46888">
        <ele>159.8</ele>
        <time>2016-11-05T10:30:23.000Z</time>
      </trkpt>
      <trkpt lat="49.5573" lon="3.46876">
        <ele>158.7</ele>
        <time>2016-11-05T10:30:29.000Z</time>
      </trkpt>
      <trkpt lat="49.5573" lon="3.46873">
        <ele>158.4</ele>
        <time>2016-11-05T10:30:30.000Z</time>
      </trkpt>
      <trkpt lat="49.55724" lon="3.46863">
        <ele>157.1</ele>
        <time>2016-11-05T10:30:35.000Z</time>
      </trkpt>
      <trkpt lat="49.55722" lon="3.46863">
        <ele>156.7</ele>
        <time>2016-11-05T10:30:36.000Z</time>
      </trkpt>
      <trkpt lat="49.55714" lon="3.46866">
        <ele>156</ele>
        <time>2016-11-05T10:30:42.000Z</time>
      </trkpt>
      <trkpt lat="49.55713" lon="3.46866">
        <ele>155.7</ele>
        <time>2016-11-05T10:30:43.000Z</time>
      </trkpt>
      <trkpt lat="49.55706" lon="3.46871">
        <ele>154.9</ele>
        <time>2016-11-05T10:30:48.000Z</time>
      </trkpt>
      <trkpt lat="49.55705" lon="3.46873">
        <ele>154.8</ele>
        <time>2016-11-05T10:30:49.000Z</time>
      </trkpt>
      <trkpt lat="49.55697" lon="3.46879">
        <ele>154</ele>
        <time>2016-11-05T10:30:55.000Z</time>
      </trkpt>
      <trkpt lat="49.55696" lon="3.4688">
        <ele>153.9</ele>
        <time>2016-11-05T10:30:56.000Z</time>
      </trkpt>
      <trkpt lat="49.55689" lon="3.46885">
        <ele>153.9</ele>
        <time>2016-11-05T10:31:01.000Z</time>
      </trkpt>
      <trkpt lat="49.55687" lon="3.46887">
        <ele>153.6</ele>
        <time>2016-11-05T10:31:02.000Z</time>
      </trkpt>
      <trkpt lat="49.5568" lon="3.46893">
        <ele>153.3</ele>
        <time>2016-11-05T10:31:07.000Z</time>
      </trkpt>
      <trkpt lat="49.55679" lon="3.46895">
        <ele>153.2</ele>
        <time>2016-11-05T10:31:08.000Z</time>
      </trkpt>
      <trkpt lat="49.55672" lon="3.46901">
        <ele>152.5</ele>
        <time>2016-11-05T10:31:13.000Z</time>
      </trkpt>
      <trkpt lat="49.5567" lon="3.46902">
        <ele>152.4</ele>
        <time>2016-11-05T10:31:14.000Z</time>
      </trkpt>
      <trkpt lat="49.55664" lon="3.46908">
        <ele>151.5</ele>
        <time>2016-11-05T10:31:19.000Z</time>
      </trkpt>
      <trkpt lat="49.55662" lon="3.4691">
        <ele>151.6</ele>
        <time>2016-11-05T10:31:20.000Z</time>
      </trkpt>
      <trkpt lat="49.55655" lon="3.46917">
        <ele>151.6</ele>
        <time>2016-11-05T10:31:26.000Z</time>
      </trkpt>
      <trkpt lat="49.55653" lon="3.46918">
        <ele>151.5</ele>
        <time>2016-11-05T10:31:27.000Z</time>
      </trkpt>
      <trkpt lat="49.55647" lon="3.46924">
        <ele>151.8</ele>
        <time>2016-11-05T10:31:32.000Z</time>
      </trkpt>
      <trkpt lat="49.55645" lon="3.46925">
        <ele>151.8</ele>
        <time>2016-11-05T10:31:33.000Z</time>
      </trkpt>
      <trkpt lat="49.55639" lon="3.46932">
        <ele>151.8</ele>
        <time>2016-11-05T10:31:38.000Z</time>
      </trkpt>
      <trkpt lat="49.55637" lon="3.46933">
        <ele>151.9</ele>
        <time>2016-11-05T10:31:39.000Z</time>
      </trkpt>
      <trkpt lat="49.5563" lon="3.46939">
        <ele>152.4</ele>
        <time>2016-11-05T10:31:45.000Z</time>
      </trkpt>
      <trkpt lat="49.55629" lon="3.4694">
        <ele>152.5</ele>
        <time>2016-11-05T10:31:46.000Z</time>
      </trkpt>
      <trkpt lat="49.55621" lon="3.46946">
        <ele>151.6</ele>
        <time>2016-11-05T10:31:52.000Z</time>
      </trkpt>
      <trkpt lat="49.5562" lon="3.46947">
        <ele>151.7</ele>
        <time>2016-11-05T10:31:53.000Z</time>
      </trkpt>
      <trkpt lat="49.55613" lon="3.46954">
        <ele>151.9</ele>
        <time>2016-11-05T10:31:59.000Z</time>
      </trkpt>
      <trkpt lat="49.55612" lon="3.46955">
        <ele>151.6</ele>
        <time>2016-11-05T10:32:00.000Z</time>
      </trkpt>
      <trkpt lat="49.55605" lon="3.46962">
        <ele>152.1</ele>
        <time>2016-11-05T10:32:05.000Z</time>
      </trkpt>
      <trkpt lat="49.55604" lon="3.46963">
        <ele>152.2</ele>
        <time>2016-11-05T10:32:06.000Z</time>
      </trkpt>
      <trkpt lat="49.55596" lon="3.46967">
        <ele>152.4</ele>
        <time>2016-11-05T10:32:12.000Z</time>
      </trkpt>
      <trkpt lat="49.55594" lon="3.46969">
        <ele>152.6</ele>
        <time>2016-11-05T10:32:13.000Z</time>
      </trkpt>
      <trkpt lat="49.55588" lon="3.46974">
        <ele>153.2</ele>
        <time>2016-11-05T10:32:16.000Z</time>
      </trkpt>
      <trkpt lat="49.55586" lon="3.46976">
        <ele>153.3</ele>
        <time>2016-11-05T10:32:17.000Z</time>
      </trkpt>
      <trkpt lat="49.55579" lon="3.46983">
        <ele>153.1</ele>
        <time>2016-11-05T10:32:20.000Z</time>
      </trkpt>
      <trkpt lat="49.55577" lon="3.46985">
        <ele>153.4</ele>
        <time>2016-11-05T10:32:21.000Z</time>
      </trkpt>
      <trkpt lat="49.55571" lon="3.46995">
        <ele>153.4</ele>
        <time>2016-11-05T10:32:24.000Z</time>
      </trkpt>
      <trkpt lat="49.55569" lon="3.46998">
        <ele>153.7</ele>
        <time>2016-11-05T10:32:25.000Z</time>
      </trkpt>
      <trkpt lat="49.55562" lon="3.47006">
        <ele>154</ele>
        <time>2016-11-05T10:32:28.000Z</time>
      </trkpt>
      <trkpt lat="49.5556" lon="3.47009">
        <ele>153.9</ele>
        <time>2016-11-05T10:32:29.000Z</time>
      </trkpt>
      <trkpt lat="49.55554" lon="3.47014">
        <ele>153.9</ele>
        <time>2016-11-05T10:32:32.000Z</time>
      </trkpt>
      <trkpt lat="49.55552" lon="3.47017">
        <ele>153.6</ele>
        <time>2016-11-05T10:32:33.000Z</time>
      </trkpt>
      <trkpt lat="49.55545" lon="3.47026">
        <ele>153.5</ele>
        <time>2016-11-05T10:32:38.000Z</time>
      </trkpt>
      <trkpt lat="49.55544" lon="3.47027">
        <ele>153.6</ele>
        <time>2016-11-05T10:32:39.000Z</time>
      </trkpt>
      <trkpt lat="49.55538" lon="3.47034">
        <ele>153.8</ele>
        <time>2016-11-05T10:32:44.000Z</time>
      </trkpt>
      <trkpt lat="49.55537" lon="3.47035">
        <ele>153.8</ele>
        <time>2016-11-05T10:32:45.000Z</time>
      </trkpt>
      <trkpt lat="49.55531" lon="3.47043">
        <ele>153.5</ele>
        <time>2016-11-05T10:32:50.000Z</time>
      </trkpt>
      <trkpt lat="49.55529" lon="3.47045">
        <ele>153.4</ele>
        <time>2016-11-05T10:32:51.000Z</time>
      </trkpt>
      <trkpt lat="49.55522" lon="3.47051">
        <ele>152.7</ele>
        <time>2016-11-05T10:32:56.000Z</time>
      </trkpt>
      <trkpt lat="49.55521" lon="3.47053">
        <ele>152.6</ele>
        <time>2016-11-05T10:32:57.000Z</time>
      </trkpt>
      <trkpt lat="49.55515" lon="3.4706">
        <ele>151.8</ele>
        <time>2016-11-05T10:33:02.000Z</time>
      </trkpt>
      <trkpt lat="49.55513" lon="3.47061">
        <ele>151.8</ele>
        <time>2016-11-05T10:33:03.000Z</time>
      </trkpt>
      <trkpt lat="49.55506" lon="3.47068">
        <ele>150.4</ele>
        <time>2016-11-05T10:33:08.000Z</time>
      </trkpt>
      <trkpt lat="49.55505" lon="3.4707">
        <ele>150.1</ele>
        <time>2016-11-05T10:33:09.000Z</time>
      </trkpt>
      <trkpt lat="49.55498" lon="3.47077">
        <ele>149.6</ele>
        <time>2016-11-05T10:33:14.000Z</time>
      </trkpt>
      <trkpt lat="49.55496" lon="3.47078">
        <ele>149.6</ele>
        <time>2016-11-05T10:33:15.000Z</time>
      </trkpt>
      <trkpt lat="49.55489" lon="3.47085">
        <ele>149.6</ele>
        <time>2016-11-05T10:33:20.000Z</time>
      </trkpt>
      <trkpt lat="49.55488" lon="3.47087">
        <ele>149.6</ele>
        <time>2016-11-05T10:33:21.000Z</time>
      </trkpt>
      <trkpt lat="49.55481" lon="3.47094">
        <ele>149</ele>
        <time>2016-11-05T10:33:26.000Z</time>
      </trkpt>
      <trkpt lat="49.5548" lon="3.47095">
        <ele>149</ele>
        <time>2016-11-05T10:33:27.000Z</time>
      </trkpt>
      <trkpt lat="49.55473" lon="3.47102">
        <ele>149.1</ele>
        <time>2016-11-05T10:33:32.000Z</time>
      </trkpt>
      <trkpt lat="49.55472" lon="3.47103">
        <ele>149</ele>
        <time>2016-11-05T10:33:33.000Z</time>
      </trkpt>
      <trkpt lat="49.55465" lon="3.4711">
        <ele>148.6</ele>
        <time>2016-11-05T10:33:37.000Z</time>
      </trkpt>
      <trkpt lat="49.55463" lon="3.47112">
        <ele>148.5</ele>
        <time>2016-11-05T10:33:38.000Z</time>
      </trkpt>
      <trkpt lat="49.55456" lon="3.47119">
        <ele>148.9</ele>
        <time>2016-11-05T10:33:41.000Z</time>
      </trkpt>
      <trkpt lat="49.55454" lon="3.47121">
        <ele>148.7</ele>
        <time>2016-11-05T10:33:42.000Z</time>
      </trkpt>
      <trkpt lat="49.55448" lon="3.47127">
        <ele>148.9</ele>
        <time>2016-11-05T10:33:45.000Z</time>
      </trkpt>
      <trkpt lat="49.55446" lon="3.47128">
        <ele>149.1</ele>
        <time>2016-11-05T10:33:46.000Z</time>
      </trkpt>
      <trkpt lat="49.55439" lon="3.47133">
        <ele>149</ele>
        <time>2016-11-05T10:33:51.000Z</time>
      </trkpt>
      <trkpt lat="49.55437" lon="3.47134">
        <ele>149.1</ele>
        <time>2016-11-05T10:33:52.000Z</time>
      </trkpt>
      <trkpt lat="49.55428" lon="3.47137">
        <ele>149.2</ele>
        <time>2016-11-05T10:33:58.000Z</time>
      </trkpt>
      <trkpt lat="49.55428" lon="3.47136">
        <ele>149.3</ele>
        <time>2016-11-05T10:33:59.000Z</time>
      </trkpt>
      <trkpt lat="49.55419" lon="3.47133">
        <ele>148.6</ele>
        <time>2016-11-05T10:34:06.000Z</time>
      </trkpt>
      <trkpt lat="49.55418" lon="3.47132">
        <ele>148.4</ele>
        <time>2016-11-05T10:34:07.000Z</time>
      </trkpt>
      <trkpt lat="49.55409" lon="3.47128">
        <ele>147.9</ele>
        <time>2016-11-05T10:34:12.000Z</time>
      </trkpt>
      <trkpt lat="49.55407" lon="3.47127">
        <ele>147.8</ele>
        <time>2016-11-05T10:34:13.000Z</time>
      </trkpt>
      <trkpt lat="49.554" lon="3.47123">
        <ele>148.2</ele>
        <time>2016-11-05T10:34:18.000Z</time>
      </trkpt>
      <trkpt lat="49.55399" lon="3.47121">
        <ele>148.4</ele>
        <time>2016-11-05T10:34:19.000Z</time>
      </trkpt>
      <trkpt lat="49.55394" lon="3.4711">
        <ele>149.5</ele>
        <time>2016-11-05T10:34:23.000Z</time>
      </trkpt>
      <trkpt lat="49.55393" lon="3.47108">
        <ele>149.5</ele>
        <time>2016-11-05T10:34:24.000Z</time>
      </trkpt>
      <trkpt lat="49.55389" lon="3.47096">
        <ele>149.6</ele>
        <time>2016-11-05T10:34:29.000Z</time>
      </trkpt>
      <trkpt lat="49.55388" lon="3.47094">
        <ele>149.6</ele>
        <time>2016-11-05T10:34:30.000Z</time>
      </trkpt>
      <trkpt lat="49.55385" lon="3.47082">
        <ele>148.7</ele>
        <time>2016-11-05T10:34:35.000Z</time>
      </trkpt>
      <trkpt lat="49.55385" lon="3.4708">
        <ele>148.5</ele>
        <time>2016-11-05T10:34:36.000Z</time>
      </trkpt>
      <trkpt lat="49.55383" lon="3.47069">
        <ele>147.4</ele>
        <time>2016-11-05T10:34:41.000Z</time>
      </trkpt>
      <trkpt lat="49.55382" lon="3.47066">
        <ele>147</ele>
        <time>2016-11-05T10:34:42.000Z</time>
      </trkpt>
      <trkpt lat="49.55378" lon="3.47055">
        <ele>146</ele>
        <time>2016-11-05T10:34:47.000Z</time>
      </trkpt>
      <trkpt lat="49.55377" lon="3.47052">
        <ele>145.7</ele>
        <time>2016-11-05T10:34:48.000Z</time>
      </trkpt>
      <trkpt lat="49.55373" lon="3.47042">
        <ele>146.4</ele>
        <time>2016-11-05T10:34:53.000Z</time>
      </trkpt>
      <trkpt lat="49.55372" lon="3.4704">
        <ele>146.2</ele>
        <time>2016-11-05T10:34:54.000Z</time>
      </trkpt>
      <trkpt lat="49.55368" lon="3.47029">
        <ele>145.5</ele>
        <time>2016-11-05T10:34:59.000Z</time>
      </trkpt>
      <trkpt lat="49.55367" lon="3.47027">
        <ele>145.3</ele>
        <time>2016-11-05T10:35:00.000Z</time>
      </trkpt>
      <trkpt lat="49.55364" lon="3.47016">
        <ele>144.8</ele>
        <time>2016-11-05T10:35:05.000Z</time>
      </trkpt>
      <trkpt lat="49.55363" lon="3.47014">
        <ele>144.9</ele>
        <time>2016-11-05T10:35:06.000Z</time>
      </trkpt>
      <trkpt lat="49.55357" lon="3.47003">
        <ele>144.5</ele>
        <time>2016-11-05T10:35:12.000Z</time>
      </trkpt>
      <trkpt lat="49.55357" lon="3.47001">
        <ele>144.5</ele>
        <time>2016-11-05T10:35:13.000Z</time>
      </trkpt>
      <trkpt lat="49.55353" lon="3.46991">
        <ele>144.6</ele>
        <time>2016-11-05T10:35:18.000Z</time>
      </trkpt>
      <trkpt lat="49.55352" lon="3.46989">
        <ele>144.5</ele>
        <time>2016-11-05T10:35:19.000Z</time>
      </trkpt>
      <trkpt lat="49.55349" lon="3.46978">
        <ele>144.1</ele>
        <time>2016-11-05T10:35:24.000Z</time>
      </trkpt>
      <trkpt lat="49.55348" lon="3.46975">
        <ele>143.9</ele>
        <time>2016-11-05T10:35:25.000Z</time>
      </trkpt>
      <trkpt lat="49.55345" lon="3.46964">
        <ele>143.3</ele>
        <time>2016-11-05T10:35:30.000Z</time>
      </trkpt>
      <trkpt lat="49.55344" lon="3.46961">
        <ele>143.1</ele>
        <time>2016-11-05T10:35:31.000Z</time>
      </trkpt>
      <trkpt lat="49.5534" lon="3.46951">
        <ele>143.2</ele>
        <time>2016-11-05T10:35:35.000Z</time>
      </trkpt>
      <trkpt lat="49.55339" lon="3.46949">
        <ele>143.1</ele>
        <time>2016-11-05T10:35:36.000Z</time>
      </trkpt>
      <trkpt lat="49.55337" lon="3.46937">
        <ele>142.6</ele>
        <time>2016-11-05T10:35:41.000Z</time>
      </trkpt>
      <trkpt lat="49.55336" lon="3.46935">
        <ele>142.6</ele>
        <time>2016-11-05T10:35:42.000Z</time>
      </trkpt>
      <trkpt lat="49.55332" lon="3.46924">
        <ele>142.7</ele>
        <time>2016-11-05T10:35:47.000Z</time>
      </trkpt>
      <trkpt lat="49.55331" lon="3.46922">
        <ele>142.7</ele>
        <time>2016-11-05T10:35:48.000Z</time>
      </trkpt>
      <trkpt lat="49.55327" lon="3.4691">
        <ele>142.8</ele>
        <time>2016-11-05T10:35:53.000Z</time>
      </trkpt>
      <trkpt lat="49.55326" lon="3.46908">
        <ele>142.8</ele>
        <time>2016-11-05T10:35:54.000Z</time>
      </trkpt>
      <trkpt lat="49.55323" lon="3.46898">
        <ele>143</ele>
        <time>2016-11-05T10:35:59.000Z</time>
      </trkpt>
      <trkpt lat="49.55322" lon="3.46895">
        <ele>142.6</ele>
        <time>2016-11-05T10:36:00.000Z</time>
      </trkpt>
      <trkpt lat="49.55318" lon="3.46885">
        <ele>142.6</ele>
        <time>2016-11-05T10:36:05.000Z</time>
      </trkpt>
      <trkpt lat="49.55317" lon="3.46882">
        <ele>142.5</ele>
        <time>2016-11-05T10:36:06.000Z</time>
      </trkpt>
      <trkpt lat="49.55313" lon="3.46872">
        <ele>142.4</ele>
        <time>2016-11-05T10:36:11.000Z</time>
      </trkpt>
      <trkpt lat="49.55312" lon="3.46869">
        <ele>142.4</ele>
        <time>2016-11-05T10:36:12.000Z</time>
      </trkpt>
      <trkpt lat="49.55308" lon="3.46858">
        <ele>142.5</ele>
        <time>2016-11-05T10:36:17.000Z</time>
      </trkpt>
      <trkpt lat="49.55307" lon="3.46856">
        <ele>142.5</ele>
        <time>2016-11-05T10:36:18.000Z</time>
      </trkpt>
      <trkpt lat="49.55302" lon="3.46845">
        <ele>143</ele>
        <time>2016-11-05T10:36:23.000Z</time>
      </trkpt>
      <trkpt lat="49.55301" lon="3.46844">
        <ele>143.2</ele>
        <time>2016-11-05T10:36:24.000Z</time>
      </trkpt>
      <trkpt lat="49.55294" lon="3.46835">
        <ele>143.9</ele>
        <time>2016-11-05T10:36:30.000Z</time>
      </trkpt>
      <trkpt lat="49.55292" lon="3.46835">
        <ele>144.1</ele>
        <time>2016-11-05T10:36:31.000Z</time>
      </trkpt>
      <trkpt lat="49.55284" lon="3.46839">
        <ele>143.1</ele>
        <time>2016-11-05T10:36:38.000Z</time>
      </trkpt>
      <trkpt lat="49.55283" lon="3.4684">
        <ele>143</ele>
        <time>2016-11-05T10:36:39.000Z</time>
      </trkpt>
      <trkpt lat="49.55275" lon="3.46847">
        <ele>143.2</ele>
        <time>2016-11-05T10:36:45.000Z</time>
      </trkpt>
      <trkpt lat="49.55274" lon="3.46849">
        <ele>143.2</ele>
        <time>2016-11-05T10:36:46.000Z</time>
      </trkpt>
      <trkpt lat="49.55267" lon="3.46855">
        <ele>143.2</ele>
        <time>2016-11-05T10:36:51.000Z</time>
      </trkpt>
      <trkpt lat="49.55266" lon="3.46856">
        <ele>143.2</ele>
        <time>2016-11-05T10:36:52.000Z</time>
      </trkpt>
      <trkpt lat="49.55259" lon="3.46864">
        <ele>142.4</ele>
        <time>2016-11-05T10:36:57.000Z</time>
      </trkpt>
      <trkpt lat="49.55258" lon="3.46865">
        <ele>142.3</ele>
        <time>2016-11-05T10:36:58.000Z</time>
      </trkpt>
      <trkpt lat="49.55251" lon="3.46872">
        <ele>142.3</ele>
        <time>2016-11-05T10:37:03.000Z</time>
      </trkpt>
      <trkpt lat="49.5525" lon="3.46873">
        <ele>142.2</ele>
        <time>2016-11-05T10:37:04.000Z</time>
      </trkpt>
      <trkpt lat="49.55243" lon="3.4688">
        <ele>142.2</ele>
        <time>2016-11-05T10:37:09.000Z</time>
      </trkpt>
      <trkpt lat="49.55242" lon="3.46881">
        <ele>142.1</ele>
        <time>2016-11-05T10:37:10.000Z</time>
      </trkpt>
      <trkpt lat="49.55236" lon="3.46888">
        <ele>142.1</ele>
        <time>2016-11-05T10:37:15.000Z</time>
      </trkpt>
      <trkpt lat="49.55234" lon="3.46889">
        <ele>142.1</ele>
        <time>2016-11-05T10:37:16.000Z</time>
      </trkpt>
      <trkpt lat="49.55227" lon="3.46897">
        <ele>141.5</ele>
        <time>2016-11-05T10:37:22.000Z</time>
      </trkpt>
      <trkpt lat="49.55226" lon="3.46898">
        <ele>141.3</ele>
        <time>2016-11-05T10:37:23.000Z</time>
      </trkpt>
      <trkpt lat="49.5522" lon="3.46904">
        <ele>140.6</ele>
        <time>2016-11-05T10:37:28.000Z</time>
      </trkpt>
      <trkpt lat="49.55219" lon="3.46905">
        <ele>140.4</ele>
        <time>2016-11-05T10:37:29.000Z</time>
      </trkpt>
      <trkpt lat="49.55211" lon="3.46911">
        <ele>140.6</ele>
        <time>2016-11-05T10:37:34.000Z</time>
      </trkpt>
      <trkpt lat="49.5521" lon="3.46912">
        <ele>140.6</ele>
        <time>2016-11-05T10:37:35.000Z</time>
      </trkpt>
      <trkpt lat="49.55202" lon="3.46912">
        <ele>140.5</ele>
        <time>2016-11-05T10:37:41.000Z</time>
      </trkpt>
      <trkpt lat="49.552" lon="3.46911">
        <ele>140.6</ele>
        <time>2016-11-05T10:37:42.000Z</time>
      </trkpt>
      <trkpt lat="49.55194" lon="3.46903">
        <ele>140.7</ele>
        <time>2016-11-05T10:37:47.000Z</time>
      </trkpt>
      <trkpt lat="49.55193" lon="3.46902">
        <ele>140.8</ele>
        <time>2016-11-05T10:37:48.000Z</time>
      </trkpt>
      <trkpt lat="49.55187" lon="3.46893">
        <ele>141.3</ele>
        <time>2016-11-05T10:37:54.000Z</time>
      </trkpt>
      <trkpt lat="49.55186" lon="3.46892">
        <ele>141.3</ele>
        <time>2016-11-05T10:37:55.000Z</time>
      </trkpt>
      <trkpt lat="49.5518" lon="3.46884">
        <ele>142.1</ele>
        <time>2016-11-05T10:38:00.000Z</time>
      </trkpt>
      <trkpt lat="49.55179" lon="3.46882">
        <ele>141.9</ele>
        <time>2016-11-05T10:38:01.000Z</time>
      </trkpt>
      <trkpt lat="49.55173" lon="3.46874">
        <ele>141.7</ele>
        <time>2016-11-05T10:38:07.000Z</time>
      </trkpt>
      <trkpt lat="49.55172" lon="3.46872">
        <ele>141.7</ele>
        <time>2016-11-05T10:38:08.000Z</time>
      </trkpt>
      <trkpt lat="49.55165" lon="3.46866">
        <ele>141.7</ele>
        <time>2016-11-05T10:38:13.000Z</time>
      </trkpt>
      <trkpt lat="49.55164" lon="3.46864">
        <ele>141.9</ele>
        <time>2016-11-05T10:38:14.000Z</time>
      </trkpt>
      <trkpt lat="49.55157" lon="3.46859">
        <ele>142.4</ele>
        <time>2016-11-05T10:38:17.000Z</time>
      </trkpt>
      <trkpt lat="49.55155" lon="3.46857">
        <ele>142.5</ele>
        <time>2016-11-05T10:38:18.000Z</time>
      </trkpt>
      <trkpt lat="49.55149" lon="3.46849">
        <ele>143.9</ele>
        <time>2016-11-05T10:38:23.000Z</time>
      </trkpt>
      <trkpt lat="49.55148" lon="3.46847">
        <ele>144.2</ele>
        <time>2016-11-05T10:38:24.000Z</time>
      </trkpt>
      <trkpt lat="49.55141" lon="3.46839">
        <ele>144.9</ele>
        <time>2016-11-05T10:38:30.000Z</time>
      </trkpt>
      <trkpt lat="49.5514" lon="3.46838">
        <ele>145.1</ele>
        <time>2016-11-05T10:38:31.000Z</time>
      </trkpt>
      <trkpt lat="49.55133" lon="3.46829">
        <ele>146.2</ele>
        <time>2016-11-05T10:38:37.000Z</time>
      </trkpt>
      <trkpt lat="49.55132" lon="3.46828">
        <ele>146.3</ele>
        <time>2016-11-05T10:38:38.000Z</time>
      </trkpt>
      <trkpt lat="49.55125" lon="3.46819">
        <ele>146.7</ele>
        <time>2016-11-05T10:38:43.000Z</time>
      </trkpt>
      <trkpt lat="49.55124" lon="3.46818">
        <ele>146.8</ele>
        <time>2016-11-05T10:38:44.000Z</time>
      </trkpt>
      <trkpt lat="49.55118" lon="3.4681">
        <ele>146.9</ele>
        <time>2016-11-05T10:38:49.000Z</time>
      </trkpt>
      <trkpt lat="49.55116" lon="3.46809">
        <ele>147</ele>
        <time>2016-11-05T10:38:50.000Z</time>
      </trkpt>
      <trkpt lat="49.5511" lon="3.468">
        <ele>147.9</ele>
        <time>2016-11-05T10:38:56.000Z</time>
      </trkpt>
      <trkpt lat="49.55109" lon="3.46799">
        <ele>148</ele>
        <time>2016-11-05T10:38:57.000Z</time>
      </trkpt>
      <trkpt lat="49.55101" lon="3.46791">
        <ele>148.6</ele>
        <time>2016-11-05T10:39:03.000Z</time>
      </trkpt>
      <trkpt lat="49.551" lon="3.4679">
        <ele>148.7</ele>
        <time>2016-11-05T10:39:04.000Z</time>
      </trkpt>
      <trkpt lat="49.55093" lon="3.46782">
        <ele>149.5</ele>
        <time>2016-11-05T10:39:10.000Z</time>
      </trkpt>
      <trkpt lat="49.55092" lon="3.46781">
        <ele>149.6</ele>
        <time>2016-11-05T10:39:11.000Z</time>
      </trkpt>
      <trkpt lat="49.55084" lon="3.46776">
        <ele>151.1</ele>
        <time>2016-11-05T10:39:17.000Z</time>
      </trkpt>
      <trkpt lat="49.55082" lon="3.46776">
        <ele>151.2</ele>
        <time>2016-11-05T10:39:18.000Z</time>
      </trkpt>
      <trkpt lat="49.55075" lon="3.46772">
        <ele>151.6</ele>
        <time>2016-11-05T10:39:23.000Z</time>
      </trkpt>
      <trkpt lat="49.55073" lon="3.46772">
        <ele>151.8</ele>
        <time>2016-11-05T10:39:24.000Z</time>
      </trkpt>
      <trkpt lat="49.55065" lon="3.46768">
        <ele>152.5</ele>
        <time>2016-11-05T10:39:30.000Z</time>
      </trkpt>
      <trkpt lat="49.55064" lon="3.46767">
        <ele>152.5</ele>
        <time>2016-11-05T10:39:31.000Z</time>
      </trkpt>
      <trkpt lat="49.55055" lon="3.46766">
        <ele>152.1</ele>
        <time>2016-11-05T10:39:36.000Z</time>
      </trkpt>
      <trkpt lat="49.55054" lon="3.46766">
        <ele>152.3</ele>
        <time>2016-11-05T10:39:37.000Z</time>
      </trkpt>
      <trkpt lat="49.55045" lon="3.46762">
        <ele>153.5</ele>
        <time>2016-11-05T10:39:43.000Z</time>
      </trkpt>
      <trkpt lat="49.55044" lon="3.46761">
        <ele>153.9</ele>
        <time>2016-11-05T10:39:44.000Z</time>
      </trkpt>
      <trkpt lat="49.55036" lon="3.46758">
        <ele>156.6</ele>
        <time>2016-11-05T10:39:50.000Z</time>
      </trkpt>
      <trkpt lat="49.55035" lon="3.46757">
        <ele>156.9</ele>
        <time>2016-11-05T10:39:51.000Z</time>
      </trkpt>
      <trkpt lat="49.55027" lon="3.46754">
        <ele>158.1</ele>
        <time>2016-11-05T10:39:57.000Z</time>
      </trkpt>
      <trkpt lat="49.55026" lon="3.46752">
        <ele>158.1</ele>
        <time>2016-11-05T10:39:58.000Z</time>
      </trkpt>
      <trkpt lat="49.55017" lon="3.46751">
        <ele>157.9</ele>
        <time>2016-11-05T10:40:07.000Z</time>
      </trkpt>
      <trkpt lat="49.55016" lon="3.46752">
        <ele>157.8</ele>
        <time>2016-11-05T10:40:08.000Z</time>
      </trkpt>
      <trkpt lat="49.55009" lon="3.46758">
        <ele>157.9</ele>
        <time>2016-11-05T10:40:14.000Z</time>
      </trkpt>
      <trkpt lat="49.55008" lon="3.4676">
        <ele>157.7</ele>
        <time>2016-11-05T10:40:15.000Z</time>
      </trkpt>
      <trkpt lat="49.55002" lon="3.46767">
        <ele>158.2</ele>
        <time>2016-11-05T10:40:21.000Z</time>
      </trkpt>
      <trkpt lat="49.55001" lon="3.46768">
        <ele>158.2</ele>
        <time>2016-11-05T10:40:22.000Z</time>
      </trkpt>
      <trkpt lat="49.54994" lon="3.46775">
        <ele>158</ele>
        <time>2016-11-05T10:40:28.000Z</time>
      </trkpt>
      <trkpt lat="49.54993" lon="3.46776">
        <ele>158</ele>
        <time>2016-11-05T10:40:29.000Z</time>
      </trkpt>
      <trkpt lat="49.54985" lon="3.46782">
        <ele>157.9</ele>
        <time>2016-11-05T10:40:35.000Z</time>
      </trkpt>
      <trkpt lat="49.54984" lon="3.46784">
        <ele>158</ele>
        <time>2016-11-05T10:40:36.000Z</time>
      </trkpt>
      <trkpt lat="49.54977" lon="3.4679">
        <ele>157.6</ele>
        <time>2016-11-05T10:40:42.000Z</time>
      </trkpt>
      <trkpt lat="49.54976" lon="3.46791">
        <ele>157.5</ele>
        <time>2016-11-05T10:40:43.000Z</time>
      </trkpt>
      <trkpt lat="49.54968" lon="3.46798">
        <ele>158</ele>
        <time>2016-11-05T10:40:49.000Z</time>
      </trkpt>
      <trkpt lat="49.54967" lon="3.46799">
        <ele>158</ele>
        <time>2016-11-05T10:40:50.000Z</time>
      </trkpt>
      <trkpt lat="49.54959" lon="3.46805">
        <ele>157.6</ele>
        <time>2016-11-05T10:40:56.000Z</time>
      </trkpt>
      <trkpt lat="49.54958" lon="3.46806">
        <ele>157.4</ele>
        <time>2016-11-05T10:40:57.000Z</time>
      </trkpt>
      <trkpt lat="49.54951" lon="3.46811">
        <ele>157.8</ele>
        <time>2016-11-05T10:41:02.000Z</time>
      </trkpt>
      <trkpt lat="49.54949" lon="3.46812">
        <ele>157.8</ele>
        <time>2016-11-05T10:41:03.000Z</time>
      </trkpt>
      <trkpt lat="49.54942" lon="3.46817">
        <ele>157.4</ele>
        <time>2016-11-05T10:41:08.000Z</time>
      </trkpt>
      <trkpt lat="49.5494" lon="3.46817">
        <ele>157.3</ele>
        <time>2016-11-05T10:41:09.000Z</time>
      </trkpt>
      <trkpt lat="49.54932" lon="3.46821">
        <ele>157.1</ele>
        <time>2016-11-05T10:41:15.000Z</time>
      </trkpt>
      <trkpt lat="49.54931" lon="3.46821">
        <ele>157.1</ele>
        <time>2016-11-05T10:41:16.000Z</time>
      </trkpt>
      <trkpt lat="49.54922" lon="3.46824">
        <ele>157.1</ele>
        <time>2016-11-05T10:41:22.000Z</time>
      </trkpt>
      <trkpt lat="49.5492" lon="3.46824">
        <ele>157.2</ele>
        <time>2016-11-05T10:41:23.000Z</time>
      </trkpt>
      <trkpt lat="49.54912" lon="3.46826">
        <ele>157.1</ele>
        <time>2016-11-05T10:41:28.000Z</time>
      </trkpt>
      <trkpt lat="49.54911" lon="3.46826">
        <ele>157</ele>
        <time>2016-11-05T10:41:29.000Z</time>
      </trkpt>
      <trkpt lat="49.54903" lon="3.46827">
        <ele>156.3</ele>
        <time>2016-11-05T10:41:34.000Z</time>
      </trkpt>
      <trkpt lat="49.54901" lon="3.46827">
        <ele>156.3</ele>
        <time>2016-11-05T10:41:35.000Z</time>
      </trkpt>
      <trkpt lat="49.54894" lon="3.46828">
        <ele>155.5</ele>
        <time>2016-11-05T10:41:40.000Z</time>
      </trkpt>
      <trkpt lat="49.54892" lon="3.46828">
        <ele>155.4</ele>
        <time>2016-11-05T10:41:41.000Z</time>
      </trkpt>
      <trkpt lat="49.54884" lon="3.46829">
        <ele>155.4</ele>
        <time>2016-11-05T10:41:46.000Z</time>
      </trkpt>
      <trkpt lat="49.54883" lon="3.46829">
        <ele>155.2</ele>
        <time>2016-11-05T10:41:47.000Z</time>
      </trkpt>
      <trkpt lat="49.54875" lon="3.4683">
        <ele>154.7</ele>
        <time>2016-11-05T10:41:52.000Z</time>
      </trkpt>
      <trkpt lat="49.54874" lon="3.4683">
        <ele>154.5</ele>
        <time>2016-11-05T10:41:53.000Z</time>
      </trkpt>
      <trkpt lat="49.54866" lon="3.4683">
        <ele>153.5</ele>
        <time>2016-11-05T10:41:58.000Z</time>
      </trkpt>
      <trkpt lat="49.54864" lon="3.4683">
        <ele>153.3</ele>
        <time>2016-11-05T10:41:59.000Z</time>
      </trkpt>
      <trkpt lat="49.54856" lon="3.4683">
        <ele>152.3</ele>
        <time>2016-11-05T10:42:04.000Z</time>
      </trkpt>
      <trkpt lat="49.54855" lon="3.4683">
        <ele>152.3</ele>
        <time>2016-11-05T10:42:05.000Z</time>
      </trkpt>
      <trkpt lat="49.54847" lon="3.46832">
        <ele>151.6</ele>
        <time>2016-11-05T10:42:10.000Z</time>
      </trkpt>
      <trkpt lat="49.54845" lon="3.46832">
        <ele>151.5</ele>
        <time>2016-11-05T10:42:11.000Z</time>
      </trkpt>
      <trkpt lat="49.54837" lon="3.46832">
        <ele>150.7</ele>
        <time>2016-11-05T10:42:17.000Z</time>
      </trkpt>
      <trkpt lat="49.54835" lon="3.46832">
        <ele>150.5</ele>
        <time>2016-11-05T10:42:18.000Z</time>
      </trkpt>
      <trkpt lat="49.54827" lon="3.46833">
        <ele>150</ele>
        <time>2016-11-05T10:42:23.000Z</time>
      </trkpt>
      <trkpt lat="49.54826" lon="3.46833">
        <ele>149.9</ele>
        <time>2016-11-05T10:42:24.000Z</time>
      </trkpt>
      <trkpt lat="49.54818" lon="3.46835">
        <ele>149.2</ele>
        <time>2016-11-05T10:42:29.000Z</time>
      </trkpt>
      <trkpt lat="49.54816" lon="3.46835">
        <ele>149.1</ele>
        <time>2016-11-05T10:42:30.000Z</time>
      </trkpt>
      <trkpt lat="49.54807" lon="3.46836">
        <ele>148.9</ele>
        <time>2016-11-05T10:42:36.000Z</time>
      </trkpt>
      <trkpt lat="49.54806" lon="3.46836">
        <ele>148.8</ele>
        <time>2016-11-05T10:42:37.000Z</time>
      </trkpt>
      <trkpt lat="49.54798" lon="3.46837">
        <ele>147.8</ele>
        <time>2016-11-05T10:42:43.000Z</time>
      </trkpt>
      <trkpt lat="49.54797" lon="3.46837">
        <ele>147.7</ele>
        <time>2016-11-05T10:42:44.000Z</time>
      </trkpt>
      <trkpt lat="49.54788" lon="3.46835">
        <ele>147.1</ele>
        <time>2016-11-05T10:42:50.000Z</time>
      </trkpt>
      <trkpt lat="49.54786" lon="3.46836">
        <ele>147.2</ele>
        <time>2016-11-05T10:42:51.000Z</time>
      </trkpt>
      <trkpt lat="49.54778" lon="3.46838">
        <ele>147</ele>
        <time>2016-11-05T10:42:57.000Z</time>
      </trkpt>
      <trkpt lat="49.54776" lon="3.46838">
        <ele>146.8</ele>
        <time>2016-11-05T10:42:58.000Z</time>
      </trkpt>
      <trkpt lat="49.54768" lon="3.46841">
        <ele>146.2</ele>
        <time>2016-11-05T10:43:03.000Z</time>
      </trkpt>
      <trkpt lat="49.54766" lon="3.46841">
        <ele>146.1</ele>
        <time>2016-11-05T10:43:04.000Z</time>
      </trkpt>
      <trkpt lat="49.54758" lon="3.46841">
        <ele>145.2</ele>
        <time>2016-11-05T10:43:09.000Z</time>
      </trkpt>
      <trkpt lat="49.54757" lon="3.46841">
        <ele>144.9</ele>
        <time>2016-11-05T10:43:10.000Z</time>
      </trkpt>
      <trkpt lat="49.54749" lon="3.46842">
        <ele>144.2</ele>
        <time>2016-11-05T10:43:15.000Z</time>
      </trkpt>
      <trkpt lat="49.54747" lon="3.46842">
        <ele>144</ele>
        <time>2016-11-05T10:43:16.000Z</time>
      </trkpt>
      <trkpt lat="49.54739" lon="3.46842">
        <ele>142.9</ele>
        <time>2016-11-05T10:43:21.000Z</time>
      </trkpt>
      <trkpt lat="49.54737" lon="3.46843">
        <ele>142.9</ele>
        <time>2016-11-05T10:43:22.000Z</time>
      </trkpt>
      <trkpt lat="49.5473" lon="3.46844">
        <ele>142.5</ele>
        <time>2016-11-05T10:43:27.000Z</time>
      </trkpt>
      <trkpt lat="49.54728" lon="3.46844">
        <ele>142.1</ele>
        <time>2016-11-05T10:43:28.000Z</time>
      </trkpt>
      <trkpt lat="49.5472" lon="3.46845">
        <ele>141.5</ele>
        <time>2016-11-05T10:43:33.000Z</time>
      </trkpt>
      <trkpt lat="49.54718" lon="3.46846">
        <ele>141.4</ele>
        <time>2016-11-05T10:43:34.000Z</time>
      </trkpt>
      <trkpt lat="49.5471" lon="3.46847">
        <ele>141</ele>
        <time>2016-11-05T10:43:39.000Z</time>
      </trkpt>
      <trkpt lat="49.54708" lon="3.46847">
        <ele>141</ele>
        <time>2016-11-05T10:43:40.000Z</time>
      </trkpt>
      <trkpt lat="49.54701" lon="3.46849">
        <ele>140.9</ele>
        <time>2016-11-05T10:43:45.000Z</time>
      </trkpt>
      <trkpt lat="49.54699" lon="3.46849">
        <ele>140.7</ele>
        <time>2016-11-05T10:43:46.000Z</time>
      </trkpt>
      <trkpt lat="49.5469" lon="3.46849">
        <ele>140.1</ele>
        <time>2016-11-05T10:43:51.000Z</time>
      </trkpt>
      <trkpt lat="49.54688" lon="3.46849">
        <ele>140</ele>
        <time>2016-11-05T10:43:52.000Z</time>
      </trkpt>
      <trkpt lat="49.54681" lon="3.46849">
        <ele>139.9</ele>
        <time>2016-11-05T10:43:57.000Z</time>
      </trkpt>
      <trkpt lat="49.54679" lon="3.46849">
        <ele>139.8</ele>
        <time>2016-11-05T10:43:58.000Z</time>
      </trkpt>
      <trkpt lat="49.54671" lon="3.46849">
        <ele>139.9</ele>
        <time>2016-11-05T10:44:03.000Z</time>
      </trkpt>
      <trkpt lat="49.54669" lon="3.46849">
        <ele>139.8</ele>
        <time>2016-11-05T10:44:04.000Z</time>
      </trkpt>
      <trkpt lat="49.54661" lon="3.46849">
        <ele>139.5</ele>
        <time>2016-11-05T10:44:09.000Z</time>
      </trkpt>
      <trkpt lat="49.5466" lon="3.46849">
        <ele>139.5</ele>
        <time>2016-11-05T10:44:10.000Z</time>
      </trkpt>
      <trkpt lat="49.54652" lon="3.46848">
        <ele>139</ele>
        <time>2016-11-05T10:44:15.000Z</time>
      </trkpt>
      <trkpt lat="49.5465" lon="3.46848">
        <ele>139</ele>
        <time>2016-11-05T10:44:16.000Z</time>
      </trkpt>
      <trkpt lat="49.54641" lon="3.46847">
        <ele>139</ele>
        <time>2016-11-05T10:44:22.000Z</time>
      </trkpt>
      <trkpt lat="49.5464" lon="3.46847">
        <ele>139.1</ele>
        <time>2016-11-05T10:44:23.000Z</time>
      </trkpt>
      <trkpt lat="49.54631" lon="3.46847">
        <ele>138.9</ele>
        <time>2016-11-05T10:44:28.000Z</time>
      </trkpt>
      <trkpt lat="49.5463" lon="3.46847">
        <ele>139</ele>
        <time>2016-11-05T10:44:29.000Z</time>
      </trkpt>
      <trkpt lat="49.54622" lon="3.46847">
        <ele>139.3</ele>
        <time>2016-11-05T10:44:34.000Z</time>
      </trkpt>
      <trkpt lat="49.5462" lon="3.46847">
        <ele>139.3</ele>
        <time>2016-11-05T10:44:35.000Z</time>
      </trkpt>
      <trkpt lat="49.54612" lon="3.46846">
        <ele>138.9</ele>
        <time>2016-11-05T10:44:40.000Z</time>
      </trkpt>
      <trkpt lat="49.54611" lon="3.46846">
        <ele>138.9</ele>
        <time>2016-11-05T10:44:41.000Z</time>
      </trkpt>
      <trkpt lat="49.54603" lon="3.46845">
        <ele>138.8</ele>
        <time>2016-11-05T10:44:46.000Z</time>
      </trkpt>
      <trkpt lat="49.54601" lon="3.46845">
        <ele>138.7</ele>
        <time>2016-11-05T10:44:47.000Z</time>
      </trkpt>
      <trkpt lat="49.54594" lon="3.46845">
        <ele>138.8</ele>
        <time>2016-11-05T10:44:52.000Z</time>
      </trkpt>
      <trkpt lat="49.54592" lon="3.46845">
        <ele>139</ele>
        <time>2016-11-05T10:44:53.000Z</time>
      </trkpt>
      <trkpt lat="49.54584" lon="3.46845">
        <ele>139.7</ele>
        <time>2016-11-05T10:44:58.000Z</time>
      </trkpt>
      <trkpt lat="49.54583" lon="3.46845">
        <ele>139.9</ele>
        <time>2016-11-05T10:44:59.000Z</time>
      </trkpt>
      <trkpt lat="49.54575" lon="3.46845">
        <ele>140.7</ele>
        <time>2016-11-05T10:45:04.000Z</time>
      </trkpt>
      <trkpt lat="49.54574" lon="3.46845">
        <ele>140.8</ele>
        <time>2016-11-05T10:45:05.000Z</time>
      </trkpt>
      <trkpt lat="49.54566" lon="3.46844">
        <ele>141</ele>
        <time>2016-11-05T10:45:09.000Z</time>
      </trkpt>
      <trkpt lat="49.54564" lon="3.46844">
        <ele>141</ele>
        <time>2016-11-05T10:45:10.000Z</time>
      </trkpt>
      <trkpt lat="49.54556" lon="3.46843">
        <ele>141.3</ele>
        <time>2016-11-05T10:45:14.000Z</time>
      </trkpt>
      <trkpt lat="49.54554" lon="3.46843">
        <ele>141.4</ele>
        <time>2016-11-05T10:45:15.000Z</time>
      </trkpt>
      <trkpt lat="49.54546" lon="3.46843">
        <ele>141.8</ele>
        <time>2016-11-05T10:45:19.000Z</time>
      </trkpt>
      <trkpt lat="49.54544" lon="3.46843">
        <ele>141.9</ele>
        <time>2016-11-05T10:45:20.000Z</time>
      </trkpt>
      <trkpt lat="49.54535" lon="3.46842">
        <ele>142.3</ele>
        <time>2016-11-05T10:45:24.000Z</time>
      </trkpt>
      <trkpt lat="49.54533" lon="3.46842">
        <ele>142.3</ele>
        <time>2016-11-05T10:45:25.000Z</time>
      </trkpt>
      <trkpt lat="49.54526" lon="3.46841">
        <ele>142.3</ele>
        <time>2016-11-05T10:45:28.000Z</time>
      </trkpt>
      <trkpt lat="49.54524" lon="3.46841">
        <ele>142.3</ele>
        <time>2016-11-05T10:45:29.000Z</time>
      </trkpt>
      <trkpt lat="49.54516" lon="3.4684">
        <ele>142.1</ele>
        <time>2016-11-05T10:45:33.000Z</time>
      </trkpt>
      <trkpt lat="49.54514" lon="3.4684">
        <ele>142.1</ele>
        <time>2016-11-05T10:45:34.000Z</time>
      </trkpt>
      <trkpt lat="49.54506" lon="3.4684">
        <ele>142.1</ele>
        <time>2016-11-05T10:45:38.000Z</time>
      </trkpt>
      <trkpt lat="49.54505" lon="3.4684">
        <ele>142.3</ele>
        <time>2016-11-05T10:45:39.000Z</time>
      </trkpt>
      <trkpt lat="49.54496" lon="3.46839">
        <ele>142.8</ele>
        <time>2016-11-05T10:45:44.000Z</time>
      </trkpt>
      <trkpt lat="49.54494" lon="3.46839">
        <ele>143.1</ele>
        <time>2016-11-05T10:45:45.000Z</time>
      </trkpt>
      <trkpt lat="49.54486" lon="3.4684">
        <ele>143.6</ele>
        <time>2016-11-05T10:45:49.000Z</time>
      </trkpt>
      <trkpt lat="49.54484" lon="3.4684">
        <ele>143.7</ele>
        <time>2016-11-05T10:45:50.000Z</time>
      </trkpt>
      <trkpt lat="49.54477" lon="3.4684">
        <ele>144.5</ele>
        <time>2016-11-05T10:45:54.000Z</time>
      </trkpt>
      <trkpt lat="49.54475" lon="3.4684">
        <ele>144.7</ele>
        <time>2016-11-05T10:45:55.000Z</time>
      </trkpt>
      <trkpt lat="49.54467" lon="3.4684">
        <ele>145.4</ele>
        <time>2016-11-05T10:45:59.000Z</time>
      </trkpt>
      <trkpt lat="49.54464" lon="3.4684">
        <ele>145.6</ele>
        <time>2016-11-05T10:46:00.000Z</time>
      </trkpt>
      <trkpt lat="49.54456" lon="3.4684">
        <ele>146</ele>
        <time>2016-11-05T10:46:05.000Z</time>
      </trkpt>
      <trkpt lat="49.54454" lon="3.46839">
        <ele>145.6</ele>
        <time>2016-11-05T10:46:06.000Z</time>
      </trkpt>
      <trkpt lat="49.54447" lon="3.46837">
        <ele>144.7</ele>
        <time>2016-11-05T10:46:11.000Z</time>
      </trkpt>
      <trkpt lat="49.54445" lon="3.46837">
        <ele>144.7</ele>
        <time>2016-11-05T10:46:12.000Z</time>
      </trkpt>
      <trkpt lat="49.54437" lon="3.46837">
        <ele>145.1</ele>
        <time>2016-11-05T10:46:17.000Z</time>
      </trkpt>
      <trkpt lat="49.54436" lon="3.46837">
        <ele>145.1</ele>
        <time>2016-11-05T10:46:18.000Z</time>
      </trkpt>
      <trkpt lat="49.54428" lon="3.46837">
        <ele>145.7</ele>
        <time>2016-11-05T10:46:23.000Z</time>
      </trkpt>
      <trkpt lat="49.54426" lon="3.46837">
        <ele>146</ele>
        <time>2016-11-05T10:46:24.000Z</time>
      </trkpt>
      <trkpt lat="49.54418" lon="3.46838">
        <ele>146.7</ele>
        <time>2016-11-05T10:46:29.000Z</time>
      </trkpt>
      <trkpt lat="49.54416" lon="3.46838">
        <ele>146.8</ele>
        <time>2016-11-05T10:46:30.000Z</time>
      </trkpt>
      <trkpt lat="49.54408" lon="3.46837">
        <ele>147.3</ele>
        <time>2016-11-05T10:46:36.000Z</time>
      </trkpt>
      <trkpt lat="49.54406" lon="3.46838">
        <ele>147.4</ele>
        <time>2016-11-05T10:46:37.000Z</time>
      </trkpt>
      <trkpt lat="49.54397" lon="3.46838">
        <ele>146</ele>
        <time>2016-11-05T10:46:42.000Z</time>
      </trkpt>
      <trkpt lat="49.54396" lon="3.46838">
        <ele>145.8</ele>
        <time>2016-11-05T10:46:43.000Z</time>
      </trkpt>
      <trkpt lat="49.54388" lon="3.46841">
        <ele>145.7</ele>
        <time>2016-11-05T10:46:48.000Z</time>
      </trkpt>
      <trkpt lat="49.54386" lon="3.46841">
        <ele>145.9</ele>
        <time>2016-11-05T10:46:49.000Z</time>
      </trkpt>
      <trkpt lat="49.54379" lon="3.46845">
        <ele>146.4</ele>
        <time>2016-11-05T10:46:54.000Z</time>
      </trkpt>
      <trkpt lat="49.54378" lon="3.46846">
        <ele>146.5</ele>
        <time>2016-11-05T10:46:55.000Z</time>
      </trkpt>
      <trkpt lat="49.5437" lon="3.46851">
        <ele>146.5</ele>
        <time>2016-11-05T10:47:01.000Z</time>
      </trkpt>
      <trkpt lat="49.54369" lon="3.46852">
        <ele>146.5</ele>
        <time>2016-11-05T10:47:02.000Z</time>
      </trkpt>
      <trkpt lat="49.54361" lon="3.46859">
        <ele>147.1</ele>
        <time>2016-11-05T10:47:08.000Z</time>
      </trkpt>
      <trkpt lat="49.5436" lon="3.4686">
        <ele>147.2</ele>
        <time>2016-11-05T10:47:09.000Z</time>
      </trkpt>
      <trkpt lat="49.54355" lon="3.4685">
        <ele>148.9</ele>
        <time>2016-11-05T10:47:20.000Z</time>
      </trkpt>
      <trkpt lat="49.54355" lon="3.46848">
        <ele>148.8</ele>
        <time>2016-11-05T10:47:21.000Z</time>
      </trkpt>
      <trkpt lat="49.5436" lon="3.46836">
        <ele>150.4</ele>
        <time>2016-11-05T10:47:26.000Z</time>
      </trkpt>
      <trkpt lat="49.54361" lon="3.46834">
        <ele>150.5</ele>
        <time>2016-11-05T10:47:27.000Z</time>
      </trkpt>
      <trkpt lat="49.54366" lon="3.46823">
        <ele>151</ele>
        <time>2016-11-05T10:47:33.000Z</time>
      </trkpt>
      <trkpt lat="49.54367" lon="3.46821">
        <ele>151</ele>
        <time>2016-11-05T10:47:34.000Z</time>
      </trkpt>
      <trkpt lat="49.54372" lon="3.4681">
        <ele>150.9</ele>
        <time>2016-11-05T10:47:40.000Z</time>
      </trkpt>
      <trkpt lat="49.54373" lon="3.46808">
        <ele>150.9</ele>
        <time>2016-11-05T10:47:41.000Z</time>
      </trkpt>
      <trkpt lat="49.54378" lon="3.46797">
        <ele>150.8</ele>
        <time>2016-11-05T10:47:45.000Z</time>
      </trkpt>
      <trkpt lat="49.54379" lon="3.46795">
        <ele>150.8</ele>
        <time>2016-11-05T10:47:46.000Z</time>
      </trkpt>
      <trkpt lat="49.54383" lon="3.46784">
        <ele>150.9</ele>
        <time>2016-11-05T10:47:51.000Z</time>
      </trkpt>
      <trkpt lat="49.54384" lon="3.46782">
        <ele>150.9</ele>
        <time>2016-11-05T10:47:52.000Z</time>
      </trkpt>
      <trkpt lat="49.54388" lon="3.46771">
        <ele>150.5</ele>
        <time>2016-11-05T10:47:57.000Z</time>
      </trkpt>
      <trkpt lat="49.54389" lon="3.46768">
        <ele>150.5</ele>
        <time>2016-11-05T10:47:58.000Z</time>
      </trkpt>
      <trkpt lat="49.54392" lon="3.46756">
        <ele>150.3</ele>
        <time>2016-11-05T10:48:03.000Z</time>
      </trkpt>
      <trkpt lat="49.54393" lon="3.46754">
        <ele>150.3</ele>
        <time>2016-11-05T10:48:04.000Z</time>
      </trkpt>
      <trkpt lat="49.54396" lon="3.46743">
        <ele>149.9</ele>
        <time>2016-11-05T10:48:09.000Z</time>
      </trkpt>
      <trkpt lat="49.54396" lon="3.4674">
        <ele>149.9</ele>
        <time>2016-11-05T10:48:10.000Z</time>
      </trkpt>
      <trkpt lat="49.54399" lon="3.46729">
        <ele>149.8</ele>
        <time>2016-11-05T10:48:15.000Z</time>
      </trkpt>
      <trkpt lat="49.54399" lon="3.46726">
        <ele>149.7</ele>
        <time>2016-11-05T10:48:16.000Z</time>
      </trkpt>
      <trkpt lat="49.54402" lon="3.46715">
        <ele>149.9</ele>
        <time>2016-11-05T10:48:21.000Z</time>
      </trkpt>
      <trkpt lat="49.54402" lon="3.46712">
        <ele>149.9</ele>
        <time>2016-11-05T10:48:22.000Z</time>
      </trkpt>
      <trkpt lat="49.54404" lon="3.467">
        <ele>150.1</ele>
        <time>2016-11-05T10:48:27.000Z</time>
      </trkpt>
      <trkpt lat="49.54404" lon="3.46697">
        <ele>150.1</ele>
        <time>2016-11-05T10:48:28.000Z</time>
      </trkpt>
      <trkpt lat="49.54407" lon="3.46685">
        <ele>149.8</ele>
        <time>2016-11-05T10:48:33.000Z</time>
      </trkpt>
      <trkpt lat="49.54408" lon="3.46683">
        <ele>149.6</ele>
        <time>2016-11-05T10:48:34.000Z</time>
      </trkpt>
      <trkpt lat="49.5441" lon="3.46671">
        <ele>149.4</ele>
        <time>2016-11-05T10:48:39.000Z</time>
      </trkpt>
      <trkpt lat="49.54411" lon="3.46669">
        <ele>149.5</ele>
        <time>2016-11-05T10:48:40.000Z</time>
      </trkpt>
      <trkpt lat="49.54413" lon="3.46657">
        <ele>149</ele>
        <time>2016-11-05T10:48:45.000Z</time>
      </trkpt>
      <trkpt lat="49.54413" lon="3.46654">
        <ele>149</ele>
        <time>2016-11-05T10:48:46.000Z</time>
      </trkpt>
      <trkpt lat="49.54414" lon="3.46642">
        <ele>148.8</ele>
        <time>2016-11-05T10:48:51.000Z</time>
      </trkpt>
      <trkpt lat="49.54415" lon="3.4664">
        <ele>148.9</ele>
        <time>2016-11-05T10:48:52.000Z</time>
      </trkpt>
      <trkpt lat="49.54417" lon="3.46629">
        <ele>148.5</ele>
        <time>2016-11-05T10:48:57.000Z</time>
      </trkpt>
      <trkpt lat="49.54417" lon="3.46626">
        <ele>148.5</ele>
        <time>2016-11-05T10:48:58.000Z</time>
      </trkpt>
      <trkpt lat="49.54419" lon="3.46615">
        <ele>149.2</ele>
        <time>2016-11-05T10:49:03.000Z</time>
      </trkpt>
      <trkpt lat="49.5442" lon="3.46613">
        <ele>149.2</ele>
        <time>2016-11-05T10:49:04.000Z</time>
      </trkpt>
      <trkpt lat="49.54424" lon="3.46601">
        <ele>148.9</ele>
        <time>2016-11-05T10:49:09.000Z</time>
      </trkpt>
      <trkpt lat="49.54425" lon="3.46599">
        <ele>149</ele>
        <time>2016-11-05T10:49:10.000Z</time>
      </trkpt>
      <trkpt lat="49.54429" lon="3.46587">
        <ele>149.7</ele>
        <time>2016-11-05T10:49:15.000Z</time>
      </trkpt>
      <trkpt lat="49.5443" lon="3.46585">
        <ele>149.9</ele>
        <time>2016-11-05T10:49:16.000Z</time>
      </trkpt>
      <trkpt lat="49.54435" lon="3.46576">
        <ele>150</ele>
        <time>2016-11-05T10:49:21.000Z</time>
      </trkpt>
      <trkpt lat="49.54436" lon="3.46575">
        <ele>149.9</ele>
        <time>2016-11-05T10:49:22.000Z</time>
      </trkpt>
      <trkpt lat="49.54441" lon="3.46566">
        <ele>150.2</ele>
        <time>2016-11-05T10:49:27.000Z</time>
      </trkpt>
      <trkpt lat="49.54442" lon="3.46565">
        <ele>150.3</ele>
        <time>2016-11-05T10:49:28.000Z</time>
      </trkpt>
      <trkpt lat="49.54448" lon="3.46556">
        <ele>151.4</ele>
        <time>2016-11-05T10:49:33.000Z</time>
      </trkpt>
      <trkpt lat="49.54449" lon="3.46554">
        <ele>151.6</ele>
        <time>2016-11-05T10:49:34.000Z</time>
      </trkpt>
      <trkpt lat="49.54455" lon="3.46545">
        <ele>152.3</ele>
        <time>2016-11-05T10:49:39.000Z</time>
      </trkpt>
      <trkpt lat="49.54457" lon="3.46543">
        <ele>152.5</ele>
        <time>2016-11-05T10:49:40.000Z</time>
      </trkpt>
      <trkpt lat="49.54463" lon="3.46536">
        <ele>153.1</ele>
        <time>2016-11-05T10:49:45.000Z</time>
      </trkpt>
      <trkpt lat="49.54464" lon="3.46534">
        <ele>153.2</ele>
        <time>2016-11-05T10:49:46.000Z</time>
      </trkpt>
      <trkpt lat="49.54471" lon="3.46526">
        <ele>154.8</ele>
        <time>2016-11-05T10:49:51.000Z</time>
      </trkpt>
      <trkpt lat="49.54472" lon="3.46525">
        <ele>155.1</ele>
        <time>2016-11-05T10:49:52.000Z</time>
      </trkpt>
      <trkpt lat="49.54478" lon="3.46517">
        <ele>156.1</ele>
        <time>2016-11-05T10:49:59.000Z</time>
      </trkpt>
      <trkpt lat="49.54479" lon="3.46516">
        <ele>156.3</ele>
        <time>2016-11-05T10:50:00.000Z</time>
      </trkpt>
      <trkpt lat="49.54487" lon="3.46509">
        <ele>155.9</ele>
        <time>2016-11-05T10:50:06.000Z</time>
      </trkpt>
      <trkpt lat="49.54488" lon="3.46507">
        <ele>156</ele>
        <time>2016-11-05T10:50:07.000Z</time>
      </trkpt>
      <trkpt lat="49.54496" lon="3.465">
        <ele>155.9</ele>
        <time>2016-11-05T10:50:13.000Z</time>
      </trkpt>
      <trkpt lat="49.54497" lon="3.46499">
        <ele>155.9</ele>
        <time>2016-11-05T10:50:14.000Z</time>
      </trkpt>
      <trkpt lat="49.54504" lon="3.46493">
        <ele>155.8</ele>
        <time>2016-11-05T10:50:19.000Z</time>
      </trkpt>
      <trkpt lat="49.54505" lon="3.46492">
        <ele>155.8</ele>
        <time>2016-11-05T10:50:20.000Z</time>
      </trkpt>
      <trkpt lat="49.54512" lon="3.46488">
        <ele>155.3</ele>
        <time>2016-11-05T10:50:25.000Z</time>
      </trkpt>
      <trkpt lat="49.54514" lon="3.46487">
        <ele>155.2</ele>
        <time>2016-11-05T10:50:26.000Z</time>
      </trkpt>
      <trkpt lat="49.54521" lon="3.46481">
        <ele>154.7</ele>
        <time>2016-11-05T10:50:31.000Z</time>
      </trkpt>
      <trkpt lat="49.54523" lon="3.4648">
        <ele>154.9</ele>
        <time>2016-11-05T10:50:32.000Z</time>
      </trkpt>
      <trkpt lat="49.54531" lon="3.46475">
        <ele>154.9</ele>
        <time>2016-11-05T10:50:38.000Z</time>
      </trkpt>
      <trkpt lat="49.54532" lon="3.46474">
        <ele>154.9</ele>
        <time>2016-11-05T10:50:39.000Z</time>
      </trkpt>
      <trkpt lat="49.5454" lon="3.4647">
        <ele>154.8</ele>
        <time>2016-11-05T10:50:44.000Z</time>
      </trkpt>
      <trkpt lat="49.54541" lon="3.46469">
        <ele>154.6</ele>
        <time>2016-11-05T10:50:45.000Z</time>
      </trkpt>
      <trkpt lat="49.54549" lon="3.46466">
        <ele>153.9</ele>
        <time>2016-11-05T10:50:50.000Z</time>
      </trkpt>
      <trkpt lat="49.5455" lon="3.46465">
        <ele>153.8</ele>
        <time>2016-11-05T10:50:51.000Z</time>
      </trkpt>
      <trkpt lat="49.54559" lon="3.46461">
        <ele>153.4</ele>
        <time>2016-11-05T10:50:56.000Z</time>
      </trkpt>
      <trkpt lat="49.5456" lon="3.4646">
        <ele>153.1</ele>
        <time>2016-11-05T10:50:57.000Z</time>
      </trkpt>
      <trkpt lat="49.54568" lon="3.46455">
        <ele>152.2</ele>
        <time>2016-11-05T10:51:02.000Z</time>
      </trkpt>
      <trkpt lat="49.5457" lon="3.46454">
        <ele>152.1</ele>
        <time>2016-11-05T10:51:03.000Z</time>
      </trkpt>
      <trkpt lat="49.54577" lon="3.4645">
        <ele>151.9</ele>
        <time>2016-11-05T10:51:08.000Z</time>
      </trkpt>
      <trkpt lat="49.54579" lon="3.46449">
        <ele>152</ele>
        <time>2016-11-05T10:51:09.000Z</time>
      </trkpt>
      <trkpt lat="49.54586" lon="3.46444">
        <ele>152</ele>
        <time>2016-11-05T10:51:14.000Z</time>
      </trkpt>
      <trkpt lat="49.54588" lon="3.46443">
        <ele>152.1</ele>
        <time>2016-11-05T10:51:15.000Z</time>
      </trkpt>
      <trkpt lat="49.54595" lon="3.46438">
        <ele>152.2</ele>
        <time>2016-11-05T10:51:20.000Z</time>
      </trkpt>
      <trkpt lat="49.54597" lon="3.46438">
        <ele>152.1</ele>
        <time>2016-11-05T10:51:21.000Z</time>
      </trkpt>
      <trkpt lat="49.54604" lon="3.46432">
        <ele>152.1</ele>
        <time>2016-11-05T10:51:26.000Z</time>
      </trkpt>
      <trkpt lat="49.54606" lon="3.46431">
        <ele>151.8</ele>
        <time>2016-11-05T10:51:27.000Z</time>
      </trkpt>
      <trkpt lat="49.54614" lon="3.46426">
        <ele>151.7</ele>
        <time>2016-11-05T10:51:32.000Z</time>
      </trkpt>
      <trkpt lat="49.54615" lon="3.46425">
        <ele>151.7</ele>
        <time>2016-11-05T10:51:33.000Z</time>
      </trkpt>
      <trkpt lat="49.54622" lon="3.4642">
        <ele>151.8</ele>
        <time>2016-11-05T10:51:38.000Z</time>
      </trkpt>
      <trkpt lat="49.54624" lon="3.46419">
        <ele>151.9</ele>
        <time>2016-11-05T10:51:39.000Z</time>
      </trkpt>
      <trkpt lat="49.54631" lon="3.46412">
        <ele>152.5</ele>
        <time>2016-11-05T10:51:44.000Z</time>
      </trkpt>
      <trkpt lat="49.54632" lon="3.46411">
        <ele>152.7</ele>
        <time>2016-11-05T10:51:45.000Z</time>
      </trkpt>
      <trkpt lat="49.54639" lon="3.46405">
        <ele>154</ele>
        <time>2016-11-05T10:51:50.000Z</time>
      </trkpt>
      <trkpt lat="49.5464" lon="3.46404">
        <ele>154.2</ele>
        <time>2016-11-05T10:51:51.000Z</time>
      </trkpt>
      <trkpt lat="49.54648" lon="3.46398">
        <ele>154.5</ele>
        <time>2016-11-05T10:51:56.000Z</time>
      </trkpt>
      <trkpt lat="49.54649" lon="3.46396">
        <ele>154.6</ele>
        <time>2016-11-05T10:51:57.000Z</time>
      </trkpt>
      <trkpt lat="49.54656" lon="3.46388">
        <ele>155.4</ele>
        <time>2016-11-05T10:52:02.000Z</time>
      </trkpt>
      <trkpt lat="49.54657" lon="3.46387">
        <ele>155.8</ele>
        <time>2016-11-05T10:52:03.000Z</time>
      </trkpt>
      <trkpt lat="49.54663" lon="3.46378">
        <ele>156.2</ele>
        <time>2016-11-05T10:52:09.000Z</time>
      </trkpt>
      <trkpt lat="49.54664" lon="3.46376">
        <ele>156.2</ele>
        <time>2016-11-05T10:52:10.000Z</time>
      </trkpt>
      <trkpt lat="49.54671" lon="3.46368">
        <ele>155.3</ele>
        <time>2016-11-05T10:52:16.000Z</time>
      </trkpt>
      <trkpt lat="49.54672" lon="3.46367">
        <ele>155.3</ele>
        <time>2016-11-05T10:52:17.000Z</time>
      </trkpt>
      <trkpt lat="49.54678" lon="3.46359">
        <ele>154.9</ele>
        <time>2016-11-05T10:52:23.000Z</time>
      </trkpt>
      <trkpt lat="49.5468" lon="3.46358">
        <ele>154.7</ele>
        <time>2016-11-05T10:52:24.000Z</time>
      </trkpt>
      <trkpt lat="49.54686" lon="3.46349">
        <ele>153.7</ele>
        <time>2016-11-05T10:52:30.000Z</time>
      </trkpt>
      <trkpt lat="49.54688" lon="3.46348">
        <ele>153.6</ele>
        <time>2016-11-05T10:52:31.000Z</time>
      </trkpt>
      <trkpt lat="49.54695" lon="3.4634">
        <ele>153.6</ele>
        <time>2016-11-05T10:52:37.000Z</time>
      </trkpt>
      <trkpt lat="49.54696" lon="3.46339">
        <ele>153.7</ele>
        <time>2016-11-05T10:52:38.000Z</time>
      </trkpt>
      <trkpt lat="49.54701" lon="3.4633">
        <ele>153.6</ele>
        <time>2016-11-05T10:52:43.000Z</time>
      </trkpt>
      <trkpt lat="49.54703" lon="3.46328">
        <ele>153.7</ele>
        <time>2016-11-05T10:52:44.000Z</time>
      </trkpt>
      <trkpt lat="49.54709" lon="3.46319">
        <ele>153.9</ele>
        <time>2016-11-05T10:52:50.000Z</time>
      </trkpt>
      <trkpt lat="49.5471" lon="3.46317">
        <ele>153.8</ele>
        <time>2016-11-05T10:52:51.000Z</time>
      </trkpt>
      <trkpt lat="49.54716" lon="3.46309">
        <ele>153.5</ele>
        <time>2016-11-05T10:52:56.000Z</time>
      </trkpt>
      <trkpt lat="49.54717" lon="3.46308">
        <ele>153.4</ele>
        <time>2016-11-05T10:52:57.000Z</time>
      </trkpt>
      <trkpt lat="49.54723" lon="3.46297">
        <ele>153</ele>
        <time>2016-11-05T10:53:03.000Z</time>
      </trkpt>
      <trkpt lat="49.54724" lon="3.46295">
        <ele>152.7</ele>
        <time>2016-11-05T10:53:04.000Z</time>
      </trkpt>
      <trkpt lat="49.54731" lon="3.46287">
        <ele>151.7</ele>
        <time>2016-11-05T10:53:09.000Z</time>
      </trkpt>
      <trkpt lat="49.54733" lon="3.46286">
        <ele>151.4</ele>
        <time>2016-11-05T10:53:10.000Z</time>
      </trkpt>
      <trkpt lat="49.5474" lon="3.46281">
        <ele>151.2</ele>
        <time>2016-11-05T10:53:15.000Z</time>
      </trkpt>
      <trkpt lat="49.54741" lon="3.46281">
        <ele>151.2</ele>
        <time>2016-11-05T10:53:16.000Z</time>
      </trkpt>
      <trkpt lat="49.54749" lon="3.46277">
        <ele>150.6</ele>
        <time>2016-11-05T10:53:22.000Z</time>
      </trkpt>
      <trkpt lat="49.5475" lon="3.46276">
        <ele>150.6</ele>
        <time>2016-11-05T10:53:23.000Z</time>
      </trkpt>
      <trkpt lat="49.54757" lon="3.46273">
        <ele>150.7</ele>
        <time>2016-11-05T10:53:29.000Z</time>
      </trkpt>
      <trkpt lat="49.54759" lon="3.46272">
        <ele>150.8</ele>
        <time>2016-11-05T10:53:30.000Z</time>
      </trkpt>
      <trkpt lat="49.54768" lon="3.46269">
        <ele>150.7</ele>
        <time>2016-11-05T10:53:35.000Z</time>
      </trkpt>
      <trkpt lat="49.54769" lon="3.46268">
        <ele>150.7</ele>
        <time>2016-11-05T10:53:36.000Z</time>
      </trkpt>
      <trkpt lat="49.54777" lon="3.46265">
        <ele>150</ele>
        <time>2016-11-05T10:53:41.000Z</time>
      </trkpt>
      <trkpt lat="49.54779" lon="3.46264">
        <ele>149.8</ele>
        <time>2016-11-05T10:53:42.000Z</time>
      </trkpt>
      <trkpt lat="49.54786" lon="3.46258">
        <ele>149.3</ele>
        <time>2016-11-05T10:53:47.000Z</time>
      </trkpt>
      <trkpt lat="49.54788" lon="3.46257">
        <ele>149.2</ele>
        <time>2016-11-05T10:53:48.000Z</time>
      </trkpt>
      <trkpt lat="49.54795" lon="3.4625">
        <ele>148.9</ele>
        <time>2016-11-05T10:53:53.000Z</time>
      </trkpt>
      <trkpt lat="49.54796" lon="3.46249">
        <ele>148.9</ele>
        <time>2016-11-05T10:53:54.000Z</time>
      </trkpt>
      <trkpt lat="49.54802" lon="3.4624">
        <ele>150.2</ele>
        <time>2016-11-05T10:54:00.000Z</time>
      </trkpt>
      <trkpt lat="49.54803" lon="3.46238">
        <ele>150.2</ele>
        <time>2016-11-05T10:54:01.000Z</time>
      </trkpt>
      <trkpt lat="49.5481" lon="3.4623">
        <ele>149.9</ele>
        <time>2016-11-05T10:54:07.000Z</time>
      </trkpt>
      <trkpt lat="49.54811" lon="3.46228">
        <ele>149.9</ele>
        <time>2016-11-05T10:54:08.000Z</time>
      </trkpt>
      <trkpt lat="49.54817" lon="3.46219">
        <ele>151</ele>
        <time>2016-11-05T10:54:14.000Z</time>
      </trkpt>
      <trkpt lat="49.54819" lon="3.46218">
        <ele>151</ele>
        <time>2016-11-05T10:54:15.000Z</time>
      </trkpt>
      <trkpt lat="49.54825" lon="3.46211">
        <ele>151.7</ele>
        <time>2016-11-05T10:54:20.000Z</time>
      </trkpt>
      <trkpt lat="49.54826" lon="3.46209">
        <ele>151.9</ele>
        <time>2016-11-05T10:54:21.000Z</time>
      </trkpt>
      <trkpt lat="49.54833" lon="3.46201">
        <ele>153.1</ele>
        <time>2016-11-05T10:54:27.000Z</time>
      </trkpt>
      <trkpt lat="49.54834" lon="3.46199">
        <ele>153.1</ele>
        <time>2016-11-05T10:54:28.000Z</time>
      </trkpt>
      <trkpt lat="49.54839" lon="3.46189">
        <ele>153.5</ele>
        <time>2016-11-05T10:54:34.000Z</time>
      </trkpt>
      <trkpt lat="49.5484" lon="3.46187">
        <ele>153.7</ele>
        <time>2016-11-05T10:54:35.000Z</time>
      </trkpt>
      <trkpt lat="49.54845" lon="3.46178">
        <ele>153.8</ele>
        <time>2016-11-05T10:54:40.000Z</time>
      </trkpt>
      <trkpt lat="49.54846" lon="3.46176">
        <ele>153.7</ele>
        <time>2016-11-05T10:54:41.000Z</time>
      </trkpt>
      <trkpt lat="49.5485" lon="3.46166">
        <ele>152.7</ele>
        <time>2016-11-05T10:54:46.000Z</time>
      </trkpt>
      <trkpt lat="49.54851" lon="3.46164">
        <ele>152.6</ele>
        <time>2016-11-05T10:54:47.000Z</time>
      </trkpt>
      <trkpt lat="49.54854" lon="3.46152">
        <ele>152.9</ele>
        <time>2016-11-05T10:54:53.000Z</time>
      </trkpt>
      <trkpt lat="49.54855" lon="3.46149">
        <ele>153</ele>
        <time>2016-11-05T10:54:54.000Z</time>
      </trkpt>
      <trkpt lat="49.54856" lon="3.46138">
        <ele>153</ele>
        <time>2016-11-05T10:54:59.000Z</time>
      </trkpt>
      <trkpt lat="49.54856" lon="3.46135">
        <ele>153</ele>
        <time>2016-11-05T10:55:00.000Z</time>
      </trkpt>
      <trkpt lat="49.54859" lon="3.46122">
        <ele>152.6</ele>
        <time>2016-11-05T10:55:06.000Z</time>
      </trkpt>
      <trkpt lat="49.54859" lon="3.4612">
        <ele>152.6</ele>
        <time>2016-11-05T10:55:07.000Z</time>
      </trkpt>
      <trkpt lat="49.54861" lon="3.46109">
        <ele>152.8</ele>
        <time>2016-11-05T10:55:12.000Z</time>
      </trkpt>
      <trkpt lat="49.54861" lon="3.46106">
        <ele>152.9</ele>
        <time>2016-11-05T10:55:13.000Z</time>
      </trkpt>
      <trkpt lat="49.54863" lon="3.46095">
        <ele>152.9</ele>
        <time>2016-11-05T10:55:18.000Z</time>
      </trkpt>
      <trkpt lat="49.54864" lon="3.46093">
        <ele>152.9</ele>
        <time>2016-11-05T10:55:19.000Z</time>
      </trkpt>
      <trkpt lat="49.54866" lon="3.4608">
        <ele>153.3</ele>
        <time>2016-11-05T10:55:25.000Z</time>
      </trkpt>
      <trkpt lat="49.54867" lon="3.46078">
        <ele>153.4</ele>
        <time>2016-11-05T10:55:26.000Z</time>
      </trkpt>
      <trkpt lat="49.54869" lon="3.46065">
        <ele>153.5</ele>
        <time>2016-11-05T10:55:31.000Z</time>
      </trkpt>
      <trkpt lat="49.54869" lon="3.46063">
        <ele>153.6</ele>
        <time>2016-11-05T10:55:32.000Z</time>
      </trkpt>
      <trkpt lat="49.54871" lon="3.46051">
        <ele>154</ele>
        <time>2016-11-05T10:55:37.000Z</time>
      </trkpt>
      <trkpt lat="49.54872" lon="3.46049">
        <ele>154.1</ele>
        <time>2016-11-05T10:55:38.000Z</time>
      </trkpt>
      <trkpt lat="49.54875" lon="3.46036">
        <ele>153.9</ele>
        <time>2016-11-05T10:55:44.000Z</time>
      </trkpt>
      <trkpt lat="49.54876" lon="3.46035">
        <ele>154</ele>
        <time>2016-11-05T10:55:45.000Z</time>
      </trkpt>
      <trkpt lat="49.54878" lon="3.46024">
        <ele>154</ele>
        <time>2016-11-05T10:55:50.000Z</time>
      </trkpt>
      <trkpt lat="49.54879" lon="3.46021">
        <ele>154</ele>
        <time>2016-11-05T10:55:51.000Z</time>
      </trkpt>
      <trkpt lat="49.54882" lon="3.4601">
        <ele>154.3</ele>
        <time>2016-11-05T10:55:56.000Z</time>
      </trkpt>
      <trkpt lat="49.54882" lon="3.46008">
        <ele>154.4</ele>
        <time>2016-11-05T10:55:57.000Z</time>
      </trkpt>
      <trkpt lat="49.54885" lon="3.45997">
        <ele>154.8</ele>
        <time>2016-11-05T10:56:02.000Z</time>
      </trkpt>
      <trkpt lat="49.54886" lon="3.45995">
        <ele>154.7</ele>
        <time>2016-11-05T10:56:03.000Z</time>
      </trkpt>
      <trkpt lat="49.54889" lon="3.45982">
        <ele>154.8</ele>
        <time>2016-11-05T10:56:09.000Z</time>
      </trkpt>
      <trkpt lat="49.54889" lon="3.4598">
        <ele>154.9</ele>
        <time>2016-11-05T10:56:10.000Z</time>
      </trkpt>
      <trkpt lat="49.54892" lon="3.45969">
        <ele>154.6</ele>
        <time>2016-11-05T10:56:15.000Z</time>
      </trkpt>
      <trkpt lat="49.54892" lon="3.45967">
        <ele>154.5</ele>
        <time>2016-11-05T10:56:16.000Z</time>
      </trkpt>
      <trkpt lat="49.54893" lon="3.45954">
        <ele>154.6</ele>
        <time>2016-11-05T10:56:21.000Z</time>
      </trkpt>
      <trkpt lat="49.54892" lon="3.45951">
        <ele>154.8</ele>
        <time>2016-11-05T10:56:22.000Z</time>
      </trkpt>
      <trkpt lat="49.54891" lon="3.4594">
        <ele>155.4</ele>
        <time>2016-11-05T10:56:25.000Z</time>
      </trkpt>
      <trkpt lat="49.5489" lon="3.45937">
        <ele>155.6</ele>
        <time>2016-11-05T10:56:26.000Z</time>
      </trkpt>
      <trkpt lat="49.54887" lon="3.45925">
        <ele>155.1</ele>
        <time>2016-11-05T10:56:31.000Z</time>
      </trkpt>
      <trkpt lat="49.54886" lon="3.45923">
        <ele>155.1</ele>
        <time>2016-11-05T10:56:32.000Z</time>
      </trkpt>
      <trkpt lat="49.54884" lon="3.45911">
        <ele>155.1</ele>
        <time>2016-11-05T10:56:37.000Z</time>
      </trkpt>
      <trkpt lat="49.54883" lon="3.45908">
        <ele>155.1</ele>
        <time>2016-11-05T10:56:38.000Z</time>
      </trkpt>
      <trkpt lat="49.54882" lon="3.45896">
        <ele>155.2</ele>
        <time>2016-11-05T10:56:42.000Z</time>
      </trkpt>
      <trkpt lat="49.54881" lon="3.45894">
        <ele>155.1</ele>
        <time>2016-11-05T10:56:43.000Z</time>
      </trkpt>
      <trkpt lat="49.5488" lon="3.4588">
        <ele>155.4</ele>
        <time>2016-11-05T10:56:49.000Z</time>
      </trkpt>
      <trkpt lat="49.54879" lon="3.45878">
        <ele>155.6</ele>
        <time>2016-11-05T10:56:50.000Z</time>
      </trkpt>
      <trkpt lat="49.54878" lon="3.45866">
        <ele>156.3</ele>
        <time>2016-11-05T10:56:55.000Z</time>
      </trkpt>
      <trkpt lat="49.54878" lon="3.45863">
        <ele>156.3</ele>
        <time>2016-11-05T10:56:56.000Z</time>
      </trkpt>
      <trkpt lat="49.54876" lon="3.4585">
        <ele>156.9</ele>
        <time>2016-11-05T10:57:02.000Z</time>
      </trkpt>
      <trkpt lat="49.54875" lon="3.45848">
        <ele>157.1</ele>
        <time>2016-11-05T10:57:03.000Z</time>
      </trkpt>
      <trkpt lat="49.54873" lon="3.45835">
        <ele>157.7</ele>
        <time>2016-11-05T10:57:08.000Z</time>
      </trkpt>
      <trkpt lat="49.54873" lon="3.45833">
        <ele>157.7</ele>
        <time>2016-11-05T10:57:09.000Z</time>
      </trkpt>
      <trkpt lat="49.54871" lon="3.45822">
        <ele>157.9</ele>
        <time>2016-11-05T10:57:14.000Z</time>
      </trkpt>
      <trkpt lat="49.54871" lon="3.4582">
        <ele>157.9</ele>
        <time>2016-11-05T10:57:15.000Z</time>
      </trkpt>
      <trkpt lat="49.54869" lon="3.45808">
        <ele>157.5</ele>
        <time>2016-11-05T10:57:20.000Z</time>
      </trkpt>
      <trkpt lat="49.54869" lon="3.45806">
        <ele>157.3</ele>
        <time>2016-11-05T10:57:21.000Z</time>
      </trkpt>
      <trkpt lat="49.54867" lon="3.45793">
        <ele>157.3</ele>
        <time>2016-11-05T10:57:26.000Z</time>
      </trkpt>
      <trkpt lat="49.54867" lon="3.4579">
        <ele>157.3</ele>
        <time>2016-11-05T10:57:27.000Z</time>
      </trkpt>
      <trkpt lat="49.54866" lon="3.45779">
        <ele>157.4</ele>
        <time>2016-11-05T10:57:32.000Z</time>
      </trkpt>
      <trkpt lat="49.54866" lon="3.45776">
        <ele>157.6</ele>
        <time>2016-11-05T10:57:33.000Z</time>
      </trkpt>
      <trkpt lat="49.54866" lon="3.45763">
        <ele>158.1</ele>
        <time>2016-11-05T10:57:39.000Z</time>
      </trkpt>
      <trkpt lat="49.54867" lon="3.45761">
        <ele>158.2</ele>
        <time>2016-11-05T10:57:40.000Z</time>
      </trkpt>
      <trkpt lat="49.54867" lon="3.45747">
        <ele>158.7</ele>
        <time>2016-11-05T10:57:46.000Z</time>
      </trkpt>
      <trkpt lat="49.54867" lon="3.45745">
        <ele>158.6</ele>
        <time>2016-11-05T10:57:47.000Z</time>
      </trkpt>
      <trkpt lat="49.54867" lon="3.45733">
        <ele>158.8</ele>
        <time>2016-11-05T10:57:53.000Z</time>
      </trkpt>
      <trkpt lat="49.54868" lon="3.45731">
        <ele>158.9</ele>
        <time>2016-11-05T10:57:54.000Z</time>
      </trkpt>
      <trkpt lat="49.54869" lon="3.45719">
        <ele>158.7</ele>
        <time>2016-11-05T10:57:59.000Z</time>
      </trkpt>
      <trkpt lat="49.54869" lon="3.45716">
        <ele>158.8</ele>
        <time>2016-11-05T10:58:00.000Z</time>
      </trkpt>
      <trkpt lat="49.54871" lon="3.45703">
        <ele>159.6</ele>
        <time>2016-11-05T10:58:04.000Z</time>
      </trkpt>
      <trkpt lat="49.54872" lon="3.457">
        <ele>159.8</ele>
        <time>2016-11-05T10:58:05.000Z</time>
      </trkpt>
      <trkpt lat="49.54873" lon="3.45687">
        <ele>160.4</ele>
        <time>2016-11-05T10:58:08.000Z</time>
      </trkpt>
      <trkpt lat="49.54874" lon="3.45683">
        <ele>160.7</ele>
        <time>2016-11-05T10:58:09.000Z</time>
      </trkpt>
      <trkpt lat="49.54875" lon="3.45671">
        <ele>161.3</ele>
        <time>2016-11-05T10:58:13.000Z</time>
      </trkpt>
      <trkpt lat="49.54875" lon="3.45669">
        <ele>161.5</ele>
        <time>2016-11-05T10:58:14.000Z</time>
      </trkpt>
      <trkpt lat="49.54875" lon="3.45657">
        <ele>161.9</ele>
        <time>2016-11-05T10:58:19.000Z</time>
      </trkpt>
      <trkpt lat="49.54876" lon="3.45655">
        <ele>161.9</ele>
        <time>2016-11-05T10:58:20.000Z</time>
      </trkpt>
      <trkpt lat="49.54877" lon="3.45641">
        <ele>161.6</ele>
        <time>2016-11-05T10:58:27.000Z</time>
      </trkpt>
      <trkpt lat="49.54877" lon="3.4564">
        <ele>161.9</ele>
        <time>2016-11-05T10:58:28.000Z</time>
      </trkpt>
      <trkpt lat="49.54876" lon="3.45626">
        <ele>162.8</ele>
        <time>2016-11-05T10:58:35.000Z</time>
      </trkpt>
      <trkpt lat="49.54876" lon="3.45624">
        <ele>162.6</ele>
        <time>2016-11-05T10:58:36.000Z</time>
      </trkpt>
      <trkpt lat="49.54877" lon="3.45612">
        <ele>163.2</ele>
        <time>2016-11-05T10:58:41.000Z</time>
      </trkpt>
      <trkpt lat="49.54877" lon="3.4561">
        <ele>163.3</ele>
        <time>2016-11-05T10:58:42.000Z</time>
      </trkpt>
      <trkpt lat="49.54878" lon="3.45597">
        <ele>164.1</ele>
        <time>2016-11-05T10:58:47.000Z</time>
      </trkpt>
      <trkpt lat="49.54878" lon="3.45594">
        <ele>164.2</ele>
        <time>2016-11-05T10:58:48.000Z</time>
      </trkpt>
      <trkpt lat="49.54878" lon="3.45582">
        <ele>163.9</ele>
        <time>2016-11-05T10:58:53.000Z</time>
      </trkpt>
      <trkpt lat="49.54878" lon="3.4558">
        <ele>163.7</ele>
        <time>2016-11-05T10:58:54.000Z</time>
      </trkpt>
      <trkpt lat="49.54878" lon="3.45566">
        <ele>162.2</ele>
        <time>2016-11-05T10:59:00.000Z</time>
      </trkpt>
      <trkpt lat="49.54878" lon="3.45564">
        <ele>162.1</ele>
        <time>2016-11-05T10:59:01.000Z</time>
      </trkpt>
      <trkpt lat="49.5488" lon="3.45551">
        <ele>161.7</ele>
        <time>2016-11-05T10:59:06.000Z</time>
      </trkpt>
      <trkpt lat="49.5488" lon="3.45549">
        <ele>161.6</ele>
        <time>2016-11-05T10:59:07.000Z</time>
      </trkpt>
      <trkpt lat="49.54881" lon="3.45536">
        <ele>162.7</ele>
        <time>2016-11-05T10:59:13.000Z</time>
      </trkpt>
      <trkpt lat="49.54882" lon="3.45533">
        <ele>162.9</ele>
        <time>2016-11-05T10:59:14.000Z</time>
      </trkpt>
      <trkpt lat="49.54881" lon="3.45521">
        <ele>164.5</ele>
        <time>2016-11-05T10:59:20.000Z</time>
      </trkpt>
      <trkpt lat="49.54881" lon="3.45519">
        <ele>164.7</ele>
        <time>2016-11-05T10:59:21.000Z</time>
      </trkpt>
      <trkpt lat="49.54882" lon="3.45506">
        <ele>165.9</ele>
        <time>2016-11-05T10:59:28.000Z</time>
      </trkpt>
      <trkpt lat="49.54882" lon="3.45504">
        <ele>166</ele>
        <time>2016-11-05T10:59:29.000Z</time>
      </trkpt>
      <trkpt lat="49.54883" lon="3.45492">
        <ele>166.8</ele>
        <time>2016-11-05T10:59:34.000Z</time>
      </trkpt>
      <trkpt lat="49.54883" lon="3.4549">
        <ele>166.9</ele>
        <time>2016-11-05T10:59:35.000Z</time>
      </trkpt>
      <trkpt lat="49.54884" lon="3.45478">
        <ele>168.2</ele>
        <time>2016-11-05T10:59:40.000Z</time>
      </trkpt>
      <trkpt lat="49.54884" lon="3.45475">
        <ele>168.6</ele>
        <time>2016-11-05T10:59:41.000Z</time>
      </trkpt>
      <trkpt lat="49.54884" lon="3.45462">
        <ele>170.4</ele>
        <time>2016-11-05T10:59:46.000Z</time>
      </trkpt>
      <trkpt lat="49.54883" lon="3.4546">
        <ele>170.6</ele>
        <time>2016-11-05T10:59:47.000Z</time>
      </trkpt>
      <trkpt lat="49.5488" lon="3.45451">
        <ele>171.3</ele>
        <time>2016-11-05T10:59:50.000Z</time>
      </trkpt>
      <trkpt lat="49.5488" lon="3.45447">
        <ele>171.6</ele>
        <time>2016-11-05T10:59:51.000Z</time>
      </trkpt>
      <trkpt lat="49.54878" lon="3.45435">
        <ele>172.5</ele>
        <time>2016-11-05T10:59:55.000Z</time>
      </trkpt>
      <trkpt lat="49.54877" lon="3.45433">
        <ele>172.6</ele>
        <time>2016-11-05T10:59:56.000Z</time>
      </trkpt>
      <trkpt lat="49.54874" lon="3.45423">
        <ele>172.7</ele>
        <time>2016-11-05T11:00:01.000Z</time>
      </trkpt>
      <trkpt lat="49.54872" lon="3.4542">
        <ele>172.8</ele>
        <time>2016-11-05T11:00:02.000Z</time>
      </trkpt>
      <trkpt lat="49.54868" lon="3.45409">
        <ele>173.9</ele>
        <time>2016-11-05T11:00:07.000Z</time>
      </trkpt>
      <trkpt lat="49.54868" lon="3.45406">
        <ele>174.6</ele>
        <time>2016-11-05T11:00:08.000Z</time>
      </trkpt>
      <trkpt lat="49.54864" lon="3.45395">
        <ele>178.4</ele>
        <time>2016-11-05T11:00:15.000Z</time>
      </trkpt>
      <trkpt lat="49.54864" lon="3.45393">
        <ele>178.9</ele>
        <time>2016-11-05T11:00:16.000Z</time>
      </trkpt>
      <trkpt lat="49.54862" lon="3.45382">
        <ele>180.9</ele>
        <time>2016-11-05T11:00:21.000Z</time>
      </trkpt>
      <trkpt lat="49.54861" lon="3.45379">
        <ele>181.3</ele>
        <time>2016-11-05T11:00:22.000Z</time>
      </trkpt>
      <trkpt lat="49.54858" lon="3.45367">
        <ele>183.6</ele>
        <time>2016-11-05T11:00:28.000Z</time>
      </trkpt>
      <trkpt lat="49.54857" lon="3.45365">
        <ele>183.9</ele>
        <time>2016-11-05T11:00:29.000Z</time>
      </trkpt>
      <trkpt lat="49.54852" lon="3.45353">
        <ele>185.6</ele>
        <time>2016-11-05T11:00:37.000Z</time>
      </trkpt>
      <trkpt lat="49.54852" lon="3.45352">
        <ele>185.6</ele>
        <time>2016-11-05T11:00:38.000Z</time>
      </trkpt>
      <trkpt lat="49.54848" lon="3.45339">
        <ele>186.6</ele>
        <time>2016-11-05T11:00:44.000Z</time>
      </trkpt>
      <trkpt lat="49.54848" lon="3.45337">
        <ele>186.7</ele>
        <time>2016-11-05T11:00:45.000Z</time>
      </trkpt>
      <trkpt lat="49.54851" lon="3.45325">
        <ele>188.4</ele>
        <time>2016-11-05T11:00:50.000Z</time>
      </trkpt>
      <trkpt lat="49.54852" lon="3.45323">
        <ele>188.7</ele>
        <time>2016-11-05T11:00:51.000Z</time>
      </trkpt>
      <trkpt lat="49.54852" lon="3.45316">
        <ele>190.5</ele>
        <time>2016-11-05T11:01:05.000Z</time>
      </trkpt>
      <trkpt lat="49.54852" lon="3.45315">
        <ele>190.7</ele>
        <time>2016-11-05T11:01:06.000Z</time>
      </trkpt>
      <trkpt lat="49.54851" lon="3.45315">
        <ele>190.9</ele>
        <time>2016-11-05T11:01:07.000Z</time>
      </trkpt>
      <trkpt lat="49.54851" lon="3.45313">
        <ele>190.7</ele>
        <time>2016-11-05T11:01:09.000Z</time>
      </trkpt>
      <trkpt lat="49.5485" lon="3.45312">
        <ele>190.4</ele>
        <time>2016-11-05T11:01:10.000Z</time>
      </trkpt>
      <trkpt lat="49.54849" lon="3.45311">
        <ele>190.2</ele>
        <time>2016-11-05T11:01:19.000Z</time>
      </trkpt>
      <trkpt lat="49.54849" lon="3.45305">
        <ele>190.8</ele>
        <time>2016-11-05T11:01:20.000Z</time>
      </trkpt>
      <trkpt lat="49.54842" lon="3.45296">
        <ele>192.3</ele>
        <time>2016-11-05T11:01:28.000Z</time>
      </trkpt>
      <trkpt lat="49.54842" lon="3.45295">
        <ele>192.6</ele>
        <time>2016-11-05T11:01:29.000Z</time>
      </trkpt>
      <trkpt lat="49.54836" lon="3.45286">
        <ele>195.3</ele>
        <time>2016-11-05T11:01:38.000Z</time>
      </trkpt>
      <trkpt lat="49.54836" lon="3.45284">
        <ele>195.4</ele>
        <time>2016-11-05T11:01:39.000Z</time>
      </trkpt>
      <trkpt lat="49.54836" lon="3.45275">
        <ele>195.4</ele>
        <time>2016-11-05T11:01:47.000Z</time>
      </trkpt>
      <trkpt lat="49.54836" lon="3.45273">
        <ele>195.4</ele>
        <time>2016-11-05T11:01:48.000Z</time>
      </trkpt>
      <trkpt lat="49.54837" lon="3.45273">
        <ele>195.6</ele>
        <time>2016-11-05T11:01:49.000Z</time>
      </trkpt>
      <trkpt lat="49.54837" lon="3.45272">
        <ele>195.8</ele>
        <time>2016-11-05T11:01:50.000Z</time>
      </trkpt>
      <trkpt lat="49.54837" lon="3.45272">
        <ele>196</ele>
        <time>2016-11-05T11:01:51.000Z</time>
      </trkpt>
      <trkpt lat="49.54837" lon="3.45271">
        <ele>196.2</ele>
        <time>2016-11-05T11:01:52.000Z</time>
      </trkpt>
      <trkpt lat="49.54836" lon="3.45268">
        <ele>198.4</ele>
        <time>2016-11-05T11:02:23.000Z</time>
      </trkpt>
      <trkpt lat="49.54837" lon="3.45256">
        <ele>206</ele>
        <time>2016-11-05T11:02:24.000Z</time>
      </trkpt>
      <trkpt lat="49.54836" lon="3.45253">
        <ele>206.1</ele>
        <time>2016-11-05T11:02:27.000Z</time>
      </trkpt>
      <trkpt lat="49.54836" lon="3.45252">
        <ele>206.2</ele>
        <time>2016-11-05T11:02:28.000Z</time>
      </trkpt>
      <trkpt lat="49.54837" lon="3.45251">
        <ele>206.2</ele>
        <time>2016-11-05T11:02:29.000Z</time>
      </trkpt>
      <trkpt lat="49.54839" lon="3.45254">
        <ele>206.3</ele>
        <time>2016-11-05T11:02:32.000Z</time>
      </trkpt>
      <trkpt lat="49.54839" lon="3.45255">
        <ele>206.2</ele>
        <time>2016-11-05T11:02:33.000Z</time>
      </trkpt>
      <trkpt lat="49.54839" lon="3.45255">
        <ele>206.1</ele>
        <time>2016-11-05T11:02:36.000Z</time>
      </trkpt>
      <trkpt lat="49.5484" lon="3.45253">
        <ele>205.6</ele>
        <time>2016-11-05T11:02:37.000Z</time>
      </trkpt>
      <trkpt lat="49.54837" lon="3.4524">
        <ele>203.9</ele>
        <time>2016-11-05T11:02:49.000Z</time>
      </trkpt>
      <trkpt lat="49.54837" lon="3.45238">
        <ele>204.1</ele>
        <time>2016-11-05T11:02:50.000Z</time>
      </trkpt>
      <trkpt lat="49.54836" lon="3.45225">
        <ele>203.7</ele>
        <time>2016-11-05T11:02:58.000Z</time>
      </trkpt>
      <trkpt lat="49.54836" lon="3.45223">
        <ele>203.7</ele>
        <time>2016-11-05T11:02:59.000Z</time>
      </trkpt>
      <trkpt lat="49.54836" lon="3.4521">
        <ele>204</ele>
        <time>2016-11-05T11:03:05.000Z</time>
      </trkpt>
      <trkpt lat="49.54836" lon="3.45207">
        <ele>204.1</ele>
        <time>2016-11-05T11:03:06.000Z</time>
      </trkpt>
      <trkpt lat="49.54837" lon="3.45195">
        <ele>204.1</ele>
        <time>2016-11-05T11:03:12.000Z</time>
      </trkpt>
      <trkpt lat="49.54837" lon="3.45193">
        <ele>204.4</ele>
        <time>2016-11-05T11:03:13.000Z</time>
      </trkpt>
      <trkpt lat="49.54841" lon="3.45181">
        <ele>205.2</ele>
        <time>2016-11-05T11:03:18.000Z</time>
      </trkpt>
      <trkpt lat="49.54842" lon="3.45179">
        <ele>205.4</ele>
        <time>2016-11-05T11:03:19.000Z</time>
      </trkpt>
      <trkpt lat="49.54844" lon="3.45167">
        <ele>206.2</ele>
        <time>2016-11-05T11:03:24.000Z</time>
      </trkpt>
      <trkpt lat="49.54844" lon="3.45165">
        <ele>206.3</ele>
        <time>2016-11-05T11:03:25.000Z</time>
      </trkpt>
      <trkpt lat="49.54847" lon="3.45152">
        <ele>207.2</ele>
        <time>2016-11-05T11:03:31.000Z</time>
      </trkpt>
      <trkpt lat="49.54848" lon="3.4515">
        <ele>207.3</ele>
        <time>2016-11-05T11:03:32.000Z</time>
      </trkpt>
      <trkpt lat="49.54851" lon="3.45138">
        <ele>208.5</ele>
        <time>2016-11-05T11:03:39.000Z</time>
      </trkpt>
      <trkpt lat="49.54853" lon="3.45136">
        <ele>208.8</ele>
        <time>2016-11-05T11:03:40.000Z</time>
      </trkpt>
      <trkpt lat="49.54856" lon="3.45126">
        <ele>210</ele>
        <time>2016-11-05T11:03:48.000Z</time>
      </trkpt>
      <trkpt lat="49.54857" lon="3.45123">
        <ele>210.1</ele>
        <time>2016-11-05T11:03:49.000Z</time>
      </trkpt>
      <trkpt lat="49.54861" lon="3.45112">
        <ele>209.7</ele>
        <time>2016-11-05T11:03:54.000Z</time>
      </trkpt>
      <trkpt lat="49.54861" lon="3.4511">
        <ele>209.7</ele>
        <time>2016-11-05T11:03:55.000Z</time>
      </trkpt>
      <trkpt lat="49.54863" lon="3.45098">
        <ele>210</ele>
        <time>2016-11-05T11:04:04.000Z</time>
      </trkpt>
      <trkpt lat="49.54864" lon="3.45095">
        <ele>210</ele>
        <time>2016-11-05T11:04:05.000Z</time>
      </trkpt>
      <trkpt lat="49.54867" lon="3.45089">
        <ele>210.4</ele>
        <time>2016-11-05T11:04:09.000Z</time>
      </trkpt>
      <trkpt lat="49.54871" lon="3.45087">
        <ele>211.2</ele>
        <time>2016-11-05T11:04:10.000Z</time>
      </trkpt>
      <trkpt lat="49.54878" lon="3.45081">
        <ele>212.4</ele>
        <time>2016-11-05T11:04:14.000Z</time>
      </trkpt>
      <trkpt lat="49.54879" lon="3.45081">
        <ele>212.8</ele>
        <time>2016-11-05T11:04:15.000Z</time>
      </trkpt>
      <trkpt lat="49.54888" lon="3.45082">
        <ele>214.1</ele>
        <time>2016-11-05T11:04:21.000Z</time>
      </trkpt>
      <trkpt lat="49.5489" lon="3.45083">
        <ele>214.1</ele>
        <time>2016-11-05T11:04:22.000Z</time>
      </trkpt>
      <trkpt lat="49.54896" lon="3.45083">
        <ele>214.9</ele>
        <time>2016-11-05T11:04:27.000Z</time>
      </trkpt>
      <trkpt lat="49.54899" lon="3.45082">
        <ele>215.1</ele>
        <time>2016-11-05T11:04:28.000Z</time>
      </trkpt>
      <trkpt lat="49.54907" lon="3.45082">
        <ele>216.1</ele>
        <time>2016-11-05T11:04:33.000Z</time>
      </trkpt>
      <trkpt lat="49.54908" lon="3.45083">
        <ele>216.3</ele>
        <time>2016-11-05T11:04:34.000Z</time>
      </trkpt>
      <trkpt lat="49.54916" lon="3.45086">
        <ele>217.7</ele>
        <time>2016-11-05T11:04:39.000Z</time>
      </trkpt>
      <trkpt lat="49.54918" lon="3.45086">
        <ele>217.9</ele>
        <time>2016-11-05T11:04:40.000Z</time>
      </trkpt>
      <trkpt lat="49.54925" lon="3.45091">
        <ele>218.9</ele>
        <time>2016-11-05T11:04:45.000Z</time>
      </trkpt>
      <trkpt lat="49.54926" lon="3.45092">
        <ele>219.4</ele>
        <time>2016-11-05T11:04:46.000Z</time>
      </trkpt>
      <trkpt lat="49.54935" lon="3.45089">
        <ele>221.8</ele>
        <time>2016-11-05T11:04:55.000Z</time>
      </trkpt>
      <trkpt lat="49.54936" lon="3.45089">
        <ele>221.9</ele>
        <time>2016-11-05T11:04:56.000Z</time>
      </trkpt>
      <trkpt lat="49.54944" lon="3.45087">
        <ele>222.7</ele>
        <time>2016-11-05T11:05:03.000Z</time>
      </trkpt>
      <trkpt lat="49.54945" lon="3.45086">
        <ele>222.9</ele>
        <time>2016-11-05T11:05:04.000Z</time>
      </trkpt>
      <trkpt lat="49.54953" lon="3.45082">
        <ele>224.1</ele>
        <time>2016-11-05T11:05:10.000Z</time>
      </trkpt>
      <trkpt lat="49.54955" lon="3.45081">
        <ele>224.3</ele>
        <time>2016-11-05T11:05:11.000Z</time>
      </trkpt>
      <trkpt lat="49.54962" lon="3.45075">
        <ele>225.1</ele>
        <time>2016-11-05T11:05:17.000Z</time>
      </trkpt>
      <trkpt lat="49.54963" lon="3.45075">
        <ele>225.3</ele>
        <time>2016-11-05T11:05:18.000Z</time>
      </trkpt>
      <trkpt lat="49.54971" lon="3.45071">
        <ele>226.5</ele>
        <time>2016-11-05T11:05:25.000Z</time>
      </trkpt>
      <trkpt lat="49.54972" lon="3.4507">
        <ele>227</ele>
        <time>2016-11-05T11:05:26.000Z</time>
      </trkpt>
      <trkpt lat="49.54978" lon="3.45061">
        <ele>227.7</ele>
        <time>2016-11-05T11:05:34.000Z</time>
      </trkpt>
      <trkpt lat="49.54978" lon="3.4506">
        <ele>227.7</ele>
        <time>2016-11-05T11:05:35.000Z</time>
      </trkpt>
      <trkpt lat="49.54985" lon="3.45055">
        <ele>228.2</ele>
        <time>2016-11-05T11:05:40.000Z</time>
      </trkpt>
      <trkpt lat="49.54986" lon="3.45053">
        <ele>228.5</ele>
        <time>2016-11-05T11:05:41.000Z</time>
      </trkpt>
      <trkpt lat="49.54992" lon="3.45044">
        <ele>229.5</ele>
        <time>2016-11-05T11:05:46.000Z</time>
      </trkpt>
      <trkpt lat="49.54992" lon="3.45042">
        <ele>229.6</ele>
        <time>2016-11-05T11:05:47.000Z</time>
      </trkpt>
      <trkpt lat="49.54997" lon="3.45031">
        <ele>229.8</ele>
        <time>2016-11-05T11:05:53.000Z</time>
      </trkpt>
      <trkpt lat="49.54997" lon="3.45028">
        <ele>229.9</ele>
        <time>2016-11-05T11:05:54.000Z</time>
      </trkpt>
      <trkpt lat="49.55002" lon="3.45017">
        <ele>229.9</ele>
        <time>2016-11-05T11:06:00.000Z</time>
      </trkpt>
      <trkpt lat="49.55002" lon="3.45015">
        <ele>229.9</ele>
        <time>2016-11-05T11:06:01.000Z</time>
      </trkpt>
      <trkpt lat="49.55007" lon="3.45004">
        <ele>230.5</ele>
        <time>2016-11-05T11:06:09.000Z</time>
      </trkpt>
      <trkpt lat="49.55007" lon="3.45002">
        <ele>230.9</ele>
        <time>2016-11-05T11:06:10.000Z</time>
      </trkpt>
      <trkpt lat="49.55011" lon="3.4499">
        <ele>231.6</ele>
        <time>2016-11-05T11:06:15.000Z</time>
      </trkpt>
      <trkpt lat="49.55012" lon="3.44988">
        <ele>231.8</ele>
        <time>2016-11-05T11:06:16.000Z</time>
      </trkpt>
      <trkpt lat="49.55013" lon="3.44977">
        <ele>232.5</ele>
        <time>2016-11-05T11:06:21.000Z</time>
      </trkpt>
      <trkpt lat="49.55013" lon="3.44974">
        <ele>232.8</ele>
        <time>2016-11-05T11:06:22.000Z</time>
      </trkpt>
      <trkpt lat="49.55014" lon="3.44962">
        <ele>233.3</ele>
        <time>2016-11-05T11:06:26.000Z</time>
      </trkpt>
      <trkpt lat="49.55014" lon="3.44959">
        <ele>233.4</ele>
        <time>2016-11-05T11:06:27.000Z</time>
      </trkpt>
      <trkpt lat="49.55016" lon="3.44947">
        <ele>233.4</ele>
        <time>2016-11-05T11:06:33.000Z</time>
      </trkpt>
      <trkpt lat="49.55017" lon="3.44945">
        <ele>233.3</ele>
        <time>2016-11-05T11:06:34.000Z</time>
      </trkpt>
      <trkpt lat="49.55018" lon="3.44933">
        <ele>233.5</ele>
        <time>2016-11-05T11:06:40.000Z</time>
      </trkpt>
      <trkpt lat="49.55018" lon="3.44931">
        <ele>233.4</ele>
        <time>2016-11-05T11:06:41.000Z</time>
      </trkpt>
      <trkpt lat="49.5502" lon="3.44917">
        <ele>233.6</ele>
        <time>2016-11-05T11:06:47.000Z</time>
      </trkpt>
      <trkpt lat="49.5502" lon="3.44915">
        <ele>233.6</ele>
        <time>2016-11-05T11:06:48.000Z</time>
      </trkpt>
      <trkpt lat="49.55021" lon="3.44903">
        <ele>233.3</ele>
        <time>2016-11-05T11:06:53.000Z</time>
      </trkpt>
      <trkpt lat="49.55021" lon="3.44901">
        <ele>233.4</ele>
        <time>2016-11-05T11:06:54.000Z</time>
      </trkpt>
      <trkpt lat="49.55023" lon="3.44887">
        <ele>233.3</ele>
        <time>2016-11-05T11:06:59.000Z</time>
      </trkpt>
      <trkpt lat="49.55024" lon="3.44885">
        <ele>233.5</ele>
        <time>2016-11-05T11:07:00.000Z</time>
      </trkpt>
      <trkpt lat="49.55027" lon="3.44873">
        <ele>234.8</ele>
        <time>2016-11-05T11:07:05.000Z</time>
      </trkpt>
      <trkpt lat="49.55028" lon="3.44871">
        <ele>235.2</ele>
        <time>2016-11-05T11:07:06.000Z</time>
      </trkpt>
      <trkpt lat="49.55034" lon="3.44862">
        <ele>236</ele>
        <time>2016-11-05T11:07:11.000Z</time>
      </trkpt>
      <trkpt lat="49.55035" lon="3.44861">
        <ele>236.2</ele>
        <time>2016-11-05T11:07:12.000Z</time>
      </trkpt>
      <trkpt lat="49.55041" lon="3.44854">
        <ele>236.5</ele>
        <time>2016-11-05T11:07:17.000Z</time>
      </trkpt>
      <trkpt lat="49.55042" lon="3.44852">
        <ele>236.6</ele>
        <time>2016-11-05T11:07:18.000Z</time>
      </trkpt>
      <trkpt lat="49.55046" lon="3.44842">
        <ele>236.8</ele>
        <time>2016-11-05T11:07:22.000Z</time>
      </trkpt>
      <trkpt lat="49.55047" lon="3.44839">
        <ele>236.9</ele>
        <time>2016-11-05T11:07:23.000Z</time>
      </trkpt>
      <trkpt lat="49.55052" lon="3.44828">
        <ele>237.9</ele>
        <time>2016-11-05T11:07:31.000Z</time>
      </trkpt>
      <trkpt lat="49.55052" lon="3.44827">
        <ele>237.6</ele>
        <time>2016-11-05T11:07:32.000Z</time>
      </trkpt>
      <trkpt lat="49.55056" lon="3.44815">
        <ele>238.4</ele>
        <time>2016-11-05T11:07:40.000Z</time>
      </trkpt>
      <trkpt lat="49.55057" lon="3.44814">
        <ele>238.6</ele>
        <time>2016-11-05T11:07:41.000Z</time>
      </trkpt>
      <trkpt lat="49.55062" lon="3.44805">
        <ele>239.8</ele>
        <time>2016-11-05T11:07:46.000Z</time>
      </trkpt>
      <trkpt lat="49.55063" lon="3.44804">
        <ele>239.8</ele>
        <time>2016-11-05T11:07:47.000Z</time>
      </trkpt>
      <trkpt lat="49.55069" lon="3.44794">
        <ele>241.1</ele>
        <time>2016-11-05T11:07:53.000Z</time>
      </trkpt>
      <trkpt lat="49.55071" lon="3.44792">
        <ele>241.1</ele>
        <time>2016-11-05T11:07:54.000Z</time>
      </trkpt>
      <trkpt lat="49.55075" lon="3.44781">
        <ele>241.8</ele>
        <time>2016-11-05T11:07:59.000Z</time>
      </trkpt>
      <trkpt lat="49.55077" lon="3.44779">
        <ele>242</ele>
        <time>2016-11-05T11:08:00.000Z</time>
      </trkpt>
      <trkpt lat="49.55083" lon="3.44771">
        <ele>243.5</ele>
        <time>2016-11-05T11:08:05.000Z</time>
      </trkpt>
      <trkpt lat="49.55083" lon="3.44769">
        <ele>243.5</ele>
        <time>2016-11-05T11:08:06.000Z</time>
      </trkpt>
      <trkpt lat="49.55088" lon="3.4476">
        <ele>244.3</ele>
        <time>2016-11-05T11:08:11.000Z</time>
      </trkpt>
      <trkpt lat="49.55089" lon="3.44757">
        <ele>244.3</ele>
        <time>2016-11-05T11:08:12.000Z</time>
      </trkpt>
      <trkpt lat="49.55095" lon="3.44748">
        <ele>243.2</ele>
        <time>2016-11-05T11:08:19.000Z</time>
      </trkpt>
      <trkpt lat="49.55096" lon="3.44746">
        <ele>243</ele>
        <time>2016-11-05T11:08:20.000Z</time>
      </trkpt>
      <trkpt lat="49.55101" lon="3.44738">
        <ele>242.8</ele>
        <time>2016-11-05T11:08:26.000Z</time>
      </trkpt>
      <trkpt lat="49.55103" lon="3.44736">
        <ele>243.1</ele>
        <time>2016-11-05T11:08:27.000Z</time>
      </trkpt>
      <trkpt lat="49.55108" lon="3.44725">
        <ele>243.4</ele>
        <time>2016-11-05T11:08:32.000Z</time>
      </trkpt>
      <trkpt lat="49.55109" lon="3.44722">
        <ele>243</ele>
        <time>2016-11-05T11:08:33.000Z</time>
      </trkpt>
      <trkpt lat="49.55114" lon="3.44712">
        <ele>241.7</ele>
        <time>2016-11-05T11:08:39.000Z</time>
      </trkpt>
      <trkpt lat="49.55115" lon="3.44711">
        <ele>241.3</ele>
        <time>2016-11-05T11:08:40.000Z</time>
      </trkpt>
      <trkpt lat="49.55121" lon="3.44703">
        <ele>239.9</ele>
        <time>2016-11-05T11:08:47.000Z</time>
      </trkpt>
      <trkpt lat="49.55122" lon="3.44702">
        <ele>239.6</ele>
        <time>2016-11-05T11:08:48.000Z</time>
      </trkpt>
      <trkpt lat="49.55127" lon="3.44691">
        <ele>239.9</ele>
        <time>2016-11-05T11:08:55.000Z</time>
      </trkpt>
      <trkpt lat="49.55129" lon="3.44689">
        <ele>240.1</ele>
        <time>2016-11-05T11:08:56.000Z</time>
      </trkpt>
      <trkpt lat="49.55134" lon="3.44683">
        <ele>240.1</ele>
        <time>2016-11-05T11:09:00.000Z</time>
      </trkpt>
      <trkpt lat="49.55136" lon="3.4468">
        <ele>239.8</ele>
        <time>2016-11-05T11:09:01.000Z</time>
      </trkpt>
      <trkpt lat="49.5514" lon="3.4467">
        <ele>238</ele>
        <time>2016-11-05T11:09:04.000Z</time>
      </trkpt>
      <trkpt lat="49.55141" lon="3.44668">
        <ele>237.8</ele>
        <time>2016-11-05T11:09:05.000Z</time>
      </trkpt>
      <trkpt lat="49.55146" lon="3.44659">
        <ele>236.7</ele>
        <time>2016-11-05T11:09:09.000Z</time>
      </trkpt>
      <trkpt lat="49.55148" lon="3.44657">
        <ele>236.1</ele>
        <time>2016-11-05T11:09:10.000Z</time>
      </trkpt>
      <trkpt lat="49.55154" lon="3.44648">
        <ele>235.2</ele>
        <time>2016-11-05T11:09:15.000Z</time>
      </trkpt>
      <trkpt lat="49.55154" lon="3.44646">
        <ele>234.7</ele>
        <time>2016-11-05T11:09:16.000Z</time>
      </trkpt>
      <trkpt lat="49.55159" lon="3.44636">
        <ele>234.1</ele>
        <time>2016-11-05T11:09:22.000Z</time>
      </trkpt>
      <trkpt lat="49.5516" lon="3.44635">
        <ele>233.9</ele>
        <time>2016-11-05T11:09:23.000Z</time>
      </trkpt>
      <trkpt lat="49.55166" lon="3.44626">
        <ele>232.8</ele>
        <time>2016-11-05T11:09:29.000Z</time>
      </trkpt>
      <trkpt lat="49.55167" lon="3.44624">
        <ele>232.7</ele>
        <time>2016-11-05T11:09:30.000Z</time>
      </trkpt>
      <trkpt lat="49.55173" lon="3.44616">
        <ele>233.1</ele>
        <time>2016-11-05T11:09:35.000Z</time>
      </trkpt>
      <trkpt lat="49.55174" lon="3.44614">
        <ele>233</ele>
        <time>2016-11-05T11:09:36.000Z</time>
      </trkpt>
      <trkpt lat="49.5518" lon="3.44605">
        <ele>232.8</ele>
        <time>2016-11-05T11:09:42.000Z</time>
      </trkpt>
      <trkpt lat="49.55182" lon="3.44603">
        <ele>232.4</ele>
        <time>2016-11-05T11:09:43.000Z</time>
      </trkpt>
      <trkpt lat="49.55187" lon="3.44593">
        <ele>231.5</ele>
        <time>2016-11-05T11:09:48.000Z</time>
      </trkpt>
      <trkpt lat="49.55188" lon="3.44591">
        <ele>231.2</ele>
        <time>2016-11-05T11:09:49.000Z</time>
      </trkpt>
      <trkpt lat="49.55192" lon="3.4458">
        <ele>230.7</ele>
        <time>2016-11-05T11:09:54.000Z</time>
      </trkpt>
      <trkpt lat="49.55192" lon="3.44578">
        <ele>230.5</ele>
        <time>2016-11-05T11:09:55.000Z</time>
      </trkpt>
      <trkpt lat="49.55197" lon="3.44565">
        <ele>230.1</ele>
        <time>2016-11-05T11:10:01.000Z</time>
      </trkpt>
      <trkpt lat="49.55197" lon="3.44564">
        <ele>230</ele>
        <time>2016-11-05T11:10:02.000Z</time>
      </trkpt>
      <trkpt lat="49.55201" lon="3.44552">
        <ele>229.6</ele>
        <time>2016-11-05T11:10:07.000Z</time>
      </trkpt>
      <trkpt lat="49.55202" lon="3.4455">
        <ele>229.5</ele>
        <time>2016-11-05T11:10:08.000Z</time>
      </trkpt>
      <trkpt lat="49.55205" lon="3.44539">
        <ele>228.6</ele>
        <time>2016-11-05T11:10:13.000Z</time>
      </trkpt>
      <trkpt lat="49.55206" lon="3.44537">
        <ele>228.5</ele>
        <time>2016-11-05T11:10:14.000Z</time>
      </trkpt>
      <trkpt lat="49.55209" lon="3.44525">
        <ele>228.3</ele>
        <time>2016-11-05T11:10:21.000Z</time>
      </trkpt>
      <trkpt lat="49.5521" lon="3.44523">
        <ele>228.1</ele>
        <time>2016-11-05T11:10:22.000Z</time>
      </trkpt>
      <trkpt lat="49.55213" lon="3.44513">
        <ele>227.3</ele>
        <time>2016-11-05T11:10:26.000Z</time>
      </trkpt>
      <trkpt lat="49.55214" lon="3.4451">
        <ele>227.2</ele>
        <time>2016-11-05T11:10:27.000Z</time>
      </trkpt>
      <trkpt lat="49.55219" lon="3.44498">
        <ele>226.7</ele>
        <time>2016-11-05T11:10:33.000Z</time>
      </trkpt>
      <trkpt lat="49.55219" lon="3.44496">
        <ele>226.6</ele>
        <time>2016-11-05T11:10:34.000Z</time>
      </trkpt>
      <trkpt lat="49.55222" lon="3.44484">
        <ele>225.9</ele>
        <time>2016-11-05T11:10:39.000Z</time>
      </trkpt>
      <trkpt lat="49.55223" lon="3.44483">
        <ele>225.9</ele>
        <time>2016-11-05T11:10:40.000Z</time>
      </trkpt>
      <trkpt lat="49.55226" lon="3.44471">
        <ele>226.9</ele>
        <time>2016-11-05T11:10:46.000Z</time>
      </trkpt>
      <trkpt lat="49.55226" lon="3.44468">
        <ele>227</ele>
        <time>2016-11-05T11:10:47.000Z</time>
      </trkpt>
      <trkpt lat="49.55228" lon="3.44457">
        <ele>228.2</ele>
        <time>2016-11-05T11:10:52.000Z</time>
      </trkpt>
      <trkpt lat="49.55229" lon="3.44455">
        <ele>228</ele>
        <time>2016-11-05T11:10:53.000Z</time>
      </trkpt>
      <trkpt lat="49.55231" lon="3.44444">
        <ele>226.7</ele>
        <time>2016-11-05T11:10:57.000Z</time>
      </trkpt>
      <trkpt lat="49.55231" lon="3.44441">
        <ele>226.6</ele>
        <time>2016-11-05T11:10:58.000Z</time>
      </trkpt>
      <trkpt lat="49.55233" lon="3.44429">
        <ele>225.2</ele>
        <time>2016-11-05T11:11:03.000Z</time>
      </trkpt>
      <trkpt lat="49.55234" lon="3.44427">
        <ele>225.5</ele>
        <time>2016-11-05T11:11:04.000Z</time>
      </trkpt>
      <trkpt lat="49.55237" lon="3.44415">
        <ele>225.4</ele>
        <time>2016-11-05T11:11:09.000Z</time>
      </trkpt>
      <trkpt lat="49.55238" lon="3.44414">
        <ele>225.4</ele>
        <time>2016-11-05T11:11:10.000Z</time>
      </trkpt>
      <trkpt lat="49.55243" lon="3.44404">
        <ele>224.2</ele>
        <time>2016-11-05T11:11:16.000Z</time>
      </trkpt>
      <trkpt lat="49.55244" lon="3.44402">
        <ele>224.2</ele>
        <time>2016-11-05T11:11:17.000Z</time>
      </trkpt>
      <trkpt lat="49.55248" lon="3.4439">
        <ele>223.5</ele>
        <time>2016-11-05T11:11:22.000Z</time>
      </trkpt>
      <trkpt lat="49.55249" lon="3.44388">
        <ele>223.5</ele>
        <time>2016-11-05T11:11:23.000Z</time>
      </trkpt>
      <trkpt lat="49.55252" lon="3.44377">
        <ele>223.8</ele>
        <time>2016-11-05T11:11:28.000Z</time>
      </trkpt>
      <trkpt lat="49.55253" lon="3.44375">
        <ele>223.8</ele>
        <time>2016-11-05T11:11:29.000Z</time>
      </trkpt>
      <trkpt lat="49.55256" lon="3.44364">
        <ele>224.3</ele>
        <time>2016-11-05T11:11:33.000Z</time>
      </trkpt>
      <trkpt lat="49.55257" lon="3.44362">
        <ele>224.3</ele>
        <time>2016-11-05T11:11:34.000Z</time>
      </trkpt>
      <trkpt lat="49.5526" lon="3.44352">
        <ele>224.1</ele>
        <time>2016-11-05T11:11:41.000Z</time>
      </trkpt>
      <trkpt lat="49.55261" lon="3.44349">
        <ele>223.9</ele>
        <time>2016-11-05T11:11:42.000Z</time>
      </trkpt>
      <trkpt lat="49.55264" lon="3.44339">
        <ele>223.7</ele>
        <time>2016-11-05T11:11:46.000Z</time>
      </trkpt>
      <trkpt lat="49.55264" lon="3.44336">
        <ele>223.5</ele>
        <time>2016-11-05T11:11:47.000Z</time>
      </trkpt>
      <trkpt lat="49.55267" lon="3.44325">
        <ele>222.7</ele>
        <time>2016-11-05T11:11:52.000Z</time>
      </trkpt>
      <trkpt lat="49.55267" lon="3.44322">
        <ele>222.7</ele>
        <time>2016-11-05T11:11:53.000Z</time>
      </trkpt>
      <trkpt lat="49.5527" lon="3.44311">
        <ele>222.8</ele>
        <time>2016-11-05T11:11:58.000Z</time>
      </trkpt>
      <trkpt lat="49.55271" lon="3.44308">
        <ele>223.1</ele>
        <time>2016-11-05T11:11:59.000Z</time>
      </trkpt>
      <trkpt lat="49.55275" lon="3.44297">
        <ele>224.2</ele>
        <time>2016-11-05T11:12:04.000Z</time>
      </trkpt>
      <trkpt lat="49.55276" lon="3.44294">
        <ele>224.1</ele>
        <time>2016-11-05T11:12:05.000Z</time>
      </trkpt>
      <trkpt lat="49.55279" lon="3.44283">
        <ele>224</ele>
        <time>2016-11-05T11:12:10.000Z</time>
      </trkpt>
      <trkpt lat="49.5528" lon="3.44281">
        <ele>223.8</ele>
        <time>2016-11-05T11:12:11.000Z</time>
      </trkpt>
      <trkpt lat="49.55283" lon="3.4427">
        <ele>222.4</ele>
        <time>2016-11-05T11:12:15.000Z</time>
      </trkpt>
      <trkpt lat="49.55283" lon="3.44267">
        <ele>222.3</ele>
        <time>2016-11-05T11:12:16.000Z</time>
      </trkpt>
      <trkpt lat="49.55287" lon="3.44256">
        <ele>221.2</ele>
        <time>2016-11-05T11:12:20.000Z</time>
      </trkpt>
      <trkpt lat="49.55288" lon="3.44254">
        <ele>221.4</ele>
        <time>2016-11-05T11:12:21.000Z</time>
      </trkpt>
      <trkpt lat="49.55291" lon="3.44242">
        <ele>221.9</ele>
        <time>2016-11-05T11:12:26.000Z</time>
      </trkpt>
      <trkpt lat="49.55292" lon="3.44239">
        <ele>221.5</ele>
        <time>2016-11-05T11:12:27.000Z</time>
      </trkpt>
      <trkpt lat="49.55295" lon="3.44228">
        <ele>221.5</ele>
        <time>2016-11-05T11:12:32.000Z</time>
      </trkpt>
      <trkpt lat="49.55296" lon="3.44227">
        <ele>221.6</ele>
        <time>2016-11-05T11:12:33.000Z</time>
      </trkpt>
      <trkpt lat="49.55301" lon="3.44216">
        <ele>222.8</ele>
        <time>2016-11-05T11:12:42.000Z</time>
      </trkpt>
      <trkpt lat="49.55301" lon="3.44214">
        <ele>222.9</ele>
        <time>2016-11-05T11:12:43.000Z</time>
      </trkpt>
      <trkpt lat="49.55304" lon="3.44202">
        <ele>223.9</ele>
        <time>2016-11-05T11:12:50.000Z</time>
      </trkpt>
      <trkpt lat="49.55305" lon="3.442">
        <ele>224</ele>
        <time>2016-11-05T11:12:51.000Z</time>
      </trkpt>
      <trkpt lat="49.55308" lon="3.4419">
        <ele>223.2</ele>
        <time>2016-11-05T11:12:55.000Z</time>
      </trkpt>
      <trkpt lat="49.55309" lon="3.44187">
        <ele>223</ele>
        <time>2016-11-05T11:12:56.000Z</time>
      </trkpt>
      <trkpt lat="49.55314" lon="3.44179">
        <ele>221.7</ele>
        <time>2016-11-05T11:12:59.000Z</time>
      </trkpt>
      <trkpt lat="49.55315" lon="3.44175">
        <ele>221.4</ele>
        <time>2016-11-05T11:13:00.000Z</time>
      </trkpt>
      <trkpt lat="49.5532" lon="3.44166">
        <ele>220</ele>
        <time>2016-11-05T11:13:03.000Z</time>
      </trkpt>
      <trkpt lat="49.55322" lon="3.44164">
        <ele>219.9</ele>
        <time>2016-11-05T11:13:04.000Z</time>
      </trkpt>
      <trkpt lat="49.55326" lon="3.44155">
        <ele>218.9</ele>
        <time>2016-11-05T11:13:08.000Z</time>
      </trkpt>
      <trkpt lat="49.55327" lon="3.44153">
        <ele>218.7</ele>
        <time>2016-11-05T11:13:09.000Z</time>
      </trkpt>
      <trkpt lat="49.55332" lon="3.44144">
        <ele>217</ele>
        <time>2016-11-05T11:13:13.000Z</time>
      </trkpt>
      <trkpt lat="49.55333" lon="3.44142">
        <ele>216.7</ele>
        <time>2016-11-05T11:13:14.000Z</time>
      </trkpt>
      <trkpt lat="49.55339" lon="3.44134">
        <ele>216</ele>
        <time>2016-11-05T11:13:19.000Z</time>
      </trkpt>
      <trkpt lat="49.5534" lon="3.44133">
        <ele>215.8</ele>
        <time>2016-11-05T11:13:20.000Z</time>
      </trkpt>
      <trkpt lat="49.55348" lon="3.44128">
        <ele>215.2</ele>
        <time>2016-11-05T11:13:25.000Z</time>
      </trkpt>
      <trkpt lat="49.55349" lon="3.44128">
        <ele>215</ele>
        <time>2016-11-05T11:13:26.000Z</time>
      </trkpt>
      <trkpt lat="49.55357" lon="3.44125">
        <ele>213.8</ele>
        <time>2016-11-05T11:13:31.000Z</time>
      </trkpt>
      <trkpt lat="49.55358" lon="3.44125">
        <ele>213.5</ele>
        <time>2016-11-05T11:13:32.000Z</time>
      </trkpt>
      <trkpt lat="49.55366" lon="3.44125">
        <ele>211.7</ele>
        <time>2016-11-05T11:13:37.000Z</time>
      </trkpt>
      <trkpt lat="49.55368" lon="3.44125">
        <ele>211.1</ele>
        <time>2016-11-05T11:13:38.000Z</time>
      </trkpt>
      <trkpt lat="49.55375" lon="3.44125">
        <ele>209.3</ele>
        <time>2016-11-05T11:13:43.000Z</time>
      </trkpt>
      <trkpt lat="49.55377" lon="3.44125">
        <ele>208.9</ele>
        <time>2016-11-05T11:13:44.000Z</time>
      </trkpt>
      <trkpt lat="49.55385" lon="3.44125">
        <ele>207.4</ele>
        <time>2016-11-05T11:13:50.000Z</time>
      </trkpt>
      <trkpt lat="49.55386" lon="3.44124">
        <ele>207.2</ele>
        <time>2016-11-05T11:13:51.000Z</time>
      </trkpt>
      <trkpt lat="49.55395" lon="3.44122">
        <ele>204.8</ele>
        <time>2016-11-05T11:13:57.000Z</time>
      </trkpt>
      <trkpt lat="49.55396" lon="3.44122">
        <ele>205.1</ele>
        <time>2016-11-05T11:13:58.000Z</time>
      </trkpt>
      <trkpt lat="49.55404" lon="3.44124">
        <ele>204.6</ele>
        <time>2016-11-05T11:14:03.000Z</time>
      </trkpt>
      <trkpt lat="49.55406" lon="3.44124">
        <ele>204.3</ele>
        <time>2016-11-05T11:14:04.000Z</time>
      </trkpt>
      <trkpt lat="49.55413" lon="3.44127">
        <ele>203.1</ele>
        <time>2016-11-05T11:14:08.000Z</time>
      </trkpt>
      <trkpt lat="49.55415" lon="3.44128">
        <ele>203</ele>
        <time>2016-11-05T11:14:09.000Z</time>
      </trkpt>
      <trkpt lat="49.55423" lon="3.4413">
        <ele>202.4</ele>
        <time>2016-11-05T11:14:14.000Z</time>
      </trkpt>
      <trkpt lat="49.55425" lon="3.4413">
        <ele>202.1</ele>
        <time>2016-11-05T11:14:15.000Z</time>
      </trkpt>
      <trkpt lat="49.55434" lon="3.44132">
        <ele>201.1</ele>
        <time>2016-11-05T11:14:21.000Z</time>
      </trkpt>
      <trkpt lat="49.55435" lon="3.44132">
        <ele>200.8</ele>
        <time>2016-11-05T11:14:22.000Z</time>
      </trkpt>
      <trkpt lat="49.55443" lon="3.44133">
        <ele>199.9</ele>
        <time>2016-11-05T11:14:27.000Z</time>
      </trkpt>
      <trkpt lat="49.55444" lon="3.44133">
        <ele>199.8</ele>
        <time>2016-11-05T11:14:28.000Z</time>
      </trkpt>
      <trkpt lat="49.55453" lon="3.44136">
        <ele>197.6</ele>
        <time>2016-11-05T11:14:34.000Z</time>
      </trkpt>
      <trkpt lat="49.55454" lon="3.44136">
        <ele>197.5</ele>
        <time>2016-11-05T11:14:35.000Z</time>
      </trkpt>
      <trkpt lat="49.55463" lon="3.44139">
        <ele>196.1</ele>
        <time>2016-11-05T11:14:40.000Z</time>
      </trkpt>
      <trkpt lat="49.55465" lon="3.44141">
        <ele>195.6</ele>
        <time>2016-11-05T11:14:41.000Z</time>
      </trkpt>
      <trkpt lat="49.55472" lon="3.44146">
        <ele>194.2</ele>
        <time>2016-11-05T11:14:46.000Z</time>
      </trkpt>
      <trkpt lat="49.55474" lon="3.44147">
        <ele>193.9</ele>
        <time>2016-11-05T11:14:47.000Z</time>
      </trkpt>
      <trkpt lat="49.55481" lon="3.44151">
        <ele>192.5</ele>
        <time>2016-11-05T11:14:52.000Z</time>
      </trkpt>
      <trkpt lat="49.55483" lon="3.44152">
        <ele>192.1</ele>
        <time>2016-11-05T11:14:53.000Z</time>
      </trkpt>
      <trkpt lat="49.55491" lon="3.44156">
        <ele>190.9</ele>
        <time>2016-11-05T11:14:59.000Z</time>
      </trkpt>
      <trkpt lat="49.55492" lon="3.44157">
        <ele>190.6</ele>
        <time>2016-11-05T11:15:00.000Z</time>
      </trkpt>
      <trkpt lat="49.55499" lon="3.44159">
        <ele>189.4</ele>
        <time>2016-11-05T11:15:06.000Z</time>
      </trkpt>
      <trkpt lat="49.55501" lon="3.44159">
        <ele>189</ele>
        <time>2016-11-05T11:15:07.000Z</time>
      </trkpt>
      <trkpt lat="49.55507" lon="3.44153">
        <ele>187.8</ele>
        <time>2016-11-05T11:15:16.000Z</time>
      </trkpt>
      <trkpt lat="49.55508" lon="3.44151">
        <ele>187.5</ele>
        <time>2016-11-05T11:15:17.000Z</time>
      </trkpt>
      <trkpt lat="49.55514" lon="3.44141">
        <ele>186.9</ele>
        <time>2016-11-05T11:15:23.000Z</time>
      </trkpt>
      <trkpt lat="49.55516" lon="3.4414">
        <ele>186.6</ele>
        <time>2016-11-05T11:15:24.000Z</time>
      </trkpt>
      <trkpt lat="49.55522" lon="3.44132">
        <ele>184.9</ele>
        <time>2016-11-05T11:15:30.000Z</time>
      </trkpt>
      <trkpt lat="49.55523" lon="3.44131">
        <ele>184.4</ele>
        <time>2016-11-05T11:15:31.000Z</time>
      </trkpt>
      <trkpt lat="49.55531" lon="3.44127">
        <ele>183.5</ele>
        <time>2016-11-05T11:15:35.000Z</time>
      </trkpt>
      <trkpt lat="49.55533" lon="3.44126">
        <ele>183.2</ele>
        <time>2016-11-05T11:15:36.000Z</time>
      </trkpt>
      <trkpt lat="49.55541" lon="3.44121">
        <ele>182.6</ele>
        <time>2016-11-05T11:15:42.000Z</time>
      </trkpt>
      <trkpt lat="49.55542" lon="3.4412">
        <ele>182.4</ele>
        <time>2016-11-05T11:15:43.000Z</time>
      </trkpt>
      <trkpt lat="49.55549" lon="3.44115">
        <ele>182.2</ele>
        <time>2016-11-05T11:15:48.000Z</time>
      </trkpt>
      <trkpt lat="49.55551" lon="3.44114">
        <ele>182.1</ele>
        <time>2016-11-05T11:15:49.000Z</time>
      </trkpt>
      <trkpt lat="49.55559" lon="3.44108">
        <ele>182.6</ele>
        <time>2016-11-05T11:15:54.000Z</time>
      </trkpt>
      <trkpt lat="49.5556" lon="3.44107">
        <ele>182.6</ele>
        <time>2016-11-05T11:15:55.000Z</time>
      </trkpt>
      <trkpt lat="49.55567" lon="3.44102">
        <ele>182</ele>
        <time>2016-11-05T11:15:59.000Z</time>
      </trkpt>
      <trkpt lat="49.55569" lon="3.441">
        <ele>181.5</ele>
        <time>2016-11-05T11:16:00.000Z</time>
      </trkpt>
      <trkpt lat="49.55576" lon="3.44095">
        <ele>181</ele>
        <time>2016-11-05T11:16:05.000Z</time>
      </trkpt>
      <trkpt lat="49.55577" lon="3.44094">
        <ele>181</ele>
        <time>2016-11-05T11:16:06.000Z</time>
      </trkpt>
      <trkpt lat="49.55586" lon="3.44091">
        <ele>180.7</ele>
        <time>2016-11-05T11:16:12.000Z</time>
      </trkpt>
      <trkpt lat="49.55588" lon="3.44091">
        <ele>180.3</ele>
        <time>2016-11-05T11:16:13.000Z</time>
      </trkpt>
      <trkpt lat="49.55595" lon="3.44095">
        <ele>178.9</ele>
        <time>2016-11-05T11:16:17.000Z</time>
      </trkpt>
      <trkpt lat="49.55597" lon="3.44096">
        <ele>178.7</ele>
        <time>2016-11-05T11:16:18.000Z</time>
      </trkpt>
      <trkpt lat="49.55603" lon="3.44105">
        <ele>177.7</ele>
        <time>2016-11-05T11:16:23.000Z</time>
      </trkpt>
      <trkpt lat="49.55604" lon="3.44107">
        <ele>177.1</ele>
        <time>2016-11-05T11:16:24.000Z</time>
      </trkpt>
      <trkpt lat="49.55608" lon="3.44119">
        <ele>176.5</ele>
        <time>2016-11-05T11:16:29.000Z</time>
      </trkpt>
      <trkpt lat="49.55609" lon="3.44122">
        <ele>176.4</ele>
        <time>2016-11-05T11:16:30.000Z</time>
      </trkpt>
      <trkpt lat="49.55612" lon="3.44134">
        <ele>175.9</ele>
        <time>2016-11-05T11:16:35.000Z</time>
      </trkpt>
      <trkpt lat="49.55613" lon="3.44136">
        <ele>175.7</ele>
        <time>2016-11-05T11:16:36.000Z</time>
      </trkpt>
      <trkpt lat="49.55615" lon="3.44149">
        <ele>174.5</ele>
        <time>2016-11-05T11:16:41.000Z</time>
      </trkpt>
      <trkpt lat="49.55616" lon="3.44151">
        <ele>174.4</ele>
        <time>2016-11-05T11:16:42.000Z</time>
      </trkpt>
      <trkpt lat="49.55619" lon="3.44163">
        <ele>174.3</ele>
        <time>2016-11-05T11:16:47.000Z</time>
      </trkpt>
      <trkpt lat="49.55619" lon="3.44165">
        <ele>174.4</ele>
        <time>2016-11-05T11:16:48.000Z</time>
      </trkpt>
      <trkpt lat="49.55622" lon="3.44175">
        <ele>174.6</ele>
        <time>2016-11-05T11:16:52.000Z</time>
      </trkpt>
      <trkpt lat="49.55623" lon="3.44178">
        <ele>174.7</ele>
        <time>2016-11-05T11:16:53.000Z</time>
      </trkpt>
      <trkpt lat="49.55626" lon="3.44189">
        <ele>175.1</ele>
        <time>2016-11-05T11:16:57.000Z</time>
      </trkpt>
      <trkpt lat="49.55626" lon="3.44192">
        <ele>175.2</ele>
        <time>2016-11-05T11:16:58.000Z</time>
      </trkpt>
      <trkpt lat="49.55629" lon="3.44202">
        <ele>176.1</ele>
        <time>2016-11-05T11:17:03.000Z</time>
      </trkpt>
      <trkpt lat="49.5563" lon="3.44205">
        <ele>176.3</ele>
        <time>2016-11-05T11:17:04.000Z</time>
      </trkpt>
      <trkpt lat="49.55633" lon="3.44217">
        <ele>176.5</ele>
        <time>2016-11-05T11:17:09.000Z</time>
      </trkpt>
      <trkpt lat="49.55633" lon="3.44219">
        <ele>176.5</ele>
        <time>2016-11-05T11:17:10.000Z</time>
      </trkpt>
      <trkpt lat="49.55636" lon="3.44231">
        <ele>176.5</ele>
        <time>2016-11-05T11:17:14.000Z</time>
      </trkpt>
      <trkpt lat="49.55637" lon="3.44234">
        <ele>176.5</ele>
        <time>2016-11-05T11:17:15.000Z</time>
      </trkpt>
      <trkpt lat="49.55639" lon="3.44245">
        <ele>176.7</ele>
        <time>2016-11-05T11:17:19.000Z</time>
      </trkpt>
      <trkpt lat="49.5564" lon="3.44248">
        <ele>176.9</ele>
        <time>2016-11-05T11:17:20.000Z</time>
      </trkpt>
      <trkpt lat="49.55643" lon="3.4426">
        <ele>177.3</ele>
        <time>2016-11-05T11:17:24.000Z</time>
      </trkpt>
      <trkpt lat="49.55644" lon="3.44262">
        <ele>177.6</ele>
        <time>2016-11-05T11:17:25.000Z</time>
      </trkpt>
      <trkpt lat="49.55647" lon="3.44275">
        <ele>177.8</ele>
        <time>2016-11-05T11:17:31.000Z</time>
      </trkpt>
      <trkpt lat="49.55647" lon="3.44276">
        <ele>177.9</ele>
        <time>2016-11-05T11:17:32.000Z</time>
      </trkpt>
      <trkpt lat="49.55651" lon="3.44288">
        <ele>177.8</ele>
        <time>2016-11-05T11:17:38.000Z</time>
      </trkpt>
      <trkpt lat="49.55652" lon="3.4429">
        <ele>177.8</ele>
        <time>2016-11-05T11:17:39.000Z</time>
      </trkpt>
      <trkpt lat="49.55656" lon="3.44301">
        <ele>178.5</ele>
        <time>2016-11-05T11:17:43.000Z</time>
      </trkpt>
      <trkpt lat="49.55656" lon="3.44304">
        <ele>178.8</ele>
        <time>2016-11-05T11:17:44.000Z</time>
      </trkpt>
      <trkpt lat="49.5566" lon="3.44315">
        <ele>179.9</ele>
        <time>2016-11-05T11:17:49.000Z</time>
      </trkpt>
      <trkpt lat="49.5566" lon="3.44317">
        <ele>180.2</ele>
        <time>2016-11-05T11:17:50.000Z</time>
      </trkpt>
      <trkpt lat="49.55665" lon="3.44329">
        <ele>180.4</ele>
        <time>2016-11-05T11:17:55.000Z</time>
      </trkpt>
      <trkpt lat="49.55665" lon="3.44331">
        <ele>180.5</ele>
        <time>2016-11-05T11:17:56.000Z</time>
      </trkpt>
      <trkpt lat="49.55668" lon="3.44342">
        <ele>180.9</ele>
        <time>2016-11-05T11:18:02.000Z</time>
      </trkpt>
      <trkpt lat="49.55669" lon="3.44344">
        <ele>181.1</ele>
        <time>2016-11-05T11:18:03.000Z</time>
      </trkpt>
      <trkpt lat="49.55673" lon="3.44355">
        <ele>181.8</ele>
        <time>2016-11-05T11:18:10.000Z</time>
      </trkpt>
      <trkpt lat="49.55674" lon="3.44356">
        <ele>181.9</ele>
        <time>2016-11-05T11:18:11.000Z</time>
      </trkpt>
      <trkpt lat="49.55677" lon="3.44366">
        <ele>183.2</ele>
        <time>2016-11-05T11:18:17.000Z</time>
      </trkpt>
      <trkpt lat="49.55678" lon="3.44369">
        <ele>183.2</ele>
        <time>2016-11-05T11:18:18.000Z</time>
      </trkpt>
      <trkpt lat="49.55681" lon="3.4438">
        <ele>184.3</ele>
        <time>2016-11-05T11:18:23.000Z</time>
      </trkpt>
      <trkpt lat="49.55682" lon="3.44382">
        <ele>184.6</ele>
        <time>2016-11-05T11:18:24.000Z</time>
      </trkpt>
      <trkpt lat="49.55686" lon="3.44394">
        <ele>186.1</ele>
        <time>2016-11-05T11:18:29.000Z</time>
      </trkpt>
      <trkpt lat="49.55686" lon="3.44396">
        <ele>186.2</ele>
        <time>2016-11-05T11:18:30.000Z</time>
      </trkpt>
      <trkpt lat="49.55689" lon="3.44407">
        <ele>186.9</ele>
        <time>2016-11-05T11:18:34.000Z</time>
      </trkpt>
      <trkpt lat="49.5569" lon="3.4441">
        <ele>186.9</ele>
        <time>2016-11-05T11:18:35.000Z</time>
      </trkpt>
      <trkpt lat="49.55694" lon="3.44421">
        <ele>186.5</ele>
        <time>2016-11-05T11:18:40.000Z</time>
      </trkpt>
      <trkpt lat="49.55694" lon="3.44423">
        <ele>186.4</ele>
        <time>2016-11-05T11:18:41.000Z</time>
      </trkpt>
      <trkpt lat="49.55696" lon="3.44436">
        <ele>186</ele>
        <time>2016-11-05T11:18:46.000Z</time>
      </trkpt>
      <trkpt lat="49.55697" lon="3.44438">
        <ele>186</ele>
        <time>2016-11-05T11:18:47.000Z</time>
      </trkpt>
      <trkpt lat="49.55701" lon="3.44447">
        <ele>186.4</ele>
        <time>2016-11-05T11:18:51.000Z</time>
      </trkpt>
      <trkpt lat="49.55702" lon="3.4445">
        <ele>186.9</ele>
        <time>2016-11-05T11:18:52.000Z</time>
      </trkpt>
      <trkpt lat="49.55704" lon="3.44461">
        <ele>187.5</ele>
        <time>2016-11-05T11:18:56.000Z</time>
      </trkpt>
      <trkpt lat="49.55704" lon="3.44465">
        <ele>187.5</ele>
        <time>2016-11-05T11:18:57.000Z</time>
      </trkpt>
      <trkpt lat="49.55707" lon="3.44475">
        <ele>188</ele>
        <time>2016-11-05T11:19:01.000Z</time>
      </trkpt>
      <trkpt lat="49.55708" lon="3.44478">
        <ele>188.1</ele>
        <time>2016-11-05T11:19:02.000Z</time>
      </trkpt>
      <trkpt lat="49.5571" lon="3.4449">
        <ele>188.8</ele>
        <time>2016-11-05T11:19:06.000Z</time>
      </trkpt>
      <trkpt lat="49.5571" lon="3.44493">
        <ele>188.8</ele>
        <time>2016-11-05T11:19:07.000Z</time>
      </trkpt>
      <trkpt lat="49.55713" lon="3.44504">
        <ele>189.1</ele>
        <time>2016-11-05T11:19:13.000Z</time>
      </trkpt>
      <trkpt lat="49.55714" lon="3.44506">
        <ele>189</ele>
        <time>2016-11-05T11:19:14.000Z</time>
      </trkpt>
      <trkpt lat="49.55717" lon="3.44518">
        <ele>188.3</ele>
        <time>2016-11-05T11:19:19.000Z</time>
      </trkpt>
      <trkpt lat="49.55718" lon="3.44521">
        <ele>188.3</ele>
        <time>2016-11-05T11:19:20.000Z</time>
      </trkpt>
      <trkpt lat="49.55721" lon="3.44531">
        <ele>188.2</ele>
        <time>2016-11-05T11:19:24.000Z</time>
      </trkpt>
      <trkpt lat="49.55722" lon="3.44534">
        <ele>188.3</ele>
        <time>2016-11-05T11:19:25.000Z</time>
      </trkpt>
      <trkpt lat="49.55725" lon="3.44544">
        <ele>188.5</ele>
        <time>2016-11-05T11:19:29.000Z</time>
      </trkpt>
      <trkpt lat="49.55726" lon="3.44546">
        <ele>188.5</ele>
        <time>2016-11-05T11:19:30.000Z</time>
      </trkpt>
      <trkpt lat="49.55728" lon="3.44559">
        <ele>188.8</ele>
        <time>2016-11-05T11:19:36.000Z</time>
      </trkpt>
      <trkpt lat="49.55729" lon="3.44562">
        <ele>189</ele>
        <time>2016-11-05T11:19:37.000Z</time>
      </trkpt>
      <trkpt lat="49.55732" lon="3.44573">
        <ele>190.2</ele>
        <time>2016-11-05T11:19:41.000Z</time>
      </trkpt>
      <trkpt lat="49.55733" lon="3.44576">
        <ele>190.4</ele>
        <time>2016-11-05T11:19:42.000Z</time>
      </trkpt>
      <trkpt lat="49.55737" lon="3.44588">
        <ele>191.6</ele>
        <time>2016-11-05T11:19:46.000Z</time>
      </trkpt>
      <trkpt lat="49.55738" lon="3.4459">
        <ele>191.5</ele>
        <time>2016-11-05T11:19:47.000Z</time>
      </trkpt>
      <trkpt lat="49.55742" lon="3.44601">
        <ele>192.2</ele>
        <time>2016-11-05T11:19:52.000Z</time>
      </trkpt>
      <trkpt lat="49.55743" lon="3.44603">
        <ele>192.3</ele>
        <time>2016-11-05T11:19:53.000Z</time>
      </trkpt>
      <trkpt lat="49.55749" lon="3.4461">
        <ele>193.4</ele>
        <time>2016-11-05T11:19:59.000Z</time>
      </trkpt>
      <trkpt lat="49.5575" lon="3.44612">
        <ele>193.8</ele>
        <time>2016-11-05T11:20:00.000Z</time>
      </trkpt>
      <trkpt lat="49.55758" lon="3.4462">
        <ele>194.7</ele>
        <time>2016-11-05T11:20:05.000Z</time>
      </trkpt>
      <trkpt lat="49.55759" lon="3.44621">
        <ele>194.8</ele>
        <time>2016-11-05T11:20:06.000Z</time>
      </trkpt>
      <trkpt lat="49.55767" lon="3.44628">
        <ele>195.9</ele>
        <time>2016-11-05T11:20:13.000Z</time>
      </trkpt>
      <trkpt lat="49.55768" lon="3.44629">
        <ele>196</ele>
        <time>2016-11-05T11:20:14.000Z</time>
      </trkpt>
      <trkpt lat="49.55774" lon="3.44637">
        <ele>196.6</ele>
        <time>2016-11-05T11:20:19.000Z</time>
      </trkpt>
      <trkpt lat="49.55775" lon="3.44638">
        <ele>196.9</ele>
        <time>2016-11-05T11:20:20.000Z</time>
      </trkpt>
      <trkpt lat="49.55783" lon="3.44643">
        <ele>198.9</ele>
        <time>2016-11-05T11:20:26.000Z</time>
      </trkpt>
      <trkpt lat="49.55784" lon="3.44643">
        <ele>199.2</ele>
        <time>2016-11-05T11:20:27.000Z</time>
      </trkpt>
      <trkpt lat="49.55791" lon="3.44649">
        <ele>200.7</ele>
        <time>2016-11-05T11:20:32.000Z</time>
      </trkpt>
      <trkpt lat="49.55793" lon="3.44652">
        <ele>200.9</ele>
        <time>2016-11-05T11:20:33.000Z</time>
      </trkpt>
      <trkpt lat="49.558" lon="3.44658">
        <ele>202.2</ele>
        <time>2016-11-05T11:20:38.000Z</time>
      </trkpt>
      <trkpt lat="49.55801" lon="3.4466">
        <ele>202.4</ele>
        <time>2016-11-05T11:20:39.000Z</time>
      </trkpt>
      <trkpt lat="49.55808" lon="3.44668">
        <ele>202.7</ele>
        <time>2016-11-05T11:20:46.000Z</time>
      </trkpt>
      <trkpt lat="49.55808" lon="3.4467">
        <ele>202.8</ele>
        <time>2016-11-05T11:20:47.000Z</time>
      </trkpt>
      <trkpt lat="49.55812" lon="3.44679">
        <ele>202.6</ele>
        <time>2016-11-05T11:20:52.000Z</time>
      </trkpt>
      <trkpt lat="49.55813" lon="3.44682">
        <ele>202.4</ele>
        <time>2016-11-05T11:20:53.000Z</time>
      </trkpt>
      <trkpt lat="49.55819" lon="3.44691">
        <ele>203.3</ele>
        <time>2016-11-05T11:20:58.000Z</time>
      </trkpt>
      <trkpt lat="49.5582" lon="3.44692">
        <ele>203.5</ele>
        <time>2016-11-05T11:20:59.000Z</time>
      </trkpt>
      <trkpt lat="49.55827" lon="3.44701">
        <ele>204.5</ele>
        <time>2016-11-05T11:21:04.000Z</time>
      </trkpt>
      <trkpt lat="49.55828" lon="3.44702">
        <ele>204.9</ele>
        <time>2016-11-05T11:21:05.000Z</time>
      </trkpt>
      <trkpt lat="49.55833" lon="3.44712">
        <ele>206.3</ele>
        <time>2016-11-05T11:21:11.000Z</time>
      </trkpt>
      <trkpt lat="49.55834" lon="3.44714">
        <ele>206.4</ele>
        <time>2016-11-05T11:21:12.000Z</time>
      </trkpt>
      <trkpt lat="49.55838" lon="3.44725">
        <ele>207.3</ele>
        <time>2016-11-05T11:21:17.000Z</time>
      </trkpt>
      <trkpt lat="49.55839" lon="3.44727">
        <ele>207.6</ele>
        <time>2016-11-05T11:21:18.000Z</time>
      </trkpt>
      <trkpt lat="49.55845" lon="3.44735">
        <ele>208.3</ele>
        <time>2016-11-05T11:21:23.000Z</time>
      </trkpt>
      <trkpt lat="49.55847" lon="3.44737">
        <ele>208.7</ele>
        <time>2016-11-05T11:21:24.000Z</time>
      </trkpt>
      <trkpt lat="49.55853" lon="3.44746">
        <ele>208.8</ele>
        <time>2016-11-05T11:21:28.000Z</time>
      </trkpt>
      <trkpt lat="49.55854" lon="3.44749">
        <ele>208.5</ele>
        <time>2016-11-05T11:21:29.000Z</time>
      </trkpt>
      <trkpt lat="49.55859" lon="3.4476">
        <ele>207.2</ele>
        <time>2016-11-05T11:21:33.000Z</time>
      </trkpt>
      <trkpt lat="49.5586" lon="3.44763">
        <ele>206.6</ele>
        <time>2016-11-05T11:21:34.000Z</time>
      </trkpt>
      <trkpt lat="49.55866" lon="3.4477">
        <ele>205.6</ele>
        <time>2016-11-05T11:21:38.000Z</time>
      </trkpt>
      <trkpt lat="49.55867" lon="3.44772">
        <ele>205.4</ele>
        <time>2016-11-05T11:21:39.000Z</time>
      </trkpt>
      <trkpt lat="49.55874" lon="3.44781">
        <ele>205.7</ele>
        <time>2016-11-05T11:21:43.000Z</time>
      </trkpt>
      <trkpt lat="49.55875" lon="3.44783">
        <ele>205.6</ele>
        <time>2016-11-05T11:21:44.000Z</time>
      </trkpt>
      <trkpt lat="49.55881" lon="3.44793">
        <ele>205</ele>
        <time>2016-11-05T11:21:49.000Z</time>
      </trkpt>
      <trkpt lat="49.55881" lon="3.44795">
        <ele>205.3</ele>
        <time>2016-11-05T11:21:50.000Z</time>
      </trkpt>
      <trkpt lat="49.55883" lon="3.44807">
        <ele>205.3</ele>
        <time>2016-11-05T11:21:55.000Z</time>
      </trkpt>
      <trkpt lat="49.55884" lon="3.44809">
        <ele>205.2</ele>
        <time>2016-11-05T11:21:56.000Z</time>
      </trkpt>
      <trkpt lat="49.55889" lon="3.44819">
        <ele>206</ele>
        <time>2016-11-05T11:22:02.000Z</time>
      </trkpt>
      <trkpt lat="49.55889" lon="3.44821">
        <ele>206.3</ele>
        <time>2016-11-05T11:22:03.000Z</time>
      </trkpt>
      <trkpt lat="49.55892" lon="3.44834">
        <ele>205.8</ele>
        <time>2016-11-05T11:22:08.000Z</time>
      </trkpt>
      <trkpt lat="49.55893" lon="3.44836">
        <ele>205.7</ele>
        <time>2016-11-05T11:22:09.000Z</time>
      </trkpt>
      <trkpt lat="49.55895" lon="3.44849">
        <ele>205.4</ele>
        <time>2016-11-05T11:22:14.000Z</time>
      </trkpt>
      <trkpt lat="49.55895" lon="3.44851">
        <ele>205.4</ele>
        <time>2016-11-05T11:22:15.000Z</time>
      </trkpt>
      <trkpt lat="49.55896" lon="3.44865">
        <ele>206.8</ele>
        <time>2016-11-05T11:22:20.000Z</time>
      </trkpt>
      <trkpt lat="49.55897" lon="3.44868">
        <ele>207</ele>
        <time>2016-11-05T11:22:21.000Z</time>
      </trkpt>
      <trkpt lat="49.559" lon="3.44879">
        <ele>207.9</ele>
        <time>2016-11-05T11:22:26.000Z</time>
      </trkpt>
      <trkpt lat="49.55901" lon="3.44883">
        <ele>207.5</ele>
        <time>2016-11-05T11:22:27.000Z</time>
      </trkpt>
      <trkpt lat="49.55902" lon="3.44895">
        <ele>207.5</ele>
        <time>2016-11-05T11:22:33.000Z</time>
      </trkpt>
      <trkpt lat="49.55902" lon="3.44897">
        <ele>207.3</ele>
        <time>2016-11-05T11:22:34.000Z</time>
      </trkpt>
      <trkpt lat="49.5591" lon="3.44902">
        <ele>205.9</ele>
        <time>2016-11-05T11:22:43.000Z</time>
      </trkpt>
      <trkpt lat="49.55911" lon="3.44901">
        <ele>206</ele>
        <time>2016-11-05T11:22:44.000Z</time>
      </trkpt>
      <trkpt lat="49.55919" lon="3.44896">
        <ele>206.3</ele>
        <time>2016-11-05T11:22:50.000Z</time>
      </trkpt>
      <trkpt lat="49.5592" lon="3.44895">
        <ele>206.4</ele>
        <time>2016-11-05T11:22:51.000Z</time>
      </trkpt>
      <trkpt lat="49.55927" lon="3.44886">
        <ele>207.5</ele>
        <time>2016-11-05T11:22:57.000Z</time>
      </trkpt>
      <trkpt lat="49.55928" lon="3.44885">
        <ele>207.7</ele>
        <time>2016-11-05T11:22:58.000Z</time>
      </trkpt>
      <trkpt lat="49.55934" lon="3.44877">
        <ele>208.1</ele>
        <time>2016-11-05T11:23:03.000Z</time>
      </trkpt>
      <trkpt lat="49.55935" lon="3.44876">
        <ele>208.3</ele>
        <time>2016-11-05T11:23:04.000Z</time>
      </trkpt>
      <trkpt lat="49.55941" lon="3.44868">
        <ele>208.6</ele>
        <time>2016-11-05T11:23:09.000Z</time>
      </trkpt>
      <trkpt lat="49.55943" lon="3.44867">
        <ele>208.8</ele>
        <time>2016-11-05T11:23:10.000Z</time>
      </trkpt>
      <trkpt lat="49.5595" lon="3.44861">
        <ele>210.1</ele>
        <time>2016-11-05T11:23:16.000Z</time>
      </trkpt>
      <trkpt lat="49.55951" lon="3.44861">
        <ele>210.4</ele>
        <time>2016-11-05T11:23:17.000Z</time>
      </trkpt>
      <trkpt lat="49.5596" lon="3.44859">
        <ele>211.8</ele>
        <time>2016-11-05T11:23:23.000Z</time>
      </trkpt>
      <trkpt lat="49.55961" lon="3.44859">
        <ele>212.1</ele>
        <time>2016-11-05T11:23:24.000Z</time>
      </trkpt>
      <trkpt lat="49.5597" lon="3.44857">
        <ele>213.7</ele>
        <time>2016-11-05T11:23:30.000Z</time>
      </trkpt>
      <trkpt lat="49.55971" lon="3.44857">
        <ele>213.9</ele>
        <time>2016-11-05T11:23:31.000Z</time>
      </trkpt>
      <trkpt lat="49.5598" lon="3.44855">
        <ele>214.9</ele>
        <time>2016-11-05T11:23:36.000Z</time>
      </trkpt>
      <trkpt lat="49.55981" lon="3.44855">
        <ele>215.2</ele>
        <time>2016-11-05T11:23:37.000Z</time>
      </trkpt>
      <trkpt lat="49.55989" lon="3.44854">
        <ele>216</ele>
        <time>2016-11-05T11:23:42.000Z</time>
      </trkpt>
      <trkpt lat="49.5599" lon="3.44854">
        <ele>216</ele>
        <time>2016-11-05T11:23:43.000Z</time>
      </trkpt>
      <trkpt lat="49.55999" lon="3.44853">
        <ele>217.5</ele>
        <time>2016-11-05T11:23:51.000Z</time>
      </trkpt>
      <trkpt lat="49.56" lon="3.44853">
        <ele>217.8</ele>
        <time>2016-11-05T11:23:52.000Z</time>
      </trkpt>
      <trkpt lat="49.56008" lon="3.44853">
        <ele>219.1</ele>
        <time>2016-11-05T11:23:57.000Z</time>
      </trkpt>
      <trkpt lat="49.5601" lon="3.44852">
        <ele>219.1</ele>
        <time>2016-11-05T11:23:58.000Z</time>
      </trkpt>
      <trkpt lat="49.56018" lon="3.44852">
        <ele>218.4</ele>
        <time>2016-11-05T11:24:02.000Z</time>
      </trkpt>
      <trkpt lat="49.56021" lon="3.44851">
        <ele>217.6</ele>
        <time>2016-11-05T11:24:03.000Z</time>
      </trkpt>
      <trkpt lat="49.56029" lon="3.44852">
        <ele>216.7</ele>
        <time>2016-11-05T11:24:07.000Z</time>
      </trkpt>
      <trkpt lat="49.56031" lon="3.44853">
        <ele>216.4</ele>
        <time>2016-11-05T11:24:08.000Z</time>
      </trkpt>
      <trkpt lat="49.56037" lon="3.44856">
        <ele>214</ele>
        <time>2016-11-05T11:24:10.000Z</time>
      </trkpt>
      <trkpt lat="49.5604" lon="3.44857">
        <ele>213.5</ele>
        <time>2016-11-05T11:24:11.000Z</time>
      </trkpt>
      <trkpt lat="49.56047" lon="3.44859">
        <ele>212.4</ele>
        <time>2016-11-05T11:24:14.000Z</time>
      </trkpt>
      <trkpt lat="49.56049" lon="3.4486">
        <ele>212.2</ele>
        <time>2016-11-05T11:24:15.000Z</time>
      </trkpt>
      <trkpt lat="49.56056" lon="3.44868">
        <ele>212.7</ele>
        <time>2016-11-05T11:24:20.000Z</time>
      </trkpt>
      <trkpt lat="49.56057" lon="3.4487">
        <ele>212.7</ele>
        <time>2016-11-05T11:24:21.000Z</time>
      </trkpt>
      <trkpt lat="49.56064" lon="3.44877">
        <ele>213</ele>
        <time>2016-11-05T11:24:25.000Z</time>
      </trkpt>
      <trkpt lat="49.56066" lon="3.44879">
        <ele>212.8</ele>
        <time>2016-11-05T11:24:26.000Z</time>
      </trkpt>
      <trkpt lat="49.56072" lon="3.44887">
        <ele>212.1</ele>
        <time>2016-11-05T11:24:31.000Z</time>
      </trkpt>
      <trkpt lat="49.56074" lon="3.44888">
        <ele>212.1</ele>
        <time>2016-11-05T11:24:32.000Z</time>
      </trkpt>
      <trkpt lat="49.5608" lon="3.44896">
        <ele>211.8</ele>
        <time>2016-11-05T11:24:37.000Z</time>
      </trkpt>
      <trkpt lat="49.56081" lon="3.44898">
        <ele>211.7</ele>
        <time>2016-11-05T11:24:38.000Z</time>
      </trkpt>
      <trkpt lat="49.56088" lon="3.44905">
        <ele>211.7</ele>
        <time>2016-11-05T11:24:43.000Z</time>
      </trkpt>
      <trkpt lat="49.5609" lon="3.44907">
        <ele>211.7</ele>
        <time>2016-11-05T11:24:44.000Z</time>
      </trkpt>
      <trkpt lat="49.56097" lon="3.44913">
        <ele>212.8</ele>
        <time>2016-11-05T11:24:49.000Z</time>
      </trkpt>
      <trkpt lat="49.56099" lon="3.44914">
        <ele>213</ele>
        <time>2016-11-05T11:24:50.000Z</time>
      </trkpt>
      <trkpt lat="49.56106" lon="3.44921">
        <ele>214.3</ele>
        <time>2016-11-05T11:24:56.000Z</time>
      </trkpt>
      <trkpt lat="49.56107" lon="3.44922">
        <ele>214.5</ele>
        <time>2016-11-05T11:24:57.000Z</time>
      </trkpt>
      <trkpt lat="49.56114" lon="3.44929">
        <ele>215</ele>
        <time>2016-11-05T11:25:03.000Z</time>
      </trkpt>
      <trkpt lat="49.56115" lon="3.4493">
        <ele>214.9</ele>
        <time>2016-11-05T11:25:04.000Z</time>
      </trkpt>
      <trkpt lat="49.56122" lon="3.44938">
        <ele>214.3</ele>
        <time>2016-11-05T11:25:09.000Z</time>
      </trkpt>
      <trkpt lat="49.56123" lon="3.4494">
        <ele>214.4</ele>
        <time>2016-11-05T11:25:10.000Z</time>
      </trkpt>
      <trkpt lat="49.5613" lon="3.44948">
        <ele>214.4</ele>
        <time>2016-11-05T11:25:15.000Z</time>
      </trkpt>
      <trkpt lat="49.56131" lon="3.44948">
        <ele>214.5</ele>
        <time>2016-11-05T11:25:16.000Z</time>
      </trkpt>
      <trkpt lat="49.56138" lon="3.44955">
        <ele>214.7</ele>
        <time>2016-11-05T11:25:22.000Z</time>
      </trkpt>
      <trkpt lat="49.5614" lon="3.44957">
        <ele>214.7</ele>
        <time>2016-11-05T11:25:23.000Z</time>
      </trkpt>
      <trkpt lat="49.56146" lon="3.44965">
        <ele>214.3</ele>
        <time>2016-11-05T11:25:28.000Z</time>
      </trkpt>
      <trkpt lat="49.56147" lon="3.44966">
        <ele>214.3</ele>
        <time>2016-11-05T11:25:29.000Z</time>
      </trkpt>
      <trkpt lat="49.56154" lon="3.44972">
        <ele>214.6</ele>
        <time>2016-11-05T11:25:34.000Z</time>
      </trkpt>
      <trkpt lat="49.56155" lon="3.44973">
        <ele>214.6</ele>
        <time>2016-11-05T11:25:35.000Z</time>
      </trkpt>
      <trkpt lat="49.56162" lon="3.4498">
        <ele>214.2</ele>
        <time>2016-11-05T11:25:40.000Z</time>
      </trkpt>
      <trkpt lat="49.56163" lon="3.44981">
        <ele>214.3</ele>
        <time>2016-11-05T11:25:41.000Z</time>
      </trkpt>
      <trkpt lat="49.5617" lon="3.44987">
        <ele>214.4</ele>
        <time>2016-11-05T11:25:46.000Z</time>
      </trkpt>
      <trkpt lat="49.56172" lon="3.44989">
        <ele>214.3</ele>
        <time>2016-11-05T11:25:47.000Z</time>
      </trkpt>
      <trkpt lat="49.5618" lon="3.44993">
        <ele>213.8</ele>
        <time>2016-11-05T11:25:52.000Z</time>
      </trkpt>
      <trkpt lat="49.56181" lon="3.44994">
        <ele>213.8</ele>
        <time>2016-11-05T11:25:53.000Z</time>
      </trkpt>
      <trkpt lat="49.56189" lon="3.45">
        <ele>213.3</ele>
        <time>2016-11-05T11:25:59.000Z</time>
      </trkpt>
      <trkpt lat="49.5619" lon="3.45001">
        <ele>213.3</ele>
        <time>2016-11-05T11:26:00.000Z</time>
      </trkpt>
      <trkpt lat="49.56197" lon="3.45008">
        <ele>212.8</ele>
        <time>2016-11-05T11:26:05.000Z</time>
      </trkpt>
      <trkpt lat="49.56198" lon="3.45009">
        <ele>212.6</ele>
        <time>2016-11-05T11:26:06.000Z</time>
      </trkpt>
      <trkpt lat="49.56205" lon="3.45016">
        <ele>212.3</ele>
        <time>2016-11-05T11:26:11.000Z</time>
      </trkpt>
      <trkpt lat="49.56206" lon="3.45017">
        <ele>212.3</ele>
        <time>2016-11-05T11:26:12.000Z</time>
      </trkpt>
      <trkpt lat="49.56213" lon="3.45023">
        <ele>212</ele>
        <time>2016-11-05T11:26:17.000Z</time>
      </trkpt>
      <trkpt lat="49.56214" lon="3.45025">
        <ele>211.8</ele>
        <time>2016-11-05T11:26:18.000Z</time>
      </trkpt>
      <trkpt lat="49.56222" lon="3.45032">
        <ele>212.2</ele>
        <time>2016-11-05T11:26:23.000Z</time>
      </trkpt>
      <trkpt lat="49.56223" lon="3.45034">
        <ele>212.1</ele>
        <time>2016-11-05T11:26:24.000Z</time>
      </trkpt>
      <trkpt lat="49.5623" lon="3.45041">
        <ele>211.9</ele>
        <time>2016-11-05T11:26:29.000Z</time>
      </trkpt>
      <trkpt lat="49.56231" lon="3.45043">
        <ele>211.8</ele>
        <time>2016-11-05T11:26:30.000Z</time>
      </trkpt>
      <trkpt lat="49.56238" lon="3.4505">
        <ele>211.6</ele>
        <time>2016-11-05T11:26:35.000Z</time>
      </trkpt>
      <trkpt lat="49.56239" lon="3.45051">
        <ele>211.6</ele>
        <time>2016-11-05T11:26:36.000Z</time>
      </trkpt>
      <trkpt lat="49.56246" lon="3.45059">
        <ele>210.7</ele>
        <time>2016-11-05T11:26:43.000Z</time>
      </trkpt>
      <trkpt lat="49.56246" lon="3.4506">
        <ele>210.5</ele>
        <time>2016-11-05T11:26:44.000Z</time>
      </trkpt>
      <trkpt lat="49.56253" lon="3.45067">
        <ele>210.5</ele>
        <time>2016-11-05T11:26:49.000Z</time>
      </trkpt>
      <trkpt lat="49.56254" lon="3.45069">
        <ele>210.5</ele>
        <time>2016-11-05T11:26:50.000Z</time>
      </trkpt>
      <trkpt lat="49.5626" lon="3.45078">
        <ele>210.9</ele>
        <time>2016-11-05T11:26:56.000Z</time>
      </trkpt>
      <trkpt lat="49.56262" lon="3.45079">
        <ele>211.1</ele>
        <time>2016-11-05T11:26:57.000Z</time>
      </trkpt>
      <trkpt lat="49.56268" lon="3.45084">
        <ele>210.5</ele>
        <time>2016-11-05T11:27:02.000Z</time>
      </trkpt>
      <trkpt lat="49.5627" lon="3.45086">
        <ele>210.4</ele>
        <time>2016-11-05T11:27:03.000Z</time>
      </trkpt>
      <trkpt lat="49.56277" lon="3.45094">
        <ele>209.8</ele>
        <time>2016-11-05T11:27:08.000Z</time>
      </trkpt>
      <trkpt lat="49.56278" lon="3.45095">
        <ele>209.9</ele>
        <time>2016-11-05T11:27:09.000Z</time>
      </trkpt>
      <trkpt lat="49.56286" lon="3.45102">
        <ele>209.3</ele>
        <time>2016-11-05T11:27:14.000Z</time>
      </trkpt>
      <trkpt lat="49.56287" lon="3.45103">
        <ele>208.9</ele>
        <time>2016-11-05T11:27:15.000Z</time>
      </trkpt>
      <trkpt lat="49.56295" lon="3.45109">
        <ele>207.6</ele>
        <time>2016-11-05T11:27:20.000Z</time>
      </trkpt>
      <trkpt lat="49.56296" lon="3.4511">
        <ele>207.4</ele>
        <time>2016-11-05T11:27:21.000Z</time>
      </trkpt>
      <trkpt lat="49.56303" lon="3.45118">
        <ele>206.2</ele>
        <time>2016-11-05T11:27:26.000Z</time>
      </trkpt>
      <trkpt lat="49.56304" lon="3.4512">
        <ele>206.3</ele>
        <time>2016-11-05T11:27:27.000Z</time>
      </trkpt>
      <trkpt lat="49.5631" lon="3.45126">
        <ele>207.4</ele>
        <time>2016-11-05T11:27:32.000Z</time>
      </trkpt>
      <trkpt lat="49.56312" lon="3.45127">
        <ele>207.5</ele>
        <time>2016-11-05T11:27:33.000Z</time>
      </trkpt>
      <trkpt lat="49.56319" lon="3.45135">
        <ele>207.7</ele>
        <time>2016-11-05T11:27:39.000Z</time>
      </trkpt>
      <trkpt lat="49.56321" lon="3.45136">
        <ele>207.8</ele>
        <time>2016-11-05T11:27:40.000Z</time>
      </trkpt>
      <trkpt lat="49.56328" lon="3.45143">
        <ele>208.1</ele>
        <time>2016-11-05T11:27:44.000Z</time>
      </trkpt>
      <trkpt lat="49.5633" lon="3.45145">
        <ele>208.1</ele>
        <time>2016-11-05T11:27:45.000Z</time>
      </trkpt>
      <trkpt lat="49.56337" lon="3.45154">
        <ele>208.3</ele>
        <time>2016-11-05T11:27:49.000Z</time>
      </trkpt>
      <trkpt lat="49.56338" lon="3.45155">
        <ele>208.4</ele>
        <time>2016-11-05T11:27:50.000Z</time>
      </trkpt>
      <trkpt lat="49.56346" lon="3.45161">
        <ele>208.3</ele>
        <time>2016-11-05T11:27:55.000Z</time>
      </trkpt>
      <trkpt lat="49.56347" lon="3.45164">
        <ele>208.5</ele>
        <time>2016-11-05T11:27:56.000Z</time>
      </trkpt>
      <trkpt lat="49.56355" lon="3.4517">
        <ele>209.6</ele>
        <time>2016-11-05T11:28:02.000Z</time>
      </trkpt>
      <trkpt lat="49.56356" lon="3.45171">
        <ele>209.6</ele>
        <time>2016-11-05T11:28:03.000Z</time>
      </trkpt>
      <trkpt lat="49.56365" lon="3.45169">
        <ele>208.4</ele>
        <time>2016-11-05T11:28:09.000Z</time>
      </trkpt>
      <trkpt lat="49.56366" lon="3.45168">
        <ele>208.1</ele>
        <time>2016-11-05T11:28:10.000Z</time>
      </trkpt>
      <trkpt lat="49.56372" lon="3.45158">
        <ele>207.7</ele>
        <time>2016-11-05T11:28:15.000Z</time>
      </trkpt>
      <trkpt lat="49.56372" lon="3.45156">
        <ele>207.9</ele>
        <time>2016-11-05T11:28:16.000Z</time>
      </trkpt>
      <trkpt lat="49.56377" lon="3.45146">
        <ele>208.8</ele>
        <time>2016-11-05T11:28:22.000Z</time>
      </trkpt>
      <trkpt lat="49.56377" lon="3.45144">
        <ele>209</ele>
        <time>2016-11-05T11:28:23.000Z</time>
      </trkpt>
      <trkpt lat="49.56381" lon="3.45132">
        <ele>210.1</ele>
        <time>2016-11-05T11:28:29.000Z</time>
      </trkpt>
      <trkpt lat="49.56382" lon="3.4513">
        <ele>210.1</ele>
        <time>2016-11-05T11:28:30.000Z</time>
      </trkpt>
      <trkpt lat="49.56386" lon="3.45119">
        <ele>210.7</ele>
        <time>2016-11-05T11:28:36.000Z</time>
      </trkpt>
      <trkpt lat="49.56387" lon="3.45117">
        <ele>210.7</ele>
        <time>2016-11-05T11:28:37.000Z</time>
      </trkpt>
      <trkpt lat="49.56391" lon="3.45107">
        <ele>211.2</ele>
        <time>2016-11-05T11:28:42.000Z</time>
      </trkpt>
      <trkpt lat="49.56391" lon="3.45105">
        <ele>211.4</ele>
        <time>2016-11-05T11:28:43.000Z</time>
      </trkpt>
      <trkpt lat="49.56396" lon="3.45093">
        <ele>211.9</ele>
        <time>2016-11-05T11:28:49.000Z</time>
      </trkpt>
      <trkpt lat="49.56396" lon="3.45091">
        <ele>212.2</ele>
        <time>2016-11-05T11:28:50.000Z</time>
      </trkpt>
      <trkpt lat="49.56398" lon="3.45088">
        <ele>212.5</ele>
        <time>2016-11-05T11:28:53.000Z</time>
      </trkpt>
      <trkpt lat="49.56398" lon="3.45088">
        <ele>212.8</ele>
        <time>2016-11-05T11:28:54.000Z</time>
      </trkpt>
      <trkpt lat="49.56398" lon="3.45087">
        <ele>213.1</ele>
        <time>2016-11-05T11:28:55.000Z</time>
      </trkpt>
      <trkpt lat="49.56398" lon="3.45086">
        <ele>213.3</ele>
        <time>2016-11-05T11:28:56.000Z</time>
      </trkpt>
      <trkpt lat="49.56398" lon="3.45085">
        <ele>213.7</ele>
        <time>2016-11-05T11:28:57.000Z</time>
      </trkpt>
      <trkpt lat="49.56399" lon="3.45085">
        <ele>213.6</ele>
        <time>2016-11-05T11:28:58.000Z</time>
      </trkpt>
      <trkpt lat="49.564" lon="3.45084">
        <ele>213.6</ele>
        <time>2016-11-05T11:28:59.000Z</time>
      </trkpt>
      <trkpt lat="49.56408" lon="3.45078">
        <ele>213.5</ele>
        <time>2016-11-05T11:29:09.000Z</time>
      </trkpt>
      <trkpt lat="49.56408" lon="3.45077">
        <ele>213.9</ele>
        <time>2016-11-05T11:29:10.000Z</time>
      </trkpt>
      <trkpt lat="49.56415" lon="3.45067">
        <ele>216.7</ele>
        <time>2016-11-05T11:29:19.000Z</time>
      </trkpt>
      <trkpt lat="49.56415" lon="3.45067">
        <ele>216.8</ele>
        <time>2016-11-05T11:29:20.000Z</time>
      </trkpt>
      <trkpt lat="49.56414" lon="3.45054">
        <ele>216.4</ele>
        <time>2016-11-05T11:29:34.000Z</time>
      </trkpt>
      <trkpt lat="49.56414" lon="3.45052">
        <ele>216.7</ele>
        <time>2016-11-05T11:29:35.000Z</time>
      </trkpt>
      <trkpt lat="49.56422" lon="3.45047">
        <ele>214.3</ele>
        <time>2016-11-05T11:29:41.000Z</time>
      </trkpt>
      <trkpt lat="49.56423" lon="3.45046">
        <ele>214.5</ele>
        <time>2016-11-05T11:29:42.000Z</time>
      </trkpt>
      <trkpt lat="49.56422" lon="3.45033">
        <ele>217.4</ele>
        <time>2016-11-05T11:29:55.000Z</time>
      </trkpt>
      <trkpt lat="49.56423" lon="3.45031">
        <ele>217.7</ele>
        <time>2016-11-05T11:29:56.000Z</time>
      </trkpt>
      <trkpt lat="49.56427" lon="3.4502">
        <ele>218.5</ele>
        <time>2016-11-05T11:30:05.000Z</time>
      </trkpt>
      <trkpt lat="49.56427" lon="3.45018">
        <ele>218.7</ele>
        <time>2016-11-05T11:30:06.000Z</time>
      </trkpt>
      <trkpt lat="49.56429" lon="3.45006">
        <ele>219.8</ele>
        <time>2016-11-05T11:30:14.000Z</time>
      </trkpt>
      <trkpt lat="49.5643" lon="3.45004">
        <ele>220</ele>
        <time>2016-11-05T11:30:15.000Z</time>
      </trkpt>
      <trkpt lat="49.56437" lon="3.44999">
        <ele>221</ele>
        <time>2016-11-05T11:30:23.000Z</time>
      </trkpt>
      <trkpt lat="49.56438" lon="3.44999">
        <ele>220.8</ele>
        <time>2016-11-05T11:30:24.000Z</time>
      </trkpt>
      <trkpt lat="49.56446" lon="3.45002">
        <ele>219.6</ele>
        <time>2016-11-05T11:30:30.000Z</time>
      </trkpt>
      <trkpt lat="49.56447" lon="3.45003">
        <ele>219.3</ele>
        <time>2016-11-05T11:30:31.000Z</time>
      </trkpt>
      <trkpt lat="49.56456" lon="3.45005">
        <ele>217.7</ele>
        <time>2016-11-05T11:30:38.000Z</time>
      </trkpt>
      <trkpt lat="49.56457" lon="3.45005">
        <ele>217.8</ele>
        <time>2016-11-05T11:30:39.000Z</time>
      </trkpt>
      <trkpt lat="49.56465" lon="3.45">
        <ele>218.5</ele>
        <time>2016-11-05T11:30:49.000Z</time>
      </trkpt>
      <trkpt lat="49.56466" lon="3.45">
        <ele>218.6</ele>
        <time>2016-11-05T11:30:50.000Z</time>
      </trkpt>
      <trkpt lat="49.56474" lon="3.45005">
        <ele>218.8</ele>
        <time>2016-11-05T11:30:56.000Z</time>
      </trkpt>
      <trkpt lat="49.56475" lon="3.45006">
        <ele>218.8</ele>
        <time>2016-11-05T11:30:57.000Z</time>
      </trkpt>
      <trkpt lat="49.56484" lon="3.4501">
        <ele>218.7</ele>
        <time>2016-11-05T11:31:02.000Z</time>
      </trkpt>
      <trkpt lat="49.56485" lon="3.45012">
        <ele>218.4</ele>
        <time>2016-11-05T11:31:03.000Z</time>
      </trkpt>
      <trkpt lat="49.56491" lon="3.45019">
        <ele>217.7</ele>
        <time>2016-11-05T11:31:08.000Z</time>
      </trkpt>
      <trkpt lat="49.56493" lon="3.45021">
        <ele>217.8</ele>
        <time>2016-11-05T11:31:09.000Z</time>
      </trkpt>
      <trkpt lat="49.56499" lon="3.45026">
        <ele>217</ele>
        <time>2016-11-05T11:31:13.000Z</time>
      </trkpt>
      <trkpt lat="49.56501" lon="3.45027">
        <ele>216.6</ele>
        <time>2016-11-05T11:31:14.000Z</time>
      </trkpt>
      <trkpt lat="49.56508" lon="3.4503">
        <ele>215.7</ele>
        <time>2016-11-05T11:31:18.000Z</time>
      </trkpt>
      <trkpt lat="49.5651" lon="3.45031">
        <ele>215.8</ele>
        <time>2016-11-05T11:31:19.000Z</time>
      </trkpt>
      <trkpt lat="49.56518" lon="3.45035">
        <ele>214.8</ele>
        <time>2016-11-05T11:31:25.000Z</time>
      </trkpt>
      <trkpt lat="49.56519" lon="3.45035">
        <ele>214.6</ele>
        <time>2016-11-05T11:31:26.000Z</time>
      </trkpt>
      <trkpt lat="49.56527" lon="3.45042">
        <ele>214.4</ele>
        <time>2016-11-05T11:31:32.000Z</time>
      </trkpt>
      <trkpt lat="49.56528" lon="3.45043">
        <ele>214.5</ele>
        <time>2016-11-05T11:31:33.000Z</time>
      </trkpt>
      <trkpt lat="49.56536" lon="3.45048">
        <ele>214.8</ele>
        <time>2016-11-05T11:31:39.000Z</time>
      </trkpt>
      <trkpt lat="49.56537" lon="3.45049">
        <ele>214.9</ele>
        <time>2016-11-05T11:31:40.000Z</time>
      </trkpt>
      <trkpt lat="49.56544" lon="3.45043">
        <ele>213</ele>
        <time>2016-11-05T11:31:47.000Z</time>
      </trkpt>
      <trkpt lat="49.56545" lon="3.45041">
        <ele>212.1</ele>
        <time>2016-11-05T11:31:48.000Z</time>
      </trkpt>
      <trkpt lat="49.56549" lon="3.4503">
        <ele>212.7</ele>
        <time>2016-11-05T11:31:54.000Z</time>
      </trkpt>
      <trkpt lat="49.5655" lon="3.45028">
        <ele>212.9</ele>
        <time>2016-11-05T11:31:55.000Z</time>
      </trkpt>
      <trkpt lat="49.56554" lon="3.45018">
        <ele>214.5</ele>
        <time>2016-11-05T11:32:01.000Z</time>
      </trkpt>
      <trkpt lat="49.56554" lon="3.45016">
        <ele>214.8</ele>
        <time>2016-11-05T11:32:02.000Z</time>
      </trkpt>
      <trkpt lat="49.56557" lon="3.45005">
        <ele>216.2</ele>
        <time>2016-11-05T11:32:08.000Z</time>
      </trkpt>
      <trkpt lat="49.56557" lon="3.45003">
        <ele>216.4</ele>
        <time>2016-11-05T11:32:09.000Z</time>
      </trkpt>
      <trkpt lat="49.56563" lon="3.44992">
        <ele>218.7</ele>
        <time>2016-11-05T11:32:13.000Z</time>
      </trkpt>
      <trkpt lat="49.56564" lon="3.44989">
        <ele>219.2</ele>
        <time>2016-11-05T11:32:14.000Z</time>
      </trkpt>
      <trkpt lat="49.56567" lon="3.44979">
        <ele>220.7</ele>
        <time>2016-11-05T11:32:19.000Z</time>
      </trkpt>
      <trkpt lat="49.56567" lon="3.44976">
        <ele>221.1</ele>
        <time>2016-11-05T11:32:20.000Z</time>
      </trkpt>
      <trkpt lat="49.56569" lon="3.44963">
        <ele>222.7</ele>
        <time>2016-11-05T11:32:26.000Z</time>
      </trkpt>
      <trkpt lat="49.5657" lon="3.4496">
        <ele>223</ele>
        <time>2016-11-05T11:32:27.000Z</time>
      </trkpt>
      <trkpt lat="49.56571" lon="3.44947">
        <ele>224.8</ele>
        <time>2016-11-05T11:32:33.000Z</time>
      </trkpt>
      <trkpt lat="49.56571" lon="3.44946">
        <ele>225.2</ele>
        <time>2016-11-05T11:32:34.000Z</time>
      </trkpt>
      <trkpt lat="49.56574" lon="3.44936">
        <ele>227.8</ele>
        <time>2016-11-05T11:32:41.000Z</time>
      </trkpt>
      <trkpt lat="49.56575" lon="3.44933">
        <ele>228.5</ele>
        <time>2016-11-05T11:32:42.000Z</time>
      </trkpt>
      <trkpt lat="49.56579" lon="3.44922">
        <ele>230.4</ele>
        <time>2016-11-05T11:32:47.000Z</time>
      </trkpt>
      <trkpt lat="49.56579" lon="3.4492">
        <ele>230.7</ele>
        <time>2016-11-05T11:32:48.000Z</time>
      </trkpt>
      <trkpt lat="49.56582" lon="3.44909">
        <ele>231.5</ele>
        <time>2016-11-05T11:32:53.000Z</time>
      </trkpt>
      <trkpt lat="49.56583" lon="3.44907">
        <ele>231.7</ele>
        <time>2016-11-05T11:32:54.000Z</time>
      </trkpt>
      <trkpt lat="49.56587" lon="3.44895">
        <ele>233.1</ele>
        <time>2016-11-05T11:33:01.000Z</time>
      </trkpt>
      <trkpt lat="49.56588" lon="3.44893">
        <ele>233.3</ele>
        <time>2016-11-05T11:33:02.000Z</time>
      </trkpt>
      <trkpt lat="49.56593" lon="3.44884">
        <ele>234.8</ele>
        <time>2016-11-05T11:33:09.000Z</time>
      </trkpt>
      <trkpt lat="49.56594" lon="3.44882">
        <ele>234.9</ele>
        <time>2016-11-05T11:33:10.000Z</time>
      </trkpt>
      <trkpt lat="49.56598" lon="3.44873">
        <ele>236.2</ele>
        <time>2016-11-05T11:33:17.000Z</time>
      </trkpt>
      <trkpt lat="49.56599" lon="3.4487">
        <ele>236.5</ele>
        <time>2016-11-05T11:33:18.000Z</time>
      </trkpt>
      <trkpt lat="49.56602" lon="3.4486">
        <ele>237.1</ele>
        <time>2016-11-05T11:33:22.000Z</time>
      </trkpt>
      <trkpt lat="49.56603" lon="3.44858">
        <ele>237</ele>
        <time>2016-11-05T11:33:23.000Z</time>
      </trkpt>
      <trkpt lat="49.56607" lon="3.44847">
        <ele>236.5</ele>
        <time>2016-11-05T11:33:27.000Z</time>
      </trkpt>
      <trkpt lat="49.56608" lon="3.44845">
        <ele>236.7</ele>
        <time>2016-11-05T11:33:28.000Z</time>
      </trkpt>
      <trkpt lat="49.5661" lon="3.44834">
        <ele>236.7</ele>
        <time>2016-11-05T11:33:32.000Z</time>
      </trkpt>
      <trkpt lat="49.56611" lon="3.4483">
        <ele>236.7</ele>
        <time>2016-11-05T11:33:33.000Z</time>
      </trkpt>
      <trkpt lat="49.56614" lon="3.4482">
        <ele>236.6</ele>
        <time>2016-11-05T11:33:36.000Z</time>
      </trkpt>
      <trkpt lat="49.56614" lon="3.44816">
        <ele>236.3</ele>
        <time>2016-11-05T11:33:37.000Z</time>
      </trkpt>
      <trkpt lat="49.5662" lon="3.44809">
        <ele>234.6</ele>
        <time>2016-11-05T11:33:42.000Z</time>
      </trkpt>
      <trkpt lat="49.56623" lon="3.44808">
        <ele>232.4</ele>
        <time>2016-11-05T11:33:43.000Z</time>
      </trkpt>
      <trkpt lat="49.56631" lon="3.44809">
        <ele>232.7</ele>
        <time>2016-11-05T11:33:49.000Z</time>
      </trkpt>
      <trkpt lat="49.56632" lon="3.44809">
        <ele>232.5</ele>
        <time>2016-11-05T11:33:50.000Z</time>
      </trkpt>
      <trkpt lat="49.56641" lon="3.44809">
        <ele>232.2</ele>
        <time>2016-11-05T11:34:00.000Z</time>
      </trkpt>
      <trkpt lat="49.56642" lon="3.44809">
        <ele>232</ele>
        <time>2016-11-05T11:34:01.000Z</time>
      </trkpt>
      <trkpt lat="49.56642" lon="3.44809">
        <ele>231.9</ele>
        <time>2016-11-05T11:34:02.000Z</time>
      </trkpt>
      <trkpt lat="49.56642" lon="3.44809">
        <ele>232</ele>
        <time>2016-11-05T11:34:03.000Z</time>
      </trkpt>
      <trkpt lat="49.56642" lon="3.44809">
        <ele>232.2</ele>
        <time>2016-11-05T11:34:04.000Z</time>
      </trkpt>
      <trkpt lat="49.5665" lon="3.44813">
        <ele>232.8</ele>
        <time>2016-11-05T11:34:10.000Z</time>
      </trkpt>
      <trkpt lat="49.56652" lon="3.44814">
        <ele>232.9</ele>
        <time>2016-11-05T11:34:11.000Z</time>
      </trkpt>
      <trkpt lat="49.56659" lon="3.44819">
        <ele>233.3</ele>
        <time>2016-11-05T11:34:17.000Z</time>
      </trkpt>
      <trkpt lat="49.56661" lon="3.44819">
        <ele>233.5</ele>
        <time>2016-11-05T11:34:18.000Z</time>
      </trkpt>
      <trkpt lat="49.56669" lon="3.4482">
        <ele>233.2</ele>
        <time>2016-11-05T11:34:24.000Z</time>
      </trkpt>
      <trkpt lat="49.56671" lon="3.4482">
        <ele>232.9</ele>
        <time>2016-11-05T11:34:25.000Z</time>
      </trkpt>
      <trkpt lat="49.5668" lon="3.4482">
        <ele>232.2</ele>
        <time>2016-11-05T11:34:30.000Z</time>
      </trkpt>
      <trkpt lat="49.56681" lon="3.4482">
        <ele>232.2</ele>
        <time>2016-11-05T11:34:31.000Z</time>
      </trkpt>
      <trkpt lat="49.5669" lon="3.44821">
        <ele>230.9</ele>
        <time>2016-11-05T11:34:37.000Z</time>
      </trkpt>
      <trkpt lat="49.56691" lon="3.44823">
        <ele>230.8</ele>
        <time>2016-11-05T11:34:38.000Z</time>
      </trkpt>
      <trkpt lat="49.56698" lon="3.4483">
        <ele>230.4</ele>
        <time>2016-11-05T11:34:43.000Z</time>
      </trkpt>
      <trkpt lat="49.56699" lon="3.44832">
        <ele>230.4</ele>
        <time>2016-11-05T11:34:44.000Z</time>
      </trkpt>
      <trkpt lat="49.56706" lon="3.44836">
        <ele>230.6</ele>
        <time>2016-11-05T11:34:49.000Z</time>
      </trkpt>
      <trkpt lat="49.56708" lon="3.44837">
        <ele>230.7</ele>
        <time>2016-11-05T11:34:50.000Z</time>
      </trkpt>
      <trkpt lat="49.56717" lon="3.4484">
        <ele>230.9</ele>
        <time>2016-11-05T11:34:57.000Z</time>
      </trkpt>
      <trkpt lat="49.56718" lon="3.4484">
        <ele>230.7</ele>
        <time>2016-11-05T11:34:58.000Z</time>
      </trkpt>
      <trkpt lat="49.56725" lon="3.44842">
        <ele>230.7</ele>
        <time>2016-11-05T11:35:04.000Z</time>
      </trkpt>
      <trkpt lat="49.56727" lon="3.44842">
        <ele>230.6</ele>
        <time>2016-11-05T11:35:05.000Z</time>
      </trkpt>
      <trkpt lat="49.56733" lon="3.44842">
        <ele>229.5</ele>
        <time>2016-11-05T11:35:08.000Z</time>
      </trkpt>
      <trkpt lat="49.56736" lon="3.44842">
        <ele>229.4</ele>
        <time>2016-11-05T11:35:09.000Z</time>
      </trkpt>
      <trkpt lat="49.56743" lon="3.44844">
        <ele>229.2</ele>
        <time>2016-11-05T11:35:13.000Z</time>
      </trkpt>
      <trkpt lat="49.56745" lon="3.44845">
        <ele>229.4</ele>
        <time>2016-11-05T11:35:14.000Z</time>
      </trkpt>
      <trkpt lat="49.56753" lon="3.44848">
        <ele>229.2</ele>
        <time>2016-11-05T11:35:20.000Z</time>
      </trkpt>
      <trkpt lat="49.56754" lon="3.44849">
        <ele>229.3</ele>
        <time>2016-11-05T11:35:21.000Z</time>
      </trkpt>
      <trkpt lat="49.56762" lon="3.44853">
        <ele>230.7</ele>
        <time>2016-11-05T11:35:25.000Z</time>
      </trkpt>
      <trkpt lat="49.56764" lon="3.44853">
        <ele>230.6</ele>
        <time>2016-11-05T11:35:26.000Z</time>
      </trkpt>
      <trkpt lat="49.56772" lon="3.44853">
        <ele>231.5</ele>
        <time>2016-11-05T11:35:35.000Z</time>
      </trkpt>
      <trkpt lat="49.56773" lon="3.44853">
        <ele>231.7</ele>
        <time>2016-11-05T11:35:36.000Z</time>
      </trkpt>
      <trkpt lat="49.56781" lon="3.44861">
        <ele>232.8</ele>
        <time>2016-11-05T11:35:41.000Z</time>
      </trkpt>
      <trkpt lat="49.56782" lon="3.44862">
        <ele>232.8</ele>
        <time>2016-11-05T11:35:42.000Z</time>
      </trkpt>
      <trkpt lat="49.5679" lon="3.44864">
        <ele>233.4</ele>
        <time>2016-11-05T11:35:47.000Z</time>
      </trkpt>
      <trkpt lat="49.56791" lon="3.44865">
        <ele>233.6</ele>
        <time>2016-11-05T11:35:48.000Z</time>
      </trkpt>
      <trkpt lat="49.56799" lon="3.44868">
        <ele>234.3</ele>
        <time>2016-11-05T11:35:54.000Z</time>
      </trkpt>
      <trkpt lat="49.56801" lon="3.44868">
        <ele>234.1</ele>
        <time>2016-11-05T11:35:55.000Z</time>
      </trkpt>
      <trkpt lat="49.5681" lon="3.4487">
        <ele>235.6</ele>
        <time>2016-11-05T11:36:04.000Z</time>
      </trkpt>
      <trkpt lat="49.56811" lon="3.4487">
        <ele>236.1</ele>
        <time>2016-11-05T11:36:05.000Z</time>
      </trkpt>
      <trkpt lat="49.5682" lon="3.44869">
        <ele>236.8</ele>
        <time>2016-11-05T11:36:11.000Z</time>
      </trkpt>
      <trkpt lat="49.56821" lon="3.4487">
        <ele>237</ele>
        <time>2016-11-05T11:36:12.000Z</time>
      </trkpt>
      <trkpt lat="49.56829" lon="3.44873">
        <ele>237.4</ele>
        <time>2016-11-05T11:36:17.000Z</time>
      </trkpt>
      <trkpt lat="49.5683" lon="3.44874">
        <ele>237.2</ele>
        <time>2016-11-05T11:36:18.000Z</time>
      </trkpt>
      <trkpt lat="49.56838" lon="3.44877">
        <ele>238.4</ele>
        <time>2016-11-05T11:36:23.000Z</time>
      </trkpt>
      <trkpt lat="49.5684" lon="3.44878">
        <ele>238.5</ele>
        <time>2016-11-05T11:36:24.000Z</time>
      </trkpt>
      <trkpt lat="49.56847" lon="3.44879">
        <ele>238.5</ele>
        <time>2016-11-05T11:36:29.000Z</time>
      </trkpt>
      <trkpt lat="49.56849" lon="3.4488">
        <ele>238.2</ele>
        <time>2016-11-05T11:36:30.000Z</time>
      </trkpt>
      <trkpt lat="49.56856" lon="3.44883">
        <ele>238.5</ele>
        <time>2016-11-05T11:36:35.000Z</time>
      </trkpt>
      <trkpt lat="49.56858" lon="3.44883">
        <ele>238.9</ele>
        <time>2016-11-05T11:36:36.000Z</time>
      </trkpt>
      <trkpt lat="49.56865" lon="3.44886">
        <ele>239.5</ele>
        <time>2016-11-05T11:36:42.000Z</time>
      </trkpt>
      <trkpt lat="49.56867" lon="3.44886">
        <ele>239.4</ele>
        <time>2016-11-05T11:36:43.000Z</time>
      </trkpt>
      <trkpt lat="49.56876" lon="3.44887">
        <ele>238.9</ele>
        <time>2016-11-05T11:36:49.000Z</time>
      </trkpt>
      <trkpt lat="49.56877" lon="3.44887">
        <ele>239</ele>
        <time>2016-11-05T11:36:50.000Z</time>
      </trkpt>
      <trkpt lat="49.56885" lon="3.44887">
        <ele>238.9</ele>
        <time>2016-11-05T11:36:56.000Z</time>
      </trkpt>
      <trkpt lat="49.56887" lon="3.44887">
        <ele>239.1</ele>
        <time>2016-11-05T11:36:57.000Z</time>
      </trkpt>
      <trkpt lat="49.56893" lon="3.44891">
        <ele>238.7</ele>
        <time>2016-11-05T11:37:00.000Z</time>
      </trkpt>
      <trkpt lat="49.56896" lon="3.44893">
        <ele>238.3</ele>
        <time>2016-11-05T11:37:01.000Z</time>
      </trkpt>
      <trkpt lat="49.56904" lon="3.44893">
        <ele>238.2</ele>
        <time>2016-11-05T11:37:07.000Z</time>
      </trkpt>
      <trkpt lat="49.56905" lon="3.44893">
        <ele>238.3</ele>
        <time>2016-11-05T11:37:08.000Z</time>
      </trkpt>
      <trkpt lat="49.56911" lon="3.44901">
        <ele>238.6</ele>
        <time>2016-11-05T11:37:20.000Z</time>
      </trkpt>
      <trkpt lat="49.56912" lon="3.44902">
        <ele>238.6</ele>
        <time>2016-11-05T11:37:21.000Z</time>
      </trkpt>
      <trkpt lat="49.56919" lon="3.44904">
        <ele>239.1</ele>
        <time>2016-11-05T11:37:26.000Z</time>
      </trkpt>
      <trkpt lat="49.56923" lon="3.44903">
        <ele>240.3</ele>
        <time>2016-11-05T11:37:27.000Z</time>
      </trkpt>
      <trkpt lat="49.5693" lon="3.44906">
        <ele>240.5</ele>
        <time>2016-11-05T11:37:30.000Z</time>
      </trkpt>
      <trkpt lat="49.56934" lon="3.44907">
        <ele>239.8</ele>
        <time>2016-11-05T11:37:31.000Z</time>
      </trkpt>
      <trkpt lat="49.56941" lon="3.44906">
        <ele>237.3</ele>
        <time>2016-11-05T11:37:33.000Z</time>
      </trkpt>
      <trkpt lat="49.56945" lon="3.44908">
        <ele>236.1</ele>
        <time>2016-11-05T11:37:34.000Z</time>
      </trkpt>
      <trkpt lat="49.56952" lon="3.44911">
        <ele>234.2</ele>
        <time>2016-11-05T11:37:40.000Z</time>
      </trkpt>
      <trkpt lat="49.56953" lon="3.44911">
        <ele>234.3</ele>
        <time>2016-11-05T11:37:41.000Z</time>
      </trkpt>
      <trkpt lat="49.56953" lon="3.44911">
        <ele>234.6</ele>
        <time>2016-11-05T11:37:49.000Z</time>
      </trkpt>
      <trkpt lat="49.56956" lon="3.44914">
        <ele>233.7</ele>
        <time>2016-11-05T11:37:50.000Z</time>
      </trkpt>
      <trkpt lat="49.56963" lon="3.44918">
        <ele>232.6</ele>
        <time>2016-11-05T11:38:01.000Z</time>
      </trkpt>
      <trkpt lat="49.56964" lon="3.44921">
        <ele>232.5</ele>
        <time>2016-11-05T11:38:02.000Z</time>
      </trkpt>
      <trkpt lat="49.56969" lon="3.44932">
        <ele>231.9</ele>
        <time>2016-11-05T11:38:05.000Z</time>
      </trkpt>
      <trkpt lat="49.5697" lon="3.44934">
        <ele>231.8</ele>
        <time>2016-11-05T11:38:06.000Z</time>
      </trkpt>
      <trkpt lat="49.5697" lon="3.44947">
        <ele>233.1</ele>
        <time>2016-11-05T11:38:13.000Z</time>
      </trkpt>
      <trkpt lat="49.5697" lon="3.44949">
        <ele>233.4</ele>
        <time>2016-11-05T11:38:14.000Z</time>
      </trkpt>
      <trkpt lat="49.56967" lon="3.4496">
        <ele>235.5</ele>
        <time>2016-11-05T11:38:21.000Z</time>
      </trkpt>
      <trkpt lat="49.56967" lon="3.44962">
        <ele>235.6</ele>
        <time>2016-11-05T11:38:22.000Z</time>
      </trkpt>
      <trkpt lat="49.56976" lon="3.44962">
        <ele>224.9</ele>
        <time>2016-11-05T11:38:48.000Z</time>
      </trkpt>
      <trkpt lat="49.56977" lon="3.44961">
        <ele>225</ele>
        <time>2016-11-05T11:38:49.000Z</time>
      </trkpt>
      <trkpt lat="49.56983" lon="3.44953">
        <ele>225</ele>
        <time>2016-11-05T11:38:57.000Z</time>
      </trkpt>
      <trkpt lat="49.56984" lon="3.44952">
        <ele>224.9</ele>
        <time>2016-11-05T11:38:58.000Z</time>
      </trkpt>
      <trkpt lat="49.56992" lon="3.44947">
        <ele>225.7</ele>
        <time>2016-11-05T11:39:04.000Z</time>
      </trkpt>
      <trkpt lat="49.56993" lon="3.44947">
        <ele>225.9</ele>
        <time>2016-11-05T11:39:05.000Z</time>
      </trkpt>
      <trkpt lat="49.57001" lon="3.44941">
        <ele>226.5</ele>
        <time>2016-11-05T11:39:11.000Z</time>
      </trkpt>
      <trkpt lat="49.57002" lon="3.4494">
        <ele>226.7</ele>
        <time>2016-11-05T11:39:12.000Z</time>
      </trkpt>
      <trkpt lat="49.5701" lon="3.44939">
        <ele>227.5</ele>
        <time>2016-11-05T11:39:17.000Z</time>
      </trkpt>
      <trkpt lat="49.57012" lon="3.4494">
        <ele>227.6</ele>
        <time>2016-11-05T11:39:18.000Z</time>
      </trkpt>
      <trkpt lat="49.57019" lon="3.44946">
        <ele>228</ele>
        <time>2016-11-05T11:39:22.000Z</time>
      </trkpt>
      <trkpt lat="49.57021" lon="3.44947">
        <ele>227.9</ele>
        <time>2016-11-05T11:39:23.000Z</time>
      </trkpt>
      <trkpt lat="49.57027" lon="3.44954">
        <ele>227.9</ele>
        <time>2016-11-05T11:39:27.000Z</time>
      </trkpt>
      <trkpt lat="49.57028" lon="3.44954">
        <ele>227.9</ele>
        <time>2016-11-05T11:39:28.000Z</time>
      </trkpt>
      <trkpt lat="49.57035" lon="3.44961">
        <ele>228.2</ele>
        <time>2016-11-05T11:39:33.000Z</time>
      </trkpt>
      <trkpt lat="49.57036" lon="3.44963">
        <ele>228.2</ele>
        <time>2016-11-05T11:39:34.000Z</time>
      </trkpt>
      <trkpt lat="49.57041" lon="3.44971">
        <ele>227.6</ele>
        <time>2016-11-05T11:39:38.000Z</time>
      </trkpt>
      <trkpt lat="49.57043" lon="3.44974">
        <ele>227.3</ele>
        <time>2016-11-05T11:39:39.000Z</time>
      </trkpt>
      <trkpt lat="49.57046" lon="3.44983">
        <ele>226.8</ele>
        <time>2016-11-05T11:39:43.000Z</time>
      </trkpt>
      <trkpt lat="49.57048" lon="3.44985">
        <ele>226.2</ele>
        <time>2016-11-05T11:39:44.000Z</time>
      </trkpt>
      <trkpt lat="49.57051" lon="3.44997">
        <ele>222.7</ele>
        <time>2016-11-05T11:39:49.000Z</time>
      </trkpt>
      <trkpt lat="49.57052" lon="3.44998">
        <ele>222</ele>
        <time>2016-11-05T11:39:50.000Z</time>
      </trkpt>
      <trkpt lat="49.57057" lon="3.45008">
        <ele>219.6</ele>
        <time>2016-11-05T11:39:58.000Z</time>
      </trkpt>
      <trkpt lat="49.57058" lon="3.45009">
        <ele>219.6</ele>
        <time>2016-11-05T11:39:59.000Z</time>
      </trkpt>
      <trkpt lat="49.57064" lon="3.45015">
        <ele>219.4</ele>
        <time>2016-11-05T11:40:03.000Z</time>
      </trkpt>
      <trkpt lat="49.57066" lon="3.45017">
        <ele>219.4</ele>
        <time>2016-11-05T11:40:04.000Z</time>
      </trkpt>
      <trkpt lat="49.57071" lon="3.45026">
        <ele>219.3</ele>
        <time>2016-11-05T11:40:08.000Z</time>
      </trkpt>
      <trkpt lat="49.57073" lon="3.45028">
        <ele>219.2</ele>
        <time>2016-11-05T11:40:09.000Z</time>
      </trkpt>
      <trkpt lat="49.57079" lon="3.45035">
        <ele>217.9</ele>
        <time>2016-11-05T11:40:13.000Z</time>
      </trkpt>
      <trkpt lat="49.5708" lon="3.45036">
        <ele>218.1</ele>
        <time>2016-11-05T11:40:14.000Z</time>
      </trkpt>
      <trkpt lat="49.57087" lon="3.45042">
        <ele>219.6</ele>
        <time>2016-11-05T11:40:20.000Z</time>
      </trkpt>
      <trkpt lat="49.57088" lon="3.45044">
        <ele>219.8</ele>
        <time>2016-11-05T11:40:21.000Z</time>
      </trkpt>
      <trkpt lat="49.57096" lon="3.45048">
        <ele>221.7</ele>
        <time>2016-11-05T11:40:26.000Z</time>
      </trkpt>
      <trkpt lat="49.57097" lon="3.45049">
        <ele>221.8</ele>
        <time>2016-11-05T11:40:27.000Z</time>
      </trkpt>
      <trkpt lat="49.57103" lon="3.45054">
        <ele>222.7</ele>
        <time>2016-11-05T11:40:35.000Z</time>
      </trkpt>
      <trkpt lat="49.57106" lon="3.45054">
        <ele>222.3</ele>
        <time>2016-11-05T11:40:36.000Z</time>
      </trkpt>
      <trkpt lat="49.57113" lon="3.45056">
        <ele>221.2</ele>
        <time>2016-11-05T11:40:40.000Z</time>
      </trkpt>
      <trkpt lat="49.57115" lon="3.45057">
        <ele>221.3</ele>
        <time>2016-11-05T11:40:41.000Z</time>
      </trkpt>
      <trkpt lat="49.57123" lon="3.4506">
        <ele>221.5</ele>
        <time>2016-11-05T11:40:46.000Z</time>
      </trkpt>
      <trkpt lat="49.57124" lon="3.4506">
        <ele>221.9</ele>
        <time>2016-11-05T11:40:47.000Z</time>
      </trkpt>
      <trkpt lat="49.57132" lon="3.45065">
        <ele>224.6</ele>
        <time>2016-11-05T11:40:52.000Z</time>
      </trkpt>
      <trkpt lat="49.57133" lon="3.45066">
        <ele>225</ele>
        <time>2016-11-05T11:40:53.000Z</time>
      </trkpt>
      <trkpt lat="49.5714" lon="3.45069">
        <ele>225.9</ele>
        <time>2016-11-05T11:40:57.000Z</time>
      </trkpt>
      <trkpt lat="49.57142" lon="3.45071">
        <ele>226.2</ele>
        <time>2016-11-05T11:40:58.000Z</time>
      </trkpt>
      <trkpt lat="49.57149" lon="3.45077">
        <ele>227.2</ele>
        <time>2016-11-05T11:41:02.000Z</time>
      </trkpt>
      <trkpt lat="49.5715" lon="3.45077">
        <ele>227.4</ele>
        <time>2016-11-05T11:41:03.000Z</time>
      </trkpt>
      <trkpt lat="49.57158" lon="3.45083">
        <ele>228</ele>
        <time>2016-11-05T11:41:09.000Z</time>
      </trkpt>
      <trkpt lat="49.57159" lon="3.45084">
        <ele>228</ele>
        <time>2016-11-05T11:41:10.000Z</time>
      </trkpt>
      <trkpt lat="49.57167" lon="3.45087">
        <ele>226.1</ele>
        <time>2016-11-05T11:41:14.000Z</time>
      </trkpt>
      <trkpt lat="49.57169" lon="3.45088">
        <ele>225.7</ele>
        <time>2016-11-05T11:41:15.000Z</time>
      </trkpt>
      <trkpt lat="49.57177" lon="3.45094">
        <ele>225.4</ele>
        <time>2016-11-05T11:41:20.000Z</time>
      </trkpt>
      <trkpt lat="49.57178" lon="3.45095">
        <ele>225.4</ele>
        <time>2016-11-05T11:41:21.000Z</time>
      </trkpt>
      <trkpt lat="49.57187" lon="3.45098">
        <ele>226.2</ele>
        <time>2016-11-05T11:41:27.000Z</time>
      </trkpt>
      <trkpt lat="49.57188" lon="3.45098">
        <ele>226.1</ele>
        <time>2016-11-05T11:41:28.000Z</time>
      </trkpt>
      <trkpt lat="49.57196" lon="3.45097">
        <ele>227.4</ele>
        <time>2016-11-05T11:41:34.000Z</time>
      </trkpt>
      <trkpt lat="49.57197" lon="3.45097">
        <ele>227.3</ele>
        <time>2016-11-05T11:41:35.000Z</time>
      </trkpt>
      <trkpt lat="49.57204" lon="3.45099">
        <ele>226.6</ele>
        <time>2016-11-05T11:41:40.000Z</time>
      </trkpt>
      <trkpt lat="49.57206" lon="3.45099">
        <ele>226.5</ele>
        <time>2016-11-05T11:41:41.000Z</time>
      </trkpt>
      <trkpt lat="49.57213" lon="3.45103">
        <ele>224.2</ele>
        <time>2016-11-05T11:41:47.000Z</time>
      </trkpt>
      <trkpt lat="49.57215" lon="3.45104">
        <ele>223.8</ele>
        <time>2016-11-05T11:41:48.000Z</time>
      </trkpt>
      <trkpt lat="49.57224" lon="3.45103">
        <ele>223.7</ele>
        <time>2016-11-05T11:41:52.000Z</time>
      </trkpt>
      <trkpt lat="49.57225" lon="3.45103">
        <ele>223.9</ele>
        <time>2016-11-05T11:41:53.000Z</time>
      </trkpt>
      <trkpt lat="49.57233" lon="3.45101">
        <ele>224.8</ele>
        <time>2016-11-05T11:41:59.000Z</time>
      </trkpt>
      <trkpt lat="49.57235" lon="3.45101">
        <ele>224.3</ele>
        <time>2016-11-05T11:42:00.000Z</time>
      </trkpt>
      <trkpt lat="49.57243" lon="3.45102">
        <ele>223.3</ele>
        <time>2016-11-05T11:42:05.000Z</time>
      </trkpt>
      <trkpt lat="49.57245" lon="3.45103">
        <ele>222.7</ele>
        <time>2016-11-05T11:42:06.000Z</time>
      </trkpt>
      <trkpt lat="49.57252" lon="3.45107">
        <ele>222.5</ele>
        <time>2016-11-05T11:42:11.000Z</time>
      </trkpt>
      <trkpt lat="49.57254" lon="3.45108">
        <ele>222.5</ele>
        <time>2016-11-05T11:42:12.000Z</time>
      </trkpt>
      <trkpt lat="49.5726" lon="3.45114">
        <ele>222.5</ele>
        <time>2016-11-05T11:42:16.000Z</time>
      </trkpt>
      <trkpt lat="49.57262" lon="3.45115">
        <ele>222.4</ele>
        <time>2016-11-05T11:42:17.000Z</time>
      </trkpt>
      <trkpt lat="49.5727" lon="3.45119">
        <ele>223.4</ele>
        <time>2016-11-05T11:42:23.000Z</time>
      </trkpt>
      <trkpt lat="49.57272" lon="3.45119">
        <ele>223.9</ele>
        <time>2016-11-05T11:42:24.000Z</time>
      </trkpt>
      <trkpt lat="49.57279" lon="3.45125">
        <ele>225.7</ele>
        <time>2016-11-05T11:42:31.000Z</time>
      </trkpt>
      <trkpt lat="49.57281" lon="3.45126">
        <ele>226</ele>
        <time>2016-11-05T11:42:32.000Z</time>
      </trkpt>
      <trkpt lat="49.57288" lon="3.4513">
        <ele>226.7</ele>
        <time>2016-11-05T11:42:36.000Z</time>
      </trkpt>
      <trkpt lat="49.5729" lon="3.45131">
        <ele>226.6</ele>
        <time>2016-11-05T11:42:37.000Z</time>
      </trkpt>
      <trkpt lat="49.57297" lon="3.45138">
        <ele>227.7</ele>
        <time>2016-11-05T11:42:44.000Z</time>
      </trkpt>
      <trkpt lat="49.57298" lon="3.45139">
        <ele>227.8</ele>
        <time>2016-11-05T11:42:45.000Z</time>
      </trkpt>
      <trkpt lat="49.57302" lon="3.45146">
        <ele>223.3</ele>
        <time>2016-11-05T11:42:57.000Z</time>
      </trkpt>
      <trkpt lat="49.57302" lon="3.45147">
        <ele>223.4</ele>
        <time>2016-11-05T11:42:58.000Z</time>
      </trkpt>
      <trkpt lat="49.57303" lon="3.45148">
        <ele>223.2</ele>
        <time>2016-11-05T11:43:04.000Z</time>
      </trkpt>
      <trkpt lat="49.57303" lon="3.45152">
        <ele>223.8</ele>
        <time>2016-11-05T11:43:05.000Z</time>
      </trkpt>
      <trkpt lat="49.57303" lon="3.45152">
        <ele>223.8</ele>
        <time>2016-11-05T11:43:06.000Z</time>
      </trkpt>
      <trkpt lat="49.57303" lon="3.45153">
        <ele>223.7</ele>
        <time>2016-11-05T11:43:07.000Z</time>
      </trkpt>
      <trkpt lat="49.57303" lon="3.45155">
        <ele>223.4</ele>
        <time>2016-11-05T11:43:45.000Z</time>
      </trkpt>
      <trkpt lat="49.57302" lon="3.45157">
        <ele>225.9</ele>
        <time>2016-11-05T11:43:46.000Z</time>
      </trkpt>
      <trkpt lat="49.57299" lon="3.45149">
        <ele>225.1</ele>
        <time>2016-11-05T11:43:50.000Z</time>
      </trkpt>
      <trkpt lat="49.57299" lon="3.45147">
        <ele>224.7</ele>
        <time>2016-11-05T11:43:51.000Z</time>
      </trkpt>
      <trkpt lat="49.57299" lon="3.45148">
        <ele>224.7</ele>
        <time>2016-11-05T11:44:04.000Z</time>
      </trkpt>
      <trkpt lat="49.57293" lon="3.45146">
        <ele>223.9</ele>
        <time>2016-11-05T11:44:05.000Z</time>
      </trkpt>
      <trkpt lat="49.57293" lon="3.45146">
        <ele>224</ele>
        <time>2016-11-05T11:44:06.000Z</time>
      </trkpt>
      <trkpt lat="49.57293" lon="3.45147">
        <ele>223.9</ele>
        <time>2016-11-05T11:44:07.000Z</time>
      </trkpt>
      <trkpt lat="49.57293" lon="3.45147">
        <ele>223.8</ele>
        <time>2016-11-05T11:44:11.000Z</time>
      </trkpt>
      <trkpt lat="49.57294" lon="3.45147">
        <ele>223.3</ele>
        <time>2016-11-05T11:44:12.000Z</time>
      </trkpt>
      <trkpt lat="49.57292" lon="3.45147">
        <ele>222.2</ele>
        <time>2016-11-05T11:44:16.000Z</time>
      </trkpt>
      <trkpt lat="49.57292" lon="3.45147">
        <ele>221.4</ele>
        <time>2016-11-05T11:44:17.000Z</time>
      </trkpt>
      <trkpt lat="49.57291" lon="3.45147">
        <ele>221.1</ele>
        <time>2016-11-05T11:44:49.000Z</time>
      </trkpt>
      <trkpt lat="49.57289" lon="3.45148">
        <ele>222.5</ele>
        <time>2016-11-05T11:44:50.000Z</time>
      </trkpt>
      <trkpt lat="49.57289" lon="3.45146">
        <ele>222.9</ele>
        <time>2016-11-05T11:45:01.000Z</time>
      </trkpt>
      <trkpt lat="49.5729" lon="3.45145">
        <ele>222.8</ele>
        <time>2016-11-05T11:45:02.000Z</time>
      </trkpt>
      <trkpt lat="49.5729" lon="3.45144">
        <ele>223</ele>
        <time>2016-11-05T11:46:12.000Z</time>
      </trkpt>
      <trkpt lat="49.57295" lon="3.45152">
        <ele>228.9</ele>
        <time>2016-11-05T11:46:13.000Z</time>
      </trkpt>
      <trkpt lat="49.57297" lon="3.45152">
        <ele>229</ele>
        <time>2016-11-05T11:46:17.000Z</time>
      </trkpt>
      <trkpt lat="49.57297" lon="3.45152">
        <ele>228.9</ele>
        <time>2016-11-05T11:46:18.000Z</time>
      </trkpt>
      <trkpt lat="49.57298" lon="3.45152">
        <ele>229</ele>
        <time>2016-11-05T11:46:19.000Z</time>
      </trkpt>
      <trkpt lat="49.57301" lon="3.45155">
        <ele>229.9</ele>
        <time>2016-11-05T11:46:24.000Z</time>
      </trkpt>
      <trkpt lat="49.57301" lon="3.45154">
        <ele>230.1</ele>
        <time>2016-11-05T11:46:25.000Z</time>
      </trkpt>
      <trkpt lat="49.57301" lon="3.45155">
        <ele>230.2</ele>
        <time>2016-11-05T11:46:26.000Z</time>
      </trkpt>
      <trkpt lat="49.57301" lon="3.45155">
        <ele>230.4</ele>
        <time>2016-11-05T11:46:34.843Z</time>
      </trkpt>
    </trkseg>
  </trk>
</gpx>